<?xml version="1.0" encoding="UTF-8" standalone="no" ?>
<gpx xmlns="http://www.topografix.com/GPX/1/1" xmlns:xsi="http://www.w3.org/2001/XMLSchema-instance" xsi:schemaLocation="http://www.topografix.com/GPX/1/1 http://www.topografix.com/GPX/1/1/gpx.xsd" version="1.1" creator="VisuGPX - https://www.visugpx.com">
  <metadata>
    <name>07 - Alboussière : 2021-03-27</name>
  </metadata>
  <trk>
    <name><![CDATA[07 - Alboussière : 2021-03-27_1]]></name>
    <trkseg>
      <trkpt lat="44.94399" lon="4.72978">
        <ele>536.8</ele>
        <time>2021-03-27T07:39:33Z</time>
      </trkpt>
      <trkpt lat="44.94399" lon="4.72988">
        <ele>535.6</ele>
        <time>2021-03-27T07:39:37Z</time>
      </trkpt>
      <trkpt lat="44.94407" lon="4.73001">
        <ele>535.8</ele>
        <time>2021-03-27T07:39:41Z</time>
      </trkpt>
      <trkpt lat="44.94415" lon="4.73014">
        <ele>536.4</ele>
        <time>2021-03-27T07:39:45Z</time>
      </trkpt>
      <trkpt lat="44.94425" lon="4.73029">
        <ele>536</ele>
        <time>2021-03-27T07:39:49Z</time>
      </trkpt>
      <trkpt lat="44.94432" lon="4.73045">
        <ele>536.2</ele>
        <time>2021-03-27T07:39:53Z</time>
      </trkpt>
      <trkpt lat="44.94438" lon="4.73061">
        <ele>536.2</ele>
        <time>2021-03-27T07:39:57Z</time>
      </trkpt>
      <trkpt lat="44.94445" lon="4.73066">
        <ele>537.4</ele>
        <time>2021-03-27T07:40:01Z</time>
      </trkpt>
      <trkpt lat="44.94453" lon="4.73058">
        <ele>536</ele>
        <time>2021-03-27T07:40:08Z</time>
      </trkpt>
      <trkpt lat="44.94459" lon="4.73041">
        <ele>536.2</ele>
        <time>2021-03-27T07:40:12Z</time>
      </trkpt>
      <trkpt lat="44.94465" lon="4.73025">
        <ele>536.6</ele>
        <time>2021-03-27T07:40:16Z</time>
      </trkpt>
      <trkpt lat="44.9447" lon="4.73006">
        <ele>536.6</ele>
        <time>2021-03-27T07:40:20Z</time>
      </trkpt>
      <trkpt lat="44.94475" lon="4.72988">
        <ele>538.2</ele>
        <time>2021-03-27T07:40:24Z</time>
      </trkpt>
      <trkpt lat="44.94475" lon="4.72972">
        <ele>538.6</ele>
        <time>2021-03-27T07:40:28Z</time>
      </trkpt>
      <trkpt lat="44.94468" lon="4.72955">
        <ele>539</ele>
        <time>2021-03-27T07:40:32Z</time>
      </trkpt>
      <trkpt lat="44.94457" lon="4.72941">
        <ele>540</ele>
        <time>2021-03-27T07:40:36Z</time>
      </trkpt>
      <trkpt lat="44.94447" lon="4.72929">
        <ele>539.8</ele>
        <time>2021-03-27T07:40:40Z</time>
      </trkpt>
      <trkpt lat="44.94443" lon="4.72912">
        <ele>540.2</ele>
        <time>2021-03-27T07:40:44Z</time>
      </trkpt>
      <trkpt lat="44.94438" lon="4.72898">
        <ele>541</ele>
        <time>2021-03-27T07:40:48Z</time>
      </trkpt>
      <trkpt lat="44.9443" lon="4.7289">
        <ele>542.4</ele>
        <time>2021-03-27T07:40:52Z</time>
      </trkpt>
      <trkpt lat="44.94428" lon="4.72882">
        <ele>543.4</ele>
        <time>2021-03-27T07:40:56Z</time>
      </trkpt>
      <trkpt lat="44.94431" lon="4.72874">
        <ele>543</ele>
        <time>2021-03-27T07:41:00Z</time>
      </trkpt>
      <trkpt lat="44.94434" lon="4.72865">
        <ele>545.2</ele>
        <time>2021-03-27T07:41:04Z</time>
      </trkpt>
      <trkpt lat="44.94435" lon="4.72855">
        <ele>546.8</ele>
        <time>2021-03-27T07:41:08Z</time>
      </trkpt>
      <trkpt lat="44.9444" lon="4.72842">
        <ele>546.6</ele>
        <time>2021-03-27T07:41:12Z</time>
      </trkpt>
      <trkpt lat="44.94444" lon="4.72828">
        <ele>546.6</ele>
        <time>2021-03-27T07:41:16Z</time>
      </trkpt>
      <trkpt lat="44.94448" lon="4.72815">
        <ele>548</ele>
        <time>2021-03-27T07:41:20Z</time>
      </trkpt>
      <trkpt lat="44.94451" lon="4.72801">
        <ele>548.4</ele>
        <time>2021-03-27T07:41:24Z</time>
      </trkpt>
      <trkpt lat="44.94455" lon="4.72789">
        <ele>548.4</ele>
        <time>2021-03-27T07:41:28Z</time>
      </trkpt>
      <trkpt lat="44.94458" lon="4.72778">
        <ele>549</ele>
        <time>2021-03-27T07:41:32Z</time>
      </trkpt>
      <trkpt lat="44.94463" lon="4.72767">
        <ele>548.6</ele>
        <time>2021-03-27T07:41:36Z</time>
      </trkpt>
      <trkpt lat="44.94466" lon="4.72755">
        <ele>549.4</ele>
        <time>2021-03-27T07:41:40Z</time>
      </trkpt>
      <trkpt lat="44.94471" lon="4.72746">
        <ele>550</ele>
        <time>2021-03-27T07:41:44Z</time>
      </trkpt>
      <trkpt lat="44.94477" lon="4.72736">
        <ele>550</ele>
        <time>2021-03-27T07:41:48Z</time>
      </trkpt>
      <trkpt lat="44.94483" lon="4.72728">
        <ele>551.8</ele>
        <time>2021-03-27T07:41:52Z</time>
      </trkpt>
      <trkpt lat="44.94488" lon="4.72719">
        <ele>552.2</ele>
        <time>2021-03-27T07:41:56Z</time>
      </trkpt>
      <trkpt lat="44.94492" lon="4.7271">
        <ele>552.8</ele>
        <time>2021-03-27T07:42:00Z</time>
      </trkpt>
      <trkpt lat="44.94495" lon="4.72706">
        <ele>553.2</ele>
        <time>2021-03-27T07:42:04Z</time>
      </trkpt>
      <trkpt lat="44.94494" lon="4.72711">
        <ele>553.4</ele>
        <time>2021-03-27T07:42:08Z</time>
      </trkpt>
      <trkpt lat="44.94485" lon="4.72722">
        <ele>551.8</ele>
        <time>2021-03-27T07:42:12Z</time>
      </trkpt>
      <trkpt lat="44.9448" lon="4.72736">
        <ele>551</ele>
        <time>2021-03-27T07:42:16Z</time>
      </trkpt>
      <trkpt lat="44.94489" lon="4.72743">
        <ele>549.4</ele>
        <time>2021-03-27T07:42:20Z</time>
      </trkpt>
      <trkpt lat="44.945" lon="4.7275">
        <ele>549</ele>
        <time>2021-03-27T07:42:24Z</time>
      </trkpt>
      <trkpt lat="44.94511" lon="4.72755">
        <ele>549.4</ele>
        <time>2021-03-27T07:42:28Z</time>
      </trkpt>
      <trkpt lat="44.94523" lon="4.7276">
        <ele>550.6</ele>
        <time>2021-03-27T07:42:32Z</time>
      </trkpt>
      <trkpt lat="44.94535" lon="4.72765">
        <ele>550.6</ele>
        <time>2021-03-27T07:42:36Z</time>
      </trkpt>
      <trkpt lat="44.94549" lon="4.72766">
        <ele>551.2</ele>
        <time>2021-03-27T07:42:40Z</time>
      </trkpt>
      <trkpt lat="44.94561" lon="4.72765">
        <ele>551.2</ele>
        <time>2021-03-27T07:42:44Z</time>
      </trkpt>
      <trkpt lat="44.94575" lon="4.7276">
        <ele>550.8</ele>
        <time>2021-03-27T07:42:48Z</time>
      </trkpt>
      <trkpt lat="44.94588" lon="4.72754">
        <ele>552.2</ele>
        <time>2021-03-27T07:42:52Z</time>
      </trkpt>
      <trkpt lat="44.94601" lon="4.72747">
        <ele>552.2</ele>
        <time>2021-03-27T07:42:56Z</time>
      </trkpt>
      <trkpt lat="44.94614" lon="4.72739">
        <ele>553.2</ele>
        <time>2021-03-27T07:43:00Z</time>
      </trkpt>
      <trkpt lat="44.94627" lon="4.72732">
        <ele>553</ele>
        <time>2021-03-27T07:43:04Z</time>
      </trkpt>
      <trkpt lat="44.94639" lon="4.72725">
        <ele>553.8</ele>
        <time>2021-03-27T07:43:08Z</time>
      </trkpt>
      <trkpt lat="44.94651" lon="4.72717">
        <ele>553.8</ele>
        <time>2021-03-27T07:43:12Z</time>
      </trkpt>
      <trkpt lat="44.94664" lon="4.7271">
        <ele>554.6</ele>
        <time>2021-03-27T07:43:16Z</time>
      </trkpt>
      <trkpt lat="44.94676" lon="4.72703">
        <ele>555.4</ele>
        <time>2021-03-27T07:43:20Z</time>
      </trkpt>
      <trkpt lat="44.94688" lon="4.72697">
        <ele>555.4</ele>
        <time>2021-03-27T07:43:24Z</time>
      </trkpt>
      <trkpt lat="44.94701" lon="4.72692">
        <ele>555.4</ele>
        <time>2021-03-27T07:43:28Z</time>
      </trkpt>
      <trkpt lat="44.94714" lon="4.72686">
        <ele>555.6</ele>
        <time>2021-03-27T07:43:32Z</time>
      </trkpt>
      <trkpt lat="44.94727" lon="4.72682">
        <ele>556.6</ele>
        <time>2021-03-27T07:43:36Z</time>
      </trkpt>
      <trkpt lat="44.94741" lon="4.72679">
        <ele>556.4</ele>
        <time>2021-03-27T07:43:40Z</time>
      </trkpt>
      <trkpt lat="44.94754" lon="4.72675">
        <ele>556.8</ele>
        <time>2021-03-27T07:43:44Z</time>
      </trkpt>
      <trkpt lat="44.94766" lon="4.72672">
        <ele>557.6</ele>
        <time>2021-03-27T07:43:48Z</time>
      </trkpt>
      <trkpt lat="44.94778" lon="4.72669">
        <ele>557.2</ele>
        <time>2021-03-27T07:43:52Z</time>
      </trkpt>
      <trkpt lat="44.9479" lon="4.72663">
        <ele>557.6</ele>
        <time>2021-03-27T07:43:56Z</time>
      </trkpt>
      <trkpt lat="44.94802" lon="4.72654">
        <ele>557.6</ele>
        <time>2021-03-27T07:44:00Z</time>
      </trkpt>
      <trkpt lat="44.94813" lon="4.72643">
        <ele>559</ele>
        <time>2021-03-27T07:44:04Z</time>
      </trkpt>
      <trkpt lat="44.94822" lon="4.72629">
        <ele>559.8</ele>
        <time>2021-03-27T07:44:08Z</time>
      </trkpt>
      <trkpt lat="44.94829" lon="4.72615">
        <ele>560</ele>
        <time>2021-03-27T07:44:12Z</time>
      </trkpt>
      <trkpt lat="44.94838" lon="4.726">
        <ele>560.2</ele>
        <time>2021-03-27T07:44:16Z</time>
      </trkpt>
      <trkpt lat="44.94846" lon="4.72584">
        <ele>560.6</ele>
        <time>2021-03-27T07:44:20Z</time>
      </trkpt>
      <trkpt lat="44.94855" lon="4.72569">
        <ele>561</ele>
        <time>2021-03-27T07:44:24Z</time>
      </trkpt>
      <trkpt lat="44.94864" lon="4.72555">
        <ele>561.4</ele>
        <time>2021-03-27T07:44:28Z</time>
      </trkpt>
      <trkpt lat="44.94874" lon="4.72543">
        <ele>561.6</ele>
        <time>2021-03-27T07:44:32Z</time>
      </trkpt>
      <trkpt lat="44.94885" lon="4.72531">
        <ele>562</ele>
        <time>2021-03-27T07:44:36Z</time>
      </trkpt>
      <trkpt lat="44.94895" lon="4.7252">
        <ele>561.8</ele>
        <time>2021-03-27T07:44:40Z</time>
      </trkpt>
      <trkpt lat="44.94907" lon="4.72511">
        <ele>562.6</ele>
        <time>2021-03-27T07:44:44Z</time>
      </trkpt>
      <trkpt lat="44.9492" lon="4.72504">
        <ele>562.6</ele>
        <time>2021-03-27T07:44:48Z</time>
      </trkpt>
      <trkpt lat="44.94934" lon="4.72502">
        <ele>564</ele>
        <time>2021-03-27T07:44:52Z</time>
      </trkpt>
      <trkpt lat="44.94947" lon="4.72503">
        <ele>563.8</ele>
        <time>2021-03-27T07:44:56Z</time>
      </trkpt>
      <trkpt lat="44.9496" lon="4.72508">
        <ele>564.2</ele>
        <time>2021-03-27T07:45:00Z</time>
      </trkpt>
      <trkpt lat="44.94971" lon="4.72514">
        <ele>564.8</ele>
        <time>2021-03-27T07:45:04Z</time>
      </trkpt>
      <trkpt lat="44.94983" lon="4.72521">
        <ele>565.6</ele>
        <time>2021-03-27T07:45:08Z</time>
      </trkpt>
      <trkpt lat="44.94994" lon="4.72528">
        <ele>566.4</ele>
        <time>2021-03-27T07:45:12Z</time>
      </trkpt>
      <trkpt lat="44.95006" lon="4.72534">
        <ele>565.8</ele>
        <time>2021-03-27T07:45:16Z</time>
      </trkpt>
      <trkpt lat="44.95017" lon="4.7254">
        <ele>565.4</ele>
        <time>2021-03-27T07:45:20Z</time>
      </trkpt>
      <trkpt lat="44.95029" lon="4.72545">
        <ele>566</ele>
        <time>2021-03-27T07:45:24Z</time>
      </trkpt>
      <trkpt lat="44.95042" lon="4.72548">
        <ele>566.4</ele>
        <time>2021-03-27T07:45:28Z</time>
      </trkpt>
      <trkpt lat="44.95055" lon="4.72546">
        <ele>566.8</ele>
        <time>2021-03-27T07:45:32Z</time>
      </trkpt>
      <trkpt lat="44.95068" lon="4.72544">
        <ele>567.2</ele>
        <time>2021-03-27T07:45:36Z</time>
      </trkpt>
      <trkpt lat="44.9508" lon="4.72538">
        <ele>568</ele>
        <time>2021-03-27T07:45:40Z</time>
      </trkpt>
      <trkpt lat="44.95092" lon="4.72532">
        <ele>568.8</ele>
        <time>2021-03-27T07:45:44Z</time>
      </trkpt>
      <trkpt lat="44.95103" lon="4.72526">
        <ele>569.6</ele>
        <time>2021-03-27T07:45:48Z</time>
      </trkpt>
      <trkpt lat="44.95114" lon="4.7252">
        <ele>570</ele>
        <time>2021-03-27T07:45:52Z</time>
      </trkpt>
      <trkpt lat="44.95126" lon="4.72514">
        <ele>569.8</ele>
        <time>2021-03-27T07:45:56Z</time>
      </trkpt>
      <trkpt lat="44.95138" lon="4.72508">
        <ele>570</ele>
        <time>2021-03-27T07:46:00Z</time>
      </trkpt>
      <trkpt lat="44.9515" lon="4.72502">
        <ele>570.4</ele>
        <time>2021-03-27T07:46:04Z</time>
      </trkpt>
      <trkpt lat="44.95162" lon="4.72496">
        <ele>571.2</ele>
        <time>2021-03-27T07:46:08Z</time>
      </trkpt>
      <trkpt lat="44.95173" lon="4.72489">
        <ele>571.6</ele>
        <time>2021-03-27T07:46:12Z</time>
      </trkpt>
      <trkpt lat="44.95184" lon="4.7248">
        <ele>572.2</ele>
        <time>2021-03-27T07:46:16Z</time>
      </trkpt>
      <trkpt lat="44.95194" lon="4.72469">
        <ele>572.4</ele>
        <time>2021-03-27T07:46:20Z</time>
      </trkpt>
      <trkpt lat="44.95203" lon="4.72457">
        <ele>573</ele>
        <time>2021-03-27T07:46:24Z</time>
      </trkpt>
      <trkpt lat="44.95212" lon="4.72444">
        <ele>572.8</ele>
        <time>2021-03-27T07:46:28Z</time>
      </trkpt>
      <trkpt lat="44.9522" lon="4.7243">
        <ele>573.6</ele>
        <time>2021-03-27T07:46:32Z</time>
      </trkpt>
      <trkpt lat="44.95229" lon="4.72416">
        <ele>574</ele>
        <time>2021-03-27T07:46:36Z</time>
      </trkpt>
      <trkpt lat="44.95239" lon="4.72404">
        <ele>574</ele>
        <time>2021-03-27T07:46:40Z</time>
      </trkpt>
      <trkpt lat="44.9525" lon="4.72394">
        <ele>574.8</ele>
        <time>2021-03-27T07:46:44Z</time>
      </trkpt>
      <trkpt lat="44.95261" lon="4.72384">
        <ele>575.4</ele>
        <time>2021-03-27T07:46:48Z</time>
      </trkpt>
      <trkpt lat="44.95272" lon="4.72375">
        <ele>575.6</ele>
        <time>2021-03-27T07:46:52Z</time>
      </trkpt>
      <trkpt lat="44.95282" lon="4.72365">
        <ele>576.2</ele>
        <time>2021-03-27T07:46:56Z</time>
      </trkpt>
      <trkpt lat="44.95291" lon="4.72355">
        <ele>576.8</ele>
        <time>2021-03-27T07:47:00Z</time>
      </trkpt>
      <trkpt lat="44.95299" lon="4.72343">
        <ele>576.8</ele>
        <time>2021-03-27T07:47:04Z</time>
      </trkpt>
      <trkpt lat="44.95303" lon="4.72328">
        <ele>578</ele>
        <time>2021-03-27T07:47:08Z</time>
      </trkpt>
      <trkpt lat="44.95307" lon="4.7231">
        <ele>578.4</ele>
        <time>2021-03-27T07:47:12Z</time>
      </trkpt>
      <trkpt lat="44.95313" lon="4.72296">
        <ele>578.2</ele>
        <time>2021-03-27T07:47:16Z</time>
      </trkpt>
      <trkpt lat="44.95322" lon="4.7228">
        <ele>578.8</ele>
        <time>2021-03-27T07:47:20Z</time>
      </trkpt>
      <trkpt lat="44.95327" lon="4.72264">
        <ele>578.8</ele>
        <time>2021-03-27T07:47:24Z</time>
      </trkpt>
      <trkpt lat="44.95336" lon="4.72249">
        <ele>579.6</ele>
        <time>2021-03-27T07:47:28Z</time>
      </trkpt>
      <trkpt lat="44.95344" lon="4.72237">
        <ele>579.6</ele>
        <time>2021-03-27T07:47:32Z</time>
      </trkpt>
      <trkpt lat="44.95353" lon="4.72224">
        <ele>579.8</ele>
        <time>2021-03-27T07:47:36Z</time>
      </trkpt>
      <trkpt lat="44.9536" lon="4.72208">
        <ele>580.4</ele>
        <time>2021-03-27T07:47:40Z</time>
      </trkpt>
      <trkpt lat="44.95366" lon="4.72191">
        <ele>580.2</ele>
        <time>2021-03-27T07:47:44Z</time>
      </trkpt>
      <trkpt lat="44.95373" lon="4.72173">
        <ele>581.2</ele>
        <time>2021-03-27T07:47:48Z</time>
      </trkpt>
      <trkpt lat="44.95383" lon="4.72157">
        <ele>581.8</ele>
        <time>2021-03-27T07:47:52Z</time>
      </trkpt>
      <trkpt lat="44.95394" lon="4.72144">
        <ele>581.4</ele>
        <time>2021-03-27T07:47:56Z</time>
      </trkpt>
      <trkpt lat="44.95406" lon="4.72133">
        <ele>581.6</ele>
        <time>2021-03-27T07:48:00Z</time>
      </trkpt>
      <trkpt lat="44.95417" lon="4.72122">
        <ele>582.4</ele>
        <time>2021-03-27T07:48:04Z</time>
      </trkpt>
      <trkpt lat="44.95427" lon="4.72109">
        <ele>583.4</ele>
        <time>2021-03-27T07:48:08Z</time>
      </trkpt>
      <trkpt lat="44.95437" lon="4.72096">
        <ele>583.8</ele>
        <time>2021-03-27T07:48:12Z</time>
      </trkpt>
      <trkpt lat="44.95448" lon="4.72085">
        <ele>584</ele>
        <time>2021-03-27T07:48:16Z</time>
      </trkpt>
      <trkpt lat="44.9546" lon="4.72076">
        <ele>584.2</ele>
        <time>2021-03-27T07:48:20Z</time>
      </trkpt>
      <trkpt lat="44.95473" lon="4.7207">
        <ele>584.6</ele>
        <time>2021-03-27T07:48:24Z</time>
      </trkpt>
      <trkpt lat="44.95485" lon="4.72064">
        <ele>584.8</ele>
        <time>2021-03-27T07:48:28Z</time>
      </trkpt>
      <trkpt lat="44.95499" lon="4.72058">
        <ele>586.4</ele>
        <time>2021-03-27T07:48:32Z</time>
      </trkpt>
      <trkpt lat="44.95511" lon="4.72053">
        <ele>587</ele>
        <time>2021-03-27T07:48:36Z</time>
      </trkpt>
      <trkpt lat="44.95519" lon="4.7204">
        <ele>586.6</ele>
        <time>2021-03-27T07:49:59Z</time>
      </trkpt>
      <trkpt lat="44.95525" lon="4.72025">
        <ele>586.6</ele>
        <time>2021-03-27T07:50:03Z</time>
      </trkpt>
      <trkpt lat="44.95533" lon="4.72007">
        <ele>585.6</ele>
        <time>2021-03-27T07:50:07Z</time>
      </trkpt>
      <trkpt lat="44.95541" lon="4.71986">
        <ele>585.2</ele>
        <time>2021-03-27T07:50:11Z</time>
      </trkpt>
      <trkpt lat="44.9555" lon="4.71967">
        <ele>585</ele>
        <time>2021-03-27T07:50:15Z</time>
      </trkpt>
      <trkpt lat="44.9556" lon="4.71953">
        <ele>584.6</ele>
        <time>2021-03-27T07:50:19Z</time>
      </trkpt>
      <trkpt lat="44.95573" lon="4.71938">
        <ele>583</ele>
        <time>2021-03-27T07:50:23Z</time>
      </trkpt>
      <trkpt lat="44.95586" lon="4.71922">
        <ele>582.6</ele>
        <time>2021-03-27T07:50:27Z</time>
      </trkpt>
      <trkpt lat="44.95604" lon="4.71903">
        <ele>582.6</ele>
        <time>2021-03-27T07:50:31Z</time>
      </trkpt>
      <trkpt lat="44.95623" lon="4.71885">
        <ele>582.2</ele>
        <time>2021-03-27T07:50:35Z</time>
      </trkpt>
      <trkpt lat="44.95642" lon="4.71868">
        <ele>581.2</ele>
        <time>2021-03-27T07:50:39Z</time>
      </trkpt>
      <trkpt lat="44.95659" lon="4.71848">
        <ele>580.8</ele>
        <time>2021-03-27T07:50:43Z</time>
      </trkpt>
      <trkpt lat="44.95663" lon="4.71821">
        <ele>580.2</ele>
        <time>2021-03-27T07:50:47Z</time>
      </trkpt>
      <trkpt lat="44.95654" lon="4.71799">
        <ele>579.6</ele>
        <time>2021-03-27T07:50:51Z</time>
      </trkpt>
      <trkpt lat="44.95635" lon="4.71783">
        <ele>579.6</ele>
        <time>2021-03-27T07:50:55Z</time>
      </trkpt>
      <trkpt lat="44.95615" lon="4.71771">
        <ele>578</ele>
        <time>2021-03-27T07:50:59Z</time>
      </trkpt>
      <trkpt lat="44.95594" lon="4.71757">
        <ele>576.8</ele>
        <time>2021-03-27T07:51:03Z</time>
      </trkpt>
      <trkpt lat="44.95573" lon="4.71741">
        <ele>575.6</ele>
        <time>2021-03-27T07:51:07Z</time>
      </trkpt>
      <trkpt lat="44.95552" lon="4.71725">
        <ele>575.2</ele>
        <time>2021-03-27T07:51:11Z</time>
      </trkpt>
      <trkpt lat="44.95531" lon="4.71705">
        <ele>575</ele>
        <time>2021-03-27T07:51:15Z</time>
      </trkpt>
      <trkpt lat="44.95513" lon="4.71681">
        <ele>574.4</ele>
        <time>2021-03-27T07:51:19Z</time>
      </trkpt>
      <trkpt lat="44.95495" lon="4.71659">
        <ele>572.8</ele>
        <time>2021-03-27T07:51:23Z</time>
      </trkpt>
      <trkpt lat="44.95473" lon="4.7164">
        <ele>571.6</ele>
        <time>2021-03-27T07:51:27Z</time>
      </trkpt>
      <trkpt lat="44.95456" lon="4.7163">
        <ele>571.8</ele>
        <time>2021-03-27T07:51:31Z</time>
      </trkpt>
      <trkpt lat="44.9545" lon="4.71608">
        <ele>569.2</ele>
        <time>2021-03-27T07:51:35Z</time>
      </trkpt>
      <trkpt lat="44.95449" lon="4.7158">
        <ele>568.4</ele>
        <time>2021-03-27T07:51:39Z</time>
      </trkpt>
      <trkpt lat="44.95447" lon="4.71548">
        <ele>568</ele>
        <time>2021-03-27T07:51:43Z</time>
      </trkpt>
      <trkpt lat="44.95435" lon="4.71506">
        <ele>567.8</ele>
        <time>2021-03-27T07:51:47Z</time>
      </trkpt>
      <trkpt lat="44.9542" lon="4.71462">
        <ele>567.4</ele>
        <time>2021-03-27T07:51:51Z</time>
      </trkpt>
      <trkpt lat="44.95413" lon="4.71418">
        <ele>566.6</ele>
        <time>2021-03-27T07:51:55Z</time>
      </trkpt>
      <trkpt lat="44.95413" lon="4.7138">
        <ele>565.4</ele>
        <time>2021-03-27T07:51:59Z</time>
      </trkpt>
      <trkpt lat="44.95409" lon="4.71341">
        <ele>565.2</ele>
        <time>2021-03-27T07:52:03Z</time>
      </trkpt>
      <trkpt lat="44.95397" lon="4.71302">
        <ele>563.4</ele>
        <time>2021-03-27T07:52:07Z</time>
      </trkpt>
      <trkpt lat="44.95379" lon="4.7127">
        <ele>563.2</ele>
        <time>2021-03-27T07:52:11Z</time>
      </trkpt>
      <trkpt lat="44.95362" lon="4.71247">
        <ele>562.4</ele>
        <time>2021-03-27T07:52:15Z</time>
      </trkpt>
      <trkpt lat="44.95343" lon="4.71217">
        <ele>560</ele>
        <time>2021-03-27T07:52:19Z</time>
      </trkpt>
      <trkpt lat="44.95335" lon="4.71178">
        <ele>560.2</ele>
        <time>2021-03-27T07:52:23Z</time>
      </trkpt>
      <trkpt lat="44.95337" lon="4.71139">
        <ele>558.6</ele>
        <time>2021-03-27T07:52:27Z</time>
      </trkpt>
      <trkpt lat="44.95341" lon="4.71104">
        <ele>559.2</ele>
        <time>2021-03-27T07:52:31Z</time>
      </trkpt>
      <trkpt lat="44.95339" lon="4.71072">
        <ele>558.2</ele>
        <time>2021-03-27T07:52:35Z</time>
      </trkpt>
      <trkpt lat="44.95325" lon="4.71042">
        <ele>558</ele>
        <time>2021-03-27T07:52:39Z</time>
      </trkpt>
      <trkpt lat="44.95324" lon="4.71006">
        <ele>556</ele>
        <time>2021-03-27T07:52:43Z</time>
      </trkpt>
      <trkpt lat="44.95329" lon="4.7097">
        <ele>557.4</ele>
        <time>2021-03-27T07:52:47Z</time>
      </trkpt>
      <trkpt lat="44.95325" lon="4.7093">
        <ele>554.8</ele>
        <time>2021-03-27T07:52:51Z</time>
      </trkpt>
      <trkpt lat="44.95331" lon="4.70893">
        <ele>554</ele>
        <time>2021-03-27T07:52:55Z</time>
      </trkpt>
      <trkpt lat="44.95354" lon="4.70882">
        <ele>553.2</ele>
        <time>2021-03-27T07:52:59Z</time>
      </trkpt>
      <trkpt lat="44.95365" lon="4.70896">
        <ele>555.4</ele>
        <time>2021-03-27T07:53:03Z</time>
      </trkpt>
      <trkpt lat="44.95375" lon="4.70918">
        <ele>555.4</ele>
        <time>2021-03-27T07:53:07Z</time>
      </trkpt>
      <trkpt lat="44.95378" lon="4.70939">
        <ele>555</ele>
        <time>2021-03-27T07:53:11Z</time>
      </trkpt>
      <trkpt lat="44.95383" lon="4.70961">
        <ele>554.8</ele>
        <time>2021-03-27T07:53:15Z</time>
      </trkpt>
      <trkpt lat="44.95396" lon="4.70976">
        <ele>555.6</ele>
        <time>2021-03-27T07:53:19Z</time>
      </trkpt>
      <trkpt lat="44.95409" lon="4.7099">
        <ele>555.4</ele>
        <time>2021-03-27T07:53:23Z</time>
      </trkpt>
      <trkpt lat="44.95422" lon="4.71001">
        <ele>554.8</ele>
        <time>2021-03-27T07:53:27Z</time>
      </trkpt>
      <trkpt lat="44.95436" lon="4.71014">
        <ele>555.8</ele>
        <time>2021-03-27T07:53:31Z</time>
      </trkpt>
      <trkpt lat="44.9545" lon="4.71026">
        <ele>556</ele>
        <time>2021-03-27T07:53:35Z</time>
      </trkpt>
      <trkpt lat="44.95465" lon="4.7104">
        <ele>557.2</ele>
        <time>2021-03-27T07:53:39Z</time>
      </trkpt>
      <trkpt lat="44.9548" lon="4.71054">
        <ele>557</ele>
        <time>2021-03-27T07:53:43Z</time>
      </trkpt>
      <trkpt lat="44.95496" lon="4.71065">
        <ele>556.8</ele>
        <time>2021-03-27T07:53:47Z</time>
      </trkpt>
      <trkpt lat="44.95511" lon="4.71072">
        <ele>556.8</ele>
        <time>2021-03-27T07:53:51Z</time>
      </trkpt>
      <trkpt lat="44.95526" lon="4.71081">
        <ele>557.2</ele>
        <time>2021-03-27T07:53:55Z</time>
      </trkpt>
      <trkpt lat="44.95541" lon="4.71091">
        <ele>557</ele>
        <time>2021-03-27T07:53:59Z</time>
      </trkpt>
      <trkpt lat="44.95556" lon="4.71106">
        <ele>558</ele>
        <time>2021-03-27T07:54:03Z</time>
      </trkpt>
      <trkpt lat="44.95571" lon="4.71121">
        <ele>557.6</ele>
        <time>2021-03-27T07:54:07Z</time>
      </trkpt>
      <trkpt lat="44.95586" lon="4.71133">
        <ele>557.4</ele>
        <time>2021-03-27T07:54:11Z</time>
      </trkpt>
      <trkpt lat="44.95601" lon="4.71142">
        <ele>557.6</ele>
        <time>2021-03-27T07:54:15Z</time>
      </trkpt>
      <trkpt lat="44.95613" lon="4.71153">
        <ele>557.8</ele>
        <time>2021-03-27T07:54:19Z</time>
      </trkpt>
      <trkpt lat="44.95629" lon="4.71163">
        <ele>557.6</ele>
        <time>2021-03-27T07:54:23Z</time>
      </trkpt>
      <trkpt lat="44.95646" lon="4.7117">
        <ele>557.2</ele>
        <time>2021-03-27T07:54:27Z</time>
      </trkpt>
      <trkpt lat="44.95663" lon="4.71176">
        <ele>557.6</ele>
        <time>2021-03-27T07:54:31Z</time>
      </trkpt>
      <trkpt lat="44.95681" lon="4.71185">
        <ele>559</ele>
        <time>2021-03-27T07:54:35Z</time>
      </trkpt>
      <trkpt lat="44.95698" lon="4.712">
        <ele>558.8</ele>
        <time>2021-03-27T07:54:39Z</time>
      </trkpt>
      <trkpt lat="44.95715" lon="4.71215">
        <ele>558</ele>
        <time>2021-03-27T07:54:43Z</time>
      </trkpt>
      <trkpt lat="44.95732" lon="4.71229">
        <ele>556.4</ele>
        <time>2021-03-27T07:54:47Z</time>
      </trkpt>
      <trkpt lat="44.9575" lon="4.71237">
        <ele>555.2</ele>
        <time>2021-03-27T07:54:51Z</time>
      </trkpt>
      <trkpt lat="44.95769" lon="4.71235">
        <ele>556</ele>
        <time>2021-03-27T07:54:55Z</time>
      </trkpt>
      <trkpt lat="44.95787" lon="4.71227">
        <ele>557.2</ele>
        <time>2021-03-27T07:54:59Z</time>
      </trkpt>
      <trkpt lat="44.95804" lon="4.71217">
        <ele>556.6</ele>
        <time>2021-03-27T07:55:03Z</time>
      </trkpt>
      <trkpt lat="44.95825" lon="4.71214">
        <ele>555.2</ele>
        <time>2021-03-27T07:55:07Z</time>
      </trkpt>
      <trkpt lat="44.95846" lon="4.71218">
        <ele>553.8</ele>
        <time>2021-03-27T07:55:11Z</time>
      </trkpt>
      <trkpt lat="44.95866" lon="4.71223">
        <ele>554.6</ele>
        <time>2021-03-27T07:55:15Z</time>
      </trkpt>
      <trkpt lat="44.95885" lon="4.71236">
        <ele>553.6</ele>
        <time>2021-03-27T07:55:19Z</time>
      </trkpt>
      <trkpt lat="44.95904" lon="4.71245">
        <ele>554</ele>
        <time>2021-03-27T07:55:23Z</time>
      </trkpt>
      <trkpt lat="44.95924" lon="4.71244">
        <ele>553.6</ele>
        <time>2021-03-27T07:55:27Z</time>
      </trkpt>
      <trkpt lat="44.95943" lon="4.71231">
        <ele>553.6</ele>
        <time>2021-03-27T07:55:31Z</time>
      </trkpt>
      <trkpt lat="44.9596" lon="4.71215">
        <ele>552.8</ele>
        <time>2021-03-27T07:55:35Z</time>
      </trkpt>
      <trkpt lat="44.95967" lon="4.71209">
        <ele>553</ele>
        <time>2021-03-27T07:55:39Z</time>
      </trkpt>
      <trkpt lat="44.95963" lon="4.71199">
        <ele>554.2</ele>
        <time>2021-03-27T07:56:05Z</time>
      </trkpt>
      <trkpt lat="44.95956" lon="4.71193">
        <ele>555.6</ele>
        <time>2021-03-27T07:56:09Z</time>
      </trkpt>
      <trkpt lat="44.95949" lon="4.71192">
        <ele>556</ele>
        <time>2021-03-27T07:56:13Z</time>
      </trkpt>
      <trkpt lat="44.95941" lon="4.71192">
        <ele>556.6</ele>
        <time>2021-03-27T07:56:17Z</time>
      </trkpt>
      <trkpt lat="44.95933" lon="4.71193">
        <ele>557.8</ele>
        <time>2021-03-27T07:56:21Z</time>
      </trkpt>
      <trkpt lat="44.95925" lon="4.71194">
        <ele>558.2</ele>
        <time>2021-03-27T07:56:25Z</time>
      </trkpt>
      <trkpt lat="44.95917" lon="4.71196">
        <ele>558.2</ele>
        <time>2021-03-27T07:56:29Z</time>
      </trkpt>
      <trkpt lat="44.95912" lon="4.71193">
        <ele>558.2</ele>
        <time>2021-03-27T07:56:33Z</time>
      </trkpt>
      <trkpt lat="44.95917" lon="4.71183">
        <ele>558.8</ele>
        <time>2021-03-27T07:56:37Z</time>
      </trkpt>
      <trkpt lat="44.95922" lon="4.71173">
        <ele>558.4</ele>
        <time>2021-03-27T07:56:41Z</time>
      </trkpt>
      <trkpt lat="44.95929" lon="4.71162">
        <ele>558.8</ele>
        <time>2021-03-27T07:56:45Z</time>
      </trkpt>
      <trkpt lat="44.95935" lon="4.71148">
        <ele>557.8</ele>
        <time>2021-03-27T07:56:49Z</time>
      </trkpt>
      <trkpt lat="44.95941" lon="4.71129">
        <ele>558</ele>
        <time>2021-03-27T07:56:53Z</time>
      </trkpt>
      <trkpt lat="44.95947" lon="4.71111">
        <ele>557.4</ele>
        <time>2021-03-27T07:56:57Z</time>
      </trkpt>
      <trkpt lat="44.95954" lon="4.71093">
        <ele>558</ele>
        <time>2021-03-27T07:57:01Z</time>
      </trkpt>
      <trkpt lat="44.9596" lon="4.71074">
        <ele>558.8</ele>
        <time>2021-03-27T07:57:05Z</time>
      </trkpt>
      <trkpt lat="44.95967" lon="4.71056">
        <ele>559</ele>
        <time>2021-03-27T07:57:09Z</time>
      </trkpt>
      <trkpt lat="44.95978" lon="4.7104">
        <ele>559.4</ele>
        <time>2021-03-27T07:57:13Z</time>
      </trkpt>
      <trkpt lat="44.9599" lon="4.71026">
        <ele>560.4</ele>
        <time>2021-03-27T07:57:17Z</time>
      </trkpt>
      <trkpt lat="44.95999" lon="4.71012">
        <ele>561.2</ele>
        <time>2021-03-27T07:57:21Z</time>
      </trkpt>
      <trkpt lat="44.96006" lon="4.71001">
        <ele>562.2</ele>
        <time>2021-03-27T07:57:25Z</time>
      </trkpt>
      <trkpt lat="44.96011" lon="4.7099">
        <ele>563.2</ele>
        <time>2021-03-27T07:57:29Z</time>
      </trkpt>
      <trkpt lat="44.96016" lon="4.7098">
        <ele>563.8</ele>
        <time>2021-03-27T07:57:33Z</time>
      </trkpt>
      <trkpt lat="44.96019" lon="4.70968">
        <ele>564.6</ele>
        <time>2021-03-27T07:57:37Z</time>
      </trkpt>
      <trkpt lat="44.96023" lon="4.70957">
        <ele>565.8</ele>
        <time>2021-03-27T07:57:41Z</time>
      </trkpt>
      <trkpt lat="44.96027" lon="4.70948">
        <ele>566.4</ele>
        <time>2021-03-27T07:57:45Z</time>
      </trkpt>
      <trkpt lat="44.96028" lon="4.70937">
        <ele>567</ele>
        <time>2021-03-27T07:57:49Z</time>
      </trkpt>
      <trkpt lat="44.96033" lon="4.7093">
        <ele>568.6</ele>
        <time>2021-03-27T07:57:53Z</time>
      </trkpt>
      <trkpt lat="44.96034" lon="4.7092">
        <ele>569</ele>
        <time>2021-03-27T07:57:57Z</time>
      </trkpt>
      <trkpt lat="44.96039" lon="4.70912">
        <ele>570.2</ele>
        <time>2021-03-27T07:58:01Z</time>
      </trkpt>
      <trkpt lat="44.96044" lon="4.70902">
        <ele>570</ele>
        <time>2021-03-27T07:58:05Z</time>
      </trkpt>
      <trkpt lat="44.9605" lon="4.7089">
        <ele>570.2</ele>
        <time>2021-03-27T07:58:09Z</time>
      </trkpt>
      <trkpt lat="44.96056" lon="4.70878">
        <ele>571.2</ele>
        <time>2021-03-27T07:58:13Z</time>
      </trkpt>
      <trkpt lat="44.96062" lon="4.70867">
        <ele>571.6</ele>
        <time>2021-03-27T07:58:17Z</time>
      </trkpt>
      <trkpt lat="44.96068" lon="4.70858">
        <ele>573</ele>
        <time>2021-03-27T07:58:21Z</time>
      </trkpt>
      <trkpt lat="44.96072" lon="4.70849">
        <ele>573.8</ele>
        <time>2021-03-27T07:58:25Z</time>
      </trkpt>
      <trkpt lat="44.96079" lon="4.70838">
        <ele>573.6</ele>
        <time>2021-03-27T07:58:29Z</time>
      </trkpt>
      <trkpt lat="44.96086" lon="4.70826">
        <ele>575</ele>
        <time>2021-03-27T07:58:33Z</time>
      </trkpt>
      <trkpt lat="44.96092" lon="4.70814">
        <ele>576.2</ele>
        <time>2021-03-27T07:58:37Z</time>
      </trkpt>
      <trkpt lat="44.96097" lon="4.70801">
        <ele>576</ele>
        <time>2021-03-27T07:58:41Z</time>
      </trkpt>
      <trkpt lat="44.96103" lon="4.70788">
        <ele>576.2</ele>
        <time>2021-03-27T07:58:45Z</time>
      </trkpt>
      <trkpt lat="44.96109" lon="4.70777">
        <ele>577.4</ele>
        <time>2021-03-27T07:58:49Z</time>
      </trkpt>
      <trkpt lat="44.96114" lon="4.70767">
        <ele>577.8</ele>
        <time>2021-03-27T07:58:53Z</time>
      </trkpt>
      <trkpt lat="44.96119" lon="4.70757">
        <ele>578.6</ele>
        <time>2021-03-27T07:58:57Z</time>
      </trkpt>
      <trkpt lat="44.96123" lon="4.70749">
        <ele>579.2</ele>
        <time>2021-03-27T07:59:01Z</time>
      </trkpt>
      <trkpt lat="44.96127" lon="4.70742">
        <ele>580.2</ele>
        <time>2021-03-27T07:59:05Z</time>
      </trkpt>
      <trkpt lat="44.96131" lon="4.70734">
        <ele>581.2</ele>
        <time>2021-03-27T07:59:09Z</time>
      </trkpt>
      <trkpt lat="44.96135" lon="4.70727">
        <ele>581.4</ele>
        <time>2021-03-27T07:59:13Z</time>
      </trkpt>
      <trkpt lat="44.9614" lon="4.70719">
        <ele>581.8</ele>
        <time>2021-03-27T07:59:17Z</time>
      </trkpt>
      <trkpt lat="44.96143" lon="4.70712">
        <ele>582.8</ele>
        <time>2021-03-27T07:59:21Z</time>
      </trkpt>
      <trkpt lat="44.96146" lon="4.70704">
        <ele>583.6</ele>
        <time>2021-03-27T07:59:25Z</time>
      </trkpt>
      <trkpt lat="44.9615" lon="4.70697">
        <ele>585</ele>
        <time>2021-03-27T07:59:29Z</time>
      </trkpt>
      <trkpt lat="44.96151" lon="4.70689">
        <ele>585</ele>
        <time>2021-03-27T07:59:33Z</time>
      </trkpt>
      <trkpt lat="44.96153" lon="4.7068">
        <ele>585.6</ele>
        <time>2021-03-27T07:59:37Z</time>
      </trkpt>
      <trkpt lat="44.96154" lon="4.70675">
        <ele>586.8</ele>
        <time>2021-03-27T07:59:41Z</time>
      </trkpt>
      <trkpt lat="44.96155" lon="4.70667">
        <ele>587.8</ele>
        <time>2021-03-27T07:59:45Z</time>
      </trkpt>
      <trkpt lat="44.96159" lon="4.70659">
        <ele>588</ele>
        <time>2021-03-27T07:59:49Z</time>
      </trkpt>
      <trkpt lat="44.9616" lon="4.7065">
        <ele>588.6</ele>
        <time>2021-03-27T07:59:53Z</time>
      </trkpt>
      <trkpt lat="44.96164" lon="4.70641">
        <ele>589.6</ele>
        <time>2021-03-27T07:59:57Z</time>
      </trkpt>
      <trkpt lat="44.96166" lon="4.70634">
        <ele>590.2</ele>
        <time>2021-03-27T08:00:01Z</time>
      </trkpt>
      <trkpt lat="44.96164" lon="4.70622">
        <ele>590.8</ele>
        <time>2021-03-27T08:00:05Z</time>
      </trkpt>
      <trkpt lat="44.9616" lon="4.70613">
        <ele>592.4</ele>
        <time>2021-03-27T08:00:09Z</time>
      </trkpt>
      <trkpt lat="44.96154" lon="4.70605">
        <ele>592.4</ele>
        <time>2021-03-27T08:00:13Z</time>
      </trkpt>
      <trkpt lat="44.96146" lon="4.70595">
        <ele>593.6</ele>
        <time>2021-03-27T08:00:17Z</time>
      </trkpt>
      <trkpt lat="44.96141" lon="4.70589">
        <ele>594.6</ele>
        <time>2021-03-27T08:00:21Z</time>
      </trkpt>
      <trkpt lat="44.96133" lon="4.70582">
        <ele>595.6</ele>
        <time>2021-03-27T08:00:25Z</time>
      </trkpt>
      <trkpt lat="44.96106" lon="4.70564">
        <ele>598.2</ele>
        <time>2021-03-27T08:00:45Z</time>
      </trkpt>
      <trkpt lat="44.96102" lon="4.70563">
        <ele>599.2</ele>
        <time>2021-03-27T08:00:49Z</time>
      </trkpt>
      <trkpt lat="44.96095" lon="4.70559">
        <ele>599.8</ele>
        <time>2021-03-27T08:00:53Z</time>
      </trkpt>
      <trkpt lat="44.96085" lon="4.70557">
        <ele>600.2</ele>
        <time>2021-03-27T08:00:57Z</time>
      </trkpt>
      <trkpt lat="44.96077" lon="4.70555">
        <ele>601.4</ele>
        <time>2021-03-27T08:01:01Z</time>
      </trkpt>
      <trkpt lat="44.9607" lon="4.70556">
        <ele>602.2</ele>
        <time>2021-03-27T08:01:05Z</time>
      </trkpt>
      <trkpt lat="44.96064" lon="4.70558">
        <ele>602.6</ele>
        <time>2021-03-27T08:01:09Z</time>
      </trkpt>
      <trkpt lat="44.96058" lon="4.70561">
        <ele>602.8</ele>
        <time>2021-03-27T08:01:13Z</time>
      </trkpt>
      <trkpt lat="44.96051" lon="4.70565">
        <ele>602.6</ele>
        <time>2021-03-27T08:01:17Z</time>
      </trkpt>
      <trkpt lat="44.96043" lon="4.70569">
        <ele>603.4</ele>
        <time>2021-03-27T08:01:21Z</time>
      </trkpt>
      <trkpt lat="44.96037" lon="4.70574">
        <ele>604.8</ele>
        <time>2021-03-27T08:01:25Z</time>
      </trkpt>
      <trkpt lat="44.96029" lon="4.70579">
        <ele>605.4</ele>
        <time>2021-03-27T08:01:29Z</time>
      </trkpt>
      <trkpt lat="44.96019" lon="4.70582">
        <ele>605.4</ele>
        <time>2021-03-27T08:01:33Z</time>
      </trkpt>
      <trkpt lat="44.96006" lon="4.70586">
        <ele>606.2</ele>
        <time>2021-03-27T08:01:37Z</time>
      </trkpt>
      <trkpt lat="44.95997" lon="4.70587">
        <ele>607.2</ele>
        <time>2021-03-27T08:01:41Z</time>
      </trkpt>
      <trkpt lat="44.95989" lon="4.70585">
        <ele>607.8</ele>
        <time>2021-03-27T08:01:45Z</time>
      </trkpt>
      <trkpt lat="44.95984" lon="4.70584">
        <ele>609</ele>
        <time>2021-03-27T08:01:49Z</time>
      </trkpt>
      <trkpt lat="44.9598" lon="4.70583">
        <ele>609.4</ele>
        <time>2021-03-27T08:01:53Z</time>
      </trkpt>
      <trkpt lat="44.95974" lon="4.70581">
        <ele>610.2</ele>
        <time>2021-03-27T08:01:57Z</time>
      </trkpt>
      <trkpt lat="44.95968" lon="4.7058">
        <ele>611.2</ele>
        <time>2021-03-27T08:02:01Z</time>
      </trkpt>
      <trkpt lat="44.95963" lon="4.70579">
        <ele>611.4</ele>
        <time>2021-03-27T08:02:05Z</time>
      </trkpt>
      <trkpt lat="44.95959" lon="4.70577">
        <ele>612</ele>
        <time>2021-03-27T08:02:09Z</time>
      </trkpt>
      <trkpt lat="44.95954" lon="4.70575">
        <ele>612.8</ele>
        <time>2021-03-27T08:02:13Z</time>
      </trkpt>
      <trkpt lat="44.9589" lon="4.70532">
        <ele>621.4</ele>
        <time>2021-03-27T08:03:21Z</time>
      </trkpt>
      <trkpt lat="44.95886" lon="4.7053">
        <ele>621.6</ele>
        <time>2021-03-27T08:03:25Z</time>
      </trkpt>
      <trkpt lat="44.95882" lon="4.70526">
        <ele>622.8</ele>
        <time>2021-03-27T08:03:29Z</time>
      </trkpt>
      <trkpt lat="44.95877" lon="4.70521">
        <ele>623.6</ele>
        <time>2021-03-27T08:03:33Z</time>
      </trkpt>
      <trkpt lat="44.9587" lon="4.70518">
        <ele>624.4</ele>
        <time>2021-03-27T08:03:37Z</time>
      </trkpt>
      <trkpt lat="44.95865" lon="4.70513">
        <ele>624.8</ele>
        <time>2021-03-27T08:03:41Z</time>
      </trkpt>
      <trkpt lat="44.95856" lon="4.70509">
        <ele>625.6</ele>
        <time>2021-03-27T08:03:45Z</time>
      </trkpt>
      <trkpt lat="44.95851" lon="4.70506">
        <ele>626.6</ele>
        <time>2021-03-27T08:03:49Z</time>
      </trkpt>
      <trkpt lat="44.95843" lon="4.70501">
        <ele>626.8</ele>
        <time>2021-03-27T08:03:53Z</time>
      </trkpt>
      <trkpt lat="44.95835" lon="4.70496">
        <ele>627.8</ele>
        <time>2021-03-27T08:03:57Z</time>
      </trkpt>
      <trkpt lat="44.95828" lon="4.70493">
        <ele>628.4</ele>
        <time>2021-03-27T08:04:01Z</time>
      </trkpt>
      <trkpt lat="44.95819" lon="4.7049">
        <ele>628.6</ele>
        <time>2021-03-27T08:04:05Z</time>
      </trkpt>
      <trkpt lat="44.95812" lon="4.70488">
        <ele>630.2</ele>
        <time>2021-03-27T08:04:09Z</time>
      </trkpt>
      <trkpt lat="44.95803" lon="4.70486">
        <ele>631.4</ele>
        <time>2021-03-27T08:04:13Z</time>
      </trkpt>
      <trkpt lat="44.95796" lon="4.70486">
        <ele>632.4</ele>
        <time>2021-03-27T08:04:17Z</time>
      </trkpt>
      <trkpt lat="44.95789" lon="4.70487">
        <ele>632.8</ele>
        <time>2021-03-27T08:04:21Z</time>
      </trkpt>
      <trkpt lat="44.95783" lon="4.70489">
        <ele>633.8</ele>
        <time>2021-03-27T08:04:25Z</time>
      </trkpt>
      <trkpt lat="44.95777" lon="4.70492">
        <ele>634.2</ele>
        <time>2021-03-27T08:04:29Z</time>
      </trkpt>
      <trkpt lat="44.95771" lon="4.70496">
        <ele>634.8</ele>
        <time>2021-03-27T08:04:33Z</time>
      </trkpt>
      <trkpt lat="44.95766" lon="4.70501">
        <ele>636.2</ele>
        <time>2021-03-27T08:04:37Z</time>
      </trkpt>
      <trkpt lat="44.95761" lon="4.70506">
        <ele>637</ele>
        <time>2021-03-27T08:04:41Z</time>
      </trkpt>
      <trkpt lat="44.95756" lon="4.7051">
        <ele>637.8</ele>
        <time>2021-03-27T08:04:45Z</time>
      </trkpt>
      <trkpt lat="44.95751" lon="4.70515">
        <ele>638.2</ele>
        <time>2021-03-27T08:04:49Z</time>
      </trkpt>
      <trkpt lat="44.95746" lon="4.70519">
        <ele>638.8</ele>
        <time>2021-03-27T08:04:53Z</time>
      </trkpt>
      <trkpt lat="44.95741" lon="4.70524">
        <ele>639.6</ele>
        <time>2021-03-27T08:04:57Z</time>
      </trkpt>
      <trkpt lat="44.95734" lon="4.70529">
        <ele>640.4</ele>
        <time>2021-03-27T08:05:01Z</time>
      </trkpt>
      <trkpt lat="44.95728" lon="4.70534">
        <ele>641</ele>
        <time>2021-03-27T08:05:05Z</time>
      </trkpt>
      <trkpt lat="44.95728" lon="4.70534">
        <ele>641.4</ele>
        <time>2021-03-27T08:05:09Z</time>
      </trkpt>
      <trkpt lat="44.95715" lon="4.70543">
        <ele>641.8</ele>
        <time>2021-03-27T08:07:57Z</time>
      </trkpt>
      <trkpt lat="44.95706" lon="4.70548">
        <ele>642.8</ele>
        <time>2021-03-27T08:08:01Z</time>
      </trkpt>
      <trkpt lat="44.95697" lon="4.7055">
        <ele>643.6</ele>
        <time>2021-03-27T08:08:05Z</time>
      </trkpt>
      <trkpt lat="44.95689" lon="4.70547">
        <ele>644</ele>
        <time>2021-03-27T08:08:09Z</time>
      </trkpt>
      <trkpt lat="44.95682" lon="4.70541">
        <ele>645.2</ele>
        <time>2021-03-27T08:08:13Z</time>
      </trkpt>
      <trkpt lat="44.95676" lon="4.70533">
        <ele>645.8</ele>
        <time>2021-03-27T08:08:17Z</time>
      </trkpt>
      <trkpt lat="44.9567" lon="4.70528">
        <ele>646.4</ele>
        <time>2021-03-27T08:08:21Z</time>
      </trkpt>
      <trkpt lat="44.95663" lon="4.70527">
        <ele>647</ele>
        <time>2021-03-27T08:08:25Z</time>
      </trkpt>
      <trkpt lat="44.95655" lon="4.70527">
        <ele>648.2</ele>
        <time>2021-03-27T08:08:29Z</time>
      </trkpt>
      <trkpt lat="44.9565" lon="4.70524">
        <ele>648.8</ele>
        <time>2021-03-27T08:08:33Z</time>
      </trkpt>
      <trkpt lat="44.95651" lon="4.70515">
        <ele>649.4</ele>
        <time>2021-03-27T08:08:37Z</time>
      </trkpt>
      <trkpt lat="44.95651" lon="4.70504">
        <ele>650</ele>
        <time>2021-03-27T08:08:41Z</time>
      </trkpt>
      <trkpt lat="44.95653" lon="4.70494">
        <ele>650.2</ele>
        <time>2021-03-27T08:08:45Z</time>
      </trkpt>
      <trkpt lat="44.95654" lon="4.70483">
        <ele>651</ele>
        <time>2021-03-27T08:08:49Z</time>
      </trkpt>
      <trkpt lat="44.95654" lon="4.70471">
        <ele>650.8</ele>
        <time>2021-03-27T08:08:53Z</time>
      </trkpt>
      <trkpt lat="44.95655" lon="4.70457">
        <ele>651.6</ele>
        <time>2021-03-27T08:08:57Z</time>
      </trkpt>
      <trkpt lat="44.95657" lon="4.70445">
        <ele>652.4</ele>
        <time>2021-03-27T08:09:01Z</time>
      </trkpt>
      <trkpt lat="44.95659" lon="4.70437">
        <ele>652.8</ele>
        <time>2021-03-27T08:09:05Z</time>
      </trkpt>
      <trkpt lat="44.95663" lon="4.70429">
        <ele>654</ele>
        <time>2021-03-27T08:09:09Z</time>
      </trkpt>
      <trkpt lat="44.95667" lon="4.70421">
        <ele>654.6</ele>
        <time>2021-03-27T08:09:13Z</time>
      </trkpt>
      <trkpt lat="44.95669" lon="4.70415">
        <ele>655.2</ele>
        <time>2021-03-27T08:09:17Z</time>
      </trkpt>
      <trkpt lat="44.95673" lon="4.70407">
        <ele>656.2</ele>
        <time>2021-03-27T08:09:21Z</time>
      </trkpt>
      <trkpt lat="44.95676" lon="4.70399">
        <ele>657.2</ele>
        <time>2021-03-27T08:09:25Z</time>
      </trkpt>
      <trkpt lat="44.95679" lon="4.70392">
        <ele>657.6</ele>
        <time>2021-03-27T08:09:29Z</time>
      </trkpt>
      <trkpt lat="44.95682" lon="4.70382">
        <ele>658</ele>
        <time>2021-03-27T08:09:33Z</time>
      </trkpt>
      <trkpt lat="44.95683" lon="4.70371">
        <ele>658.6</ele>
        <time>2021-03-27T08:09:37Z</time>
      </trkpt>
      <trkpt lat="44.95682" lon="4.7036">
        <ele>659.4</ele>
        <time>2021-03-27T08:09:41Z</time>
      </trkpt>
      <trkpt lat="44.95682" lon="4.70351">
        <ele>659.6</ele>
        <time>2021-03-27T08:09:45Z</time>
      </trkpt>
      <trkpt lat="44.95678" lon="4.70342">
        <ele>660.2</ele>
        <time>2021-03-27T08:09:49Z</time>
      </trkpt>
      <trkpt lat="44.95671" lon="4.70331">
        <ele>660.4</ele>
        <time>2021-03-27T08:09:53Z</time>
      </trkpt>
      <trkpt lat="44.95666" lon="4.7032">
        <ele>660.6</ele>
        <time>2021-03-27T08:09:57Z</time>
      </trkpt>
      <trkpt lat="44.95659" lon="4.70309">
        <ele>660.8</ele>
        <time>2021-03-27T08:10:01Z</time>
      </trkpt>
      <trkpt lat="44.95652" lon="4.70297">
        <ele>660.6</ele>
        <time>2021-03-27T08:10:05Z</time>
      </trkpt>
      <trkpt lat="44.95646" lon="4.70285">
        <ele>661</ele>
        <time>2021-03-27T08:10:09Z</time>
      </trkpt>
      <trkpt lat="44.95638" lon="4.70272">
        <ele>661</ele>
        <time>2021-03-27T08:10:13Z</time>
      </trkpt>
      <trkpt lat="44.95632" lon="4.70259">
        <ele>661.2</ele>
        <time>2021-03-27T08:10:17Z</time>
      </trkpt>
      <trkpt lat="44.95627" lon="4.70248">
        <ele>661.4</ele>
        <time>2021-03-27T08:10:21Z</time>
      </trkpt>
      <trkpt lat="44.95621" lon="4.70236">
        <ele>661.8</ele>
        <time>2021-03-27T08:10:25Z</time>
      </trkpt>
      <trkpt lat="44.95612" lon="4.70222">
        <ele>661.2</ele>
        <time>2021-03-27T08:10:29Z</time>
      </trkpt>
      <trkpt lat="44.95603" lon="4.70206">
        <ele>661.2</ele>
        <time>2021-03-27T08:10:33Z</time>
      </trkpt>
      <trkpt lat="44.95594" lon="4.70192">
        <ele>661.2</ele>
        <time>2021-03-27T08:10:37Z</time>
      </trkpt>
      <trkpt lat="44.95584" lon="4.70178">
        <ele>661</ele>
        <time>2021-03-27T08:10:41Z</time>
      </trkpt>
      <trkpt lat="44.95575" lon="4.70164">
        <ele>661</ele>
        <time>2021-03-27T08:10:45Z</time>
      </trkpt>
      <trkpt lat="44.95568" lon="4.70151">
        <ele>661.2</ele>
        <time>2021-03-27T08:10:49Z</time>
      </trkpt>
      <trkpt lat="44.95563" lon="4.7014">
        <ele>661.6</ele>
        <time>2021-03-27T08:10:53Z</time>
      </trkpt>
      <trkpt lat="44.95554" lon="4.70128">
        <ele>662</ele>
        <time>2021-03-27T08:10:57Z</time>
      </trkpt>
      <trkpt lat="44.95548" lon="4.70118">
        <ele>663</ele>
        <time>2021-03-27T08:11:01Z</time>
      </trkpt>
      <trkpt lat="44.9554" lon="4.70106">
        <ele>663</ele>
        <time>2021-03-27T08:11:05Z</time>
      </trkpt>
      <trkpt lat="44.95534" lon="4.70094">
        <ele>663</ele>
        <time>2021-03-27T08:11:09Z</time>
      </trkpt>
      <trkpt lat="44.95526" lon="4.70081">
        <ele>663.4</ele>
        <time>2021-03-27T08:11:13Z</time>
      </trkpt>
      <trkpt lat="44.95519" lon="4.70071">
        <ele>665.2</ele>
        <time>2021-03-27T08:11:17Z</time>
      </trkpt>
      <trkpt lat="44.95513" lon="4.70062">
        <ele>666</ele>
        <time>2021-03-27T08:11:21Z</time>
      </trkpt>
      <trkpt lat="44.95508" lon="4.70055">
        <ele>666.4</ele>
        <time>2021-03-27T08:11:25Z</time>
      </trkpt>
      <trkpt lat="44.95503" lon="4.70046">
        <ele>667.6</ele>
        <time>2021-03-27T08:11:29Z</time>
      </trkpt>
      <trkpt lat="44.95498" lon="4.70039">
        <ele>668.2</ele>
        <time>2021-03-27T08:11:33Z</time>
      </trkpt>
      <trkpt lat="44.95493" lon="4.70031">
        <ele>669.4</ele>
        <time>2021-03-27T08:11:37Z</time>
      </trkpt>
      <trkpt lat="44.95488" lon="4.70025">
        <ele>670.2</ele>
        <time>2021-03-27T08:11:41Z</time>
      </trkpt>
      <trkpt lat="44.95484" lon="4.70018">
        <ele>670.8</ele>
        <time>2021-03-27T08:11:45Z</time>
      </trkpt>
      <trkpt lat="44.9548" lon="4.70012">
        <ele>671.6</ele>
        <time>2021-03-27T08:11:49Z</time>
      </trkpt>
      <trkpt lat="44.95475" lon="4.70008">
        <ele>671.8</ele>
        <time>2021-03-27T08:11:53Z</time>
      </trkpt>
      <trkpt lat="44.9547" lon="4.70003">
        <ele>672.8</ele>
        <time>2021-03-27T08:11:57Z</time>
      </trkpt>
      <trkpt lat="44.95466" lon="4.69996">
        <ele>673.6</ele>
        <time>2021-03-27T08:12:01Z</time>
      </trkpt>
      <trkpt lat="44.95462" lon="4.69988">
        <ele>674.6</ele>
        <time>2021-03-27T08:12:05Z</time>
      </trkpt>
      <trkpt lat="44.95459" lon="4.69981">
        <ele>675.2</ele>
        <time>2021-03-27T08:12:09Z</time>
      </trkpt>
      <trkpt lat="44.95457" lon="4.69973">
        <ele>675.8</ele>
        <time>2021-03-27T08:12:13Z</time>
      </trkpt>
      <trkpt lat="44.95454" lon="4.69966">
        <ele>677</ele>
        <time>2021-03-27T08:12:17Z</time>
      </trkpt>
      <trkpt lat="44.9545" lon="4.69959">
        <ele>677.8</ele>
        <time>2021-03-27T08:12:21Z</time>
      </trkpt>
      <trkpt lat="44.95445" lon="4.69954">
        <ele>678.6</ele>
        <time>2021-03-27T08:12:25Z</time>
      </trkpt>
      <trkpt lat="44.9544" lon="4.69949">
        <ele>679</ele>
        <time>2021-03-27T08:12:29Z</time>
      </trkpt>
      <trkpt lat="44.95434" lon="4.69945">
        <ele>679.6</ele>
        <time>2021-03-27T08:12:33Z</time>
      </trkpt>
      <trkpt lat="44.95429" lon="4.6994">
        <ele>680.4</ele>
        <time>2021-03-27T08:12:37Z</time>
      </trkpt>
      <trkpt lat="44.95423" lon="4.69936">
        <ele>680.8</ele>
        <time>2021-03-27T08:12:41Z</time>
      </trkpt>
      <trkpt lat="44.95418" lon="4.69931">
        <ele>681.8</ele>
        <time>2021-03-27T08:12:45Z</time>
      </trkpt>
      <trkpt lat="44.95414" lon="4.69927">
        <ele>682.6</ele>
        <time>2021-03-27T08:12:49Z</time>
      </trkpt>
      <trkpt lat="44.95408" lon="4.69922">
        <ele>683.6</ele>
        <time>2021-03-27T08:12:53Z</time>
      </trkpt>
      <trkpt lat="44.95403" lon="4.69917">
        <ele>684.2</ele>
        <time>2021-03-27T08:12:57Z</time>
      </trkpt>
      <trkpt lat="44.95399" lon="4.69911">
        <ele>684.6</ele>
        <time>2021-03-27T08:13:01Z</time>
      </trkpt>
      <trkpt lat="44.95393" lon="4.69905">
        <ele>685.6</ele>
        <time>2021-03-27T08:13:05Z</time>
      </trkpt>
      <trkpt lat="44.95388" lon="4.69899">
        <ele>685.8</ele>
        <time>2021-03-27T08:13:09Z</time>
      </trkpt>
      <trkpt lat="44.95383" lon="4.69893">
        <ele>686.8</ele>
        <time>2021-03-27T08:13:13Z</time>
      </trkpt>
      <trkpt lat="44.95379" lon="4.69887">
        <ele>687</ele>
        <time>2021-03-27T08:13:17Z</time>
      </trkpt>
      <trkpt lat="44.95375" lon="4.69881">
        <ele>687.6</ele>
        <time>2021-03-27T08:13:21Z</time>
      </trkpt>
      <trkpt lat="44.9537" lon="4.69874">
        <ele>689</ele>
        <time>2021-03-27T08:13:25Z</time>
      </trkpt>
      <trkpt lat="44.95365" lon="4.69868">
        <ele>689.4</ele>
        <time>2021-03-27T08:13:29Z</time>
      </trkpt>
      <trkpt lat="44.9536" lon="4.6986">
        <ele>690.2</ele>
        <time>2021-03-27T08:13:33Z</time>
      </trkpt>
      <trkpt lat="44.95354" lon="4.69853">
        <ele>690.6</ele>
        <time>2021-03-27T08:13:37Z</time>
      </trkpt>
      <trkpt lat="44.95348" lon="4.69845">
        <ele>690.8</ele>
        <time>2021-03-27T08:13:41Z</time>
      </trkpt>
      <trkpt lat="44.95343" lon="4.69837">
        <ele>691.4</ele>
        <time>2021-03-27T08:13:45Z</time>
      </trkpt>
      <trkpt lat="44.95338" lon="4.69828">
        <ele>692</ele>
        <time>2021-03-27T08:13:49Z</time>
      </trkpt>
      <trkpt lat="44.95334" lon="4.69819">
        <ele>692.8</ele>
        <time>2021-03-27T08:13:53Z</time>
      </trkpt>
      <trkpt lat="44.95333" lon="4.69809">
        <ele>693.8</ele>
        <time>2021-03-27T08:13:57Z</time>
      </trkpt>
      <trkpt lat="44.95334" lon="4.69799">
        <ele>693.8</ele>
        <time>2021-03-27T08:14:01Z</time>
      </trkpt>
      <trkpt lat="44.95337" lon="4.69788">
        <ele>694.2</ele>
        <time>2021-03-27T08:14:05Z</time>
      </trkpt>
      <trkpt lat="44.9534" lon="4.69778">
        <ele>695.2</ele>
        <time>2021-03-27T08:14:09Z</time>
      </trkpt>
      <trkpt lat="44.95344" lon="4.69768">
        <ele>695.4</ele>
        <time>2021-03-27T08:14:13Z</time>
      </trkpt>
      <trkpt lat="44.95347" lon="4.69758">
        <ele>697</ele>
        <time>2021-03-27T08:14:17Z</time>
      </trkpt>
      <trkpt lat="44.9535" lon="4.69749">
        <ele>697.2</ele>
        <time>2021-03-27T08:14:21Z</time>
      </trkpt>
      <trkpt lat="44.95352" lon="4.69741">
        <ele>697.4</ele>
        <time>2021-03-27T08:14:25Z</time>
      </trkpt>
      <trkpt lat="44.95355" lon="4.69731">
        <ele>698.8</ele>
        <time>2021-03-27T08:14:29Z</time>
      </trkpt>
      <trkpt lat="44.95358" lon="4.69722">
        <ele>698.8</ele>
        <time>2021-03-27T08:14:33Z</time>
      </trkpt>
      <trkpt lat="44.95359" lon="4.69713">
        <ele>699.4</ele>
        <time>2021-03-27T08:14:37Z</time>
      </trkpt>
      <trkpt lat="44.95356" lon="4.69704">
        <ele>699.8</ele>
        <time>2021-03-27T08:14:41Z</time>
      </trkpt>
      <trkpt lat="44.95351" lon="4.69694">
        <ele>700.4</ele>
        <time>2021-03-27T08:14:45Z</time>
      </trkpt>
      <trkpt lat="44.95345" lon="4.69686">
        <ele>700.8</ele>
        <time>2021-03-27T08:14:49Z</time>
      </trkpt>
      <trkpt lat="44.95339" lon="4.69677">
        <ele>701.4</ele>
        <time>2021-03-27T08:14:53Z</time>
      </trkpt>
      <trkpt lat="44.95334" lon="4.69669">
        <ele>702.2</ele>
        <time>2021-03-27T08:14:57Z</time>
      </trkpt>
      <trkpt lat="44.95329" lon="4.69662">
        <ele>703</ele>
        <time>2021-03-27T08:15:01Z</time>
      </trkpt>
      <trkpt lat="44.95324" lon="4.69653">
        <ele>703.2</ele>
        <time>2021-03-27T08:15:05Z</time>
      </trkpt>
      <trkpt lat="44.95319" lon="4.69644">
        <ele>703.6</ele>
        <time>2021-03-27T08:15:09Z</time>
      </trkpt>
      <trkpt lat="44.95313" lon="4.69635">
        <ele>703.8</ele>
        <time>2021-03-27T08:15:13Z</time>
      </trkpt>
      <trkpt lat="44.95307" lon="4.69626">
        <ele>704.8</ele>
        <time>2021-03-27T08:15:17Z</time>
      </trkpt>
      <trkpt lat="44.95299" lon="4.69619">
        <ele>704.8</ele>
        <time>2021-03-27T08:15:21Z</time>
      </trkpt>
      <trkpt lat="44.95289" lon="4.69614">
        <ele>705.2</ele>
        <time>2021-03-27T08:15:25Z</time>
      </trkpt>
      <trkpt lat="44.9528" lon="4.69609">
        <ele>705.6</ele>
        <time>2021-03-27T08:15:29Z</time>
      </trkpt>
      <trkpt lat="44.9527" lon="4.69607">
        <ele>706</ele>
        <time>2021-03-27T08:15:33Z</time>
      </trkpt>
      <trkpt lat="44.9526" lon="4.69606">
        <ele>706</ele>
        <time>2021-03-27T08:15:37Z</time>
      </trkpt>
      <trkpt lat="44.95249" lon="4.69606">
        <ele>706.2</ele>
        <time>2021-03-27T08:15:41Z</time>
      </trkpt>
      <trkpt lat="44.95237" lon="4.69604">
        <ele>706</ele>
        <time>2021-03-27T08:15:45Z</time>
      </trkpt>
      <trkpt lat="44.95227" lon="4.69599">
        <ele>706.4</ele>
        <time>2021-03-27T08:15:49Z</time>
      </trkpt>
      <trkpt lat="44.95218" lon="4.69593">
        <ele>707.2</ele>
        <time>2021-03-27T08:15:53Z</time>
      </trkpt>
      <trkpt lat="44.95211" lon="4.69585">
        <ele>708</ele>
        <time>2021-03-27T08:15:57Z</time>
      </trkpt>
      <trkpt lat="44.95205" lon="4.69578">
        <ele>708.8</ele>
        <time>2021-03-27T08:16:01Z</time>
      </trkpt>
      <trkpt lat="44.95199" lon="4.69572">
        <ele>710.4</ele>
        <time>2021-03-27T08:16:05Z</time>
      </trkpt>
      <trkpt lat="44.95191" lon="4.69569">
        <ele>710.4</ele>
        <time>2021-03-27T08:16:09Z</time>
      </trkpt>
      <trkpt lat="44.95182" lon="4.69569">
        <ele>710.6</ele>
        <time>2021-03-27T08:16:13Z</time>
      </trkpt>
      <trkpt lat="44.95172" lon="4.6957">
        <ele>711</ele>
        <time>2021-03-27T08:16:17Z</time>
      </trkpt>
      <trkpt lat="44.95161" lon="4.69568">
        <ele>711.4</ele>
        <time>2021-03-27T08:16:21Z</time>
      </trkpt>
      <trkpt lat="44.95151" lon="4.69565">
        <ele>711.2</ele>
        <time>2021-03-27T08:16:25Z</time>
      </trkpt>
      <trkpt lat="44.95142" lon="4.69559">
        <ele>712.2</ele>
        <time>2021-03-27T08:16:29Z</time>
      </trkpt>
      <trkpt lat="44.95133" lon="4.69554">
        <ele>712</ele>
        <time>2021-03-27T08:16:33Z</time>
      </trkpt>
      <trkpt lat="44.95125" lon="4.69548">
        <ele>712.6</ele>
        <time>2021-03-27T08:16:37Z</time>
      </trkpt>
      <trkpt lat="44.95117" lon="4.69542">
        <ele>713.2</ele>
        <time>2021-03-27T08:16:41Z</time>
      </trkpt>
      <trkpt lat="44.95109" lon="4.69536">
        <ele>713.8</ele>
        <time>2021-03-27T08:16:45Z</time>
      </trkpt>
      <trkpt lat="44.95101" lon="4.69531">
        <ele>714.2</ele>
        <time>2021-03-27T08:16:49Z</time>
      </trkpt>
      <trkpt lat="44.95095" lon="4.69527">
        <ele>714.6</ele>
        <time>2021-03-27T08:16:53Z</time>
      </trkpt>
      <trkpt lat="44.95089" lon="4.69522">
        <ele>715.8</ele>
        <time>2021-03-27T08:16:57Z</time>
      </trkpt>
      <trkpt lat="44.95083" lon="4.69518">
        <ele>716.6</ele>
        <time>2021-03-27T08:17:01Z</time>
      </trkpt>
      <trkpt lat="44.95077" lon="4.69515">
        <ele>717.2</ele>
        <time>2021-03-27T08:17:05Z</time>
      </trkpt>
      <trkpt lat="44.95071" lon="4.69512">
        <ele>717.6</ele>
        <time>2021-03-27T08:17:09Z</time>
      </trkpt>
      <trkpt lat="44.95065" lon="4.6951">
        <ele>718.4</ele>
        <time>2021-03-27T08:17:13Z</time>
      </trkpt>
      <trkpt lat="44.9506" lon="4.69504">
        <ele>719.6</ele>
        <time>2021-03-27T08:17:17Z</time>
      </trkpt>
      <trkpt lat="44.9506" lon="4.69496">
        <ele>720.8</ele>
        <time>2021-03-27T08:17:21Z</time>
      </trkpt>
      <trkpt lat="44.95065" lon="4.69487">
        <ele>720.2</ele>
        <time>2021-03-27T08:17:25Z</time>
      </trkpt>
      <trkpt lat="44.95072" lon="4.69481">
        <ele>720.8</ele>
        <time>2021-03-27T08:17:29Z</time>
      </trkpt>
      <trkpt lat="44.95079" lon="4.69476">
        <ele>721</ele>
        <time>2021-03-27T08:17:33Z</time>
      </trkpt>
      <trkpt lat="44.95088" lon="4.69474">
        <ele>721.4</ele>
        <time>2021-03-27T08:17:37Z</time>
      </trkpt>
      <trkpt lat="44.95098" lon="4.69473">
        <ele>721.8</ele>
        <time>2021-03-27T08:17:41Z</time>
      </trkpt>
      <trkpt lat="44.95107" lon="4.69472">
        <ele>723.2</ele>
        <time>2021-03-27T08:17:45Z</time>
      </trkpt>
      <trkpt lat="44.95116" lon="4.69473">
        <ele>722.2</ele>
        <time>2021-03-27T08:17:49Z</time>
      </trkpt>
      <trkpt lat="44.95125" lon="4.69474">
        <ele>723.4</ele>
        <time>2021-03-27T08:17:53Z</time>
      </trkpt>
      <trkpt lat="44.95134" lon="4.69475">
        <ele>723.4</ele>
        <time>2021-03-27T08:17:57Z</time>
      </trkpt>
      <trkpt lat="44.95143" lon="4.69476">
        <ele>724.2</ele>
        <time>2021-03-27T08:18:01Z</time>
      </trkpt>
      <trkpt lat="44.95153" lon="4.69477">
        <ele>724.2</ele>
        <time>2021-03-27T08:18:05Z</time>
      </trkpt>
      <trkpt lat="44.95162" lon="4.69477">
        <ele>725.6</ele>
        <time>2021-03-27T08:18:09Z</time>
      </trkpt>
      <trkpt lat="44.9517" lon="4.69477">
        <ele>725.6</ele>
        <time>2021-03-27T08:18:13Z</time>
      </trkpt>
      <trkpt lat="44.95179" lon="4.69476">
        <ele>726.8</ele>
        <time>2021-03-27T08:18:17Z</time>
      </trkpt>
      <trkpt lat="44.95188" lon="4.69472">
        <ele>726.4</ele>
        <time>2021-03-27T08:18:21Z</time>
      </trkpt>
      <trkpt lat="44.95197" lon="4.69467">
        <ele>727</ele>
        <time>2021-03-27T08:18:25Z</time>
      </trkpt>
      <trkpt lat="44.95205" lon="4.69461">
        <ele>728.8</ele>
        <time>2021-03-27T08:18:29Z</time>
      </trkpt>
      <trkpt lat="44.95214" lon="4.69455">
        <ele>729.2</ele>
        <time>2021-03-27T08:18:33Z</time>
      </trkpt>
      <trkpt lat="44.95223" lon="4.6945">
        <ele>729.6</ele>
        <time>2021-03-27T08:18:37Z</time>
      </trkpt>
      <trkpt lat="44.95233" lon="4.69449">
        <ele>730</ele>
        <time>2021-03-27T08:18:41Z</time>
      </trkpt>
      <trkpt lat="44.95243" lon="4.69453">
        <ele>730</ele>
        <time>2021-03-27T08:18:45Z</time>
      </trkpt>
      <trkpt lat="44.95251" lon="4.69461">
        <ele>730.6</ele>
        <time>2021-03-27T08:18:49Z</time>
      </trkpt>
      <trkpt lat="44.95258" lon="4.69472">
        <ele>730.8</ele>
        <time>2021-03-27T08:18:53Z</time>
      </trkpt>
      <trkpt lat="44.95264" lon="4.69483">
        <ele>731.2</ele>
        <time>2021-03-27T08:18:57Z</time>
      </trkpt>
      <trkpt lat="44.9527" lon="4.69494">
        <ele>732</ele>
        <time>2021-03-27T08:19:01Z</time>
      </trkpt>
      <trkpt lat="44.95276" lon="4.69503">
        <ele>732.6</ele>
        <time>2021-03-27T08:19:05Z</time>
      </trkpt>
      <trkpt lat="44.95283" lon="4.69513">
        <ele>732.8</ele>
        <time>2021-03-27T08:19:09Z</time>
      </trkpt>
      <trkpt lat="44.9529" lon="4.69521">
        <ele>733.4</ele>
        <time>2021-03-27T08:19:13Z</time>
      </trkpt>
      <trkpt lat="44.95298" lon="4.6953">
        <ele>734</ele>
        <time>2021-03-27T08:19:17Z</time>
      </trkpt>
      <trkpt lat="44.95306" lon="4.69536">
        <ele>734.2</ele>
        <time>2021-03-27T08:19:21Z</time>
      </trkpt>
      <trkpt lat="44.95314" lon="4.69542">
        <ele>734.8</ele>
        <time>2021-03-27T08:19:25Z</time>
      </trkpt>
      <trkpt lat="44.95322" lon="4.69545">
        <ele>735</ele>
        <time>2021-03-27T08:19:29Z</time>
      </trkpt>
      <trkpt lat="44.95331" lon="4.69548">
        <ele>735.6</ele>
        <time>2021-03-27T08:19:33Z</time>
      </trkpt>
      <trkpt lat="44.95341" lon="4.69549">
        <ele>735.8</ele>
        <time>2021-03-27T08:19:37Z</time>
      </trkpt>
      <trkpt lat="44.9535" lon="4.6955">
        <ele>736.2</ele>
        <time>2021-03-27T08:19:41Z</time>
      </trkpt>
      <trkpt lat="44.9536" lon="4.69551">
        <ele>737</ele>
        <time>2021-03-27T08:19:45Z</time>
      </trkpt>
      <trkpt lat="44.9537" lon="4.69549">
        <ele>737.6</ele>
        <time>2021-03-27T08:19:49Z</time>
      </trkpt>
      <trkpt lat="44.95381" lon="4.69548">
        <ele>738</ele>
        <time>2021-03-27T08:19:53Z</time>
      </trkpt>
      <trkpt lat="44.95392" lon="4.69545">
        <ele>738.4</ele>
        <time>2021-03-27T08:19:57Z</time>
      </trkpt>
      <trkpt lat="44.95402" lon="4.69542">
        <ele>739.2</ele>
        <time>2021-03-27T08:20:01Z</time>
      </trkpt>
      <trkpt lat="44.95413" lon="4.69538">
        <ele>739.4</ele>
        <time>2021-03-27T08:20:05Z</time>
      </trkpt>
      <trkpt lat="44.95422" lon="4.69533">
        <ele>739.6</ele>
        <time>2021-03-27T08:20:09Z</time>
      </trkpt>
      <trkpt lat="44.95431" lon="4.69525">
        <ele>740.4</ele>
        <time>2021-03-27T08:20:13Z</time>
      </trkpt>
      <trkpt lat="44.9544" lon="4.69516">
        <ele>741.2</ele>
        <time>2021-03-27T08:20:17Z</time>
      </trkpt>
      <trkpt lat="44.95447" lon="4.69506">
        <ele>740.8</ele>
        <time>2021-03-27T08:20:21Z</time>
      </trkpt>
      <trkpt lat="44.95453" lon="4.69495">
        <ele>742.2</ele>
        <time>2021-03-27T08:20:25Z</time>
      </trkpt>
      <trkpt lat="44.95458" lon="4.69483">
        <ele>742.6</ele>
        <time>2021-03-27T08:20:29Z</time>
      </trkpt>
      <trkpt lat="44.95462" lon="4.6947">
        <ele>743.2</ele>
        <time>2021-03-27T08:20:33Z</time>
      </trkpt>
      <trkpt lat="44.95465" lon="4.69458">
        <ele>743.8</ele>
        <time>2021-03-27T08:20:37Z</time>
      </trkpt>
      <trkpt lat="44.95468" lon="4.69444">
        <ele>743.8</ele>
        <time>2021-03-27T08:20:41Z</time>
      </trkpt>
      <trkpt lat="44.95471" lon="4.69431">
        <ele>743.8</ele>
        <time>2021-03-27T08:20:45Z</time>
      </trkpt>
      <trkpt lat="44.95474" lon="4.69419">
        <ele>744.8</ele>
        <time>2021-03-27T08:20:49Z</time>
      </trkpt>
      <trkpt lat="44.95476" lon="4.69401">
        <ele>744.4</ele>
        <time>2021-03-27T08:20:53Z</time>
      </trkpt>
      <trkpt lat="44.9548" lon="4.69381">
        <ele>745.4</ele>
        <time>2021-03-27T08:20:57Z</time>
      </trkpt>
      <trkpt lat="44.95482" lon="4.69363">
        <ele>746.4</ele>
        <time>2021-03-27T08:21:01Z</time>
      </trkpt>
      <trkpt lat="44.95483" lon="4.69346">
        <ele>746.8</ele>
        <time>2021-03-27T08:21:05Z</time>
      </trkpt>
      <trkpt lat="44.95482" lon="4.69331">
        <ele>747.2</ele>
        <time>2021-03-27T08:21:09Z</time>
      </trkpt>
      <trkpt lat="44.95483" lon="4.6932">
        <ele>747</ele>
        <time>2021-03-27T08:21:13Z</time>
      </trkpt>
      <trkpt lat="44.95477" lon="4.69301">
        <ele>747</ele>
        <time>2021-03-27T08:23:15Z</time>
      </trkpt>
      <trkpt lat="44.9548" lon="4.69282">
        <ele>746.8</ele>
        <time>2021-03-27T08:23:19Z</time>
      </trkpt>
      <trkpt lat="44.95486" lon="4.69259">
        <ele>744.6</ele>
        <time>2021-03-27T08:23:23Z</time>
      </trkpt>
      <trkpt lat="44.95495" lon="4.6923">
        <ele>742</ele>
        <time>2021-03-27T08:23:27Z</time>
      </trkpt>
      <trkpt lat="44.95504" lon="4.69212">
        <ele>741.4</ele>
        <time>2021-03-27T08:23:31Z</time>
      </trkpt>
      <trkpt lat="44.95508" lon="4.69187">
        <ele>741.2</ele>
        <time>2021-03-27T08:23:50Z</time>
      </trkpt>
      <trkpt lat="44.95515" lon="4.69166">
        <ele>739.6</ele>
        <time>2021-03-27T08:23:54Z</time>
      </trkpt>
      <trkpt lat="44.9552" lon="4.69137">
        <ele>736.8</ele>
        <time>2021-03-27T08:23:58Z</time>
      </trkpt>
      <trkpt lat="44.95532" lon="4.69107">
        <ele>735.2</ele>
        <time>2021-03-27T08:24:02Z</time>
      </trkpt>
      <trkpt lat="44.95544" lon="4.69073">
        <ele>732.4</ele>
        <time>2021-03-27T08:24:06Z</time>
      </trkpt>
      <trkpt lat="44.95554" lon="4.69033">
        <ele>730.6</ele>
        <time>2021-03-27T08:24:10Z</time>
      </trkpt>
      <trkpt lat="44.95556" lon="4.68992">
        <ele>730.6</ele>
        <time>2021-03-27T08:24:14Z</time>
      </trkpt>
      <trkpt lat="44.95551" lon="4.68957">
        <ele>731.8</ele>
        <time>2021-03-27T08:24:18Z</time>
      </trkpt>
      <trkpt lat="44.95544" lon="4.68925">
        <ele>731.2</ele>
        <time>2021-03-27T08:24:22Z</time>
      </trkpt>
      <trkpt lat="44.95537" lon="4.68893">
        <ele>731.2</ele>
        <time>2021-03-27T08:24:26Z</time>
      </trkpt>
      <trkpt lat="44.9553" lon="4.68861">
        <ele>730.2</ele>
        <time>2021-03-27T08:24:30Z</time>
      </trkpt>
      <trkpt lat="44.95523" lon="4.68831">
        <ele>731.2</ele>
        <time>2021-03-27T08:24:34Z</time>
      </trkpt>
      <trkpt lat="44.95518" lon="4.688">
        <ele>731</ele>
        <time>2021-03-27T08:24:38Z</time>
      </trkpt>
      <trkpt lat="44.95513" lon="4.68775">
        <ele>732.6</ele>
        <time>2021-03-27T08:24:42Z</time>
      </trkpt>
      <trkpt lat="44.95511" lon="4.68753">
        <ele>733</ele>
        <time>2021-03-27T08:24:46Z</time>
      </trkpt>
      <trkpt lat="44.95509" lon="4.68733">
        <ele>734.2</ele>
        <time>2021-03-27T08:24:50Z</time>
      </trkpt>
      <trkpt lat="44.95509" lon="4.68713">
        <ele>734.6</ele>
        <time>2021-03-27T08:24:54Z</time>
      </trkpt>
      <trkpt lat="44.95509" lon="4.68691">
        <ele>734.8</ele>
        <time>2021-03-27T08:24:58Z</time>
      </trkpt>
      <trkpt lat="44.9551" lon="4.68669">
        <ele>735.2</ele>
        <time>2021-03-27T08:25:02Z</time>
      </trkpt>
      <trkpt lat="44.95512" lon="4.68646">
        <ele>734.6</ele>
        <time>2021-03-27T08:25:06Z</time>
      </trkpt>
      <trkpt lat="44.95515" lon="4.68622">
        <ele>734.6</ele>
        <time>2021-03-27T08:25:10Z</time>
      </trkpt>
      <trkpt lat="44.95519" lon="4.68596">
        <ele>734.2</ele>
        <time>2021-03-27T08:25:14Z</time>
      </trkpt>
      <trkpt lat="44.95525" lon="4.68568">
        <ele>733.6</ele>
        <time>2021-03-27T08:25:18Z</time>
      </trkpt>
      <trkpt lat="44.95533" lon="4.68536">
        <ele>731.2</ele>
        <time>2021-03-27T08:25:22Z</time>
      </trkpt>
      <trkpt lat="44.95544" lon="4.68499">
        <ele>728.2</ele>
        <time>2021-03-27T08:25:26Z</time>
      </trkpt>
      <trkpt lat="44.95557" lon="4.68455">
        <ele>725.2</ele>
        <time>2021-03-27T08:25:30Z</time>
      </trkpt>
      <trkpt lat="44.95572" lon="4.68405">
        <ele>721.8</ele>
        <time>2021-03-27T08:25:34Z</time>
      </trkpt>
      <trkpt lat="44.95588" lon="4.68351">
        <ele>716.2</ele>
        <time>2021-03-27T08:25:38Z</time>
      </trkpt>
      <trkpt lat="44.95592" lon="4.68294">
        <ele>715.8</ele>
        <time>2021-03-27T08:25:42Z</time>
      </trkpt>
      <trkpt lat="44.9559" lon="4.68235">
        <ele>712.4</ele>
        <time>2021-03-27T08:25:46Z</time>
      </trkpt>
      <trkpt lat="44.95612" lon="4.68184">
        <ele>709.4</ele>
        <time>2021-03-27T08:25:50Z</time>
      </trkpt>
      <trkpt lat="44.9562" lon="4.68132">
        <ele>706.2</ele>
        <time>2021-03-27T08:25:54Z</time>
      </trkpt>
      <trkpt lat="44.95599" lon="4.68082">
        <ele>704.2</ele>
        <time>2021-03-27T08:25:58Z</time>
      </trkpt>
      <trkpt lat="44.95597" lon="4.68024">
        <ele>702</ele>
        <time>2021-03-27T08:26:02Z</time>
      </trkpt>
      <trkpt lat="44.95599" lon="4.67963">
        <ele>699</ele>
        <time>2021-03-27T08:26:06Z</time>
      </trkpt>
      <trkpt lat="44.95586" lon="4.67906">
        <ele>697.4</ele>
        <time>2021-03-27T08:26:10Z</time>
      </trkpt>
      <trkpt lat="44.95561" lon="4.67857">
        <ele>695.2</ele>
        <time>2021-03-27T08:26:14Z</time>
      </trkpt>
      <trkpt lat="44.95546" lon="4.67805">
        <ele>691.8</ele>
        <time>2021-03-27T08:26:18Z</time>
      </trkpt>
      <trkpt lat="44.95544" lon="4.67751">
        <ele>688.2</ele>
        <time>2021-03-27T08:26:22Z</time>
      </trkpt>
      <trkpt lat="44.95532" lon="4.67697">
        <ele>685.8</ele>
        <time>2021-03-27T08:26:26Z</time>
      </trkpt>
      <trkpt lat="44.95515" lon="4.67631">
        <ele>681.8</ele>
        <time>2021-03-27T08:26:30Z</time>
      </trkpt>
      <trkpt lat="44.9553" lon="4.6757">
        <ele>679.2</ele>
        <time>2021-03-27T08:26:34Z</time>
      </trkpt>
      <trkpt lat="44.95544" lon="4.67511">
        <ele>677.4</ele>
        <time>2021-03-27T08:26:38Z</time>
      </trkpt>
      <trkpt lat="44.95554" lon="4.6745">
        <ele>674</ele>
        <time>2021-03-27T08:26:42Z</time>
      </trkpt>
      <trkpt lat="44.95576" lon="4.67398">
        <ele>670.2</ele>
        <time>2021-03-27T08:26:46Z</time>
      </trkpt>
      <trkpt lat="44.95576" lon="4.67342">
        <ele>669.6</ele>
        <time>2021-03-27T08:26:50Z</time>
      </trkpt>
      <trkpt lat="44.95542" lon="4.67307">
        <ele>668.2</ele>
        <time>2021-03-27T08:26:54Z</time>
      </trkpt>
      <trkpt lat="44.95522" lon="4.67257">
        <ele>663.6</ele>
        <time>2021-03-27T08:26:58Z</time>
      </trkpt>
      <trkpt lat="44.95539" lon="4.67207">
        <ele>660.2</ele>
        <time>2021-03-27T08:27:02Z</time>
      </trkpt>
      <trkpt lat="44.95571" lon="4.67174">
        <ele>657.6</ele>
        <time>2021-03-27T08:27:06Z</time>
      </trkpt>
      <trkpt lat="44.95596" lon="4.67133">
        <ele>655.6</ele>
        <time>2021-03-27T08:27:10Z</time>
      </trkpt>
      <trkpt lat="44.95596" lon="4.67076">
        <ele>654.4</ele>
        <time>2021-03-27T08:27:14Z</time>
      </trkpt>
      <trkpt lat="44.95574" lon="4.67031">
        <ele>653.6</ele>
        <time>2021-03-27T08:27:18Z</time>
      </trkpt>
      <trkpt lat="44.95543" lon="4.66996">
        <ele>650.8</ele>
        <time>2021-03-27T08:27:22Z</time>
      </trkpt>
      <trkpt lat="44.95526" lon="4.66947">
        <ele>648</ele>
        <time>2021-03-27T08:27:26Z</time>
      </trkpt>
      <trkpt lat="44.95543" lon="4.66897">
        <ele>646</ele>
        <time>2021-03-27T08:27:30Z</time>
      </trkpt>
      <trkpt lat="44.95563" lon="4.66854">
        <ele>645.4</ele>
        <time>2021-03-27T08:27:34Z</time>
      </trkpt>
      <trkpt lat="44.95578" lon="4.66814">
        <ele>646.4</ele>
        <time>2021-03-27T08:27:38Z</time>
      </trkpt>
      <trkpt lat="44.95593" lon="4.66781">
        <ele>647.8</ele>
        <time>2021-03-27T08:27:42Z</time>
      </trkpt>
      <trkpt lat="44.95601" lon="4.66749">
        <ele>648.6</ele>
        <time>2021-03-27T08:27:46Z</time>
      </trkpt>
      <trkpt lat="44.95601" lon="4.66712">
        <ele>647.2</ele>
        <time>2021-03-27T08:27:50Z</time>
      </trkpt>
      <trkpt lat="44.956" lon="4.66676">
        <ele>645.8</ele>
        <time>2021-03-27T08:27:54Z</time>
      </trkpt>
      <trkpt lat="44.956" lon="4.66633">
        <ele>645</ele>
        <time>2021-03-27T08:27:58Z</time>
      </trkpt>
      <trkpt lat="44.95603" lon="4.6659">
        <ele>641.8</ele>
        <time>2021-03-27T08:28:02Z</time>
      </trkpt>
      <trkpt lat="44.95603" lon="4.66544">
        <ele>640.2</ele>
        <time>2021-03-27T08:28:06Z</time>
      </trkpt>
      <trkpt lat="44.95603" lon="4.66498">
        <ele>639.4</ele>
        <time>2021-03-27T08:28:10Z</time>
      </trkpt>
      <trkpt lat="44.95606" lon="4.66454">
        <ele>638.4</ele>
        <time>2021-03-27T08:28:14Z</time>
      </trkpt>
      <trkpt lat="44.95609" lon="4.66415">
        <ele>639.6</ele>
        <time>2021-03-27T08:28:18Z</time>
      </trkpt>
      <trkpt lat="44.95611" lon="4.66381">
        <ele>639.2</ele>
        <time>2021-03-27T08:28:22Z</time>
      </trkpt>
      <trkpt lat="44.95614" lon="4.6635">
        <ele>640.2</ele>
        <time>2021-03-27T08:28:26Z</time>
      </trkpt>
      <trkpt lat="44.95616" lon="4.66322">
        <ele>640.4</ele>
        <time>2021-03-27T08:28:30Z</time>
      </trkpt>
      <trkpt lat="44.95619" lon="4.66296">
        <ele>641</ele>
        <time>2021-03-27T08:28:34Z</time>
      </trkpt>
      <trkpt lat="44.95618" lon="4.66269">
        <ele>640.2</ele>
        <time>2021-03-27T08:28:38Z</time>
      </trkpt>
      <trkpt lat="44.95617" lon="4.66242">
        <ele>638.8</ele>
        <time>2021-03-27T08:28:42Z</time>
      </trkpt>
      <trkpt lat="44.95613" lon="4.66206">
        <ele>637.2</ele>
        <time>2021-03-27T08:28:46Z</time>
      </trkpt>
      <trkpt lat="44.95613" lon="4.66169">
        <ele>635.8</ele>
        <time>2021-03-27T08:28:50Z</time>
      </trkpt>
      <trkpt lat="44.95615" lon="4.66131">
        <ele>634.8</ele>
        <time>2021-03-27T08:28:54Z</time>
      </trkpt>
      <trkpt lat="44.95615" lon="4.66093">
        <ele>633</ele>
        <time>2021-03-27T08:28:58Z</time>
      </trkpt>
      <trkpt lat="44.95615" lon="4.66056">
        <ele>632.2</ele>
        <time>2021-03-27T08:29:02Z</time>
      </trkpt>
      <trkpt lat="44.95616" lon="4.66018">
        <ele>631.6</ele>
        <time>2021-03-27T08:29:06Z</time>
      </trkpt>
      <trkpt lat="44.9562" lon="4.65978">
        <ele>630.8</ele>
        <time>2021-03-27T08:29:10Z</time>
      </trkpt>
      <trkpt lat="44.95631" lon="4.65939">
        <ele>629.2</ele>
        <time>2021-03-27T08:29:14Z</time>
      </trkpt>
      <trkpt lat="44.95636" lon="4.65905">
        <ele>630.8</ele>
        <time>2021-03-27T08:29:18Z</time>
      </trkpt>
      <trkpt lat="44.9564" lon="4.65882">
        <ele>633.8</ele>
        <time>2021-03-27T08:29:22Z</time>
      </trkpt>
      <trkpt lat="44.9564" lon="4.65869">
        <ele>634.8</ele>
        <time>2021-03-27T08:29:26Z</time>
      </trkpt>
      <trkpt lat="44.95638" lon="4.65857">
        <ele>635.8</ele>
        <time>2021-03-27T08:29:30Z</time>
      </trkpt>
      <trkpt lat="44.95637" lon="4.65844">
        <ele>636.6</ele>
        <time>2021-03-27T08:29:34Z</time>
      </trkpt>
      <trkpt lat="44.95634" lon="4.65834">
        <ele>637.2</ele>
        <time>2021-03-27T08:29:38Z</time>
      </trkpt>
      <trkpt lat="44.95632" lon="4.65822">
        <ele>638.2</ele>
        <time>2021-03-27T08:29:42Z</time>
      </trkpt>
      <trkpt lat="44.95628" lon="4.65806">
        <ele>638.4</ele>
        <time>2021-03-27T08:29:46Z</time>
      </trkpt>
      <trkpt lat="44.95625" lon="4.65792">
        <ele>638.8</ele>
        <time>2021-03-27T08:29:50Z</time>
      </trkpt>
      <trkpt lat="44.95621" lon="4.65778">
        <ele>639.8</ele>
        <time>2021-03-27T08:29:54Z</time>
      </trkpt>
      <trkpt lat="44.95616" lon="4.65764">
        <ele>639.4</ele>
        <time>2021-03-27T08:29:58Z</time>
      </trkpt>
      <trkpt lat="44.9561" lon="4.65748">
        <ele>640.2</ele>
        <time>2021-03-27T08:30:02Z</time>
      </trkpt>
      <trkpt lat="44.95606" lon="4.65731">
        <ele>640.2</ele>
        <time>2021-03-27T08:30:06Z</time>
      </trkpt>
      <trkpt lat="44.95606" lon="4.65713">
        <ele>641</ele>
        <time>2021-03-27T08:30:10Z</time>
      </trkpt>
      <trkpt lat="44.95608" lon="4.65698">
        <ele>641</ele>
        <time>2021-03-27T08:30:14Z</time>
      </trkpt>
      <trkpt lat="44.95613" lon="4.65685">
        <ele>641.8</ele>
        <time>2021-03-27T08:30:18Z</time>
      </trkpt>
      <trkpt lat="44.95618" lon="4.65671">
        <ele>642</ele>
        <time>2021-03-27T08:30:22Z</time>
      </trkpt>
      <trkpt lat="44.95623" lon="4.65658">
        <ele>642</ele>
        <time>2021-03-27T08:30:26Z</time>
      </trkpt>
      <trkpt lat="44.95629" lon="4.65643">
        <ele>641.8</ele>
        <time>2021-03-27T08:30:30Z</time>
      </trkpt>
      <trkpt lat="44.95635" lon="4.65627">
        <ele>642.2</ele>
        <time>2021-03-27T08:30:34Z</time>
      </trkpt>
      <trkpt lat="44.95635" lon="4.65608">
        <ele>642.6</ele>
        <time>2021-03-27T08:30:38Z</time>
      </trkpt>
      <trkpt lat="44.95627" lon="4.65594">
        <ele>642.4</ele>
        <time>2021-03-27T08:30:42Z</time>
      </trkpt>
      <trkpt lat="44.9562" lon="4.65586">
        <ele>643.8</ele>
        <time>2021-03-27T08:30:46Z</time>
      </trkpt>
      <trkpt lat="44.95614" lon="4.6558">
        <ele>645</ele>
        <time>2021-03-27T08:30:50Z</time>
      </trkpt>
      <trkpt lat="44.95609" lon="4.65575">
        <ele>645</ele>
        <time>2021-03-27T08:30:54Z</time>
      </trkpt>
      <trkpt lat="44.95604" lon="4.65569">
        <ele>646.4</ele>
        <time>2021-03-27T08:30:58Z</time>
      </trkpt>
      <trkpt lat="44.95599" lon="4.65563">
        <ele>647</ele>
        <time>2021-03-27T08:31:02Z</time>
      </trkpt>
      <trkpt lat="44.95594" lon="4.65557">
        <ele>648</ele>
        <time>2021-03-27T08:31:06Z</time>
      </trkpt>
      <trkpt lat="44.9559" lon="4.65551">
        <ele>649.6</ele>
        <time>2021-03-27T08:31:10Z</time>
      </trkpt>
      <trkpt lat="44.95586" lon="4.65546">
        <ele>649</ele>
        <time>2021-03-27T08:31:14Z</time>
      </trkpt>
      <trkpt lat="44.95581" lon="4.65541">
        <ele>650.2</ele>
        <time>2021-03-27T08:31:18Z</time>
      </trkpt>
      <trkpt lat="44.95577" lon="4.65537">
        <ele>651</ele>
        <time>2021-03-27T08:31:22Z</time>
      </trkpt>
      <trkpt lat="44.95571" lon="4.65533">
        <ele>651.4</ele>
        <time>2021-03-27T08:31:26Z</time>
      </trkpt>
      <trkpt lat="44.95566" lon="4.6553">
        <ele>653.2</ele>
        <time>2021-03-27T08:31:30Z</time>
      </trkpt>
      <trkpt lat="44.9556" lon="4.65527">
        <ele>653.8</ele>
        <time>2021-03-27T08:31:34Z</time>
      </trkpt>
      <trkpt lat="44.95554" lon="4.65525">
        <ele>654.6</ele>
        <time>2021-03-27T08:31:38Z</time>
      </trkpt>
      <trkpt lat="44.95548" lon="4.65524">
        <ele>654.8</ele>
        <time>2021-03-27T08:31:42Z</time>
      </trkpt>
      <trkpt lat="44.95542" lon="4.65523">
        <ele>655.8</ele>
        <time>2021-03-27T08:31:46Z</time>
      </trkpt>
      <trkpt lat="44.95536" lon="4.65524">
        <ele>656.4</ele>
        <time>2021-03-27T08:31:50Z</time>
      </trkpt>
      <trkpt lat="44.9553" lon="4.65525">
        <ele>656.8</ele>
        <time>2021-03-27T08:31:54Z</time>
      </trkpt>
      <trkpt lat="44.95525" lon="4.65527">
        <ele>658</ele>
        <time>2021-03-27T08:31:58Z</time>
      </trkpt>
      <trkpt lat="44.9552" lon="4.65528">
        <ele>658.4</ele>
        <time>2021-03-27T08:32:02Z</time>
      </trkpt>
      <trkpt lat="44.95514" lon="4.6553">
        <ele>659.4</ele>
        <time>2021-03-27T08:32:06Z</time>
      </trkpt>
      <trkpt lat="44.95508" lon="4.65531">
        <ele>660.2</ele>
        <time>2021-03-27T08:32:10Z</time>
      </trkpt>
      <trkpt lat="44.95501" lon="4.6553">
        <ele>660.6</ele>
        <time>2021-03-27T08:32:14Z</time>
      </trkpt>
      <trkpt lat="44.95494" lon="4.6553">
        <ele>661.4</ele>
        <time>2021-03-27T08:32:18Z</time>
      </trkpt>
      <trkpt lat="44.95487" lon="4.6553">
        <ele>662</ele>
        <time>2021-03-27T08:32:22Z</time>
      </trkpt>
      <trkpt lat="44.9548" lon="4.65531">
        <ele>662.8</ele>
        <time>2021-03-27T08:32:26Z</time>
      </trkpt>
      <trkpt lat="44.95473" lon="4.65533">
        <ele>663.4</ele>
        <time>2021-03-27T08:32:30Z</time>
      </trkpt>
      <trkpt lat="44.95466" lon="4.65535">
        <ele>664.2</ele>
        <time>2021-03-27T08:32:34Z</time>
      </trkpt>
      <trkpt lat="44.95457" lon="4.65537">
        <ele>663.8</ele>
        <time>2021-03-27T08:32:38Z</time>
      </trkpt>
      <trkpt lat="44.95448" lon="4.65539">
        <ele>664.4</ele>
        <time>2021-03-27T08:32:42Z</time>
      </trkpt>
      <trkpt lat="44.95438" lon="4.65539">
        <ele>664.4</ele>
        <time>2021-03-27T08:32:46Z</time>
      </trkpt>
      <trkpt lat="44.95429" lon="4.6554">
        <ele>664.8</ele>
        <time>2021-03-27T08:32:50Z</time>
      </trkpt>
      <trkpt lat="44.9542" lon="4.65539">
        <ele>665.6</ele>
        <time>2021-03-27T08:32:54Z</time>
      </trkpt>
      <trkpt lat="44.95412" lon="4.65538">
        <ele>666.2</ele>
        <time>2021-03-27T08:32:58Z</time>
      </trkpt>
      <trkpt lat="44.95405" lon="4.65536">
        <ele>666.6</ele>
        <time>2021-03-27T08:33:02Z</time>
      </trkpt>
      <trkpt lat="44.95398" lon="4.65535">
        <ele>667.2</ele>
        <time>2021-03-27T08:33:06Z</time>
      </trkpt>
      <trkpt lat="44.95392" lon="4.65532">
        <ele>668.2</ele>
        <time>2021-03-27T08:33:10Z</time>
      </trkpt>
      <trkpt lat="44.95386" lon="4.65531">
        <ele>669</ele>
        <time>2021-03-27T08:33:14Z</time>
      </trkpt>
      <trkpt lat="44.9538" lon="4.6553">
        <ele>669.8</ele>
        <time>2021-03-27T08:33:18Z</time>
      </trkpt>
      <trkpt lat="44.95372" lon="4.65528">
        <ele>671</ele>
        <time>2021-03-27T08:33:22Z</time>
      </trkpt>
      <trkpt lat="44.95364" lon="4.65531">
        <ele>671.8</ele>
        <time>2021-03-27T08:33:26Z</time>
      </trkpt>
      <trkpt lat="44.95355" lon="4.65535">
        <ele>671.8</ele>
        <time>2021-03-27T08:33:30Z</time>
      </trkpt>
      <trkpt lat="44.95348" lon="4.65537">
        <ele>672.4</ele>
        <time>2021-03-27T08:33:34Z</time>
      </trkpt>
      <trkpt lat="44.95341" lon="4.65537">
        <ele>673.2</ele>
        <time>2021-03-27T08:33:38Z</time>
      </trkpt>
      <trkpt lat="44.95335" lon="4.65538">
        <ele>673.8</ele>
        <time>2021-03-27T08:33:42Z</time>
      </trkpt>
      <trkpt lat="44.95325" lon="4.65541">
        <ele>672.6</ele>
        <time>2021-03-27T08:33:46Z</time>
      </trkpt>
      <trkpt lat="44.95309" lon="4.65551">
        <ele>670.8</ele>
        <time>2021-03-27T08:33:50Z</time>
      </trkpt>
      <trkpt lat="44.95291" lon="4.6556">
        <ele>670.8</ele>
        <time>2021-03-27T08:33:54Z</time>
      </trkpt>
      <trkpt lat="44.95273" lon="4.65558">
        <ele>669.8</ele>
        <time>2021-03-27T08:33:58Z</time>
      </trkpt>
      <trkpt lat="44.95265" lon="4.6554">
        <ele>670.4</ele>
        <time>2021-03-27T08:34:02Z</time>
      </trkpt>
      <trkpt lat="44.95263" lon="4.65519">
        <ele>670.6</ele>
        <time>2021-03-27T08:34:06Z</time>
      </trkpt>
      <trkpt lat="44.95259" lon="4.65499">
        <ele>670.8</ele>
        <time>2021-03-27T08:34:10Z</time>
      </trkpt>
      <trkpt lat="44.95255" lon="4.65479">
        <ele>671.2</ele>
        <time>2021-03-27T08:34:14Z</time>
      </trkpt>
      <trkpt lat="44.95251" lon="4.6546">
        <ele>670.4</ele>
        <time>2021-03-27T08:34:18Z</time>
      </trkpt>
      <trkpt lat="44.95247" lon="4.65441">
        <ele>671.2</ele>
        <time>2021-03-27T08:34:22Z</time>
      </trkpt>
      <trkpt lat="44.95242" lon="4.65423">
        <ele>671</ele>
        <time>2021-03-27T08:34:26Z</time>
      </trkpt>
      <trkpt lat="44.95236" lon="4.65406">
        <ele>671.4</ele>
        <time>2021-03-27T08:34:30Z</time>
      </trkpt>
      <trkpt lat="44.95231" lon="4.65392">
        <ele>671</ele>
        <time>2021-03-27T08:34:34Z</time>
      </trkpt>
      <trkpt lat="44.95225" lon="4.65381">
        <ele>671.8</ele>
        <time>2021-03-27T08:34:38Z</time>
      </trkpt>
      <trkpt lat="44.95218" lon="4.6537">
        <ele>672.4</ele>
        <time>2021-03-27T08:34:42Z</time>
      </trkpt>
      <trkpt lat="44.95211" lon="4.65361">
        <ele>672.4</ele>
        <time>2021-03-27T08:34:46Z</time>
      </trkpt>
      <trkpt lat="44.95204" lon="4.65351">
        <ele>672.4</ele>
        <time>2021-03-27T08:34:50Z</time>
      </trkpt>
      <trkpt lat="44.95195" lon="4.65341">
        <ele>671.8</ele>
        <time>2021-03-27T08:34:54Z</time>
      </trkpt>
      <trkpt lat="44.95184" lon="4.65324">
        <ele>670</ele>
        <time>2021-03-27T08:34:58Z</time>
      </trkpt>
      <trkpt lat="44.95173" lon="4.65301">
        <ele>668.8</ele>
        <time>2021-03-27T08:35:02Z</time>
      </trkpt>
      <trkpt lat="44.95159" lon="4.6528">
        <ele>669.2</ele>
        <time>2021-03-27T08:35:06Z</time>
      </trkpt>
      <trkpt lat="44.95137" lon="4.65262">
        <ele>669.6</ele>
        <time>2021-03-27T08:35:10Z</time>
      </trkpt>
      <trkpt lat="44.9512" lon="4.65251">
        <ele>669.8</ele>
        <time>2021-03-27T08:35:14Z</time>
      </trkpt>
      <trkpt lat="44.95107" lon="4.65243">
        <ele>670.4</ele>
        <time>2021-03-27T08:35:18Z</time>
      </trkpt>
      <trkpt lat="44.95094" lon="4.65239">
        <ele>670.4</ele>
        <time>2021-03-27T08:35:22Z</time>
      </trkpt>
      <trkpt lat="44.95077" lon="4.65235">
        <ele>669.4</ele>
        <time>2021-03-27T08:35:26Z</time>
      </trkpt>
      <trkpt lat="44.95055" lon="4.65223">
        <ele>669.2</ele>
        <time>2021-03-27T08:35:30Z</time>
      </trkpt>
      <trkpt lat="44.95033" lon="4.65215">
        <ele>668.2</ele>
        <time>2021-03-27T08:35:34Z</time>
      </trkpt>
      <trkpt lat="44.95015" lon="4.65213">
        <ele>666.8</ele>
        <time>2021-03-27T08:35:38Z</time>
      </trkpt>
      <trkpt lat="44.94987" lon="4.65205">
        <ele>664</ele>
        <time>2021-03-27T08:35:42Z</time>
      </trkpt>
      <trkpt lat="44.94972" lon="4.65173">
        <ele>663.6</ele>
        <time>2021-03-27T08:35:46Z</time>
      </trkpt>
      <trkpt lat="44.94978" lon="4.6514">
        <ele>661.6</ele>
        <time>2021-03-27T08:35:50Z</time>
      </trkpt>
      <trkpt lat="44.94988" lon="4.65126">
        <ele>664.8</ele>
        <time>2021-03-27T08:35:54Z</time>
      </trkpt>
      <trkpt lat="44.94994" lon="4.65121">
        <ele>667.6</ele>
        <time>2021-03-27T08:35:58Z</time>
      </trkpt>
      <trkpt lat="44.94997" lon="4.65116">
        <ele>668.2</ele>
        <time>2021-03-27T08:36:02Z</time>
      </trkpt>
      <trkpt lat="44.95003" lon="4.65114">
        <ele>669.2</ele>
        <time>2021-03-27T08:36:06Z</time>
      </trkpt>
      <trkpt lat="44.95008" lon="4.65112">
        <ele>670</ele>
        <time>2021-03-27T08:36:10Z</time>
      </trkpt>
      <trkpt lat="44.95013" lon="4.6511">
        <ele>671</ele>
        <time>2021-03-27T08:36:14Z</time>
      </trkpt>
      <trkpt lat="44.95019" lon="4.65107">
        <ele>671.6</ele>
        <time>2021-03-27T08:36:18Z</time>
      </trkpt>
      <trkpt lat="44.95026" lon="4.65104">
        <ele>672.4</ele>
        <time>2021-03-27T08:36:22Z</time>
      </trkpt>
      <trkpt lat="44.95033" lon="4.65101">
        <ele>672.8</ele>
        <time>2021-03-27T08:36:26Z</time>
      </trkpt>
      <trkpt lat="44.95039" lon="4.65097">
        <ele>673.4</ele>
        <time>2021-03-27T08:36:30Z</time>
      </trkpt>
      <trkpt lat="44.95045" lon="4.65095">
        <ele>674.2</ele>
        <time>2021-03-27T08:36:34Z</time>
      </trkpt>
      <trkpt lat="44.95051" lon="4.65093">
        <ele>675</ele>
        <time>2021-03-27T08:36:38Z</time>
      </trkpt>
      <trkpt lat="44.95057" lon="4.65088">
        <ele>676.2</ele>
        <time>2021-03-27T08:36:42Z</time>
      </trkpt>
      <trkpt lat="44.9506" lon="4.65081">
        <ele>677.2</ele>
        <time>2021-03-27T08:36:46Z</time>
      </trkpt>
      <trkpt lat="44.95057" lon="4.65073">
        <ele>678.2</ele>
        <time>2021-03-27T08:36:50Z</time>
      </trkpt>
      <trkpt lat="44.95053" lon="4.65067">
        <ele>679.2</ele>
        <time>2021-03-27T08:36:54Z</time>
      </trkpt>
      <trkpt lat="44.95048" lon="4.65062">
        <ele>679.6</ele>
        <time>2021-03-27T08:36:58Z</time>
      </trkpt>
      <trkpt lat="44.95042" lon="4.65058">
        <ele>680.6</ele>
        <time>2021-03-27T08:37:02Z</time>
      </trkpt>
      <trkpt lat="44.95036" lon="4.65053">
        <ele>681.4</ele>
        <time>2021-03-27T08:37:06Z</time>
      </trkpt>
      <trkpt lat="44.95029" lon="4.65048">
        <ele>681.6</ele>
        <time>2021-03-27T08:37:10Z</time>
      </trkpt>
      <trkpt lat="44.95021" lon="4.65045">
        <ele>682.2</ele>
        <time>2021-03-27T08:37:14Z</time>
      </trkpt>
      <trkpt lat="44.95014" lon="4.65041">
        <ele>682.8</ele>
        <time>2021-03-27T08:37:18Z</time>
      </trkpt>
      <trkpt lat="44.95008" lon="4.65037">
        <ele>683</ele>
        <time>2021-03-27T08:37:22Z</time>
      </trkpt>
      <trkpt lat="44.95001" lon="4.65032">
        <ele>683.6</ele>
        <time>2021-03-27T08:37:26Z</time>
      </trkpt>
      <trkpt lat="44.94994" lon="4.65028">
        <ele>684.8</ele>
        <time>2021-03-27T08:37:30Z</time>
      </trkpt>
      <trkpt lat="44.94987" lon="4.65024">
        <ele>685.6</ele>
        <time>2021-03-27T08:37:34Z</time>
      </trkpt>
      <trkpt lat="44.9498" lon="4.6502">
        <ele>685.6</ele>
        <time>2021-03-27T08:37:38Z</time>
      </trkpt>
      <trkpt lat="44.94973" lon="4.65015">
        <ele>686.6</ele>
        <time>2021-03-27T08:37:42Z</time>
      </trkpt>
      <trkpt lat="44.94966" lon="4.6501">
        <ele>687.6</ele>
        <time>2021-03-27T08:37:46Z</time>
      </trkpt>
      <trkpt lat="44.94959" lon="4.65004">
        <ele>688.2</ele>
        <time>2021-03-27T08:37:50Z</time>
      </trkpt>
      <trkpt lat="44.94954" lon="4.64996">
        <ele>688.8</ele>
        <time>2021-03-27T08:37:54Z</time>
      </trkpt>
      <trkpt lat="44.9495" lon="4.64988">
        <ele>689.4</ele>
        <time>2021-03-27T08:37:58Z</time>
      </trkpt>
      <trkpt lat="44.94948" lon="4.64979">
        <ele>690.4</ele>
        <time>2021-03-27T08:38:02Z</time>
      </trkpt>
      <trkpt lat="44.94947" lon="4.64969">
        <ele>691</ele>
        <time>2021-03-27T08:38:06Z</time>
      </trkpt>
      <trkpt lat="44.9495" lon="4.6496">
        <ele>691.6</ele>
        <time>2021-03-27T08:38:10Z</time>
      </trkpt>
      <trkpt lat="44.94954" lon="4.64952">
        <ele>692</ele>
        <time>2021-03-27T08:38:14Z</time>
      </trkpt>
      <trkpt lat="44.9496" lon="4.64948">
        <ele>693.2</ele>
        <time>2021-03-27T08:38:18Z</time>
      </trkpt>
      <trkpt lat="44.94968" lon="4.64946">
        <ele>693.4</ele>
        <time>2021-03-27T08:38:22Z</time>
      </trkpt>
      <trkpt lat="44.94975" lon="4.64943">
        <ele>693.4</ele>
        <time>2021-03-27T08:38:26Z</time>
      </trkpt>
      <trkpt lat="44.94983" lon="4.64939">
        <ele>694.8</ele>
        <time>2021-03-27T08:38:30Z</time>
      </trkpt>
      <trkpt lat="44.9499" lon="4.64929">
        <ele>694.8</ele>
        <time>2021-03-27T08:38:34Z</time>
      </trkpt>
      <trkpt lat="44.94994" lon="4.64917">
        <ele>694.8</ele>
        <time>2021-03-27T08:38:38Z</time>
      </trkpt>
      <trkpt lat="44.94993" lon="4.64904">
        <ele>695.8</ele>
        <time>2021-03-27T08:38:42Z</time>
      </trkpt>
      <trkpt lat="44.94991" lon="4.64893">
        <ele>696</ele>
        <time>2021-03-27T08:38:46Z</time>
      </trkpt>
      <trkpt lat="44.94989" lon="4.64881">
        <ele>697</ele>
        <time>2021-03-27T08:38:50Z</time>
      </trkpt>
      <trkpt lat="44.94987" lon="4.64871">
        <ele>697.8</ele>
        <time>2021-03-27T08:38:54Z</time>
      </trkpt>
      <trkpt lat="44.94985" lon="4.64861">
        <ele>698.2</ele>
        <time>2021-03-27T08:38:58Z</time>
      </trkpt>
      <trkpt lat="44.94981" lon="4.64852">
        <ele>699.8</ele>
        <time>2021-03-27T08:39:02Z</time>
      </trkpt>
      <trkpt lat="44.94976" lon="4.64845">
        <ele>700.2</ele>
        <time>2021-03-27T08:39:06Z</time>
      </trkpt>
      <trkpt lat="44.9497" lon="4.6484">
        <ele>701.2</ele>
        <time>2021-03-27T08:39:10Z</time>
      </trkpt>
      <trkpt lat="44.94964" lon="4.64833">
        <ele>701.2</ele>
        <time>2021-03-27T08:39:14Z</time>
      </trkpt>
      <trkpt lat="44.94958" lon="4.64827">
        <ele>702</ele>
        <time>2021-03-27T08:39:18Z</time>
      </trkpt>
      <trkpt lat="44.94954" lon="4.64821">
        <ele>703.4</ele>
        <time>2021-03-27T08:39:22Z</time>
      </trkpt>
      <trkpt lat="44.94949" lon="4.64815">
        <ele>704.4</ele>
        <time>2021-03-27T08:39:26Z</time>
      </trkpt>
      <trkpt lat="44.94945" lon="4.64809">
        <ele>704.8</ele>
        <time>2021-03-27T08:39:30Z</time>
      </trkpt>
      <trkpt lat="44.94941" lon="4.64803">
        <ele>705.4</ele>
        <time>2021-03-27T08:39:34Z</time>
      </trkpt>
      <trkpt lat="44.94937" lon="4.64796">
        <ele>706.4</ele>
        <time>2021-03-27T08:39:38Z</time>
      </trkpt>
      <trkpt lat="44.94933" lon="4.64789">
        <ele>707.2</ele>
        <time>2021-03-27T08:39:42Z</time>
      </trkpt>
      <trkpt lat="44.94929" lon="4.64782">
        <ele>708.2</ele>
        <time>2021-03-27T08:39:46Z</time>
      </trkpt>
      <trkpt lat="44.94926" lon="4.64775">
        <ele>708.6</ele>
        <time>2021-03-27T08:39:50Z</time>
      </trkpt>
      <trkpt lat="44.94923" lon="4.64768">
        <ele>709.4</ele>
        <time>2021-03-27T08:39:54Z</time>
      </trkpt>
      <trkpt lat="44.9492" lon="4.64761">
        <ele>710.4</ele>
        <time>2021-03-27T08:39:58Z</time>
      </trkpt>
      <trkpt lat="44.94916" lon="4.64754">
        <ele>711</ele>
        <time>2021-03-27T08:40:02Z</time>
      </trkpt>
      <trkpt lat="44.94913" lon="4.64747">
        <ele>711.8</ele>
        <time>2021-03-27T08:40:06Z</time>
      </trkpt>
      <trkpt lat="44.9491" lon="4.6474">
        <ele>711.8</ele>
        <time>2021-03-27T08:40:10Z</time>
      </trkpt>
      <trkpt lat="44.94907" lon="4.64732">
        <ele>713</ele>
        <time>2021-03-27T08:40:14Z</time>
      </trkpt>
      <trkpt lat="44.94904" lon="4.64724">
        <ele>714.2</ele>
        <time>2021-03-27T08:40:18Z</time>
      </trkpt>
      <trkpt lat="44.94903" lon="4.64715">
        <ele>715.4</ele>
        <time>2021-03-27T08:40:22Z</time>
      </trkpt>
      <trkpt lat="44.94903" lon="4.64706">
        <ele>716.2</ele>
        <time>2021-03-27T08:40:26Z</time>
      </trkpt>
      <trkpt lat="44.94902" lon="4.64697">
        <ele>717</ele>
        <time>2021-03-27T08:40:30Z</time>
      </trkpt>
      <trkpt lat="44.94903" lon="4.64688">
        <ele>717.6</ele>
        <time>2021-03-27T08:40:34Z</time>
      </trkpt>
      <trkpt lat="44.94902" lon="4.64677">
        <ele>718</ele>
        <time>2021-03-27T08:40:38Z</time>
      </trkpt>
      <trkpt lat="44.94901" lon="4.64667">
        <ele>719</ele>
        <time>2021-03-27T08:40:42Z</time>
      </trkpt>
      <trkpt lat="44.949" lon="4.64658">
        <ele>719.4</ele>
        <time>2021-03-27T08:40:46Z</time>
      </trkpt>
      <trkpt lat="44.94899" lon="4.64648">
        <ele>720.6</ele>
        <time>2021-03-27T08:40:50Z</time>
      </trkpt>
      <trkpt lat="44.94899" lon="4.6464">
        <ele>720.8</ele>
        <time>2021-03-27T08:40:54Z</time>
      </trkpt>
      <trkpt lat="44.94899" lon="4.64632">
        <ele>721.6</ele>
        <time>2021-03-27T08:40:58Z</time>
      </trkpt>
      <trkpt lat="44.94901" lon="4.64622">
        <ele>722</ele>
        <time>2021-03-27T08:41:02Z</time>
      </trkpt>
      <trkpt lat="44.94899" lon="4.64611">
        <ele>722.6</ele>
        <time>2021-03-27T08:41:06Z</time>
      </trkpt>
      <trkpt lat="44.94899" lon="4.64601">
        <ele>722.8</ele>
        <time>2021-03-27T08:41:10Z</time>
      </trkpt>
      <trkpt lat="44.94897" lon="4.6459">
        <ele>722.8</ele>
        <time>2021-03-27T08:41:14Z</time>
      </trkpt>
      <trkpt lat="44.94895" lon="4.6458">
        <ele>724</ele>
        <time>2021-03-27T08:41:18Z</time>
      </trkpt>
      <trkpt lat="44.94893" lon="4.64569">
        <ele>724.6</ele>
        <time>2021-03-27T08:41:22Z</time>
      </trkpt>
      <trkpt lat="44.9489" lon="4.6456">
        <ele>725.4</ele>
        <time>2021-03-27T08:41:26Z</time>
      </trkpt>
      <trkpt lat="44.94887" lon="4.64551">
        <ele>725.8</ele>
        <time>2021-03-27T08:41:30Z</time>
      </trkpt>
      <trkpt lat="44.94884" lon="4.64543">
        <ele>726.2</ele>
        <time>2021-03-27T08:41:34Z</time>
      </trkpt>
      <trkpt lat="44.9488" lon="4.64535">
        <ele>727.2</ele>
        <time>2021-03-27T08:41:38Z</time>
      </trkpt>
      <trkpt lat="44.94876" lon="4.64527">
        <ele>728.2</ele>
        <time>2021-03-27T08:41:42Z</time>
      </trkpt>
      <trkpt lat="44.9487" lon="4.6452">
        <ele>728.2</ele>
        <time>2021-03-27T08:41:46Z</time>
      </trkpt>
      <trkpt lat="44.94865" lon="4.64512">
        <ele>728.8</ele>
        <time>2021-03-27T08:41:50Z</time>
      </trkpt>
      <trkpt lat="44.94861" lon="4.64505">
        <ele>729.6</ele>
        <time>2021-03-27T08:41:54Z</time>
      </trkpt>
      <trkpt lat="44.94857" lon="4.64498">
        <ele>730</ele>
        <time>2021-03-27T08:41:58Z</time>
      </trkpt>
      <trkpt lat="44.94853" lon="4.6449">
        <ele>730.8</ele>
        <time>2021-03-27T08:42:02Z</time>
      </trkpt>
      <trkpt lat="44.94848" lon="4.64481">
        <ele>730.8</ele>
        <time>2021-03-27T08:42:06Z</time>
      </trkpt>
      <trkpt lat="44.94846" lon="4.64474">
        <ele>731.4</ele>
        <time>2021-03-27T08:42:10Z</time>
      </trkpt>
      <trkpt lat="44.94841" lon="4.6446">
        <ele>731.6</ele>
        <time>2021-03-27T08:42:14Z</time>
      </trkpt>
      <trkpt lat="44.94835" lon="4.6445">
        <ele>732</ele>
        <time>2021-03-27T08:42:18Z</time>
      </trkpt>
      <trkpt lat="44.94829" lon="4.6444">
        <ele>732.2</ele>
        <time>2021-03-27T08:42:22Z</time>
      </trkpt>
      <trkpt lat="44.94822" lon="4.64431">
        <ele>731.8</ele>
        <time>2021-03-27T08:42:26Z</time>
      </trkpt>
      <trkpt lat="44.94812" lon="4.64421">
        <ele>732.2</ele>
        <time>2021-03-27T08:42:30Z</time>
      </trkpt>
      <trkpt lat="44.94804" lon="4.64408">
        <ele>732.4</ele>
        <time>2021-03-27T08:42:34Z</time>
      </trkpt>
      <trkpt lat="44.94798" lon="4.64398">
        <ele>732.4</ele>
        <time>2021-03-27T08:42:38Z</time>
      </trkpt>
      <trkpt lat="44.94783" lon="4.64385">
        <ele>732.2</ele>
        <time>2021-03-27T08:42:42Z</time>
      </trkpt>
      <trkpt lat="44.94761" lon="4.64374">
        <ele>729.8</ele>
        <time>2021-03-27T08:42:46Z</time>
      </trkpt>
      <trkpt lat="44.94746" lon="4.6435">
        <ele>728.2</ele>
        <time>2021-03-27T08:42:50Z</time>
      </trkpt>
      <trkpt lat="44.94731" lon="4.64321">
        <ele>723.8</ele>
        <time>2021-03-27T08:42:54Z</time>
      </trkpt>
      <trkpt lat="44.94725" lon="4.64294">
        <ele>725.6</ele>
        <time>2021-03-27T08:42:58Z</time>
      </trkpt>
      <trkpt lat="44.94733" lon="4.64281">
        <ele>727</ele>
        <time>2021-03-27T08:43:02Z</time>
      </trkpt>
      <trkpt lat="44.94738" lon="4.64271">
        <ele>727.6</ele>
        <time>2021-03-27T08:43:06Z</time>
      </trkpt>
      <trkpt lat="44.9474" lon="4.64261">
        <ele>729</ele>
        <time>2021-03-27T08:43:10Z</time>
      </trkpt>
      <trkpt lat="44.9474" lon="4.64251">
        <ele>729.6</ele>
        <time>2021-03-27T08:43:14Z</time>
      </trkpt>
      <trkpt lat="44.94739" lon="4.64242">
        <ele>730.4</ele>
        <time>2021-03-27T08:43:18Z</time>
      </trkpt>
      <trkpt lat="44.94737" lon="4.64233">
        <ele>731.6</ele>
        <time>2021-03-27T08:43:22Z</time>
      </trkpt>
      <trkpt lat="44.94735" lon="4.64225">
        <ele>732.8</ele>
        <time>2021-03-27T08:43:26Z</time>
      </trkpt>
      <trkpt lat="44.94733" lon="4.64217">
        <ele>733</ele>
        <time>2021-03-27T08:43:30Z</time>
      </trkpt>
      <trkpt lat="44.9473" lon="4.64208">
        <ele>733.6</ele>
        <time>2021-03-27T08:43:34Z</time>
      </trkpt>
      <trkpt lat="44.94728" lon="4.64199">
        <ele>734.6</ele>
        <time>2021-03-27T08:43:38Z</time>
      </trkpt>
      <trkpt lat="44.94725" lon="4.6419">
        <ele>734.6</ele>
        <time>2021-03-27T08:43:42Z</time>
      </trkpt>
      <trkpt lat="44.94722" lon="4.64182">
        <ele>735.6</ele>
        <time>2021-03-27T08:43:46Z</time>
      </trkpt>
      <trkpt lat="44.94719" lon="4.64174">
        <ele>736.2</ele>
        <time>2021-03-27T08:43:50Z</time>
      </trkpt>
      <trkpt lat="44.94717" lon="4.64166">
        <ele>738</ele>
        <time>2021-03-27T08:43:54Z</time>
      </trkpt>
      <trkpt lat="44.94714" lon="4.64158">
        <ele>738</ele>
        <time>2021-03-27T08:43:58Z</time>
      </trkpt>
      <trkpt lat="44.94711" lon="4.6415">
        <ele>738.8</ele>
        <time>2021-03-27T08:44:02Z</time>
      </trkpt>
      <trkpt lat="44.94707" lon="4.6414">
        <ele>739.6</ele>
        <time>2021-03-27T08:44:06Z</time>
      </trkpt>
      <trkpt lat="44.94704" lon="4.6413">
        <ele>739.6</ele>
        <time>2021-03-27T08:44:10Z</time>
      </trkpt>
      <trkpt lat="44.94701" lon="4.64121">
        <ele>740.4</ele>
        <time>2021-03-27T08:44:14Z</time>
      </trkpt>
      <trkpt lat="44.94698" lon="4.64112">
        <ele>741</ele>
        <time>2021-03-27T08:44:18Z</time>
      </trkpt>
      <trkpt lat="44.94695" lon="4.64103">
        <ele>741.8</ele>
        <time>2021-03-27T08:44:22Z</time>
      </trkpt>
      <trkpt lat="44.94693" lon="4.64093">
        <ele>742.4</ele>
        <time>2021-03-27T08:44:26Z</time>
      </trkpt>
      <trkpt lat="44.94691" lon="4.64084">
        <ele>742.6</ele>
        <time>2021-03-27T08:44:30Z</time>
      </trkpt>
      <trkpt lat="44.94691" lon="4.64075">
        <ele>743.8</ele>
        <time>2021-03-27T08:44:34Z</time>
      </trkpt>
      <trkpt lat="44.94691" lon="4.64067">
        <ele>744.4</ele>
        <time>2021-03-27T08:44:38Z</time>
      </trkpt>
      <trkpt lat="44.9469" lon="4.6406">
        <ele>745.4</ele>
        <time>2021-03-27T08:44:42Z</time>
      </trkpt>
      <trkpt lat="44.94689" lon="4.64054">
        <ele>746</ele>
        <time>2021-03-27T08:44:46Z</time>
      </trkpt>
      <trkpt lat="44.94687" lon="4.64047">
        <ele>747</ele>
        <time>2021-03-27T08:44:50Z</time>
      </trkpt>
      <trkpt lat="44.94684" lon="4.64042">
        <ele>747.4</ele>
        <time>2021-03-27T08:44:54Z</time>
      </trkpt>
      <trkpt lat="44.9468" lon="4.64037">
        <ele>748.8</ele>
        <time>2021-03-27T08:44:58Z</time>
      </trkpt>
      <trkpt lat="44.94676" lon="4.64034">
        <ele>749.4</ele>
        <time>2021-03-27T08:45:02Z</time>
      </trkpt>
      <trkpt lat="44.94671" lon="4.6403">
        <ele>750.2</ele>
        <time>2021-03-27T08:45:06Z</time>
      </trkpt>
      <trkpt lat="44.94666" lon="4.64028">
        <ele>751</ele>
        <time>2021-03-27T08:45:10Z</time>
      </trkpt>
      <trkpt lat="44.94661" lon="4.64026">
        <ele>751.6</ele>
        <time>2021-03-27T08:45:14Z</time>
      </trkpt>
      <trkpt lat="44.94656" lon="4.64022">
        <ele>752</ele>
        <time>2021-03-27T08:45:18Z</time>
      </trkpt>
      <trkpt lat="44.9465" lon="4.64018">
        <ele>752.6</ele>
        <time>2021-03-27T08:45:22Z</time>
      </trkpt>
      <trkpt lat="44.94645" lon="4.64013">
        <ele>753.6</ele>
        <time>2021-03-27T08:45:26Z</time>
      </trkpt>
      <trkpt lat="44.9464" lon="4.64006">
        <ele>754.6</ele>
        <time>2021-03-27T08:45:30Z</time>
      </trkpt>
      <trkpt lat="44.94635" lon="4.63999">
        <ele>754.8</ele>
        <time>2021-03-27T08:45:34Z</time>
      </trkpt>
      <trkpt lat="44.9463" lon="4.63992">
        <ele>755</ele>
        <time>2021-03-27T08:45:38Z</time>
      </trkpt>
      <trkpt lat="44.94626" lon="4.63984">
        <ele>756.2</ele>
        <time>2021-03-27T08:45:42Z</time>
      </trkpt>
      <trkpt lat="44.94623" lon="4.63977">
        <ele>756.4</ele>
        <time>2021-03-27T08:45:46Z</time>
      </trkpt>
      <trkpt lat="44.9462" lon="4.63969">
        <ele>757.2</ele>
        <time>2021-03-27T08:45:50Z</time>
      </trkpt>
      <trkpt lat="44.94617" lon="4.63961">
        <ele>757.8</ele>
        <time>2021-03-27T08:45:54Z</time>
      </trkpt>
      <trkpt lat="44.94614" lon="4.63953">
        <ele>758.6</ele>
        <time>2021-03-27T08:45:58Z</time>
      </trkpt>
      <trkpt lat="44.94611" lon="4.63945">
        <ele>758.8</ele>
        <time>2021-03-27T08:46:02Z</time>
      </trkpt>
      <trkpt lat="44.94608" lon="4.63938">
        <ele>760</ele>
        <time>2021-03-27T08:46:06Z</time>
      </trkpt>
      <trkpt lat="44.94605" lon="4.63931">
        <ele>760.2</ele>
        <time>2021-03-27T08:46:10Z</time>
      </trkpt>
      <trkpt lat="44.94603" lon="4.63924">
        <ele>761.4</ele>
        <time>2021-03-27T08:46:14Z</time>
      </trkpt>
      <trkpt lat="44.94599" lon="4.63917">
        <ele>762</ele>
        <time>2021-03-27T08:46:18Z</time>
      </trkpt>
      <trkpt lat="44.94596" lon="4.6391">
        <ele>763.4</ele>
        <time>2021-03-27T08:46:22Z</time>
      </trkpt>
      <trkpt lat="44.94592" lon="4.63904">
        <ele>763.8</ele>
        <time>2021-03-27T08:46:26Z</time>
      </trkpt>
      <trkpt lat="44.94588" lon="4.63897">
        <ele>763.6</ele>
        <time>2021-03-27T08:46:30Z</time>
      </trkpt>
      <trkpt lat="44.94584" lon="4.63891">
        <ele>764.6</ele>
        <time>2021-03-27T08:46:34Z</time>
      </trkpt>
      <trkpt lat="44.9458" lon="4.63884">
        <ele>765.4</ele>
        <time>2021-03-27T08:46:38Z</time>
      </trkpt>
      <trkpt lat="44.94576" lon="4.63878">
        <ele>766.2</ele>
        <time>2021-03-27T08:46:42Z</time>
      </trkpt>
      <trkpt lat="44.94572" lon="4.63871">
        <ele>766.8</ele>
        <time>2021-03-27T08:46:46Z</time>
      </trkpt>
      <trkpt lat="44.94567" lon="4.63865">
        <ele>768</ele>
        <time>2021-03-27T08:46:50Z</time>
      </trkpt>
      <trkpt lat="44.94563" lon="4.63859">
        <ele>768.6</ele>
        <time>2021-03-27T08:46:54Z</time>
      </trkpt>
      <trkpt lat="44.9456" lon="4.63853">
        <ele>769.4</ele>
        <time>2021-03-27T08:46:58Z</time>
      </trkpt>
      <trkpt lat="44.94555" lon="4.63847">
        <ele>770.6</ele>
        <time>2021-03-27T08:47:02Z</time>
      </trkpt>
      <trkpt lat="44.9455" lon="4.6384">
        <ele>771.2</ele>
        <time>2021-03-27T08:47:06Z</time>
      </trkpt>
      <trkpt lat="44.94544" lon="4.63834">
        <ele>771.6</ele>
        <time>2021-03-27T08:47:10Z</time>
      </trkpt>
      <trkpt lat="44.94539" lon="4.63829">
        <ele>772.2</ele>
        <time>2021-03-27T08:47:14Z</time>
      </trkpt>
      <trkpt lat="44.94535" lon="4.63822">
        <ele>772.8</ele>
        <time>2021-03-27T08:47:18Z</time>
      </trkpt>
      <trkpt lat="44.94531" lon="4.63816">
        <ele>773.4</ele>
        <time>2021-03-27T08:47:22Z</time>
      </trkpt>
      <trkpt lat="44.94527" lon="4.63809">
        <ele>774.2</ele>
        <time>2021-03-27T08:47:26Z</time>
      </trkpt>
      <trkpt lat="44.94523" lon="4.63802">
        <ele>775.2</ele>
        <time>2021-03-27T08:47:30Z</time>
      </trkpt>
      <trkpt lat="44.9452" lon="4.63794">
        <ele>775.2</ele>
        <time>2021-03-27T08:47:34Z</time>
      </trkpt>
      <trkpt lat="44.94517" lon="4.63786">
        <ele>776.2</ele>
        <time>2021-03-27T08:47:38Z</time>
      </trkpt>
      <trkpt lat="44.94515" lon="4.63777">
        <ele>777.2</ele>
        <time>2021-03-27T08:47:42Z</time>
      </trkpt>
      <trkpt lat="44.94512" lon="4.63769">
        <ele>777.4</ele>
        <time>2021-03-27T08:47:46Z</time>
      </trkpt>
      <trkpt lat="44.94509" lon="4.63761">
        <ele>778.4</ele>
        <time>2021-03-27T08:47:50Z</time>
      </trkpt>
      <trkpt lat="44.94506" lon="4.63753">
        <ele>779</ele>
        <time>2021-03-27T08:47:54Z</time>
      </trkpt>
      <trkpt lat="44.94502" lon="4.63745">
        <ele>778.8</ele>
        <time>2021-03-27T08:47:58Z</time>
      </trkpt>
      <trkpt lat="44.94497" lon="4.63737">
        <ele>779.6</ele>
        <time>2021-03-27T08:48:02Z</time>
      </trkpt>
      <trkpt lat="44.94492" lon="4.63729">
        <ele>780.4</ele>
        <time>2021-03-27T08:48:06Z</time>
      </trkpt>
      <trkpt lat="44.94487" lon="4.63722">
        <ele>780.8</ele>
        <time>2021-03-27T08:48:10Z</time>
      </trkpt>
      <trkpt lat="44.94481" lon="4.63715">
        <ele>781.2</ele>
        <time>2021-03-27T08:48:14Z</time>
      </trkpt>
      <trkpt lat="44.94476" lon="4.63709">
        <ele>781.8</ele>
        <time>2021-03-27T08:48:18Z</time>
      </trkpt>
      <trkpt lat="44.9447" lon="4.63705">
        <ele>782.4</ele>
        <time>2021-03-27T08:48:22Z</time>
      </trkpt>
      <trkpt lat="44.94465" lon="4.63701">
        <ele>783.4</ele>
        <time>2021-03-27T08:48:26Z</time>
      </trkpt>
      <trkpt lat="44.94459" lon="4.63697">
        <ele>784.6</ele>
        <time>2021-03-27T08:48:30Z</time>
      </trkpt>
      <trkpt lat="44.94454" lon="4.63693">
        <ele>785.2</ele>
        <time>2021-03-27T08:48:34Z</time>
      </trkpt>
      <trkpt lat="44.94449" lon="4.63689">
        <ele>786.2</ele>
        <time>2021-03-27T08:48:38Z</time>
      </trkpt>
      <trkpt lat="44.94444" lon="4.63684">
        <ele>786.6</ele>
        <time>2021-03-27T08:48:42Z</time>
      </trkpt>
      <trkpt lat="44.94439" lon="4.63679">
        <ele>787.2</ele>
        <time>2021-03-27T08:48:46Z</time>
      </trkpt>
      <trkpt lat="44.94435" lon="4.63674">
        <ele>788</ele>
        <time>2021-03-27T08:48:50Z</time>
      </trkpt>
      <trkpt lat="44.94432" lon="4.63668">
        <ele>788.6</ele>
        <time>2021-03-27T08:48:54Z</time>
      </trkpt>
      <trkpt lat="44.94428" lon="4.63662">
        <ele>789.2</ele>
        <time>2021-03-27T08:48:58Z</time>
      </trkpt>
      <trkpt lat="44.94425" lon="4.63655">
        <ele>790</ele>
        <time>2021-03-27T08:49:02Z</time>
      </trkpt>
      <trkpt lat="44.94421" lon="4.63647">
        <ele>790.6</ele>
        <time>2021-03-27T08:49:06Z</time>
      </trkpt>
      <trkpt lat="44.94417" lon="4.63639">
        <ele>790.8</ele>
        <time>2021-03-27T08:49:10Z</time>
      </trkpt>
      <trkpt lat="44.94411" lon="4.63632">
        <ele>791.2</ele>
        <time>2021-03-27T08:49:14Z</time>
      </trkpt>
      <trkpt lat="44.94404" lon="4.63627">
        <ele>792.2</ele>
        <time>2021-03-27T08:49:18Z</time>
      </trkpt>
      <trkpt lat="44.94398" lon="4.63624">
        <ele>792.4</ele>
        <time>2021-03-27T08:49:22Z</time>
      </trkpt>
      <trkpt lat="44.94392" lon="4.63621">
        <ele>793.2</ele>
        <time>2021-03-27T08:49:26Z</time>
      </trkpt>
      <trkpt lat="44.94381" lon="4.6362">
        <ele>792</ele>
        <time>2021-03-27T08:49:30Z</time>
      </trkpt>
      <trkpt lat="44.94368" lon="4.63622">
        <ele>792</ele>
        <time>2021-03-27T08:49:34Z</time>
      </trkpt>
      <trkpt lat="44.94354" lon="4.63627">
        <ele>791.6</ele>
        <time>2021-03-27T08:49:38Z</time>
      </trkpt>
      <trkpt lat="44.94343" lon="4.63632">
        <ele>792.4</ele>
        <time>2021-03-27T08:49:42Z</time>
      </trkpt>
      <trkpt lat="44.94332" lon="4.63639">
        <ele>792.6</ele>
        <time>2021-03-27T08:49:46Z</time>
      </trkpt>
      <trkpt lat="44.94321" lon="4.63644">
        <ele>792.4</ele>
        <time>2021-03-27T08:49:50Z</time>
      </trkpt>
      <trkpt lat="44.94309" lon="4.6365">
        <ele>793.2</ele>
        <time>2021-03-27T08:49:54Z</time>
      </trkpt>
      <trkpt lat="44.94297" lon="4.63655">
        <ele>793.2</ele>
        <time>2021-03-27T08:49:58Z</time>
      </trkpt>
      <trkpt lat="44.94286" lon="4.63659">
        <ele>794.2</ele>
        <time>2021-03-27T08:50:02Z</time>
      </trkpt>
      <trkpt lat="44.94275" lon="4.63661">
        <ele>794.4</ele>
        <time>2021-03-27T08:50:06Z</time>
      </trkpt>
      <trkpt lat="44.94264" lon="4.63662">
        <ele>795.6</ele>
        <time>2021-03-27T08:50:10Z</time>
      </trkpt>
      <trkpt lat="44.94254" lon="4.63663">
        <ele>795.8</ele>
        <time>2021-03-27T08:50:14Z</time>
      </trkpt>
      <trkpt lat="44.94244" lon="4.63664">
        <ele>796.4</ele>
        <time>2021-03-27T08:50:18Z</time>
      </trkpt>
      <trkpt lat="44.94235" lon="4.63665">
        <ele>796.4</ele>
        <time>2021-03-27T08:50:22Z</time>
      </trkpt>
      <trkpt lat="44.94226" lon="4.63664">
        <ele>797.6</ele>
        <time>2021-03-27T08:50:26Z</time>
      </trkpt>
      <trkpt lat="44.94218" lon="4.63663">
        <ele>798.4</ele>
        <time>2021-03-27T08:50:30Z</time>
      </trkpt>
      <trkpt lat="44.9421" lon="4.63662">
        <ele>798.8</ele>
        <time>2021-03-27T08:50:34Z</time>
      </trkpt>
      <trkpt lat="44.942" lon="4.63661">
        <ele>799</ele>
        <time>2021-03-27T08:50:38Z</time>
      </trkpt>
      <trkpt lat="44.94191" lon="4.63661">
        <ele>799.8</ele>
        <time>2021-03-27T08:50:42Z</time>
      </trkpt>
      <trkpt lat="44.94181" lon="4.63662">
        <ele>801</ele>
        <time>2021-03-27T08:50:46Z</time>
      </trkpt>
      <trkpt lat="44.94171" lon="4.63664">
        <ele>801</ele>
        <time>2021-03-27T08:50:50Z</time>
      </trkpt>
      <trkpt lat="44.9416" lon="4.63667">
        <ele>801.4</ele>
        <time>2021-03-27T08:50:54Z</time>
      </trkpt>
      <trkpt lat="44.9415" lon="4.6367">
        <ele>801.8</ele>
        <time>2021-03-27T08:50:58Z</time>
      </trkpt>
      <trkpt lat="44.94139" lon="4.63673">
        <ele>802.2</ele>
        <time>2021-03-27T08:51:02Z</time>
      </trkpt>
      <trkpt lat="44.94129" lon="4.63677">
        <ele>802.4</ele>
        <time>2021-03-27T08:51:06Z</time>
      </trkpt>
      <trkpt lat="44.94118" lon="4.63681">
        <ele>803</ele>
        <time>2021-03-27T08:51:10Z</time>
      </trkpt>
      <trkpt lat="44.94107" lon="4.63685">
        <ele>802.6</ele>
        <time>2021-03-27T08:51:14Z</time>
      </trkpt>
      <trkpt lat="44.94096" lon="4.63688">
        <ele>803.4</ele>
        <time>2021-03-27T08:51:18Z</time>
      </trkpt>
      <trkpt lat="44.94086" lon="4.63691">
        <ele>804</ele>
        <time>2021-03-27T08:51:22Z</time>
      </trkpt>
      <trkpt lat="44.94075" lon="4.63694">
        <ele>803.8</ele>
        <time>2021-03-27T08:51:26Z</time>
      </trkpt>
      <trkpt lat="44.94065" lon="4.63697">
        <ele>804.2</ele>
        <time>2021-03-27T08:51:30Z</time>
      </trkpt>
      <trkpt lat="44.94054" lon="4.63701">
        <ele>805</ele>
        <time>2021-03-27T08:51:34Z</time>
      </trkpt>
      <trkpt lat="44.94045" lon="4.63704">
        <ele>805</ele>
        <time>2021-03-27T08:51:38Z</time>
      </trkpt>
      <trkpt lat="44.94035" lon="4.63706">
        <ele>805.4</ele>
        <time>2021-03-27T08:51:42Z</time>
      </trkpt>
      <trkpt lat="44.94024" lon="4.6371">
        <ele>805.6</ele>
        <time>2021-03-27T08:51:46Z</time>
      </trkpt>
      <trkpt lat="44.94013" lon="4.63714">
        <ele>806.2</ele>
        <time>2021-03-27T08:51:50Z</time>
      </trkpt>
      <trkpt lat="44.94003" lon="4.63718">
        <ele>806.4</ele>
        <time>2021-03-27T08:51:54Z</time>
      </trkpt>
      <trkpt lat="44.93993" lon="4.63722">
        <ele>807</ele>
        <time>2021-03-27T08:51:58Z</time>
      </trkpt>
      <trkpt lat="44.93984" lon="4.63723">
        <ele>806.8</ele>
        <time>2021-03-27T08:52:02Z</time>
      </trkpt>
      <trkpt lat="44.93977" lon="4.63716">
        <ele>806.6</ele>
        <time>2021-03-27T08:52:06Z</time>
      </trkpt>
      <trkpt lat="44.93965" lon="4.63719">
        <ele>806.6</ele>
        <time>2021-03-27T08:53:48Z</time>
      </trkpt>
      <trkpt lat="44.93948" lon="4.63719">
        <ele>805.8</ele>
        <time>2021-03-27T08:54:28Z</time>
      </trkpt>
      <trkpt lat="44.93931" lon="4.63714">
        <ele>803.8</ele>
        <time>2021-03-27T08:54:32Z</time>
      </trkpt>
      <trkpt lat="44.93915" lon="4.63712">
        <ele>802.8</ele>
        <time>2021-03-27T08:54:36Z</time>
      </trkpt>
      <trkpt lat="44.93894" lon="4.63712">
        <ele>801.4</ele>
        <time>2021-03-27T08:54:40Z</time>
      </trkpt>
      <trkpt lat="44.93865" lon="4.63731">
        <ele>798.2</ele>
        <time>2021-03-27T08:54:44Z</time>
      </trkpt>
      <trkpt lat="44.93842" lon="4.63753">
        <ele>796</ele>
        <time>2021-03-27T08:54:48Z</time>
      </trkpt>
      <trkpt lat="44.93821" lon="4.63773">
        <ele>793.4</ele>
        <time>2021-03-27T08:54:52Z</time>
      </trkpt>
      <trkpt lat="44.93798" lon="4.63789">
        <ele>790.4</ele>
        <time>2021-03-27T08:54:56Z</time>
      </trkpt>
      <trkpt lat="44.93772" lon="4.63796">
        <ele>787.2</ele>
        <time>2021-03-27T08:55:00Z</time>
      </trkpt>
      <trkpt lat="44.93743" lon="4.63798">
        <ele>785.8</ele>
        <time>2021-03-27T08:55:04Z</time>
      </trkpt>
      <trkpt lat="44.93714" lon="4.638">
        <ele>783.4</ele>
        <time>2021-03-27T08:55:08Z</time>
      </trkpt>
      <trkpt lat="44.93685" lon="4.63798">
        <ele>781.6</ele>
        <time>2021-03-27T08:55:12Z</time>
      </trkpt>
      <trkpt lat="44.93657" lon="4.63788">
        <ele>778</ele>
        <time>2021-03-27T08:55:16Z</time>
      </trkpt>
      <trkpt lat="44.93627" lon="4.63791">
        <ele>775.6</ele>
        <time>2021-03-27T08:55:20Z</time>
      </trkpt>
      <trkpt lat="44.93595" lon="4.63801">
        <ele>772.8</ele>
        <time>2021-03-27T08:55:24Z</time>
      </trkpt>
      <trkpt lat="44.9357" lon="4.63816">
        <ele>771.4</ele>
        <time>2021-03-27T08:55:28Z</time>
      </trkpt>
      <trkpt lat="44.9355" lon="4.63827">
        <ele>770.2</ele>
        <time>2021-03-27T08:55:32Z</time>
      </trkpt>
      <trkpt lat="44.93525" lon="4.63839">
        <ele>766.6</ele>
        <time>2021-03-27T08:55:36Z</time>
      </trkpt>
      <trkpt lat="44.935" lon="4.6385">
        <ele>763.6</ele>
        <time>2021-03-27T08:55:40Z</time>
      </trkpt>
      <trkpt lat="44.93482" lon="4.6387">
        <ele>761.6</ele>
        <time>2021-03-27T08:55:44Z</time>
      </trkpt>
      <trkpt lat="44.9347" lon="4.63885">
        <ele>761</ele>
        <time>2021-03-27T08:55:48Z</time>
      </trkpt>
      <trkpt lat="44.93454" lon="4.63897">
        <ele>759.4</ele>
        <time>2021-03-27T08:55:52Z</time>
      </trkpt>
      <trkpt lat="44.93436" lon="4.63907">
        <ele>756.2</ele>
        <time>2021-03-27T08:55:56Z</time>
      </trkpt>
      <trkpt lat="44.93416" lon="4.63918">
        <ele>754.8</ele>
        <time>2021-03-27T08:56:00Z</time>
      </trkpt>
      <trkpt lat="44.93408" lon="4.63948">
        <ele>753.2</ele>
        <time>2021-03-27T08:56:04Z</time>
      </trkpt>
      <trkpt lat="44.93396" lon="4.63972">
        <ele>751.4</ele>
        <time>2021-03-27T08:56:08Z</time>
      </trkpt>
      <trkpt lat="44.93378" lon="4.63965">
        <ele>749.4</ele>
        <time>2021-03-27T08:56:12Z</time>
      </trkpt>
      <trkpt lat="44.93364" lon="4.63943">
        <ele>748.2</ele>
        <time>2021-03-27T08:56:16Z</time>
      </trkpt>
      <trkpt lat="44.93341" lon="4.6392">
        <ele>746</ele>
        <time>2021-03-27T08:56:20Z</time>
      </trkpt>
      <trkpt lat="44.93312" lon="4.63898">
        <ele>742</ele>
        <time>2021-03-27T08:56:24Z</time>
      </trkpt>
      <trkpt lat="44.93286" lon="4.6388">
        <ele>737</ele>
        <time>2021-03-27T08:56:28Z</time>
      </trkpt>
      <trkpt lat="44.9325" lon="4.63859">
        <ele>734.6</ele>
        <time>2021-03-27T08:56:32Z</time>
      </trkpt>
      <trkpt lat="44.93214" lon="4.63843">
        <ele>732.2</ele>
        <time>2021-03-27T08:56:36Z</time>
      </trkpt>
      <trkpt lat="44.93181" lon="4.63829">
        <ele>729</ele>
        <time>2021-03-27T08:56:40Z</time>
      </trkpt>
      <trkpt lat="44.93151" lon="4.63814">
        <ele>727.6</ele>
        <time>2021-03-27T08:56:44Z</time>
      </trkpt>
      <trkpt lat="44.93119" lon="4.6381">
        <ele>723.8</ele>
        <time>2021-03-27T08:56:48Z</time>
      </trkpt>
      <trkpt lat="44.93087" lon="4.63823">
        <ele>721.8</ele>
        <time>2021-03-27T08:56:52Z</time>
      </trkpt>
      <trkpt lat="44.9306" lon="4.63847">
        <ele>719.8</ele>
        <time>2021-03-27T08:56:56Z</time>
      </trkpt>
      <trkpt lat="44.93029" lon="4.63865">
        <ele>716.6</ele>
        <time>2021-03-27T08:57:00Z</time>
      </trkpt>
      <trkpt lat="44.93001" lon="4.63892">
        <ele>714</ele>
        <time>2021-03-27T08:57:04Z</time>
      </trkpt>
      <trkpt lat="44.92977" lon="4.63927">
        <ele>711</ele>
        <time>2021-03-27T08:57:08Z</time>
      </trkpt>
      <trkpt lat="44.92964" lon="4.63974">
        <ele>707.4</ele>
        <time>2021-03-27T08:57:12Z</time>
      </trkpt>
      <trkpt lat="44.92957" lon="4.64015">
        <ele>706.4</ele>
        <time>2021-03-27T08:57:16Z</time>
      </trkpt>
      <trkpt lat="44.92956" lon="4.64058">
        <ele>704.4</ele>
        <time>2021-03-27T08:57:20Z</time>
      </trkpt>
      <trkpt lat="44.92946" lon="4.64109">
        <ele>699.8</ele>
        <time>2021-03-27T08:57:24Z</time>
      </trkpt>
      <trkpt lat="44.92929" lon="4.64161">
        <ele>697.4</ele>
        <time>2021-03-27T08:57:28Z</time>
      </trkpt>
      <trkpt lat="44.9291" lon="4.64215">
        <ele>693.4</ele>
        <time>2021-03-27T08:57:32Z</time>
      </trkpt>
      <trkpt lat="44.92898" lon="4.64263">
        <ele>691.8</ele>
        <time>2021-03-27T08:57:36Z</time>
      </trkpt>
      <trkpt lat="44.92881" lon="4.64287">
        <ele>690.8</ele>
        <time>2021-03-27T08:57:40Z</time>
      </trkpt>
      <trkpt lat="44.92857" lon="4.64267">
        <ele>687.4</ele>
        <time>2021-03-27T08:57:44Z</time>
      </trkpt>
      <trkpt lat="44.9283" lon="4.64243">
        <ele>684.8</ele>
        <time>2021-03-27T08:57:48Z</time>
      </trkpt>
      <trkpt lat="44.928" lon="4.64216">
        <ele>681.8</ele>
        <time>2021-03-27T08:57:52Z</time>
      </trkpt>
      <trkpt lat="44.92779" lon="4.64186">
        <ele>679.2</ele>
        <time>2021-03-27T08:57:56Z</time>
      </trkpt>
      <trkpt lat="44.92753" lon="4.64176">
        <ele>677.8</ele>
        <time>2021-03-27T08:58:00Z</time>
      </trkpt>
      <trkpt lat="44.92721" lon="4.64179">
        <ele>676</ele>
        <time>2021-03-27T08:58:04Z</time>
      </trkpt>
      <trkpt lat="44.92684" lon="4.64183">
        <ele>671.6</ele>
        <time>2021-03-27T08:58:08Z</time>
      </trkpt>
      <trkpt lat="44.92652" lon="4.64188">
        <ele>668.8</ele>
        <time>2021-03-27T08:58:12Z</time>
      </trkpt>
      <trkpt lat="44.92622" lon="4.64176">
        <ele>665.4</ele>
        <time>2021-03-27T08:58:16Z</time>
      </trkpt>
      <trkpt lat="44.926" lon="4.64169">
        <ele>665.4</ele>
        <time>2021-03-27T08:58:20Z</time>
      </trkpt>
      <trkpt lat="44.92574" lon="4.64177">
        <ele>663</ele>
        <time>2021-03-27T08:58:24Z</time>
      </trkpt>
      <trkpt lat="44.92543" lon="4.642">
        <ele>659.8</ele>
        <time>2021-03-27T08:58:28Z</time>
      </trkpt>
      <trkpt lat="44.92519" lon="4.64195">
        <ele>657.8</ele>
        <time>2021-03-27T08:58:32Z</time>
      </trkpt>
      <trkpt lat="44.92499" lon="4.64162">
        <ele>654.8</ele>
        <time>2021-03-27T08:58:36Z</time>
      </trkpt>
      <trkpt lat="44.92481" lon="4.64123">
        <ele>652.4</ele>
        <time>2021-03-27T08:58:40Z</time>
      </trkpt>
      <trkpt lat="44.92458" lon="4.64088">
        <ele>649.6</ele>
        <time>2021-03-27T08:58:44Z</time>
      </trkpt>
      <trkpt lat="44.92432" lon="4.64063">
        <ele>647.2</ele>
        <time>2021-03-27T08:58:48Z</time>
      </trkpt>
      <trkpt lat="44.92403" lon="4.64047">
        <ele>645.4</ele>
        <time>2021-03-27T08:58:52Z</time>
      </trkpt>
      <trkpt lat="44.92367" lon="4.64049">
        <ele>641.6</ele>
        <time>2021-03-27T08:58:56Z</time>
      </trkpt>
      <trkpt lat="44.92335" lon="4.6406">
        <ele>639.6</ele>
        <time>2021-03-27T08:59:00Z</time>
      </trkpt>
      <trkpt lat="44.92318" lon="4.64074">
        <ele>639.2</ele>
        <time>2021-03-27T08:59:04Z</time>
      </trkpt>
      <trkpt lat="44.92303" lon="4.64094">
        <ele>637.8</ele>
        <time>2021-03-27T08:59:08Z</time>
      </trkpt>
      <trkpt lat="44.92278" lon="4.64118">
        <ele>633.8</ele>
        <time>2021-03-27T08:59:12Z</time>
      </trkpt>
      <trkpt lat="44.92264" lon="4.64159">
        <ele>631</ele>
        <time>2021-03-27T08:59:16Z</time>
      </trkpt>
      <trkpt lat="44.92247" lon="4.64191">
        <ele>627.4</ele>
        <time>2021-03-27T08:59:20Z</time>
      </trkpt>
      <trkpt lat="44.92236" lon="4.64225">
        <ele>624.6</ele>
        <time>2021-03-27T08:59:24Z</time>
      </trkpt>
      <trkpt lat="44.92219" lon="4.64259">
        <ele>622.6</ele>
        <time>2021-03-27T08:59:28Z</time>
      </trkpt>
      <trkpt lat="44.92199" lon="4.64294">
        <ele>619.4</ele>
        <time>2021-03-27T08:59:32Z</time>
      </trkpt>
      <trkpt lat="44.92169" lon="4.64321">
        <ele>617.2</ele>
        <time>2021-03-27T08:59:36Z</time>
      </trkpt>
      <trkpt lat="44.92139" lon="4.6432">
        <ele>613</ele>
        <time>2021-03-27T08:59:40Z</time>
      </trkpt>
      <trkpt lat="44.9213" lon="4.64294">
        <ele>613.2</ele>
        <time>2021-03-27T08:59:44Z</time>
      </trkpt>
      <trkpt lat="44.92133" lon="4.64273">
        <ele>611.4</ele>
        <time>2021-03-27T08:59:48Z</time>
      </trkpt>
      <trkpt lat="44.92132" lon="4.64249">
        <ele>611</ele>
        <time>2021-03-27T08:59:52Z</time>
      </trkpt>
      <trkpt lat="44.92119" lon="4.64218">
        <ele>608</ele>
        <time>2021-03-27T08:59:56Z</time>
      </trkpt>
      <trkpt lat="44.92089" lon="4.64213">
        <ele>605</ele>
        <time>2021-03-27T09:00:00Z</time>
      </trkpt>
      <trkpt lat="44.92056" lon="4.64222">
        <ele>602.4</ele>
        <time>2021-03-27T09:00:04Z</time>
      </trkpt>
      <trkpt lat="44.92036" lon="4.64231">
        <ele>601.8</ele>
        <time>2021-03-27T09:00:08Z</time>
      </trkpt>
      <trkpt lat="44.92037" lon="4.64218">
        <ele>600.8</ele>
        <time>2021-03-27T09:00:12Z</time>
      </trkpt>
      <trkpt lat="44.92047" lon="4.6421">
        <ele>600.6</ele>
        <time>2021-03-27T09:00:16Z</time>
      </trkpt>
      <trkpt lat="44.92058" lon="4.64204">
        <ele>600.8</ele>
        <time>2021-03-27T09:00:20Z</time>
      </trkpt>
      <trkpt lat="44.92069" lon="4.64201">
        <ele>600.4</ele>
        <time>2021-03-27T09:00:24Z</time>
      </trkpt>
      <trkpt lat="44.92081" lon="4.64198">
        <ele>601.8</ele>
        <time>2021-03-27T09:00:28Z</time>
      </trkpt>
      <trkpt lat="44.92094" lon="4.64195">
        <ele>602.2</ele>
        <time>2021-03-27T09:00:32Z</time>
      </trkpt>
      <trkpt lat="44.92106" lon="4.64194">
        <ele>603.2</ele>
        <time>2021-03-27T09:00:36Z</time>
      </trkpt>
      <trkpt lat="44.92117" lon="4.64198">
        <ele>603</ele>
        <time>2021-03-27T09:00:40Z</time>
      </trkpt>
      <trkpt lat="44.92127" lon="4.64205">
        <ele>603.8</ele>
        <time>2021-03-27T09:00:44Z</time>
      </trkpt>
      <trkpt lat="44.9214" lon="4.64212">
        <ele>604.6</ele>
        <time>2021-03-27T09:00:48Z</time>
      </trkpt>
      <trkpt lat="44.92152" lon="4.64217">
        <ele>604.8</ele>
        <time>2021-03-27T09:00:52Z</time>
      </trkpt>
      <trkpt lat="44.92166" lon="4.64215">
        <ele>605.4</ele>
        <time>2021-03-27T09:00:56Z</time>
      </trkpt>
      <trkpt lat="44.92175" lon="4.64204">
        <ele>605.2</ele>
        <time>2021-03-27T09:01:00Z</time>
      </trkpt>
      <trkpt lat="44.92181" lon="4.6419">
        <ele>605.2</ele>
        <time>2021-03-27T09:01:04Z</time>
      </trkpt>
      <trkpt lat="44.92185" lon="4.64174">
        <ele>606</ele>
        <time>2021-03-27T09:01:08Z</time>
      </trkpt>
      <trkpt lat="44.92188" lon="4.64156">
        <ele>605</ele>
        <time>2021-03-27T09:01:12Z</time>
      </trkpt>
      <trkpt lat="44.92192" lon="4.64137">
        <ele>606</ele>
        <time>2021-03-27T09:01:16Z</time>
      </trkpt>
      <trkpt lat="44.92197" lon="4.64121">
        <ele>606.2</ele>
        <time>2021-03-27T09:01:20Z</time>
      </trkpt>
      <trkpt lat="44.92204" lon="4.64104">
        <ele>606.8</ele>
        <time>2021-03-27T09:01:24Z</time>
      </trkpt>
      <trkpt lat="44.92214" lon="4.6409">
        <ele>608</ele>
        <time>2021-03-27T09:01:28Z</time>
      </trkpt>
      <trkpt lat="44.92224" lon="4.64078">
        <ele>608.6</ele>
        <time>2021-03-27T09:01:32Z</time>
      </trkpt>
      <trkpt lat="44.92233" lon="4.64064">
        <ele>608.6</ele>
        <time>2021-03-27T09:01:36Z</time>
      </trkpt>
      <trkpt lat="44.92244" lon="4.6405">
        <ele>609</ele>
        <time>2021-03-27T09:01:40Z</time>
      </trkpt>
      <trkpt lat="44.92255" lon="4.64036">
        <ele>608.4</ele>
        <time>2021-03-27T09:01:44Z</time>
      </trkpt>
      <trkpt lat="44.92265" lon="4.64023">
        <ele>609.4</ele>
        <time>2021-03-27T09:01:48Z</time>
      </trkpt>
      <trkpt lat="44.92274" lon="4.64012">
        <ele>610.2</ele>
        <time>2021-03-27T09:01:52Z</time>
      </trkpt>
      <trkpt lat="44.92283" lon="4.64">
        <ele>611.2</ele>
        <time>2021-03-27T09:01:56Z</time>
      </trkpt>
      <trkpt lat="44.92292" lon="4.63988">
        <ele>611.2</ele>
        <time>2021-03-27T09:02:00Z</time>
      </trkpt>
      <trkpt lat="44.923" lon="4.63975">
        <ele>611.2</ele>
        <time>2021-03-27T09:02:04Z</time>
      </trkpt>
      <trkpt lat="44.92311" lon="4.63965">
        <ele>610.4</ele>
        <time>2021-03-27T09:02:08Z</time>
      </trkpt>
      <trkpt lat="44.92322" lon="4.63953">
        <ele>610.2</ele>
        <time>2021-03-27T09:02:12Z</time>
      </trkpt>
      <trkpt lat="44.92334" lon="4.63943">
        <ele>611.6</ele>
        <time>2021-03-27T09:02:16Z</time>
      </trkpt>
      <trkpt lat="44.92346" lon="4.63938">
        <ele>611.2</ele>
        <time>2021-03-27T09:02:20Z</time>
      </trkpt>
      <trkpt lat="44.92357" lon="4.63936">
        <ele>612</ele>
        <time>2021-03-27T09:02:24Z</time>
      </trkpt>
      <trkpt lat="44.9237" lon="4.63934">
        <ele>612</ele>
        <time>2021-03-27T09:02:28Z</time>
      </trkpt>
      <trkpt lat="44.92383" lon="4.63932">
        <ele>612.4</ele>
        <time>2021-03-27T09:02:32Z</time>
      </trkpt>
      <trkpt lat="44.92396" lon="4.6393">
        <ele>613</ele>
        <time>2021-03-27T09:02:36Z</time>
      </trkpt>
      <trkpt lat="44.92409" lon="4.63927">
        <ele>612.8</ele>
        <time>2021-03-27T09:02:40Z</time>
      </trkpt>
      <trkpt lat="44.92422" lon="4.63926">
        <ele>613.2</ele>
        <time>2021-03-27T09:02:44Z</time>
      </trkpt>
      <trkpt lat="44.92434" lon="4.63925">
        <ele>614.2</ele>
        <time>2021-03-27T09:02:48Z</time>
      </trkpt>
      <trkpt lat="44.92448" lon="4.63925">
        <ele>615</ele>
        <time>2021-03-27T09:02:52Z</time>
      </trkpt>
      <trkpt lat="44.92461" lon="4.63927">
        <ele>615.2</ele>
        <time>2021-03-27T09:02:56Z</time>
      </trkpt>
      <trkpt lat="44.92473" lon="4.6393">
        <ele>615.8</ele>
        <time>2021-03-27T09:03:00Z</time>
      </trkpt>
      <trkpt lat="44.92487" lon="4.63928">
        <ele>615</ele>
        <time>2021-03-27T09:03:04Z</time>
      </trkpt>
      <trkpt lat="44.92499" lon="4.6392">
        <ele>615.4</ele>
        <time>2021-03-27T09:03:08Z</time>
      </trkpt>
      <trkpt lat="44.92507" lon="4.63904">
        <ele>616.4</ele>
        <time>2021-03-27T09:03:12Z</time>
      </trkpt>
      <trkpt lat="44.92513" lon="4.63886">
        <ele>617.4</ele>
        <time>2021-03-27T09:03:16Z</time>
      </trkpt>
      <trkpt lat="44.92518" lon="4.63867">
        <ele>617.4</ele>
        <time>2021-03-27T09:03:20Z</time>
      </trkpt>
      <trkpt lat="44.92522" lon="4.63848">
        <ele>619</ele>
        <time>2021-03-27T09:03:24Z</time>
      </trkpt>
      <trkpt lat="44.92528" lon="4.6383">
        <ele>619.4</ele>
        <time>2021-03-27T09:03:28Z</time>
      </trkpt>
      <trkpt lat="44.92533" lon="4.63812">
        <ele>619.6</ele>
        <time>2021-03-27T09:03:32Z</time>
      </trkpt>
      <trkpt lat="44.92538" lon="4.63794">
        <ele>620</ele>
        <time>2021-03-27T09:03:36Z</time>
      </trkpt>
      <trkpt lat="44.92544" lon="4.63776">
        <ele>620</ele>
        <time>2021-03-27T09:03:40Z</time>
      </trkpt>
      <trkpt lat="44.92549" lon="4.63757">
        <ele>620.6</ele>
        <time>2021-03-27T09:03:44Z</time>
      </trkpt>
      <trkpt lat="44.92553" lon="4.63737">
        <ele>620.8</ele>
        <time>2021-03-27T09:03:48Z</time>
      </trkpt>
      <trkpt lat="44.92558" lon="4.63718">
        <ele>621</ele>
        <time>2021-03-27T09:03:52Z</time>
      </trkpt>
      <trkpt lat="44.92563" lon="4.637">
        <ele>621.4</ele>
        <time>2021-03-27T09:03:56Z</time>
      </trkpt>
      <trkpt lat="44.92567" lon="4.63682">
        <ele>622</ele>
        <time>2021-03-27T09:04:00Z</time>
      </trkpt>
      <trkpt lat="44.92567" lon="4.63663">
        <ele>622.8</ele>
        <time>2021-03-27T09:04:04Z</time>
      </trkpt>
      <trkpt lat="44.92569" lon="4.63643">
        <ele>622.8</ele>
        <time>2021-03-27T09:04:08Z</time>
      </trkpt>
      <trkpt lat="44.9257" lon="4.63624">
        <ele>622.8</ele>
        <time>2021-03-27T09:04:12Z</time>
      </trkpt>
      <trkpt lat="44.92577" lon="4.63606">
        <ele>623.4</ele>
        <time>2021-03-27T09:04:16Z</time>
      </trkpt>
      <trkpt lat="44.92587" lon="4.63592">
        <ele>623</ele>
        <time>2021-03-27T09:04:20Z</time>
      </trkpt>
      <trkpt lat="44.92598" lon="4.6358">
        <ele>623.8</ele>
        <time>2021-03-27T09:04:24Z</time>
      </trkpt>
      <trkpt lat="44.92611" lon="4.63572">
        <ele>623.8</ele>
        <time>2021-03-27T09:04:28Z</time>
      </trkpt>
      <trkpt lat="44.92624" lon="4.6357">
        <ele>624.8</ele>
        <time>2021-03-27T09:04:32Z</time>
      </trkpt>
      <trkpt lat="44.92638" lon="4.63571">
        <ele>625</ele>
        <time>2021-03-27T09:04:36Z</time>
      </trkpt>
      <trkpt lat="44.92652" lon="4.6357">
        <ele>625</ele>
        <time>2021-03-27T09:04:40Z</time>
      </trkpt>
      <trkpt lat="44.92665" lon="4.63563">
        <ele>625</ele>
        <time>2021-03-27T09:04:44Z</time>
      </trkpt>
      <trkpt lat="44.92674" lon="4.63547">
        <ele>625.6</ele>
        <time>2021-03-27T09:04:48Z</time>
      </trkpt>
      <trkpt lat="44.92681" lon="4.63529">
        <ele>626.2</ele>
        <time>2021-03-27T09:04:52Z</time>
      </trkpt>
      <trkpt lat="44.92687" lon="4.6351">
        <ele>626.2</ele>
        <time>2021-03-27T09:04:56Z</time>
      </trkpt>
      <trkpt lat="44.92692" lon="4.63492">
        <ele>626.8</ele>
        <time>2021-03-27T09:05:00Z</time>
      </trkpt>
      <trkpt lat="44.92697" lon="4.63475">
        <ele>627</ele>
        <time>2021-03-27T09:05:04Z</time>
      </trkpt>
      <trkpt lat="44.92702" lon="4.63458">
        <ele>627</ele>
        <time>2021-03-27T09:05:08Z</time>
      </trkpt>
      <trkpt lat="44.92708" lon="4.63441">
        <ele>627.6</ele>
        <time>2021-03-27T09:05:12Z</time>
      </trkpt>
      <trkpt lat="44.92716" lon="4.63425">
        <ele>627.4</ele>
        <time>2021-03-27T09:05:16Z</time>
      </trkpt>
      <trkpt lat="44.92727" lon="4.63412">
        <ele>627.2</ele>
        <time>2021-03-27T09:05:20Z</time>
      </trkpt>
      <trkpt lat="44.92738" lon="4.63403">
        <ele>628</ele>
        <time>2021-03-27T09:05:24Z</time>
      </trkpt>
      <trkpt lat="44.92751" lon="4.63397">
        <ele>628.8</ele>
        <time>2021-03-27T09:05:28Z</time>
      </trkpt>
      <trkpt lat="44.92764" lon="4.63393">
        <ele>630</ele>
        <time>2021-03-27T09:05:32Z</time>
      </trkpt>
      <trkpt lat="44.92777" lon="4.6339">
        <ele>629.4</ele>
        <time>2021-03-27T09:05:36Z</time>
      </trkpt>
      <trkpt lat="44.9279" lon="4.63384">
        <ele>629.8</ele>
        <time>2021-03-27T09:05:40Z</time>
      </trkpt>
      <trkpt lat="44.92802" lon="4.63375">
        <ele>630</ele>
        <time>2021-03-27T09:05:44Z</time>
      </trkpt>
      <trkpt lat="44.92813" lon="4.63364">
        <ele>630.6</ele>
        <time>2021-03-27T09:05:48Z</time>
      </trkpt>
      <trkpt lat="44.92824" lon="4.63352">
        <ele>631.2</ele>
        <time>2021-03-27T09:05:52Z</time>
      </trkpt>
      <trkpt lat="44.92834" lon="4.6334">
        <ele>630.6</ele>
        <time>2021-03-27T09:05:56Z</time>
      </trkpt>
      <trkpt lat="44.92845" lon="4.63326">
        <ele>631.4</ele>
        <time>2021-03-27T09:06:00Z</time>
      </trkpt>
      <trkpt lat="44.92855" lon="4.63313">
        <ele>632.2</ele>
        <time>2021-03-27T09:06:04Z</time>
      </trkpt>
      <trkpt lat="44.92867" lon="4.63302">
        <ele>632</ele>
        <time>2021-03-27T09:06:08Z</time>
      </trkpt>
      <trkpt lat="44.92879" lon="4.63294">
        <ele>631.6</ele>
        <time>2021-03-27T09:06:12Z</time>
      </trkpt>
      <trkpt lat="44.92892" lon="4.63288">
        <ele>632.2</ele>
        <time>2021-03-27T09:06:16Z</time>
      </trkpt>
      <trkpt lat="44.92905" lon="4.63284">
        <ele>632.4</ele>
        <time>2021-03-27T09:06:20Z</time>
      </trkpt>
      <trkpt lat="44.92917" lon="4.63283">
        <ele>632.2</ele>
        <time>2021-03-27T09:06:24Z</time>
      </trkpt>
      <trkpt lat="44.92929" lon="4.63284">
        <ele>633.2</ele>
        <time>2021-03-27T09:06:28Z</time>
      </trkpt>
      <trkpt lat="44.92941" lon="4.63286">
        <ele>633.4</ele>
        <time>2021-03-27T09:06:32Z</time>
      </trkpt>
      <trkpt lat="44.92953" lon="4.6329">
        <ele>633.6</ele>
        <time>2021-03-27T09:06:36Z</time>
      </trkpt>
      <trkpt lat="44.92965" lon="4.63295">
        <ele>633.8</ele>
        <time>2021-03-27T09:06:40Z</time>
      </trkpt>
      <trkpt lat="44.92977" lon="4.63299">
        <ele>634</ele>
        <time>2021-03-27T09:06:44Z</time>
      </trkpt>
      <trkpt lat="44.92987" lon="4.63305">
        <ele>633.6</ele>
        <time>2021-03-27T09:06:48Z</time>
      </trkpt>
      <trkpt lat="44.92996" lon="4.63315">
        <ele>634.4</ele>
        <time>2021-03-27T09:06:52Z</time>
      </trkpt>
      <trkpt lat="44.93005" lon="4.63326">
        <ele>635.4</ele>
        <time>2021-03-27T09:06:56Z</time>
      </trkpt>
      <trkpt lat="44.93016" lon="4.63335">
        <ele>636</ele>
        <time>2021-03-27T09:07:00Z</time>
      </trkpt>
      <trkpt lat="44.93027" lon="4.63342">
        <ele>636.4</ele>
        <time>2021-03-27T09:07:04Z</time>
      </trkpt>
      <trkpt lat="44.9304" lon="4.63347">
        <ele>636.6</ele>
        <time>2021-03-27T09:07:08Z</time>
      </trkpt>
      <trkpt lat="44.93055" lon="4.63354">
        <ele>637</ele>
        <time>2021-03-27T09:07:12Z</time>
      </trkpt>
      <trkpt lat="44.93068" lon="4.63361">
        <ele>637.6</ele>
        <time>2021-03-27T09:07:16Z</time>
      </trkpt>
      <trkpt lat="44.93078" lon="4.63369">
        <ele>637.6</ele>
        <time>2021-03-27T09:07:20Z</time>
      </trkpt>
      <trkpt lat="44.93092" lon="4.63378">
        <ele>637.8</ele>
        <time>2021-03-27T09:07:24Z</time>
      </trkpt>
      <trkpt lat="44.93106" lon="4.63386">
        <ele>637.6</ele>
        <time>2021-03-27T09:07:28Z</time>
      </trkpt>
      <trkpt lat="44.93121" lon="4.63391">
        <ele>638.2</ele>
        <time>2021-03-27T09:07:32Z</time>
      </trkpt>
      <trkpt lat="44.93135" lon="4.63395">
        <ele>638.6</ele>
        <time>2021-03-27T09:07:36Z</time>
      </trkpt>
      <trkpt lat="44.93149" lon="4.63398">
        <ele>638.6</ele>
        <time>2021-03-27T09:07:40Z</time>
      </trkpt>
      <trkpt lat="44.93163" lon="4.63401">
        <ele>639</ele>
        <time>2021-03-27T09:07:44Z</time>
      </trkpt>
      <trkpt lat="44.93177" lon="4.63405">
        <ele>639.2</ele>
        <time>2021-03-27T09:07:48Z</time>
      </trkpt>
      <trkpt lat="44.9319" lon="4.63407">
        <ele>640</ele>
        <time>2021-03-27T09:07:52Z</time>
      </trkpt>
      <trkpt lat="44.93203" lon="4.63399">
        <ele>639.6</ele>
        <time>2021-03-27T09:07:56Z</time>
      </trkpt>
      <trkpt lat="44.9321" lon="4.63381">
        <ele>640.2</ele>
        <time>2021-03-27T09:08:00Z</time>
      </trkpt>
      <trkpt lat="44.93209" lon="4.63363">
        <ele>640</ele>
        <time>2021-03-27T09:08:04Z</time>
      </trkpt>
      <trkpt lat="44.93203" lon="4.63345">
        <ele>641.2</ele>
        <time>2021-03-27T09:08:08Z</time>
      </trkpt>
      <trkpt lat="44.93195" lon="4.63328">
        <ele>642</ele>
        <time>2021-03-27T09:08:12Z</time>
      </trkpt>
      <trkpt lat="44.93186" lon="4.63313">
        <ele>642</ele>
        <time>2021-03-27T09:08:16Z</time>
      </trkpt>
      <trkpt lat="44.93178" lon="4.63296">
        <ele>642.6</ele>
        <time>2021-03-27T09:08:20Z</time>
      </trkpt>
      <trkpt lat="44.93168" lon="4.63282">
        <ele>643</ele>
        <time>2021-03-27T09:08:24Z</time>
      </trkpt>
      <trkpt lat="44.93157" lon="4.63267">
        <ele>643.4</ele>
        <time>2021-03-27T09:08:28Z</time>
      </trkpt>
      <trkpt lat="44.93146" lon="4.63253">
        <ele>643.6</ele>
        <time>2021-03-27T09:08:32Z</time>
      </trkpt>
      <trkpt lat="44.93134" lon="4.6324">
        <ele>643.8</ele>
        <time>2021-03-27T09:08:36Z</time>
      </trkpt>
      <trkpt lat="44.93122" lon="4.63227">
        <ele>644</ele>
        <time>2021-03-27T09:08:40Z</time>
      </trkpt>
      <trkpt lat="44.9311" lon="4.63214">
        <ele>644.2</ele>
        <time>2021-03-27T09:08:44Z</time>
      </trkpt>
      <trkpt lat="44.93097" lon="4.63202">
        <ele>644.4</ele>
        <time>2021-03-27T09:08:48Z</time>
      </trkpt>
      <trkpt lat="44.93087" lon="4.63186">
        <ele>645.4</ele>
        <time>2021-03-27T09:08:52Z</time>
      </trkpt>
      <trkpt lat="44.93079" lon="4.63171">
        <ele>645.4</ele>
        <time>2021-03-27T09:08:56Z</time>
      </trkpt>
      <trkpt lat="44.93071" lon="4.63156">
        <ele>646.2</ele>
        <time>2021-03-27T09:09:00Z</time>
      </trkpt>
      <trkpt lat="44.93065" lon="4.63138">
        <ele>646.4</ele>
        <time>2021-03-27T09:09:04Z</time>
      </trkpt>
      <trkpt lat="44.93062" lon="4.6312">
        <ele>646.6</ele>
        <time>2021-03-27T09:09:08Z</time>
      </trkpt>
      <trkpt lat="44.93064" lon="4.63105">
        <ele>647</ele>
        <time>2021-03-27T09:09:12Z</time>
      </trkpt>
      <trkpt lat="44.93065" lon="4.63089">
        <ele>647.2</ele>
        <time>2021-03-27T09:09:16Z</time>
      </trkpt>
      <trkpt lat="44.93065" lon="4.63068">
        <ele>647</ele>
        <time>2021-03-27T09:09:20Z</time>
      </trkpt>
      <trkpt lat="44.93064" lon="4.63051">
        <ele>647.2</ele>
        <time>2021-03-27T09:09:24Z</time>
      </trkpt>
      <trkpt lat="44.93063" lon="4.6303">
        <ele>648.2</ele>
        <time>2021-03-27T09:09:28Z</time>
      </trkpt>
      <trkpt lat="44.93064" lon="4.63014">
        <ele>647.8</ele>
        <time>2021-03-27T09:09:32Z</time>
      </trkpt>
      <trkpt lat="44.93063" lon="4.63">
        <ele>648.8</ele>
        <time>2021-03-27T09:09:36Z</time>
      </trkpt>
      <trkpt lat="44.93063" lon="4.62986">
        <ele>649.6</ele>
        <time>2021-03-27T09:09:40Z</time>
      </trkpt>
      <trkpt lat="44.93069" lon="4.62969">
        <ele>649.8</ele>
        <time>2021-03-27T09:09:44Z</time>
      </trkpt>
      <trkpt lat="44.93074" lon="4.62948">
        <ele>650.4</ele>
        <time>2021-03-27T09:09:48Z</time>
      </trkpt>
      <trkpt lat="44.93078" lon="4.62923">
        <ele>650.6</ele>
        <time>2021-03-27T09:09:52Z</time>
      </trkpt>
      <trkpt lat="44.9308" lon="4.62896">
        <ele>650.2</ele>
        <time>2021-03-27T09:09:56Z</time>
      </trkpt>
      <trkpt lat="44.93082" lon="4.62874">
        <ele>650.8</ele>
        <time>2021-03-27T09:10:00Z</time>
      </trkpt>
      <trkpt lat="44.93085" lon="4.62854">
        <ele>651.2</ele>
        <time>2021-03-27T09:10:04Z</time>
      </trkpt>
      <trkpt lat="44.93093" lon="4.6284">
        <ele>651.6</ele>
        <time>2021-03-27T09:10:08Z</time>
      </trkpt>
      <trkpt lat="44.93099" lon="4.62823">
        <ele>651.6</ele>
        <time>2021-03-27T09:10:12Z</time>
      </trkpt>
      <trkpt lat="44.93106" lon="4.62805">
        <ele>652.2</ele>
        <time>2021-03-27T09:10:16Z</time>
      </trkpt>
      <trkpt lat="44.93114" lon="4.62789">
        <ele>652.4</ele>
        <time>2021-03-27T09:10:20Z</time>
      </trkpt>
      <trkpt lat="44.9312" lon="4.62771">
        <ele>652.4</ele>
        <time>2021-03-27T09:10:24Z</time>
      </trkpt>
      <trkpt lat="44.93124" lon="4.62754">
        <ele>652.6</ele>
        <time>2021-03-27T09:10:28Z</time>
      </trkpt>
      <trkpt lat="44.9313" lon="4.62736">
        <ele>653.2</ele>
        <time>2021-03-27T09:10:32Z</time>
      </trkpt>
      <trkpt lat="44.9314" lon="4.6272">
        <ele>653.4</ele>
        <time>2021-03-27T09:10:36Z</time>
      </trkpt>
      <trkpt lat="44.93149" lon="4.62714">
        <ele>653.8</ele>
        <time>2021-03-27T09:10:40Z</time>
      </trkpt>
      <trkpt lat="44.9316" lon="4.62708">
        <ele>654.8</ele>
        <time>2021-03-27T09:10:44Z</time>
      </trkpt>
      <trkpt lat="44.93173" lon="4.62701">
        <ele>655.4</ele>
        <time>2021-03-27T09:10:48Z</time>
      </trkpt>
      <trkpt lat="44.93185" lon="4.62694">
        <ele>656.2</ele>
        <time>2021-03-27T09:10:52Z</time>
      </trkpt>
      <trkpt lat="44.93197" lon="4.62689">
        <ele>656.6</ele>
        <time>2021-03-27T09:10:56Z</time>
      </trkpt>
      <trkpt lat="44.93209" lon="4.62679">
        <ele>656.6</ele>
        <time>2021-03-27T09:11:00Z</time>
      </trkpt>
      <trkpt lat="44.9322" lon="4.62659">
        <ele>657</ele>
        <time>2021-03-27T09:11:04Z</time>
      </trkpt>
      <trkpt lat="44.93226" lon="4.6264">
        <ele>657.4</ele>
        <time>2021-03-27T09:11:08Z</time>
      </trkpt>
      <trkpt lat="44.93229" lon="4.62619">
        <ele>657.2</ele>
        <time>2021-03-27T09:11:12Z</time>
      </trkpt>
      <trkpt lat="44.9323" lon="4.62598">
        <ele>657.2</ele>
        <time>2021-03-27T09:11:16Z</time>
      </trkpt>
      <trkpt lat="44.93232" lon="4.62579">
        <ele>657.8</ele>
        <time>2021-03-27T09:11:20Z</time>
      </trkpt>
      <trkpt lat="44.93239" lon="4.62561">
        <ele>658</ele>
        <time>2021-03-27T09:11:24Z</time>
      </trkpt>
      <trkpt lat="44.93251" lon="4.6255">
        <ele>658.4</ele>
        <time>2021-03-27T09:11:28Z</time>
      </trkpt>
      <trkpt lat="44.93264" lon="4.62546">
        <ele>658.8</ele>
        <time>2021-03-27T09:11:32Z</time>
      </trkpt>
      <trkpt lat="44.93276" lon="4.62538">
        <ele>659</ele>
        <time>2021-03-27T09:11:36Z</time>
      </trkpt>
      <trkpt lat="44.93286" lon="4.62525">
        <ele>659</ele>
        <time>2021-03-27T09:11:40Z</time>
      </trkpt>
      <trkpt lat="44.93296" lon="4.6251">
        <ele>659.4</ele>
        <time>2021-03-27T09:11:44Z</time>
      </trkpt>
      <trkpt lat="44.93304" lon="4.62494">
        <ele>660.2</ele>
        <time>2021-03-27T09:11:48Z</time>
      </trkpt>
      <trkpt lat="44.93313" lon="4.62479">
        <ele>659.8</ele>
        <time>2021-03-27T09:11:52Z</time>
      </trkpt>
      <trkpt lat="44.93322" lon="4.62465">
        <ele>660</ele>
        <time>2021-03-27T09:11:56Z</time>
      </trkpt>
      <trkpt lat="44.9333" lon="4.62451">
        <ele>660.2</ele>
        <time>2021-03-27T09:12:00Z</time>
      </trkpt>
      <trkpt lat="44.93337" lon="4.62435">
        <ele>660.8</ele>
        <time>2021-03-27T09:12:04Z</time>
      </trkpt>
      <trkpt lat="44.93342" lon="4.62418">
        <ele>661.6</ele>
        <time>2021-03-27T09:12:08Z</time>
      </trkpt>
      <trkpt lat="44.93347" lon="4.624">
        <ele>661.8</ele>
        <time>2021-03-27T09:12:12Z</time>
      </trkpt>
      <trkpt lat="44.93351" lon="4.62381">
        <ele>662</ele>
        <time>2021-03-27T09:12:16Z</time>
      </trkpt>
      <trkpt lat="44.93355" lon="4.62361">
        <ele>662.4</ele>
        <time>2021-03-27T09:12:20Z</time>
      </trkpt>
      <trkpt lat="44.93359" lon="4.62342">
        <ele>662.8</ele>
        <time>2021-03-27T09:12:24Z</time>
      </trkpt>
      <trkpt lat="44.9336" lon="4.62321">
        <ele>663.6</ele>
        <time>2021-03-27T09:12:28Z</time>
      </trkpt>
      <trkpt lat="44.9336" lon="4.62301">
        <ele>663.4</ele>
        <time>2021-03-27T09:12:32Z</time>
      </trkpt>
      <trkpt lat="44.93359" lon="4.62281">
        <ele>664</ele>
        <time>2021-03-27T09:12:36Z</time>
      </trkpt>
      <trkpt lat="44.93357" lon="4.62262">
        <ele>663.8</ele>
        <time>2021-03-27T09:12:40Z</time>
      </trkpt>
      <trkpt lat="44.93351" lon="4.62244">
        <ele>664.4</ele>
        <time>2021-03-27T09:12:44Z</time>
      </trkpt>
      <trkpt lat="44.93343" lon="4.62228">
        <ele>665.4</ele>
        <time>2021-03-27T09:12:48Z</time>
      </trkpt>
      <trkpt lat="44.93336" lon="4.62211">
        <ele>665.6</ele>
        <time>2021-03-27T09:12:52Z</time>
      </trkpt>
      <trkpt lat="44.9333" lon="4.62193">
        <ele>665</ele>
        <time>2021-03-27T09:12:56Z</time>
      </trkpt>
      <trkpt lat="44.93328" lon="4.62173">
        <ele>665.2</ele>
        <time>2021-03-27T09:13:00Z</time>
      </trkpt>
      <trkpt lat="44.93334" lon="4.62154">
        <ele>664.8</ele>
        <time>2021-03-27T09:13:04Z</time>
      </trkpt>
      <trkpt lat="44.93343" lon="4.62141">
        <ele>664.8</ele>
        <time>2021-03-27T09:13:08Z</time>
      </trkpt>
      <trkpt lat="44.93349" lon="4.62127">
        <ele>665.6</ele>
        <time>2021-03-27T09:13:12Z</time>
      </trkpt>
      <trkpt lat="44.93351" lon="4.62109">
        <ele>667.2</ele>
        <time>2021-03-27T09:13:16Z</time>
      </trkpt>
      <trkpt lat="44.9335" lon="4.6209">
        <ele>667</ele>
        <time>2021-03-27T09:13:20Z</time>
      </trkpt>
      <trkpt lat="44.93349" lon="4.6207">
        <ele>667</ele>
        <time>2021-03-27T09:13:24Z</time>
      </trkpt>
      <trkpt lat="44.93349" lon="4.6205">
        <ele>667.2</ele>
        <time>2021-03-27T09:13:28Z</time>
      </trkpt>
      <trkpt lat="44.9335" lon="4.62031">
        <ele>667</ele>
        <time>2021-03-27T09:13:32Z</time>
      </trkpt>
      <trkpt lat="44.93349" lon="4.62012">
        <ele>666.8</ele>
        <time>2021-03-27T09:13:36Z</time>
      </trkpt>
      <trkpt lat="44.93349" lon="4.61993">
        <ele>667.4</ele>
        <time>2021-03-27T09:13:40Z</time>
      </trkpt>
      <trkpt lat="44.93351" lon="4.61973">
        <ele>668</ele>
        <time>2021-03-27T09:13:44Z</time>
      </trkpt>
      <trkpt lat="44.93355" lon="4.61954">
        <ele>669</ele>
        <time>2021-03-27T09:13:48Z</time>
      </trkpt>
      <trkpt lat="44.9336" lon="4.61936">
        <ele>669.4</ele>
        <time>2021-03-27T09:13:52Z</time>
      </trkpt>
      <trkpt lat="44.93365" lon="4.61918">
        <ele>670.4</ele>
        <time>2021-03-27T09:13:56Z</time>
      </trkpt>
      <trkpt lat="44.93373" lon="4.61903">
        <ele>669.6</ele>
        <time>2021-03-27T09:14:00Z</time>
      </trkpt>
      <trkpt lat="44.93382" lon="4.61889">
        <ele>670.6</ele>
        <time>2021-03-27T09:14:04Z</time>
      </trkpt>
      <trkpt lat="44.93392" lon="4.61876">
        <ele>671.4</ele>
        <time>2021-03-27T09:14:08Z</time>
      </trkpt>
      <trkpt lat="44.93403" lon="4.61863">
        <ele>671.4</ele>
        <time>2021-03-27T09:14:12Z</time>
      </trkpt>
      <trkpt lat="44.93413" lon="4.61847">
        <ele>671.6</ele>
        <time>2021-03-27T09:14:16Z</time>
      </trkpt>
      <trkpt lat="44.93423" lon="4.61835">
        <ele>672</ele>
        <time>2021-03-27T09:14:20Z</time>
      </trkpt>
      <trkpt lat="44.93434" lon="4.61822">
        <ele>672.4</ele>
        <time>2021-03-27T09:14:24Z</time>
      </trkpt>
      <trkpt lat="44.93445" lon="4.61811">
        <ele>672.6</ele>
        <time>2021-03-27T09:14:28Z</time>
      </trkpt>
      <trkpt lat="44.93455" lon="4.61799">
        <ele>672.8</ele>
        <time>2021-03-27T09:14:32Z</time>
      </trkpt>
      <trkpt lat="44.93466" lon="4.61787">
        <ele>672.4</ele>
        <time>2021-03-27T09:14:36Z</time>
      </trkpt>
      <trkpt lat="44.93478" lon="4.61774">
        <ele>672</ele>
        <time>2021-03-27T09:14:40Z</time>
      </trkpt>
      <trkpt lat="44.93482" lon="4.61756">
        <ele>671.2</ele>
        <time>2021-03-27T09:14:44Z</time>
      </trkpt>
      <trkpt lat="44.93477" lon="4.61747">
        <ele>671.8</ele>
        <time>2021-03-27T09:14:48Z</time>
      </trkpt>
      <trkpt lat="44.93464" lon="4.61744">
        <ele>670.2</ele>
        <time>2021-03-27T09:14:52Z</time>
      </trkpt>
      <trkpt lat="44.9345" lon="4.61744">
        <ele>669</ele>
        <time>2021-03-27T09:14:56Z</time>
      </trkpt>
      <trkpt lat="44.93444" lon="4.61726">
        <ele>667.8</ele>
        <time>2021-03-27T09:15:00Z</time>
      </trkpt>
      <trkpt lat="44.93445" lon="4.617">
        <ele>665.2</ele>
        <time>2021-03-27T09:15:04Z</time>
      </trkpt>
      <trkpt lat="44.93444" lon="4.6167">
        <ele>663.6</ele>
        <time>2021-03-27T09:15:08Z</time>
      </trkpt>
      <trkpt lat="44.93426" lon="4.61651">
        <ele>663</ele>
        <time>2021-03-27T09:15:12Z</time>
      </trkpt>
      <trkpt lat="44.93403" lon="4.61648">
        <ele>662.6</ele>
        <time>2021-03-27T09:15:16Z</time>
      </trkpt>
      <trkpt lat="44.93383" lon="4.61636">
        <ele>662</ele>
        <time>2021-03-27T09:15:20Z</time>
      </trkpt>
      <trkpt lat="44.93366" lon="4.61619">
        <ele>662.6</ele>
        <time>2021-03-27T09:15:24Z</time>
      </trkpt>
      <trkpt lat="44.93353" lon="4.61597">
        <ele>662</ele>
        <time>2021-03-27T09:15:28Z</time>
      </trkpt>
      <trkpt lat="44.93342" lon="4.61575">
        <ele>662</ele>
        <time>2021-03-27T09:15:32Z</time>
      </trkpt>
      <trkpt lat="44.93336" lon="4.61551">
        <ele>661.8</ele>
        <time>2021-03-27T09:15:36Z</time>
      </trkpt>
      <trkpt lat="44.93328" lon="4.61527">
        <ele>661.8</ele>
        <time>2021-03-27T09:15:40Z</time>
      </trkpt>
      <trkpt lat="44.93321" lon="4.61505">
        <ele>661.8</ele>
        <time>2021-03-27T09:15:44Z</time>
      </trkpt>
      <trkpt lat="44.93315" lon="4.61485">
        <ele>662</ele>
        <time>2021-03-27T09:15:48Z</time>
      </trkpt>
      <trkpt lat="44.93308" lon="4.61462">
        <ele>661</ele>
        <time>2021-03-27T09:15:52Z</time>
      </trkpt>
      <trkpt lat="44.93302" lon="4.61437">
        <ele>660.6</ele>
        <time>2021-03-27T09:15:56Z</time>
      </trkpt>
      <trkpt lat="44.93299" lon="4.61411">
        <ele>658.8</ele>
        <time>2021-03-27T09:16:00Z</time>
      </trkpt>
      <trkpt lat="44.93295" lon="4.61385">
        <ele>659.4</ele>
        <time>2021-03-27T09:16:04Z</time>
      </trkpt>
      <trkpt lat="44.93296" lon="4.6136">
        <ele>659.4</ele>
        <time>2021-03-27T09:16:08Z</time>
      </trkpt>
      <trkpt lat="44.93299" lon="4.61338">
        <ele>659</ele>
        <time>2021-03-27T09:16:12Z</time>
      </trkpt>
      <trkpt lat="44.93303" lon="4.61316">
        <ele>659.4</ele>
        <time>2021-03-27T09:16:16Z</time>
      </trkpt>
      <trkpt lat="44.93308" lon="4.61296">
        <ele>659.6</ele>
        <time>2021-03-27T09:16:20Z</time>
      </trkpt>
      <trkpt lat="44.93314" lon="4.61278">
        <ele>659</ele>
        <time>2021-03-27T09:16:24Z</time>
      </trkpt>
      <trkpt lat="44.93318" lon="4.61266">
        <ele>660.6</ele>
        <time>2021-03-27T09:16:28Z</time>
      </trkpt>
      <trkpt lat="44.93324" lon="4.61256">
        <ele>661</ele>
        <time>2021-03-27T09:16:32Z</time>
      </trkpt>
      <trkpt lat="44.9333" lon="4.61243">
        <ele>661.2</ele>
        <time>2021-03-27T09:16:36Z</time>
      </trkpt>
      <trkpt lat="44.93335" lon="4.61234">
        <ele>661.2</ele>
        <time>2021-03-27T09:16:40Z</time>
      </trkpt>
      <trkpt lat="44.93341" lon="4.61226">
        <ele>660.8</ele>
        <time>2021-03-27T09:16:44Z</time>
      </trkpt>
      <trkpt lat="44.93349" lon="4.6122">
        <ele>661.4</ele>
        <time>2021-03-27T09:16:48Z</time>
      </trkpt>
      <trkpt lat="44.93358" lon="4.61211">
        <ele>661</ele>
        <time>2021-03-27T09:16:52Z</time>
      </trkpt>
      <trkpt lat="44.93368" lon="4.61201">
        <ele>661</ele>
        <time>2021-03-27T09:16:56Z</time>
      </trkpt>
      <trkpt lat="44.9338" lon="4.61191">
        <ele>660.2</ele>
        <time>2021-03-27T09:17:00Z</time>
      </trkpt>
      <trkpt lat="44.9339" lon="4.61175">
        <ele>660.6</ele>
        <time>2021-03-27T09:17:04Z</time>
      </trkpt>
      <trkpt lat="44.93398" lon="4.61154">
        <ele>660.8</ele>
        <time>2021-03-27T09:17:08Z</time>
      </trkpt>
      <trkpt lat="44.93407" lon="4.61129">
        <ele>657.2</ele>
        <time>2021-03-27T09:17:12Z</time>
      </trkpt>
      <trkpt lat="44.93418" lon="4.61101">
        <ele>656</ele>
        <time>2021-03-27T09:17:16Z</time>
      </trkpt>
      <trkpt lat="44.93431" lon="4.61073">
        <ele>653.4</ele>
        <time>2021-03-27T09:17:20Z</time>
      </trkpt>
      <trkpt lat="44.93447" lon="4.61046">
        <ele>651.4</ele>
        <time>2021-03-27T09:17:24Z</time>
      </trkpt>
      <trkpt lat="44.93468" lon="4.61022">
        <ele>650.2</ele>
        <time>2021-03-27T09:17:28Z</time>
      </trkpt>
      <trkpt lat="44.93494" lon="4.61001">
        <ele>646</ele>
        <time>2021-03-27T09:17:32Z</time>
      </trkpt>
      <trkpt lat="44.9351" lon="4.60979">
        <ele>646.4</ele>
        <time>2021-03-27T09:17:36Z</time>
      </trkpt>
      <trkpt lat="44.93509" lon="4.60952">
        <ele>645.6</ele>
        <time>2021-03-27T09:17:40Z</time>
      </trkpt>
      <trkpt lat="44.93505" lon="4.60923">
        <ele>644.4</ele>
        <time>2021-03-27T09:17:44Z</time>
      </trkpt>
      <trkpt lat="44.93502" lon="4.60887">
        <ele>640</ele>
        <time>2021-03-27T09:17:48Z</time>
      </trkpt>
      <trkpt lat="44.93497" lon="4.60857">
        <ele>640.6</ele>
        <time>2021-03-27T09:17:52Z</time>
      </trkpt>
      <trkpt lat="44.93493" lon="4.6085">
        <ele>642</ele>
        <time>2021-03-27T09:17:56Z</time>
      </trkpt>
      <trkpt lat="44.93493" lon="4.60863">
        <ele>640.6</ele>
        <time>2021-03-27T09:18:30Z</time>
      </trkpt>
      <trkpt lat="44.9349" lon="4.60871">
        <ele>641.2</ele>
        <time>2021-03-27T09:18:34Z</time>
      </trkpt>
      <trkpt lat="44.93479" lon="4.60856">
        <ele>639.4</ele>
        <time>2021-03-27T09:18:38Z</time>
      </trkpt>
      <trkpt lat="44.93465" lon="4.6083">
        <ele>635</ele>
        <time>2021-03-27T09:18:42Z</time>
      </trkpt>
      <trkpt lat="44.93453" lon="4.60805">
        <ele>631</ele>
        <time>2021-03-27T09:18:46Z</time>
      </trkpt>
      <trkpt lat="44.93443" lon="4.60775">
        <ele>628.6</ele>
        <time>2021-03-27T09:18:50Z</time>
      </trkpt>
      <trkpt lat="44.9343" lon="4.60741">
        <ele>625.6</ele>
        <time>2021-03-27T09:18:54Z</time>
      </trkpt>
      <trkpt lat="44.9342" lon="4.60699">
        <ele>622.2</ele>
        <time>2021-03-27T09:18:58Z</time>
      </trkpt>
      <trkpt lat="44.93424" lon="4.60657">
        <ele>617.4</ele>
        <time>2021-03-27T09:19:02Z</time>
      </trkpt>
      <trkpt lat="44.93423" lon="4.60615">
        <ele>616.4</ele>
        <time>2021-03-27T09:19:06Z</time>
      </trkpt>
      <trkpt lat="44.93399" lon="4.60582">
        <ele>621.2</ele>
        <time>2021-03-27T09:19:10Z</time>
      </trkpt>
      <trkpt lat="44.93383" lon="4.60566">
        <ele>622.6</ele>
        <time>2021-03-27T09:19:14Z</time>
      </trkpt>
      <trkpt lat="44.9337" lon="4.60548">
        <ele>623.8</ele>
        <time>2021-03-27T09:19:18Z</time>
      </trkpt>
      <trkpt lat="44.93358" lon="4.60534">
        <ele>625</ele>
        <time>2021-03-27T09:19:22Z</time>
      </trkpt>
      <trkpt lat="44.93349" lon="4.60522">
        <ele>625.6</ele>
        <time>2021-03-27T09:19:26Z</time>
      </trkpt>
      <trkpt lat="44.93341" lon="4.60514">
        <ele>626.8</ele>
        <time>2021-03-27T09:19:30Z</time>
      </trkpt>
      <trkpt lat="44.93335" lon="4.60505">
        <ele>627.2</ele>
        <time>2021-03-27T09:19:34Z</time>
      </trkpt>
      <trkpt lat="44.93328" lon="4.60495">
        <ele>627.4</ele>
        <time>2021-03-27T09:19:38Z</time>
      </trkpt>
      <trkpt lat="44.93321" lon="4.60487">
        <ele>628.4</ele>
        <time>2021-03-27T09:19:42Z</time>
      </trkpt>
      <trkpt lat="44.93314" lon="4.60478">
        <ele>629</ele>
        <time>2021-03-27T09:19:46Z</time>
      </trkpt>
      <trkpt lat="44.93308" lon="4.6047">
        <ele>629.4</ele>
        <time>2021-03-27T09:19:50Z</time>
      </trkpt>
      <trkpt lat="44.93302" lon="4.60461">
        <ele>630</ele>
        <time>2021-03-27T09:19:54Z</time>
      </trkpt>
      <trkpt lat="44.93296" lon="4.60453">
        <ele>631</ele>
        <time>2021-03-27T09:19:58Z</time>
      </trkpt>
      <trkpt lat="44.93291" lon="4.60444">
        <ele>631.8</ele>
        <time>2021-03-27T09:20:02Z</time>
      </trkpt>
      <trkpt lat="44.93285" lon="4.60436">
        <ele>632.4</ele>
        <time>2021-03-27T09:20:06Z</time>
      </trkpt>
      <trkpt lat="44.9328" lon="4.60427">
        <ele>632.8</ele>
        <time>2021-03-27T09:20:10Z</time>
      </trkpt>
      <trkpt lat="44.93275" lon="4.6042">
        <ele>633.8</ele>
        <time>2021-03-27T09:20:14Z</time>
      </trkpt>
      <trkpt lat="44.93269" lon="4.60412">
        <ele>633.4</ele>
        <time>2021-03-27T09:20:18Z</time>
      </trkpt>
      <trkpt lat="44.93262" lon="4.60407">
        <ele>635.2</ele>
        <time>2021-03-27T09:20:22Z</time>
      </trkpt>
      <trkpt lat="44.93256" lon="4.60402">
        <ele>635.4</ele>
        <time>2021-03-27T09:20:26Z</time>
      </trkpt>
      <trkpt lat="44.9325" lon="4.60395">
        <ele>636.2</ele>
        <time>2021-03-27T09:20:30Z</time>
      </trkpt>
      <trkpt lat="44.93243" lon="4.6039">
        <ele>636.6</ele>
        <time>2021-03-27T09:20:34Z</time>
      </trkpt>
      <trkpt lat="44.93236" lon="4.60385">
        <ele>637.8</ele>
        <time>2021-03-27T09:20:38Z</time>
      </trkpt>
      <trkpt lat="44.93228" lon="4.6038">
        <ele>637.8</ele>
        <time>2021-03-27T09:20:42Z</time>
      </trkpt>
      <trkpt lat="44.93221" lon="4.60375">
        <ele>638.6</ele>
        <time>2021-03-27T09:20:46Z</time>
      </trkpt>
      <trkpt lat="44.93213" lon="4.6037">
        <ele>639</ele>
        <time>2021-03-27T09:20:50Z</time>
      </trkpt>
      <trkpt lat="44.93205" lon="4.60365">
        <ele>639.6</ele>
        <time>2021-03-27T09:20:54Z</time>
      </trkpt>
      <trkpt lat="44.93198" lon="4.60361">
        <ele>639.8</ele>
        <time>2021-03-27T09:20:58Z</time>
      </trkpt>
      <trkpt lat="44.93191" lon="4.60357">
        <ele>641</ele>
        <time>2021-03-27T09:21:02Z</time>
      </trkpt>
      <trkpt lat="44.93184" lon="4.60354">
        <ele>641.8</ele>
        <time>2021-03-27T09:21:06Z</time>
      </trkpt>
      <trkpt lat="44.93178" lon="4.60348">
        <ele>642</ele>
        <time>2021-03-27T09:21:10Z</time>
      </trkpt>
      <trkpt lat="44.9317" lon="4.60342">
        <ele>642.8</ele>
        <time>2021-03-27T09:21:14Z</time>
      </trkpt>
      <trkpt lat="44.93163" lon="4.60335">
        <ele>643.4</ele>
        <time>2021-03-27T09:21:18Z</time>
      </trkpt>
      <trkpt lat="44.93156" lon="4.60328">
        <ele>644.4</ele>
        <time>2021-03-27T09:21:22Z</time>
      </trkpt>
      <trkpt lat="44.93151" lon="4.6032">
        <ele>644.4</ele>
        <time>2021-03-27T09:21:26Z</time>
      </trkpt>
      <trkpt lat="44.93146" lon="4.60311">
        <ele>645.4</ele>
        <time>2021-03-27T09:21:30Z</time>
      </trkpt>
      <trkpt lat="44.93141" lon="4.60301">
        <ele>645.6</ele>
        <time>2021-03-27T09:21:34Z</time>
      </trkpt>
      <trkpt lat="44.93136" lon="4.60291">
        <ele>645.8</ele>
        <time>2021-03-27T09:21:38Z</time>
      </trkpt>
      <trkpt lat="44.93132" lon="4.60282">
        <ele>646.6</ele>
        <time>2021-03-27T09:21:42Z</time>
      </trkpt>
      <trkpt lat="44.93129" lon="4.60273">
        <ele>647</ele>
        <time>2021-03-27T09:21:46Z</time>
      </trkpt>
      <trkpt lat="44.93127" lon="4.60267">
        <ele>648.4</ele>
        <time>2021-03-27T09:21:50Z</time>
      </trkpt>
      <trkpt lat="44.93125" lon="4.60257">
        <ele>648.2</ele>
        <time>2021-03-27T09:21:54Z</time>
      </trkpt>
      <trkpt lat="44.93124" lon="4.60243">
        <ele>649</ele>
        <time>2021-03-27T09:21:58Z</time>
      </trkpt>
      <trkpt lat="44.93122" lon="4.60229">
        <ele>649.2</ele>
        <time>2021-03-27T09:22:02Z</time>
      </trkpt>
      <trkpt lat="44.9312" lon="4.60209">
        <ele>649.6</ele>
        <time>2021-03-27T09:22:06Z</time>
      </trkpt>
      <trkpt lat="44.93118" lon="4.60192">
        <ele>649.2</ele>
        <time>2021-03-27T09:22:10Z</time>
      </trkpt>
      <trkpt lat="44.93118" lon="4.60172">
        <ele>649.4</ele>
        <time>2021-03-27T09:22:14Z</time>
      </trkpt>
      <trkpt lat="44.93117" lon="4.60153">
        <ele>649.8</ele>
        <time>2021-03-27T09:22:18Z</time>
      </trkpt>
      <trkpt lat="44.93117" lon="4.60135">
        <ele>650</ele>
        <time>2021-03-27T09:22:22Z</time>
      </trkpt>
      <trkpt lat="44.93116" lon="4.60113">
        <ele>649.2</ele>
        <time>2021-03-27T09:22:26Z</time>
      </trkpt>
      <trkpt lat="44.93114" lon="4.60096">
        <ele>650.6</ele>
        <time>2021-03-27T09:22:30Z</time>
      </trkpt>
      <trkpt lat="44.93109" lon="4.60077">
        <ele>648.8</ele>
        <time>2021-03-27T09:22:34Z</time>
      </trkpt>
      <trkpt lat="44.9311" lon="4.60056">
        <ele>648.4</ele>
        <time>2021-03-27T09:22:38Z</time>
      </trkpt>
      <trkpt lat="44.93116" lon="4.60034">
        <ele>648.4</ele>
        <time>2021-03-27T09:22:42Z</time>
      </trkpt>
      <trkpt lat="44.93119" lon="4.60017">
        <ele>650.4</ele>
        <time>2021-03-27T09:22:46Z</time>
      </trkpt>
      <trkpt lat="44.93124" lon="4.60002">
        <ele>650</ele>
        <time>2021-03-27T09:22:50Z</time>
      </trkpt>
      <trkpt lat="44.9313" lon="4.59992">
        <ele>651.4</ele>
        <time>2021-03-27T09:22:54Z</time>
      </trkpt>
      <trkpt lat="44.93135" lon="4.59981">
        <ele>650.8</ele>
        <time>2021-03-27T09:22:58Z</time>
      </trkpt>
      <trkpt lat="44.93141" lon="4.59969">
        <ele>651.8</ele>
        <time>2021-03-27T09:23:02Z</time>
      </trkpt>
      <trkpt lat="44.93146" lon="4.59958">
        <ele>652.4</ele>
        <time>2021-03-27T09:23:06Z</time>
      </trkpt>
      <trkpt lat="44.93152" lon="4.59949">
        <ele>652.6</ele>
        <time>2021-03-27T09:23:10Z</time>
      </trkpt>
      <trkpt lat="44.93157" lon="4.59938">
        <ele>654</ele>
        <time>2021-03-27T09:23:14Z</time>
      </trkpt>
      <trkpt lat="44.93163" lon="4.59929">
        <ele>654.6</ele>
        <time>2021-03-27T09:23:18Z</time>
      </trkpt>
      <trkpt lat="44.93169" lon="4.59918">
        <ele>655.2</ele>
        <time>2021-03-27T09:23:22Z</time>
      </trkpt>
      <trkpt lat="44.93175" lon="4.59907">
        <ele>655.8</ele>
        <time>2021-03-27T09:23:26Z</time>
      </trkpt>
      <trkpt lat="44.93181" lon="4.59895">
        <ele>655.4</ele>
        <time>2021-03-27T09:23:30Z</time>
      </trkpt>
      <trkpt lat="44.93187" lon="4.59884">
        <ele>655.8</ele>
        <time>2021-03-27T09:23:34Z</time>
      </trkpt>
      <trkpt lat="44.93192" lon="4.59873">
        <ele>657</ele>
        <time>2021-03-27T09:23:38Z</time>
      </trkpt>
      <trkpt lat="44.93198" lon="4.59864">
        <ele>658.2</ele>
        <time>2021-03-27T09:23:42Z</time>
      </trkpt>
      <trkpt lat="44.93203" lon="4.59853">
        <ele>658.8</ele>
        <time>2021-03-27T09:23:46Z</time>
      </trkpt>
      <trkpt lat="44.93207" lon="4.59845">
        <ele>659.2</ele>
        <time>2021-03-27T09:23:50Z</time>
      </trkpt>
      <trkpt lat="44.9321" lon="4.59839">
        <ele>660</ele>
        <time>2021-03-27T09:23:54Z</time>
      </trkpt>
      <trkpt lat="44.93213" lon="4.59832">
        <ele>660.6</ele>
        <time>2021-03-27T09:23:58Z</time>
      </trkpt>
      <trkpt lat="44.93213" lon="4.59822">
        <ele>660.6</ele>
        <time>2021-03-27T09:24:02Z</time>
      </trkpt>
      <trkpt lat="44.93209" lon="4.59813">
        <ele>661.8</ele>
        <time>2021-03-27T09:24:06Z</time>
      </trkpt>
      <trkpt lat="44.93203" lon="4.59808">
        <ele>662</ele>
        <time>2021-03-27T09:24:10Z</time>
      </trkpt>
      <trkpt lat="44.93196" lon="4.59805">
        <ele>663</ele>
        <time>2021-03-27T09:24:14Z</time>
      </trkpt>
      <trkpt lat="44.9319" lon="4.59801">
        <ele>663.8</ele>
        <time>2021-03-27T09:24:18Z</time>
      </trkpt>
      <trkpt lat="44.93182" lon="4.59797">
        <ele>664.2</ele>
        <time>2021-03-27T09:24:22Z</time>
      </trkpt>
      <trkpt lat="44.93177" lon="4.5979">
        <ele>664.8</ele>
        <time>2021-03-27T09:24:26Z</time>
      </trkpt>
      <trkpt lat="44.93172" lon="4.59781">
        <ele>665.8</ele>
        <time>2021-03-27T09:24:30Z</time>
      </trkpt>
      <trkpt lat="44.93167" lon="4.59776">
        <ele>666.4</ele>
        <time>2021-03-27T09:24:34Z</time>
      </trkpt>
      <trkpt lat="44.93161" lon="4.59771">
        <ele>666.8</ele>
        <time>2021-03-27T09:24:38Z</time>
      </trkpt>
      <trkpt lat="44.93156" lon="4.59765">
        <ele>667.8</ele>
        <time>2021-03-27T09:24:42Z</time>
      </trkpt>
      <trkpt lat="44.93151" lon="4.59757">
        <ele>668.4</ele>
        <time>2021-03-27T09:24:46Z</time>
      </trkpt>
      <trkpt lat="44.93146" lon="4.59749">
        <ele>668.8</ele>
        <time>2021-03-27T09:24:50Z</time>
      </trkpt>
      <trkpt lat="44.93141" lon="4.59741">
        <ele>670.2</ele>
        <time>2021-03-27T09:24:54Z</time>
      </trkpt>
      <trkpt lat="44.93136" lon="4.59731">
        <ele>670.4</ele>
        <time>2021-03-27T09:24:58Z</time>
      </trkpt>
      <trkpt lat="44.93131" lon="4.59721">
        <ele>670.8</ele>
        <time>2021-03-27T09:25:02Z</time>
      </trkpt>
      <trkpt lat="44.93126" lon="4.59712">
        <ele>671.2</ele>
        <time>2021-03-27T09:25:06Z</time>
      </trkpt>
      <trkpt lat="44.93122" lon="4.59701">
        <ele>671.6</ele>
        <time>2021-03-27T09:25:10Z</time>
      </trkpt>
      <trkpt lat="44.93116" lon="4.59691">
        <ele>671.2</ele>
        <time>2021-03-27T09:25:14Z</time>
      </trkpt>
      <trkpt lat="44.93113" lon="4.59682">
        <ele>672</ele>
        <time>2021-03-27T09:25:18Z</time>
      </trkpt>
      <trkpt lat="44.93115" lon="4.59674">
        <ele>672.4</ele>
        <time>2021-03-27T09:25:22Z</time>
      </trkpt>
      <trkpt lat="44.9312" lon="4.59677">
        <ele>674</ele>
        <time>2021-03-27T09:25:26Z</time>
      </trkpt>
      <trkpt lat="44.93125" lon="4.59681">
        <ele>674.6</ele>
        <time>2021-03-27T09:25:30Z</time>
      </trkpt>
      <trkpt lat="44.9313" lon="4.59682">
        <ele>675.2</ele>
        <time>2021-03-27T09:25:34Z</time>
      </trkpt>
      <trkpt lat="44.93149" lon="4.59697">
        <ele>678.8</ele>
        <time>2021-03-27T09:26:17Z</time>
      </trkpt>
      <trkpt lat="44.93154" lon="4.597">
        <ele>679.4</ele>
        <time>2021-03-27T09:26:21Z</time>
      </trkpt>
      <trkpt lat="44.9316" lon="4.59704">
        <ele>680.6</ele>
        <time>2021-03-27T09:26:25Z</time>
      </trkpt>
      <trkpt lat="44.93165" lon="4.59708">
        <ele>681</ele>
        <time>2021-03-27T09:26:29Z</time>
      </trkpt>
      <trkpt lat="44.9317" lon="4.59711">
        <ele>681.8</ele>
        <time>2021-03-27T09:26:33Z</time>
      </trkpt>
      <trkpt lat="44.93175" lon="4.59712">
        <ele>682.8</ele>
        <time>2021-03-27T09:26:37Z</time>
      </trkpt>
      <trkpt lat="44.93181" lon="4.59713">
        <ele>683.6</ele>
        <time>2021-03-27T09:26:41Z</time>
      </trkpt>
      <trkpt lat="44.93186" lon="4.59713">
        <ele>684</ele>
        <time>2021-03-27T09:26:45Z</time>
      </trkpt>
      <trkpt lat="44.93192" lon="4.59714">
        <ele>684.8</ele>
        <time>2021-03-27T09:26:49Z</time>
      </trkpt>
      <trkpt lat="44.93197" lon="4.59713">
        <ele>685</ele>
        <time>2021-03-27T09:26:53Z</time>
      </trkpt>
      <trkpt lat="44.93204" lon="4.59712">
        <ele>686</ele>
        <time>2021-03-27T09:26:57Z</time>
      </trkpt>
      <trkpt lat="44.93211" lon="4.5971">
        <ele>686.4</ele>
        <time>2021-03-27T09:27:01Z</time>
      </trkpt>
      <trkpt lat="44.9322" lon="4.59707">
        <ele>687.4</ele>
        <time>2021-03-27T09:27:05Z</time>
      </trkpt>
      <trkpt lat="44.93229" lon="4.59703">
        <ele>688.2</ele>
        <time>2021-03-27T09:27:09Z</time>
      </trkpt>
      <trkpt lat="44.93236" lon="4.597">
        <ele>687.6</ele>
        <time>2021-03-27T09:27:13Z</time>
      </trkpt>
      <trkpt lat="44.93243" lon="4.59696">
        <ele>688.4</ele>
        <time>2021-03-27T09:27:17Z</time>
      </trkpt>
      <trkpt lat="44.93251" lon="4.59693">
        <ele>689.2</ele>
        <time>2021-03-27T09:27:21Z</time>
      </trkpt>
      <trkpt lat="44.93258" lon="4.59688">
        <ele>690.2</ele>
        <time>2021-03-27T09:27:25Z</time>
      </trkpt>
      <trkpt lat="44.93265" lon="4.59683">
        <ele>690.8</ele>
        <time>2021-03-27T09:27:29Z</time>
      </trkpt>
      <trkpt lat="44.93271" lon="4.59676">
        <ele>691.2</ele>
        <time>2021-03-27T09:27:33Z</time>
      </trkpt>
      <trkpt lat="44.93277" lon="4.5967">
        <ele>691.4</ele>
        <time>2021-03-27T09:27:37Z</time>
      </trkpt>
      <trkpt lat="44.93282" lon="4.59665">
        <ele>693</ele>
        <time>2021-03-27T09:27:41Z</time>
      </trkpt>
      <trkpt lat="44.93287" lon="4.5966">
        <ele>694</ele>
        <time>2021-03-27T09:27:45Z</time>
      </trkpt>
      <trkpt lat="44.93293" lon="4.59656">
        <ele>694.4</ele>
        <time>2021-03-27T09:27:49Z</time>
      </trkpt>
      <trkpt lat="44.933" lon="4.59655">
        <ele>695.8</ele>
        <time>2021-03-27T09:27:53Z</time>
      </trkpt>
      <trkpt lat="44.93305" lon="4.59659">
        <ele>696.2</ele>
        <time>2021-03-27T09:27:57Z</time>
      </trkpt>
      <trkpt lat="44.93309" lon="4.59667">
        <ele>696.6</ele>
        <time>2021-03-27T09:28:01Z</time>
      </trkpt>
      <trkpt lat="44.93314" lon="4.59675">
        <ele>697</ele>
        <time>2021-03-27T09:28:05Z</time>
      </trkpt>
      <trkpt lat="44.9332" lon="4.5968">
        <ele>696.6</ele>
        <time>2021-03-27T09:28:09Z</time>
      </trkpt>
      <trkpt lat="44.93329" lon="4.59682">
        <ele>698.6</ele>
        <time>2021-03-27T09:28:13Z</time>
      </trkpt>
      <trkpt lat="44.93335" lon="4.59682">
        <ele>699</ele>
        <time>2021-03-27T09:28:17Z</time>
      </trkpt>
      <trkpt lat="44.93343" lon="4.5968">
        <ele>698.8</ele>
        <time>2021-03-27T09:28:21Z</time>
      </trkpt>
      <trkpt lat="44.9335" lon="4.59678">
        <ele>699.2</ele>
        <time>2021-03-27T09:28:25Z</time>
      </trkpt>
      <trkpt lat="44.93357" lon="4.59673">
        <ele>699.6</ele>
        <time>2021-03-27T09:28:29Z</time>
      </trkpt>
      <trkpt lat="44.93364" lon="4.59668">
        <ele>700.4</ele>
        <time>2021-03-27T09:28:33Z</time>
      </trkpt>
      <trkpt lat="44.93369" lon="4.59663">
        <ele>701.2</ele>
        <time>2021-03-27T09:28:37Z</time>
      </trkpt>
      <trkpt lat="44.93375" lon="4.59657">
        <ele>701.4</ele>
        <time>2021-03-27T09:28:41Z</time>
      </trkpt>
      <trkpt lat="44.93382" lon="4.59652">
        <ele>702.8</ele>
        <time>2021-03-27T09:28:45Z</time>
      </trkpt>
      <trkpt lat="44.93388" lon="4.59648">
        <ele>703.4</ele>
        <time>2021-03-27T09:28:49Z</time>
      </trkpt>
      <trkpt lat="44.93395" lon="4.59644">
        <ele>703.6</ele>
        <time>2021-03-27T09:28:53Z</time>
      </trkpt>
      <trkpt lat="44.93402" lon="4.59641">
        <ele>704.4</ele>
        <time>2021-03-27T09:28:57Z</time>
      </trkpt>
      <trkpt lat="44.93409" lon="4.59639">
        <ele>704.6</ele>
        <time>2021-03-27T09:29:01Z</time>
      </trkpt>
      <trkpt lat="44.93417" lon="4.59638">
        <ele>705.4</ele>
        <time>2021-03-27T09:29:05Z</time>
      </trkpt>
      <trkpt lat="44.93425" lon="4.59638">
        <ele>706</ele>
        <time>2021-03-27T09:29:09Z</time>
      </trkpt>
      <trkpt lat="44.93432" lon="4.59638">
        <ele>706.2</ele>
        <time>2021-03-27T09:29:13Z</time>
      </trkpt>
      <trkpt lat="44.93439" lon="4.59638">
        <ele>706.2</ele>
        <time>2021-03-27T09:29:17Z</time>
      </trkpt>
      <trkpt lat="44.93446" lon="4.59639">
        <ele>707</ele>
        <time>2021-03-27T09:29:21Z</time>
      </trkpt>
      <trkpt lat="44.93453" lon="4.5964">
        <ele>707.8</ele>
        <time>2021-03-27T09:29:25Z</time>
      </trkpt>
      <trkpt lat="44.93461" lon="4.59642">
        <ele>707.8</ele>
        <time>2021-03-27T09:29:29Z</time>
      </trkpt>
      <trkpt lat="44.93469" lon="4.59644">
        <ele>708.4</ele>
        <time>2021-03-27T09:29:33Z</time>
      </trkpt>
      <trkpt lat="44.93477" lon="4.59646">
        <ele>708.8</ele>
        <time>2021-03-27T09:29:37Z</time>
      </trkpt>
      <trkpt lat="44.93484" lon="4.59647">
        <ele>709.2</ele>
        <time>2021-03-27T09:29:41Z</time>
      </trkpt>
      <trkpt lat="44.93492" lon="4.59648">
        <ele>709.4</ele>
        <time>2021-03-27T09:29:45Z</time>
      </trkpt>
      <trkpt lat="44.93499" lon="4.59649">
        <ele>710.8</ele>
        <time>2021-03-27T09:29:49Z</time>
      </trkpt>
      <trkpt lat="44.93506" lon="4.5965">
        <ele>710.6</ele>
        <time>2021-03-27T09:29:53Z</time>
      </trkpt>
      <trkpt lat="44.93513" lon="4.59651">
        <ele>711.6</ele>
        <time>2021-03-27T09:29:57Z</time>
      </trkpt>
      <trkpt lat="44.93521" lon="4.59651">
        <ele>711</ele>
        <time>2021-03-27T09:30:01Z</time>
      </trkpt>
      <trkpt lat="44.93529" lon="4.59649">
        <ele>711.4</ele>
        <time>2021-03-27T09:30:05Z</time>
      </trkpt>
      <trkpt lat="44.93538" lon="4.59644">
        <ele>712</ele>
        <time>2021-03-27T09:30:09Z</time>
      </trkpt>
      <trkpt lat="44.93547" lon="4.59637">
        <ele>711.2</ele>
        <time>2021-03-27T09:30:13Z</time>
      </trkpt>
      <trkpt lat="44.93555" lon="4.59628">
        <ele>712</ele>
        <time>2021-03-27T09:30:17Z</time>
      </trkpt>
      <trkpt lat="44.93562" lon="4.59618">
        <ele>712.2</ele>
        <time>2021-03-27T09:30:21Z</time>
      </trkpt>
      <trkpt lat="44.93569" lon="4.59606">
        <ele>713.2</ele>
        <time>2021-03-27T09:30:25Z</time>
      </trkpt>
      <trkpt lat="44.93576" lon="4.59592">
        <ele>711.8</ele>
        <time>2021-03-27T09:30:29Z</time>
      </trkpt>
      <trkpt lat="44.93584" lon="4.59576">
        <ele>711.6</ele>
        <time>2021-03-27T09:30:33Z</time>
      </trkpt>
      <trkpt lat="44.93591" lon="4.59558">
        <ele>711.6</ele>
        <time>2021-03-27T09:30:37Z</time>
      </trkpt>
      <trkpt lat="44.93595" lon="4.59537">
        <ele>711.8</ele>
        <time>2021-03-27T09:30:41Z</time>
      </trkpt>
      <trkpt lat="44.93598" lon="4.59519">
        <ele>711.4</ele>
        <time>2021-03-27T09:30:45Z</time>
      </trkpt>
      <trkpt lat="44.93603" lon="4.59508">
        <ele>711.4</ele>
        <time>2021-03-27T09:30:49Z</time>
      </trkpt>
      <trkpt lat="44.93606" lon="4.59491">
        <ele>712.4</ele>
        <time>2021-03-27T09:30:53Z</time>
      </trkpt>
      <trkpt lat="44.93609" lon="4.59471">
        <ele>712.4</ele>
        <time>2021-03-27T09:30:57Z</time>
      </trkpt>
      <trkpt lat="44.93609" lon="4.59452">
        <ele>711.6</ele>
        <time>2021-03-27T09:31:01Z</time>
      </trkpt>
      <trkpt lat="44.9361" lon="4.5943">
        <ele>712.2</ele>
        <time>2021-03-27T09:31:05Z</time>
      </trkpt>
      <trkpt lat="44.93611" lon="4.59406">
        <ele>712</ele>
        <time>2021-03-27T09:31:09Z</time>
      </trkpt>
      <trkpt lat="44.93611" lon="4.59382">
        <ele>711.8</ele>
        <time>2021-03-27T09:31:13Z</time>
      </trkpt>
      <trkpt lat="44.93613" lon="4.5936">
        <ele>712</ele>
        <time>2021-03-27T09:31:17Z</time>
      </trkpt>
      <trkpt lat="44.93615" lon="4.59336">
        <ele>712</ele>
        <time>2021-03-27T09:31:21Z</time>
      </trkpt>
      <trkpt lat="44.93617" lon="4.59315">
        <ele>712.2</ele>
        <time>2021-03-27T09:31:25Z</time>
      </trkpt>
      <trkpt lat="44.9362" lon="4.59294">
        <ele>712.2</ele>
        <time>2021-03-27T09:31:29Z</time>
      </trkpt>
      <trkpt lat="44.93628" lon="4.59277">
        <ele>712</ele>
        <time>2021-03-27T09:31:33Z</time>
      </trkpt>
      <trkpt lat="44.93641" lon="4.59279">
        <ele>712.6</ele>
        <time>2021-03-27T09:31:37Z</time>
      </trkpt>
      <trkpt lat="44.93651" lon="4.59291">
        <ele>712.4</ele>
        <time>2021-03-27T09:31:41Z</time>
      </trkpt>
      <trkpt lat="44.93661" lon="4.59304">
        <ele>712.6</ele>
        <time>2021-03-27T09:31:45Z</time>
      </trkpt>
      <trkpt lat="44.93671" lon="4.59318">
        <ele>712</ele>
        <time>2021-03-27T09:31:49Z</time>
      </trkpt>
      <trkpt lat="44.9368" lon="4.59333">
        <ele>712.2</ele>
        <time>2021-03-27T09:31:53Z</time>
      </trkpt>
      <trkpt lat="44.93689" lon="4.59348">
        <ele>711.6</ele>
        <time>2021-03-27T09:31:57Z</time>
      </trkpt>
      <trkpt lat="44.937" lon="4.59361">
        <ele>711.4</ele>
        <time>2021-03-27T09:32:01Z</time>
      </trkpt>
      <trkpt lat="44.93711" lon="4.59373">
        <ele>711.4</ele>
        <time>2021-03-27T09:32:05Z</time>
      </trkpt>
      <trkpt lat="44.93725" lon="4.59385">
        <ele>710.6</ele>
        <time>2021-03-27T09:32:09Z</time>
      </trkpt>
      <trkpt lat="44.9374" lon="4.59398">
        <ele>711</ele>
        <time>2021-03-27T09:32:13Z</time>
      </trkpt>
      <trkpt lat="44.93755" lon="4.59402">
        <ele>711.4</ele>
        <time>2021-03-27T09:32:17Z</time>
      </trkpt>
      <trkpt lat="44.93772" lon="4.59408">
        <ele>712</ele>
        <time>2021-03-27T09:32:21Z</time>
      </trkpt>
      <trkpt lat="44.93781" lon="4.59425">
        <ele>712.2</ele>
        <time>2021-03-27T09:32:25Z</time>
      </trkpt>
      <trkpt lat="44.93787" lon="4.59441">
        <ele>712.4</ele>
        <time>2021-03-27T09:32:29Z</time>
      </trkpt>
      <trkpt lat="44.93792" lon="4.59457">
        <ele>713</ele>
        <time>2021-03-27T09:32:33Z</time>
      </trkpt>
      <trkpt lat="44.93795" lon="4.59475">
        <ele>713.4</ele>
        <time>2021-03-27T09:32:37Z</time>
      </trkpt>
      <trkpt lat="44.93801" lon="4.59492">
        <ele>712.6</ele>
        <time>2021-03-27T09:32:41Z</time>
      </trkpt>
      <trkpt lat="44.93807" lon="4.59507">
        <ele>713.2</ele>
        <time>2021-03-27T09:32:45Z</time>
      </trkpt>
      <trkpt lat="44.93815" lon="4.59521">
        <ele>713</ele>
        <time>2021-03-27T09:32:49Z</time>
      </trkpt>
      <trkpt lat="44.93827" lon="4.59531">
        <ele>713.4</ele>
        <time>2021-03-27T09:32:53Z</time>
      </trkpt>
      <trkpt lat="44.93835" lon="4.59543">
        <ele>713.8</ele>
        <time>2021-03-27T09:32:57Z</time>
      </trkpt>
      <trkpt lat="44.93843" lon="4.59561">
        <ele>714</ele>
        <time>2021-03-27T09:33:01Z</time>
      </trkpt>
      <trkpt lat="44.93852" lon="4.59577">
        <ele>714</ele>
        <time>2021-03-27T09:33:05Z</time>
      </trkpt>
      <trkpt lat="44.93859" lon="4.5959">
        <ele>714.8</ele>
        <time>2021-03-27T09:33:09Z</time>
      </trkpt>
      <trkpt lat="44.93867" lon="4.59604">
        <ele>715.4</ele>
        <time>2021-03-27T09:33:13Z</time>
      </trkpt>
      <trkpt lat="44.93876" lon="4.59614">
        <ele>714.2</ele>
        <time>2021-03-27T09:33:17Z</time>
      </trkpt>
      <trkpt lat="44.93884" lon="4.59623">
        <ele>714.2</ele>
        <time>2021-03-27T09:33:21Z</time>
      </trkpt>
      <trkpt lat="44.93892" lon="4.59624">
        <ele>714.6</ele>
        <time>2021-03-27T09:33:25Z</time>
      </trkpt>
      <trkpt lat="44.93903" lon="4.5962">
        <ele>715.8</ele>
        <time>2021-03-27T09:33:29Z</time>
      </trkpt>
      <trkpt lat="44.93912" lon="4.59614">
        <ele>715.8</ele>
        <time>2021-03-27T09:33:33Z</time>
      </trkpt>
      <trkpt lat="44.93919" lon="4.59607">
        <ele>715</ele>
        <time>2021-03-27T09:33:37Z</time>
      </trkpt>
      <trkpt lat="44.93927" lon="4.59595">
        <ele>716</ele>
        <time>2021-03-27T09:33:41Z</time>
      </trkpt>
      <trkpt lat="44.93933" lon="4.59581">
        <ele>716.4</ele>
        <time>2021-03-27T09:33:45Z</time>
      </trkpt>
      <trkpt lat="44.93936" lon="4.59568">
        <ele>717.2</ele>
        <time>2021-03-27T09:33:49Z</time>
      </trkpt>
      <trkpt lat="44.93936" lon="4.59569">
        <ele>716.2</ele>
        <time>2021-03-27T09:34:03Z</time>
      </trkpt>
      <trkpt lat="44.93935" lon="4.59578">
        <ele>716</ele>
        <time>2021-03-27T09:34:07Z</time>
      </trkpt>
      <trkpt lat="44.93931" lon="4.59588">
        <ele>716.6</ele>
        <time>2021-03-27T09:34:11Z</time>
      </trkpt>
      <trkpt lat="44.93925" lon="4.59597">
        <ele>715.4</ele>
        <time>2021-03-27T09:34:15Z</time>
      </trkpt>
      <trkpt lat="44.93914" lon="4.59606">
        <ele>716.2</ele>
        <time>2021-03-27T09:34:19Z</time>
      </trkpt>
      <trkpt lat="44.93903" lon="4.5961">
        <ele>717</ele>
        <time>2021-03-27T09:34:23Z</time>
      </trkpt>
      <trkpt lat="44.93896" lon="4.59609">
        <ele>717.8</ele>
        <time>2021-03-27T09:34:27Z</time>
      </trkpt>
      <trkpt lat="44.93889" lon="4.59601">
        <ele>718.4</ele>
        <time>2021-03-27T09:34:31Z</time>
      </trkpt>
      <trkpt lat="44.93884" lon="4.59592">
        <ele>718.8</ele>
        <time>2021-03-27T09:34:35Z</time>
      </trkpt>
      <trkpt lat="44.9388" lon="4.59582">
        <ele>719.2</ele>
        <time>2021-03-27T09:34:39Z</time>
      </trkpt>
      <trkpt lat="44.93878" lon="4.5957">
        <ele>720</ele>
        <time>2021-03-27T09:34:43Z</time>
      </trkpt>
      <trkpt lat="44.93874" lon="4.59559">
        <ele>720.6</ele>
        <time>2021-03-27T09:34:47Z</time>
      </trkpt>
      <trkpt lat="44.93869" lon="4.59549">
        <ele>721.2</ele>
        <time>2021-03-27T09:34:51Z</time>
      </trkpt>
      <trkpt lat="44.93862" lon="4.5954">
        <ele>721.6</ele>
        <time>2021-03-27T09:34:55Z</time>
      </trkpt>
      <trkpt lat="44.93856" lon="4.5953">
        <ele>722.4</ele>
        <time>2021-03-27T09:34:59Z</time>
      </trkpt>
      <trkpt lat="44.93851" lon="4.59517">
        <ele>723.6</ele>
        <time>2021-03-27T09:35:03Z</time>
      </trkpt>
      <trkpt lat="44.93847" lon="4.59505">
        <ele>723.4</ele>
        <time>2021-03-27T09:35:07Z</time>
      </trkpt>
      <trkpt lat="44.93842" lon="4.59492">
        <ele>724.6</ele>
        <time>2021-03-27T09:35:11Z</time>
      </trkpt>
      <trkpt lat="44.93837" lon="4.59479">
        <ele>724.8</ele>
        <time>2021-03-27T09:35:15Z</time>
      </trkpt>
      <trkpt lat="44.93834" lon="4.59466">
        <ele>725.6</ele>
        <time>2021-03-27T09:35:19Z</time>
      </trkpt>
      <trkpt lat="44.93828" lon="4.59452">
        <ele>726</ele>
        <time>2021-03-27T09:35:23Z</time>
      </trkpt>
      <trkpt lat="44.93825" lon="4.59439">
        <ele>726.2</ele>
        <time>2021-03-27T09:35:27Z</time>
      </trkpt>
      <trkpt lat="44.93825" lon="4.59425">
        <ele>727.4</ele>
        <time>2021-03-27T09:35:31Z</time>
      </trkpt>
      <trkpt lat="44.93826" lon="4.59412">
        <ele>727.6</ele>
        <time>2021-03-27T09:35:35Z</time>
      </trkpt>
      <trkpt lat="44.93828" lon="4.59399">
        <ele>728</ele>
        <time>2021-03-27T09:35:39Z</time>
      </trkpt>
      <trkpt lat="44.93831" lon="4.59387">
        <ele>728.6</ele>
        <time>2021-03-27T09:35:43Z</time>
      </trkpt>
      <trkpt lat="44.93836" lon="4.59378">
        <ele>729.2</ele>
        <time>2021-03-27T09:35:47Z</time>
      </trkpt>
      <trkpt lat="44.9384" lon="4.59367">
        <ele>729.6</ele>
        <time>2021-03-27T09:35:51Z</time>
      </trkpt>
      <trkpt lat="44.93833" lon="4.59353">
        <ele>729.6</ele>
        <time>2021-03-27T09:35:55Z</time>
      </trkpt>
      <trkpt lat="44.93823" lon="4.59344">
        <ele>731.2</ele>
        <time>2021-03-27T09:35:59Z</time>
      </trkpt>
      <trkpt lat="44.93815" lon="4.59339">
        <ele>732.2</ele>
        <time>2021-03-27T09:36:03Z</time>
      </trkpt>
      <trkpt lat="44.93809" lon="4.59335">
        <ele>732</ele>
        <time>2021-03-27T09:36:07Z</time>
      </trkpt>
      <trkpt lat="44.93802" lon="4.5933">
        <ele>732.2</ele>
        <time>2021-03-27T09:36:11Z</time>
      </trkpt>
      <trkpt lat="44.93796" lon="4.59325">
        <ele>732.8</ele>
        <time>2021-03-27T09:36:15Z</time>
      </trkpt>
      <trkpt lat="44.93792" lon="4.59317">
        <ele>734</ele>
        <time>2021-03-27T09:36:19Z</time>
      </trkpt>
      <trkpt lat="44.93786" lon="4.59313">
        <ele>734.4</ele>
        <time>2021-03-27T09:36:23Z</time>
      </trkpt>
      <trkpt lat="44.93778" lon="4.59307">
        <ele>734.4</ele>
        <time>2021-03-27T09:36:27Z</time>
      </trkpt>
      <trkpt lat="44.9377" lon="4.593">
        <ele>734.4</ele>
        <time>2021-03-27T09:36:31Z</time>
      </trkpt>
      <trkpt lat="44.93765" lon="4.5929">
        <ele>735.4</ele>
        <time>2021-03-27T09:36:35Z</time>
      </trkpt>
      <trkpt lat="44.93758" lon="4.5928">
        <ele>736</ele>
        <time>2021-03-27T09:36:39Z</time>
      </trkpt>
      <trkpt lat="44.93753" lon="4.5927">
        <ele>735.8</ele>
        <time>2021-03-27T09:36:43Z</time>
      </trkpt>
      <trkpt lat="44.93748" lon="4.59261">
        <ele>736.4</ele>
        <time>2021-03-27T09:36:47Z</time>
      </trkpt>
      <trkpt lat="44.9374" lon="4.59253">
        <ele>737</ele>
        <time>2021-03-27T09:36:51Z</time>
      </trkpt>
      <trkpt lat="44.93732" lon="4.59242">
        <ele>738</ele>
        <time>2021-03-27T09:36:55Z</time>
      </trkpt>
      <trkpt lat="44.93725" lon="4.59235">
        <ele>738.4</ele>
        <time>2021-03-27T09:36:59Z</time>
      </trkpt>
      <trkpt lat="44.93719" lon="4.59231">
        <ele>738.8</ele>
        <time>2021-03-27T09:37:03Z</time>
      </trkpt>
      <trkpt lat="44.93712" lon="4.59224">
        <ele>739</ele>
        <time>2021-03-27T09:37:07Z</time>
      </trkpt>
      <trkpt lat="44.93706" lon="4.59216">
        <ele>739</ele>
        <time>2021-03-27T09:37:11Z</time>
      </trkpt>
      <trkpt lat="44.93701" lon="4.59207">
        <ele>739.8</ele>
        <time>2021-03-27T09:37:15Z</time>
      </trkpt>
      <trkpt lat="44.93699" lon="4.59199">
        <ele>741.4</ele>
        <time>2021-03-27T09:37:19Z</time>
      </trkpt>
      <trkpt lat="44.93695" lon="4.59189">
        <ele>741.2</ele>
        <time>2021-03-27T09:37:23Z</time>
      </trkpt>
      <trkpt lat="44.9369" lon="4.59177">
        <ele>742.2</ele>
        <time>2021-03-27T09:37:27Z</time>
      </trkpt>
      <trkpt lat="44.93682" lon="4.59166">
        <ele>742.4</ele>
        <time>2021-03-27T09:37:31Z</time>
      </trkpt>
      <trkpt lat="44.93674" lon="4.59156">
        <ele>743.2</ele>
        <time>2021-03-27T09:37:35Z</time>
      </trkpt>
      <trkpt lat="44.93665" lon="4.59147">
        <ele>743.8</ele>
        <time>2021-03-27T09:37:39Z</time>
      </trkpt>
      <trkpt lat="44.93655" lon="4.59142">
        <ele>745</ele>
        <time>2021-03-27T09:37:43Z</time>
      </trkpt>
      <trkpt lat="44.93648" lon="4.5914">
        <ele>745.2</ele>
        <time>2021-03-27T09:37:47Z</time>
      </trkpt>
      <trkpt lat="44.93639" lon="4.59138">
        <ele>745.2</ele>
        <time>2021-03-27T09:37:51Z</time>
      </trkpt>
      <trkpt lat="44.93632" lon="4.59136">
        <ele>746.6</ele>
        <time>2021-03-27T09:37:55Z</time>
      </trkpt>
      <trkpt lat="44.93625" lon="4.59132">
        <ele>747</ele>
        <time>2021-03-27T09:37:59Z</time>
      </trkpt>
      <trkpt lat="44.93617" lon="4.5913">
        <ele>747.2</ele>
        <time>2021-03-27T09:38:03Z</time>
      </trkpt>
      <trkpt lat="44.93609" lon="4.59124">
        <ele>747.4</ele>
        <time>2021-03-27T09:38:07Z</time>
      </trkpt>
      <trkpt lat="44.93601" lon="4.59119">
        <ele>748</ele>
        <time>2021-03-27T09:38:11Z</time>
      </trkpt>
      <trkpt lat="44.93594" lon="4.59112">
        <ele>748.2</ele>
        <time>2021-03-27T09:38:15Z</time>
      </trkpt>
      <trkpt lat="44.93589" lon="4.59105">
        <ele>749</ele>
        <time>2021-03-27T09:38:19Z</time>
      </trkpt>
      <trkpt lat="44.93582" lon="4.59101">
        <ele>749.6</ele>
        <time>2021-03-27T09:38:23Z</time>
      </trkpt>
      <trkpt lat="44.93575" lon="4.59095">
        <ele>750</ele>
        <time>2021-03-27T09:38:27Z</time>
      </trkpt>
      <trkpt lat="44.93568" lon="4.59089">
        <ele>750.4</ele>
        <time>2021-03-27T09:38:31Z</time>
      </trkpt>
      <trkpt lat="44.9356" lon="4.59084">
        <ele>751.4</ele>
        <time>2021-03-27T09:38:35Z</time>
      </trkpt>
      <trkpt lat="44.93554" lon="4.59079">
        <ele>752</ele>
        <time>2021-03-27T09:38:39Z</time>
      </trkpt>
      <trkpt lat="44.93547" lon="4.59073">
        <ele>752.2</ele>
        <time>2021-03-27T09:38:43Z</time>
      </trkpt>
      <trkpt lat="44.9354" lon="4.59065">
        <ele>753</ele>
        <time>2021-03-27T09:38:47Z</time>
      </trkpt>
      <trkpt lat="44.93536" lon="4.59057">
        <ele>753.2</ele>
        <time>2021-03-27T09:38:51Z</time>
      </trkpt>
      <trkpt lat="44.93528" lon="4.59048">
        <ele>752.8</ele>
        <time>2021-03-27T09:38:55Z</time>
      </trkpt>
      <trkpt lat="44.93518" lon="4.59038">
        <ele>752.4</ele>
        <time>2021-03-27T09:38:59Z</time>
      </trkpt>
      <trkpt lat="44.93507" lon="4.59029">
        <ele>751.2</ele>
        <time>2021-03-27T09:39:03Z</time>
      </trkpt>
      <trkpt lat="44.93495" lon="4.59016">
        <ele>750.6</ele>
        <time>2021-03-27T09:39:07Z</time>
      </trkpt>
      <trkpt lat="44.93479" lon="4.59003">
        <ele>750.2</ele>
        <time>2021-03-27T09:39:11Z</time>
      </trkpt>
      <trkpt lat="44.93464" lon="4.58988">
        <ele>749.6</ele>
        <time>2021-03-27T09:39:15Z</time>
      </trkpt>
      <trkpt lat="44.93451" lon="4.58976">
        <ele>749.8</ele>
        <time>2021-03-27T09:39:19Z</time>
      </trkpt>
      <trkpt lat="44.93437" lon="4.58966">
        <ele>749.8</ele>
        <time>2021-03-27T09:39:23Z</time>
      </trkpt>
      <trkpt lat="44.9342" lon="4.58957">
        <ele>748.8</ele>
        <time>2021-03-27T09:39:27Z</time>
      </trkpt>
      <trkpt lat="44.93405" lon="4.58943">
        <ele>748.8</ele>
        <time>2021-03-27T09:39:31Z</time>
      </trkpt>
      <trkpt lat="44.93391" lon="4.58927">
        <ele>748.2</ele>
        <time>2021-03-27T09:39:35Z</time>
      </trkpt>
      <trkpt lat="44.93381" lon="4.58911">
        <ele>749.2</ele>
        <time>2021-03-27T09:39:39Z</time>
      </trkpt>
      <trkpt lat="44.93373" lon="4.58895">
        <ele>749</ele>
        <time>2021-03-27T09:39:43Z</time>
      </trkpt>
      <trkpt lat="44.93365" lon="4.58882">
        <ele>750.2</ele>
        <time>2021-03-27T09:39:47Z</time>
      </trkpt>
      <trkpt lat="44.93355" lon="4.58871">
        <ele>750.2</ele>
        <time>2021-03-27T09:39:51Z</time>
      </trkpt>
      <trkpt lat="44.93345" lon="4.58862">
        <ele>751.4</ele>
        <time>2021-03-27T09:39:55Z</time>
      </trkpt>
      <trkpt lat="44.93335" lon="4.58855">
        <ele>752</ele>
        <time>2021-03-27T09:39:59Z</time>
      </trkpt>
      <trkpt lat="44.93326" lon="4.5885">
        <ele>752.6</ele>
        <time>2021-03-27T09:40:03Z</time>
      </trkpt>
      <trkpt lat="44.93318" lon="4.58845">
        <ele>753.2</ele>
        <time>2021-03-27T09:40:07Z</time>
      </trkpt>
      <trkpt lat="44.93309" lon="4.58839">
        <ele>753</ele>
        <time>2021-03-27T09:40:11Z</time>
      </trkpt>
      <trkpt lat="44.933" lon="4.58832">
        <ele>753</ele>
        <time>2021-03-27T09:40:15Z</time>
      </trkpt>
      <trkpt lat="44.93291" lon="4.58824">
        <ele>753</ele>
        <time>2021-03-27T09:40:19Z</time>
      </trkpt>
      <trkpt lat="44.93282" lon="4.58816">
        <ele>753.8</ele>
        <time>2021-03-27T09:40:23Z</time>
      </trkpt>
      <trkpt lat="44.93273" lon="4.58806">
        <ele>754.6</ele>
        <time>2021-03-27T09:40:27Z</time>
      </trkpt>
      <trkpt lat="44.93265" lon="4.58797">
        <ele>756</ele>
        <time>2021-03-27T09:40:31Z</time>
      </trkpt>
      <trkpt lat="44.93258" lon="4.58788">
        <ele>756.4</ele>
        <time>2021-03-27T09:40:35Z</time>
      </trkpt>
      <trkpt lat="44.9325" lon="4.58778">
        <ele>756.4</ele>
        <time>2021-03-27T09:40:39Z</time>
      </trkpt>
      <trkpt lat="44.93242" lon="4.58767">
        <ele>757.2</ele>
        <time>2021-03-27T09:40:43Z</time>
      </trkpt>
      <trkpt lat="44.93235" lon="4.58759">
        <ele>757.6</ele>
        <time>2021-03-27T09:40:47Z</time>
      </trkpt>
      <trkpt lat="44.93226" lon="4.58748">
        <ele>757.6</ele>
        <time>2021-03-27T09:40:51Z</time>
      </trkpt>
      <trkpt lat="44.93217" lon="4.58736">
        <ele>757.4</ele>
        <time>2021-03-27T09:40:55Z</time>
      </trkpt>
      <trkpt lat="44.93209" lon="4.58723">
        <ele>757.6</ele>
        <time>2021-03-27T09:40:59Z</time>
      </trkpt>
      <trkpt lat="44.93201" lon="4.58707">
        <ele>758</ele>
        <time>2021-03-27T09:41:03Z</time>
      </trkpt>
      <trkpt lat="44.93193" lon="4.58691">
        <ele>758</ele>
        <time>2021-03-27T09:41:07Z</time>
      </trkpt>
      <trkpt lat="44.93185" lon="4.58674">
        <ele>758.2</ele>
        <time>2021-03-27T09:41:11Z</time>
      </trkpt>
      <trkpt lat="44.93179" lon="4.58659">
        <ele>758.6</ele>
        <time>2021-03-27T09:41:15Z</time>
      </trkpt>
      <trkpt lat="44.93173" lon="4.58646">
        <ele>759</ele>
        <time>2021-03-27T09:41:19Z</time>
      </trkpt>
      <trkpt lat="44.93165" lon="4.58632">
        <ele>760.2</ele>
        <time>2021-03-27T09:41:23Z</time>
      </trkpt>
      <trkpt lat="44.93157" lon="4.58618">
        <ele>760</ele>
        <time>2021-03-27T09:41:27Z</time>
      </trkpt>
      <trkpt lat="44.93147" lon="4.58606">
        <ele>760.2</ele>
        <time>2021-03-27T09:41:31Z</time>
      </trkpt>
      <trkpt lat="44.93135" lon="4.58596">
        <ele>760</ele>
        <time>2021-03-27T09:41:35Z</time>
      </trkpt>
      <trkpt lat="44.93121" lon="4.58585">
        <ele>758.8</ele>
        <time>2021-03-27T09:41:39Z</time>
      </trkpt>
      <trkpt lat="44.93108" lon="4.5857">
        <ele>758.8</ele>
        <time>2021-03-27T09:41:43Z</time>
      </trkpt>
      <trkpt lat="44.93097" lon="4.58551">
        <ele>758.2</ele>
        <time>2021-03-27T09:41:47Z</time>
      </trkpt>
      <trkpt lat="44.93091" lon="4.58529">
        <ele>759</ele>
        <time>2021-03-27T09:41:51Z</time>
      </trkpt>
      <trkpt lat="44.93086" lon="4.58509">
        <ele>759</ele>
        <time>2021-03-27T09:41:55Z</time>
      </trkpt>
      <trkpt lat="44.93083" lon="4.58489">
        <ele>758.6</ele>
        <time>2021-03-27T09:41:59Z</time>
      </trkpt>
      <trkpt lat="44.9308" lon="4.5847">
        <ele>759.6</ele>
        <time>2021-03-27T09:42:03Z</time>
      </trkpt>
      <trkpt lat="44.93076" lon="4.58452">
        <ele>760</ele>
        <time>2021-03-27T09:42:07Z</time>
      </trkpt>
      <trkpt lat="44.93071" lon="4.58434">
        <ele>760</ele>
        <time>2021-03-27T09:42:11Z</time>
      </trkpt>
      <trkpt lat="44.93064" lon="4.58416">
        <ele>760.2</ele>
        <time>2021-03-27T09:42:15Z</time>
      </trkpt>
      <trkpt lat="44.93055" lon="4.58402">
        <ele>760.8</ele>
        <time>2021-03-27T09:42:19Z</time>
      </trkpt>
      <trkpt lat="44.93043" lon="4.58392">
        <ele>761.2</ele>
        <time>2021-03-27T09:42:23Z</time>
      </trkpt>
      <trkpt lat="44.93033" lon="4.58385">
        <ele>761.4</ele>
        <time>2021-03-27T09:42:27Z</time>
      </trkpt>
      <trkpt lat="44.93022" lon="4.58378">
        <ele>761.2</ele>
        <time>2021-03-27T09:42:31Z</time>
      </trkpt>
      <trkpt lat="44.93012" lon="4.58368">
        <ele>761</ele>
        <time>2021-03-27T09:42:35Z</time>
      </trkpt>
      <trkpt lat="44.93002" lon="4.58358">
        <ele>761</ele>
        <time>2021-03-27T09:42:39Z</time>
      </trkpt>
      <trkpt lat="44.9299" lon="4.58352">
        <ele>761.4</ele>
        <time>2021-03-27T09:42:43Z</time>
      </trkpt>
      <trkpt lat="44.92981" lon="4.58342">
        <ele>760.8</ele>
        <time>2021-03-27T09:42:47Z</time>
      </trkpt>
      <trkpt lat="44.92975" lon="4.58327">
        <ele>760.8</ele>
        <time>2021-03-27T09:42:51Z</time>
      </trkpt>
      <trkpt lat="44.92971" lon="4.58311">
        <ele>761.6</ele>
        <time>2021-03-27T09:42:55Z</time>
      </trkpt>
      <trkpt lat="44.92964" lon="4.58299">
        <ele>762</ele>
        <time>2021-03-27T09:42:59Z</time>
      </trkpt>
      <trkpt lat="44.92956" lon="4.58291">
        <ele>763</ele>
        <time>2021-03-27T09:43:03Z</time>
      </trkpt>
      <trkpt lat="44.92948" lon="4.58282">
        <ele>761.4</ele>
        <time>2021-03-27T09:43:07Z</time>
      </trkpt>
      <trkpt lat="44.92936" lon="4.58269">
        <ele>760.8</ele>
        <time>2021-03-27T09:43:11Z</time>
      </trkpt>
      <trkpt lat="44.92921" lon="4.58261">
        <ele>761.4</ele>
        <time>2021-03-27T09:43:15Z</time>
      </trkpt>
      <trkpt lat="44.92909" lon="4.58264">
        <ele>761</ele>
        <time>2021-03-27T09:43:19Z</time>
      </trkpt>
      <trkpt lat="44.92899" lon="4.58274">
        <ele>761.8</ele>
        <time>2021-03-27T09:43:23Z</time>
      </trkpt>
      <trkpt lat="44.92891" lon="4.58287">
        <ele>761</ele>
        <time>2021-03-27T09:43:27Z</time>
      </trkpt>
      <trkpt lat="44.92882" lon="4.58298">
        <ele>760.8</ele>
        <time>2021-03-27T09:43:31Z</time>
      </trkpt>
      <trkpt lat="44.92869" lon="4.58312">
        <ele>759.8</ele>
        <time>2021-03-27T09:43:35Z</time>
      </trkpt>
      <trkpt lat="44.92852" lon="4.58324">
        <ele>757.6</ele>
        <time>2021-03-27T09:43:39Z</time>
      </trkpt>
      <trkpt lat="44.92834" lon="4.58338">
        <ele>755.6</ele>
        <time>2021-03-27T09:43:43Z</time>
      </trkpt>
      <trkpt lat="44.92813" lon="4.5835">
        <ele>755.4</ele>
        <time>2021-03-27T09:43:47Z</time>
      </trkpt>
      <trkpt lat="44.92788" lon="4.58361">
        <ele>752.2</ele>
        <time>2021-03-27T09:43:51Z</time>
      </trkpt>
      <trkpt lat="44.9276" lon="4.58361">
        <ele>750.6</ele>
        <time>2021-03-27T09:43:55Z</time>
      </trkpt>
      <trkpt lat="44.92735" lon="4.58347">
        <ele>751.2</ele>
        <time>2021-03-27T09:43:59Z</time>
      </trkpt>
      <trkpt lat="44.92712" lon="4.58324">
        <ele>748.8</ele>
        <time>2021-03-27T09:44:03Z</time>
      </trkpt>
      <trkpt lat="44.92685" lon="4.58323">
        <ele>747.2</ele>
        <time>2021-03-27T09:44:07Z</time>
      </trkpt>
      <trkpt lat="44.92665" lon="4.58357">
        <ele>743</ele>
        <time>2021-03-27T09:44:11Z</time>
      </trkpt>
      <trkpt lat="44.92656" lon="4.58402">
        <ele>737.2</ele>
        <time>2021-03-27T09:44:15Z</time>
      </trkpt>
      <trkpt lat="44.92651" lon="4.58452">
        <ele>731.8</ele>
        <time>2021-03-27T09:44:19Z</time>
      </trkpt>
      <trkpt lat="44.92639" lon="4.58509">
        <ele>727.4</ele>
        <time>2021-03-27T09:44:23Z</time>
      </trkpt>
      <trkpt lat="44.92628" lon="4.58555">
        <ele>724.6</ele>
        <time>2021-03-27T09:44:27Z</time>
      </trkpt>
      <trkpt lat="44.92621" lon="4.58602">
        <ele>722.2</ele>
        <time>2021-03-27T09:44:31Z</time>
      </trkpt>
      <trkpt lat="44.92592" lon="4.58681">
        <ele>719</ele>
        <time>2021-03-27T09:44:35Z</time>
      </trkpt>
      <trkpt lat="44.92546" lon="4.58696">
        <ele>714.2</ele>
        <time>2021-03-27T09:44:39Z</time>
      </trkpt>
      <trkpt lat="44.92503" lon="4.58703">
        <ele>712.4</ele>
        <time>2021-03-27T09:44:43Z</time>
      </trkpt>
      <trkpt lat="44.92476" lon="4.58724">
        <ele>713</ele>
        <time>2021-03-27T09:44:47Z</time>
      </trkpt>
      <trkpt lat="44.92464" lon="4.58731">
        <ele>714</ele>
        <time>2021-03-27T09:44:51Z</time>
      </trkpt>
      <trkpt lat="44.92466" lon="4.5872">
        <ele>713</ele>
        <time>2021-03-27T09:46:10Z</time>
      </trkpt>
      <trkpt lat="44.9247" lon="4.58706">
        <ele>712.8</ele>
        <time>2021-03-27T09:46:14Z</time>
      </trkpt>
      <trkpt lat="44.92474" lon="4.58695">
        <ele>711</ele>
        <time>2021-03-27T09:46:18Z</time>
      </trkpt>
      <trkpt lat="44.92482" lon="4.58683">
        <ele>710.6</ele>
        <time>2021-03-27T09:46:22Z</time>
      </trkpt>
      <trkpt lat="44.92493" lon="4.58662">
        <ele>710.4</ele>
        <time>2021-03-27T09:46:26Z</time>
      </trkpt>
      <trkpt lat="44.92496" lon="4.58642">
        <ele>709</ele>
        <time>2021-03-27T09:46:30Z</time>
      </trkpt>
      <trkpt lat="44.925" lon="4.58625">
        <ele>708</ele>
        <time>2021-03-27T09:46:34Z</time>
      </trkpt>
      <trkpt lat="44.92499" lon="4.58597">
        <ele>708.4</ele>
        <time>2021-03-27T09:46:38Z</time>
      </trkpt>
      <trkpt lat="44.92493" lon="4.58572">
        <ele>706.6</ele>
        <time>2021-03-27T09:46:42Z</time>
      </trkpt>
      <trkpt lat="44.92485" lon="4.58542">
        <ele>706.4</ele>
        <time>2021-03-27T09:46:46Z</time>
      </trkpt>
      <trkpt lat="44.92476" lon="4.58509">
        <ele>705.4</ele>
        <time>2021-03-27T09:46:50Z</time>
      </trkpt>
      <trkpt lat="44.92478" lon="4.58478">
        <ele>704</ele>
        <time>2021-03-27T09:46:54Z</time>
      </trkpt>
      <trkpt lat="44.92487" lon="4.58457">
        <ele>703.2</ele>
        <time>2021-03-27T09:46:58Z</time>
      </trkpt>
      <trkpt lat="44.92501" lon="4.58434">
        <ele>702.2</ele>
        <time>2021-03-27T09:47:02Z</time>
      </trkpt>
      <trkpt lat="44.92514" lon="4.58415">
        <ele>702.4</ele>
        <time>2021-03-27T09:47:06Z</time>
      </trkpt>
      <trkpt lat="44.92533" lon="4.58389">
        <ele>701</ele>
        <time>2021-03-27T09:47:10Z</time>
      </trkpt>
      <trkpt lat="44.92534" lon="4.58362">
        <ele>700.8</ele>
        <time>2021-03-27T09:47:14Z</time>
      </trkpt>
      <trkpt lat="44.92534" lon="4.58336">
        <ele>700.6</ele>
        <time>2021-03-27T09:47:18Z</time>
      </trkpt>
      <trkpt lat="44.92535" lon="4.58308">
        <ele>701</ele>
        <time>2021-03-27T09:47:22Z</time>
      </trkpt>
      <trkpt lat="44.92533" lon="4.58277">
        <ele>699.8</ele>
        <time>2021-03-27T09:47:26Z</time>
      </trkpt>
      <trkpt lat="44.92538" lon="4.5825">
        <ele>700.6</ele>
        <time>2021-03-27T09:47:30Z</time>
      </trkpt>
      <trkpt lat="44.92538" lon="4.5822">
        <ele>699.4</ele>
        <time>2021-03-27T09:47:34Z</time>
      </trkpt>
      <trkpt lat="44.92542" lon="4.58184">
        <ele>697.2</ele>
        <time>2021-03-27T09:47:38Z</time>
      </trkpt>
      <trkpt lat="44.92551" lon="4.58154">
        <ele>696.6</ele>
        <time>2021-03-27T09:47:42Z</time>
      </trkpt>
      <trkpt lat="44.92566" lon="4.58135">
        <ele>696</ele>
        <time>2021-03-27T09:47:46Z</time>
      </trkpt>
      <trkpt lat="44.92585" lon="4.58127">
        <ele>695</ele>
        <time>2021-03-27T09:47:50Z</time>
      </trkpt>
      <trkpt lat="44.92602" lon="4.58126">
        <ele>695.6</ele>
        <time>2021-03-27T09:47:54Z</time>
      </trkpt>
      <trkpt lat="44.92612" lon="4.58107">
        <ele>695.2</ele>
        <time>2021-03-27T09:47:58Z</time>
      </trkpt>
      <trkpt lat="44.92617" lon="4.58076">
        <ele>694.8</ele>
        <time>2021-03-27T09:48:02Z</time>
      </trkpt>
      <trkpt lat="44.92631" lon="4.58052">
        <ele>693.8</ele>
        <time>2021-03-27T09:48:06Z</time>
      </trkpt>
      <trkpt lat="44.9265" lon="4.58042">
        <ele>693.2</ele>
        <time>2021-03-27T09:48:10Z</time>
      </trkpt>
      <trkpt lat="44.92672" lon="4.5803">
        <ele>692.4</ele>
        <time>2021-03-27T09:48:14Z</time>
      </trkpt>
      <trkpt lat="44.92692" lon="4.58014">
        <ele>691.6</ele>
        <time>2021-03-27T09:48:18Z</time>
      </trkpt>
      <trkpt lat="44.92703" lon="4.57986">
        <ele>690.6</ele>
        <time>2021-03-27T09:48:22Z</time>
      </trkpt>
      <trkpt lat="44.92688" lon="4.57961">
        <ele>690.2</ele>
        <time>2021-03-27T09:48:26Z</time>
      </trkpt>
      <trkpt lat="44.92668" lon="4.57939">
        <ele>689.8</ele>
        <time>2021-03-27T09:48:30Z</time>
      </trkpt>
      <trkpt lat="44.92651" lon="4.57924">
        <ele>690</ele>
        <time>2021-03-27T09:48:34Z</time>
      </trkpt>
      <trkpt lat="44.92632" lon="4.57913">
        <ele>688.6</ele>
        <time>2021-03-27T09:48:38Z</time>
      </trkpt>
      <trkpt lat="44.92615" lon="4.57897">
        <ele>687</ele>
        <time>2021-03-27T09:48:42Z</time>
      </trkpt>
      <trkpt lat="44.92608" lon="4.57873">
        <ele>686.2</ele>
        <time>2021-03-27T09:48:46Z</time>
      </trkpt>
      <trkpt lat="44.92605" lon="4.57848">
        <ele>686.6</ele>
        <time>2021-03-27T09:48:50Z</time>
      </trkpt>
      <trkpt lat="44.92608" lon="4.5782">
        <ele>685.6</ele>
        <time>2021-03-27T09:48:54Z</time>
      </trkpt>
      <trkpt lat="44.92621" lon="4.57794">
        <ele>684.2</ele>
        <time>2021-03-27T09:48:58Z</time>
      </trkpt>
      <trkpt lat="44.9264" lon="4.57772">
        <ele>683.8</ele>
        <time>2021-03-27T09:49:02Z</time>
      </trkpt>
      <trkpt lat="44.92661" lon="4.57746">
        <ele>681.2</ele>
        <time>2021-03-27T09:49:06Z</time>
      </trkpt>
      <trkpt lat="44.9268" lon="4.57729">
        <ele>678.8</ele>
        <time>2021-03-27T09:49:10Z</time>
      </trkpt>
      <trkpt lat="44.92691" lon="4.57701">
        <ele>677.6</ele>
        <time>2021-03-27T09:49:14Z</time>
      </trkpt>
      <trkpt lat="44.92693" lon="4.57664">
        <ele>675.4</ele>
        <time>2021-03-27T09:49:18Z</time>
      </trkpt>
      <trkpt lat="44.92693" lon="4.57618">
        <ele>672</ele>
        <time>2021-03-27T09:49:22Z</time>
      </trkpt>
      <trkpt lat="44.92682" lon="4.57568">
        <ele>669.6</ele>
        <time>2021-03-27T09:49:26Z</time>
      </trkpt>
      <trkpt lat="44.92666" lon="4.57519">
        <ele>667.6</ele>
        <time>2021-03-27T09:49:30Z</time>
      </trkpt>
      <trkpt lat="44.92664" lon="4.5747">
        <ele>667.2</ele>
        <time>2021-03-27T09:49:34Z</time>
      </trkpt>
      <trkpt lat="44.92688" lon="4.57433">
        <ele>665.2</ele>
        <time>2021-03-27T09:49:38Z</time>
      </trkpt>
      <trkpt lat="44.92701" lon="4.57399">
        <ele>663.4</ele>
        <time>2021-03-27T09:49:42Z</time>
      </trkpt>
      <trkpt lat="44.9271" lon="4.57376">
        <ele>664.4</ele>
        <time>2021-03-27T09:49:46Z</time>
      </trkpt>
      <trkpt lat="44.92702" lon="4.57367">
        <ele>664.2</ele>
        <time>2021-03-27T09:49:50Z</time>
      </trkpt>
      <trkpt lat="44.92693" lon="4.57384">
        <ele>662.4</ele>
        <time>2021-03-27T09:49:54Z</time>
      </trkpt>
      <trkpt lat="44.92678" lon="4.574">
        <ele>660.4</ele>
        <time>2021-03-27T09:49:58Z</time>
      </trkpt>
      <trkpt lat="44.92655" lon="4.57407">
        <ele>658.8</ele>
        <time>2021-03-27T09:50:02Z</time>
      </trkpt>
      <trkpt lat="44.9263" lon="4.57408">
        <ele>656.6</ele>
        <time>2021-03-27T09:50:06Z</time>
      </trkpt>
      <trkpt lat="44.92609" lon="4.57415">
        <ele>656.6</ele>
        <time>2021-03-27T09:50:10Z</time>
      </trkpt>
      <trkpt lat="44.92603" lon="4.57398">
        <ele>655.6</ele>
        <time>2021-03-27T09:50:14Z</time>
      </trkpt>
      <trkpt lat="44.92619" lon="4.57373">
        <ele>652</ele>
        <time>2021-03-27T09:50:18Z</time>
      </trkpt>
      <trkpt lat="44.92646" lon="4.57358">
        <ele>649.8</ele>
        <time>2021-03-27T09:50:22Z</time>
      </trkpt>
      <trkpt lat="44.92671" lon="4.57345">
        <ele>646.8</ele>
        <time>2021-03-27T09:50:26Z</time>
      </trkpt>
      <trkpt lat="44.92687" lon="4.57311">
        <ele>647.4</ele>
        <time>2021-03-27T09:50:30Z</time>
      </trkpt>
      <trkpt lat="44.92706" lon="4.57285">
        <ele>647</ele>
        <time>2021-03-27T09:50:34Z</time>
      </trkpt>
      <trkpt lat="44.92728" lon="4.57269">
        <ele>647</ele>
        <time>2021-03-27T09:50:38Z</time>
      </trkpt>
      <trkpt lat="44.92748" lon="4.57255">
        <ele>646.4</ele>
        <time>2021-03-27T09:50:42Z</time>
      </trkpt>
      <trkpt lat="44.92772" lon="4.57236">
        <ele>645</ele>
        <time>2021-03-27T09:50:46Z</time>
      </trkpt>
      <trkpt lat="44.92794" lon="4.57207">
        <ele>642.2</ele>
        <time>2021-03-27T09:50:50Z</time>
      </trkpt>
      <trkpt lat="44.92813" lon="4.57179">
        <ele>640.6</ele>
        <time>2021-03-27T09:50:54Z</time>
      </trkpt>
      <trkpt lat="44.92832" lon="4.57151">
        <ele>637.8</ele>
        <time>2021-03-27T09:50:58Z</time>
      </trkpt>
      <trkpt lat="44.92853" lon="4.57126">
        <ele>634</ele>
        <time>2021-03-27T09:51:02Z</time>
      </trkpt>
      <trkpt lat="44.92875" lon="4.57103">
        <ele>629.2</ele>
        <time>2021-03-27T09:51:06Z</time>
      </trkpt>
      <trkpt lat="44.9289" lon="4.57076">
        <ele>625</ele>
        <time>2021-03-27T09:51:10Z</time>
      </trkpt>
      <trkpt lat="44.92883" lon="4.57043">
        <ele>623</ele>
        <time>2021-03-27T09:51:14Z</time>
      </trkpt>
      <trkpt lat="44.92861" lon="4.57035">
        <ele>622.8</ele>
        <time>2021-03-27T09:51:18Z</time>
      </trkpt>
      <trkpt lat="44.92847" lon="4.57037">
        <ele>625</ele>
        <time>2021-03-27T09:51:22Z</time>
      </trkpt>
      <trkpt lat="44.92837" lon="4.57039">
        <ele>626.4</ele>
        <time>2021-03-27T09:51:26Z</time>
      </trkpt>
      <trkpt lat="44.92826" lon="4.57041">
        <ele>627.4</ele>
        <time>2021-03-27T09:51:30Z</time>
      </trkpt>
      <trkpt lat="44.92814" lon="4.57044">
        <ele>628.4</ele>
        <time>2021-03-27T09:51:34Z</time>
      </trkpt>
      <trkpt lat="44.92802" lon="4.57046">
        <ele>628.4</ele>
        <time>2021-03-27T09:51:38Z</time>
      </trkpt>
      <trkpt lat="44.92792" lon="4.57048">
        <ele>629</ele>
        <time>2021-03-27T09:51:42Z</time>
      </trkpt>
      <trkpt lat="44.92783" lon="4.57051">
        <ele>630</ele>
        <time>2021-03-27T09:51:46Z</time>
      </trkpt>
      <trkpt lat="44.92776" lon="4.57054">
        <ele>630.2</ele>
        <time>2021-03-27T09:51:50Z</time>
      </trkpt>
      <trkpt lat="44.92768" lon="4.57058">
        <ele>631.4</ele>
        <time>2021-03-27T09:51:54Z</time>
      </trkpt>
      <trkpt lat="44.92761" lon="4.57061">
        <ele>632</ele>
        <time>2021-03-27T09:51:58Z</time>
      </trkpt>
      <trkpt lat="44.92752" lon="4.57063">
        <ele>632.6</ele>
        <time>2021-03-27T09:52:02Z</time>
      </trkpt>
      <trkpt lat="44.92744" lon="4.57062">
        <ele>632.6</ele>
        <time>2021-03-27T09:52:06Z</time>
      </trkpt>
      <trkpt lat="44.92738" lon="4.57057">
        <ele>634</ele>
        <time>2021-03-27T09:52:10Z</time>
      </trkpt>
      <trkpt lat="44.92734" lon="4.57049">
        <ele>635</ele>
        <time>2021-03-27T09:52:14Z</time>
      </trkpt>
      <trkpt lat="44.92734" lon="4.5704">
        <ele>635.6</ele>
        <time>2021-03-27T09:52:18Z</time>
      </trkpt>
      <trkpt lat="44.92733" lon="4.57031">
        <ele>636.4</ele>
        <time>2021-03-27T09:52:22Z</time>
      </trkpt>
      <trkpt lat="44.92732" lon="4.5702">
        <ele>636.8</ele>
        <time>2021-03-27T09:52:26Z</time>
      </trkpt>
      <trkpt lat="44.9273" lon="4.57009">
        <ele>636.8</ele>
        <time>2021-03-27T09:52:30Z</time>
      </trkpt>
      <trkpt lat="44.92726" lon="4.56998">
        <ele>637.4</ele>
        <time>2021-03-27T09:52:34Z</time>
      </trkpt>
      <trkpt lat="44.92714" lon="4.5698">
        <ele>635</ele>
        <time>2021-03-27T09:52:38Z</time>
      </trkpt>
      <trkpt lat="44.92704" lon="4.56952">
        <ele>632.8</ele>
        <time>2021-03-27T09:52:42Z</time>
      </trkpt>
      <trkpt lat="44.9269" lon="4.56929">
        <ele>632.8</ele>
        <time>2021-03-27T09:52:46Z</time>
      </trkpt>
      <trkpt lat="44.92675" lon="4.56919">
        <ele>633.8</ele>
        <time>2021-03-27T09:52:50Z</time>
      </trkpt>
      <trkpt lat="44.92664" lon="4.56914">
        <ele>634.8</ele>
        <time>2021-03-27T09:52:54Z</time>
      </trkpt>
      <trkpt lat="44.92654" lon="4.5691">
        <ele>635</ele>
        <time>2021-03-27T09:52:58Z</time>
      </trkpt>
      <trkpt lat="44.92644" lon="4.56907">
        <ele>636</ele>
        <time>2021-03-27T09:53:02Z</time>
      </trkpt>
      <trkpt lat="44.92634" lon="4.56903">
        <ele>636.8</ele>
        <time>2021-03-27T09:53:06Z</time>
      </trkpt>
      <trkpt lat="44.92626" lon="4.56899">
        <ele>637.2</ele>
        <time>2021-03-27T09:53:10Z</time>
      </trkpt>
      <trkpt lat="44.92618" lon="4.56895">
        <ele>637.8</ele>
        <time>2021-03-27T09:53:14Z</time>
      </trkpt>
      <trkpt lat="44.9261" lon="4.56892">
        <ele>638.6</ele>
        <time>2021-03-27T09:53:18Z</time>
      </trkpt>
      <trkpt lat="44.92602" lon="4.56888">
        <ele>639.6</ele>
        <time>2021-03-27T09:53:22Z</time>
      </trkpt>
      <trkpt lat="44.92594" lon="4.56884">
        <ele>639.8</ele>
        <time>2021-03-27T09:53:26Z</time>
      </trkpt>
      <trkpt lat="44.92586" lon="4.5688">
        <ele>640.6</ele>
        <time>2021-03-27T09:53:30Z</time>
      </trkpt>
      <trkpt lat="44.92577" lon="4.56876">
        <ele>640.6</ele>
        <time>2021-03-27T09:53:34Z</time>
      </trkpt>
      <trkpt lat="44.92568" lon="4.56873">
        <ele>641.2</ele>
        <time>2021-03-27T09:53:38Z</time>
      </trkpt>
      <trkpt lat="44.92559" lon="4.56869">
        <ele>641</ele>
        <time>2021-03-27T09:53:42Z</time>
      </trkpt>
      <trkpt lat="44.92549" lon="4.56862">
        <ele>642</ele>
        <time>2021-03-27T09:53:46Z</time>
      </trkpt>
      <trkpt lat="44.92538" lon="4.5685">
        <ele>641.4</ele>
        <time>2021-03-27T09:53:50Z</time>
      </trkpt>
      <trkpt lat="44.9253" lon="4.56831">
        <ele>641</ele>
        <time>2021-03-27T09:53:54Z</time>
      </trkpt>
      <trkpt lat="44.92518" lon="4.56813">
        <ele>640.4</ele>
        <time>2021-03-27T09:53:58Z</time>
      </trkpt>
      <trkpt lat="44.92507" lon="4.56812">
        <ele>641.6</ele>
        <time>2021-03-27T09:54:02Z</time>
      </trkpt>
      <trkpt lat="44.92498" lon="4.56815">
        <ele>642.6</ele>
        <time>2021-03-27T09:54:06Z</time>
      </trkpt>
      <trkpt lat="44.92489" lon="4.56817">
        <ele>643.6</ele>
        <time>2021-03-27T09:54:10Z</time>
      </trkpt>
      <trkpt lat="44.92482" lon="4.56815">
        <ele>644</ele>
        <time>2021-03-27T09:54:14Z</time>
      </trkpt>
      <trkpt lat="44.92471" lon="4.56818">
        <ele>644.6</ele>
        <time>2021-03-27T09:54:18Z</time>
      </trkpt>
      <trkpt lat="44.92461" lon="4.56818">
        <ele>645.2</ele>
        <time>2021-03-27T09:54:22Z</time>
      </trkpt>
      <trkpt lat="44.92452" lon="4.56815">
        <ele>645.6</ele>
        <time>2021-03-27T09:54:26Z</time>
      </trkpt>
      <trkpt lat="44.92445" lon="4.56811">
        <ele>647</ele>
        <time>2021-03-27T09:54:30Z</time>
      </trkpt>
      <trkpt lat="44.92439" lon="4.56805">
        <ele>647.6</ele>
        <time>2021-03-27T09:54:34Z</time>
      </trkpt>
      <trkpt lat="44.92432" lon="4.56799">
        <ele>647.8</ele>
        <time>2021-03-27T09:54:38Z</time>
      </trkpt>
      <trkpt lat="44.92426" lon="4.56793">
        <ele>648.6</ele>
        <time>2021-03-27T09:54:42Z</time>
      </trkpt>
      <trkpt lat="44.92423" lon="4.56783">
        <ele>649.6</ele>
        <time>2021-03-27T09:54:46Z</time>
      </trkpt>
      <trkpt lat="44.9242" lon="4.56773">
        <ele>650.4</ele>
        <time>2021-03-27T09:54:50Z</time>
      </trkpt>
      <trkpt lat="44.92417" lon="4.56762">
        <ele>651</ele>
        <time>2021-03-27T09:54:54Z</time>
      </trkpt>
      <trkpt lat="44.92415" lon="4.56752">
        <ele>651.2</ele>
        <time>2021-03-27T09:54:58Z</time>
      </trkpt>
      <trkpt lat="44.92413" lon="4.56741">
        <ele>652.2</ele>
        <time>2021-03-27T09:55:02Z</time>
      </trkpt>
      <trkpt lat="44.92415" lon="4.56727">
        <ele>652.6</ele>
        <time>2021-03-27T09:55:06Z</time>
      </trkpt>
      <trkpt lat="44.92417" lon="4.56713">
        <ele>652</ele>
        <time>2021-03-27T09:55:10Z</time>
      </trkpt>
      <trkpt lat="44.9242" lon="4.56699">
        <ele>652.4</ele>
        <time>2021-03-27T09:55:14Z</time>
      </trkpt>
      <trkpt lat="44.92423" lon="4.56686">
        <ele>653</ele>
        <time>2021-03-27T09:55:18Z</time>
      </trkpt>
      <trkpt lat="44.92424" lon="4.56673">
        <ele>653.4</ele>
        <time>2021-03-27T09:55:22Z</time>
      </trkpt>
      <trkpt lat="44.92423" lon="4.5666">
        <ele>653.2</ele>
        <time>2021-03-27T09:55:26Z</time>
      </trkpt>
      <trkpt lat="44.92416" lon="4.5665">
        <ele>653.8</ele>
        <time>2021-03-27T09:55:30Z</time>
      </trkpt>
      <trkpt lat="44.92405" lon="4.56646">
        <ele>654</ele>
        <time>2021-03-27T09:55:34Z</time>
      </trkpt>
      <trkpt lat="44.92397" lon="4.56649">
        <ele>655.8</ele>
        <time>2021-03-27T09:55:38Z</time>
      </trkpt>
      <trkpt lat="44.92389" lon="4.56654">
        <ele>656.2</ele>
        <time>2021-03-27T09:55:42Z</time>
      </trkpt>
      <trkpt lat="44.92382" lon="4.5666">
        <ele>657</ele>
        <time>2021-03-27T09:55:46Z</time>
      </trkpt>
      <trkpt lat="44.92375" lon="4.56665">
        <ele>657.6</ele>
        <time>2021-03-27T09:55:50Z</time>
      </trkpt>
      <trkpt lat="44.92368" lon="4.5667">
        <ele>658.4</ele>
        <time>2021-03-27T09:55:54Z</time>
      </trkpt>
      <trkpt lat="44.92362" lon="4.56675">
        <ele>659.4</ele>
        <time>2021-03-27T09:55:58Z</time>
      </trkpt>
      <trkpt lat="44.92355" lon="4.5668">
        <ele>659.6</ele>
        <time>2021-03-27T09:56:02Z</time>
      </trkpt>
      <trkpt lat="44.92348" lon="4.56683">
        <ele>659.2</ele>
        <time>2021-03-27T09:56:06Z</time>
      </trkpt>
      <trkpt lat="44.9234" lon="4.56686">
        <ele>659.8</ele>
        <time>2021-03-27T09:56:10Z</time>
      </trkpt>
      <trkpt lat="44.92334" lon="4.56686">
        <ele>661.2</ele>
        <time>2021-03-27T09:56:14Z</time>
      </trkpt>
      <trkpt lat="44.92328" lon="4.56686">
        <ele>662.8</ele>
        <time>2021-03-27T09:56:18Z</time>
      </trkpt>
      <trkpt lat="44.92321" lon="4.56684">
        <ele>663.2</ele>
        <time>2021-03-27T09:56:22Z</time>
      </trkpt>
      <trkpt lat="44.92315" lon="4.5668">
        <ele>664.2</ele>
        <time>2021-03-27T09:56:26Z</time>
      </trkpt>
      <trkpt lat="44.92308" lon="4.56676">
        <ele>664.8</ele>
        <time>2021-03-27T09:56:30Z</time>
      </trkpt>
      <trkpt lat="44.92302" lon="4.56672">
        <ele>665.6</ele>
        <time>2021-03-27T09:56:34Z</time>
      </trkpt>
      <trkpt lat="44.92295" lon="4.56668">
        <ele>665.8</ele>
        <time>2021-03-27T09:56:38Z</time>
      </trkpt>
      <trkpt lat="44.92287" lon="4.56661">
        <ele>666.2</ele>
        <time>2021-03-27T09:56:42Z</time>
      </trkpt>
      <trkpt lat="44.9228" lon="4.56652">
        <ele>665.4</ele>
        <time>2021-03-27T09:56:46Z</time>
      </trkpt>
      <trkpt lat="44.92274" lon="4.56642">
        <ele>665.8</ele>
        <time>2021-03-27T09:56:50Z</time>
      </trkpt>
      <trkpt lat="44.9227" lon="4.56629">
        <ele>666.2</ele>
        <time>2021-03-27T09:56:54Z</time>
      </trkpt>
      <trkpt lat="44.92268" lon="4.56618">
        <ele>667.4</ele>
        <time>2021-03-27T09:56:58Z</time>
      </trkpt>
      <trkpt lat="44.92265" lon="4.56607">
        <ele>667.8</ele>
        <time>2021-03-27T09:57:02Z</time>
      </trkpt>
      <trkpt lat="44.92263" lon="4.56596">
        <ele>668.2</ele>
        <time>2021-03-27T09:57:06Z</time>
      </trkpt>
      <trkpt lat="44.92261" lon="4.56584">
        <ele>669.8</ele>
        <time>2021-03-27T09:57:10Z</time>
      </trkpt>
      <trkpt lat="44.92257" lon="4.56574">
        <ele>669.8</ele>
        <time>2021-03-27T09:57:14Z</time>
      </trkpt>
      <trkpt lat="44.92253" lon="4.56563">
        <ele>670.2</ele>
        <time>2021-03-27T09:57:18Z</time>
      </trkpt>
      <trkpt lat="44.92249" lon="4.56552">
        <ele>670.2</ele>
        <time>2021-03-27T09:57:22Z</time>
      </trkpt>
      <trkpt lat="44.92245" lon="4.56537">
        <ele>670.4</ele>
        <time>2021-03-27T09:57:26Z</time>
      </trkpt>
      <trkpt lat="44.92241" lon="4.56521">
        <ele>669.6</ele>
        <time>2021-03-27T09:57:30Z</time>
      </trkpt>
      <trkpt lat="44.92234" lon="4.56502">
        <ele>669</ele>
        <time>2021-03-27T09:57:34Z</time>
      </trkpt>
      <trkpt lat="44.92232" lon="4.5648">
        <ele>668.2</ele>
        <time>2021-03-27T09:57:38Z</time>
      </trkpt>
      <trkpt lat="44.9223" lon="4.56461">
        <ele>668</ele>
        <time>2021-03-27T09:57:42Z</time>
      </trkpt>
      <trkpt lat="44.9223" lon="4.56444">
        <ele>668.2</ele>
        <time>2021-03-27T09:57:46Z</time>
      </trkpt>
      <trkpt lat="44.92228" lon="4.56426">
        <ele>668</ele>
        <time>2021-03-27T09:57:50Z</time>
      </trkpt>
      <trkpt lat="44.9223" lon="4.56404">
        <ele>667.8</ele>
        <time>2021-03-27T09:57:54Z</time>
      </trkpt>
      <trkpt lat="44.92235" lon="4.56382">
        <ele>668.8</ele>
        <time>2021-03-27T09:57:58Z</time>
      </trkpt>
      <trkpt lat="44.92234" lon="4.56362">
        <ele>668.8</ele>
        <time>2021-03-27T09:58:02Z</time>
      </trkpt>
      <trkpt lat="44.9222" lon="4.56351">
        <ele>667.8</ele>
        <time>2021-03-27T09:58:06Z</time>
      </trkpt>
      <trkpt lat="44.92212" lon="4.56359">
        <ele>666.6</ele>
        <time>2021-03-27T09:58:10Z</time>
      </trkpt>
      <trkpt lat="44.92201" lon="4.56376">
        <ele>664.6</ele>
        <time>2021-03-27T09:58:14Z</time>
      </trkpt>
      <trkpt lat="44.92193" lon="4.56395">
        <ele>662</ele>
        <time>2021-03-27T09:58:18Z</time>
      </trkpt>
      <trkpt lat="44.92182" lon="4.56436">
        <ele>661.4</ele>
        <time>2021-03-27T09:58:22Z</time>
      </trkpt>
      <trkpt lat="44.92175" lon="4.56467">
        <ele>660.2</ele>
        <time>2021-03-27T09:58:26Z</time>
      </trkpt>
      <trkpt lat="44.92162" lon="4.56509">
        <ele>657.6</ele>
        <time>2021-03-27T09:58:30Z</time>
      </trkpt>
      <trkpt lat="44.9215" lon="4.56546">
        <ele>653.4</ele>
        <time>2021-03-27T09:58:34Z</time>
      </trkpt>
      <trkpt lat="44.92138" lon="4.56597">
        <ele>650.2</ele>
        <time>2021-03-27T09:58:38Z</time>
      </trkpt>
      <trkpt lat="44.92126" lon="4.56643">
        <ele>646</ele>
        <time>2021-03-27T09:58:42Z</time>
      </trkpt>
      <trkpt lat="44.92109" lon="4.56691">
        <ele>642.4</ele>
        <time>2021-03-27T09:58:46Z</time>
      </trkpt>
      <trkpt lat="44.92087" lon="4.56746">
        <ele>640.4</ele>
        <time>2021-03-27T09:58:50Z</time>
      </trkpt>
      <trkpt lat="44.92057" lon="4.56786">
        <ele>638</ele>
        <time>2021-03-27T09:58:54Z</time>
      </trkpt>
      <trkpt lat="44.92029" lon="4.56814">
        <ele>638.8</ele>
        <time>2021-03-27T09:58:58Z</time>
      </trkpt>
      <trkpt lat="44.92" lon="4.56834">
        <ele>639.8</ele>
        <time>2021-03-27T09:59:02Z</time>
      </trkpt>
      <trkpt lat="44.91976" lon="4.56852">
        <ele>640.2</ele>
        <time>2021-03-27T09:59:06Z</time>
      </trkpt>
      <trkpt lat="44.9196" lon="4.56872">
        <ele>641</ele>
        <time>2021-03-27T09:59:10Z</time>
      </trkpt>
      <trkpt lat="44.91949" lon="4.56897">
        <ele>637</ele>
        <time>2021-03-27T09:59:14Z</time>
      </trkpt>
      <trkpt lat="44.91957" lon="4.56934">
        <ele>630.2</ele>
        <time>2021-03-27T09:59:18Z</time>
      </trkpt>
      <trkpt lat="44.91948" lon="4.56963">
        <ele>629</ele>
        <time>2021-03-27T09:59:22Z</time>
      </trkpt>
      <trkpt lat="44.9192" lon="4.56977">
        <ele>626.2</ele>
        <time>2021-03-27T09:59:26Z</time>
      </trkpt>
      <trkpt lat="44.91889" lon="4.56977">
        <ele>624.2</ele>
        <time>2021-03-27T09:59:30Z</time>
      </trkpt>
      <trkpt lat="44.91865" lon="4.56959">
        <ele>623.4</ele>
        <time>2021-03-27T09:59:34Z</time>
      </trkpt>
      <trkpt lat="44.91845" lon="4.56968">
        <ele>622.4</ele>
        <time>2021-03-27T09:59:38Z</time>
      </trkpt>
      <trkpt lat="44.91832" lon="4.56991">
        <ele>621.6</ele>
        <time>2021-03-27T09:59:42Z</time>
      </trkpt>
      <trkpt lat="44.9183" lon="4.57017">
        <ele>621.4</ele>
        <time>2021-03-27T09:59:46Z</time>
      </trkpt>
      <trkpt lat="44.9183" lon="4.57041">
        <ele>621.4</ele>
        <time>2021-03-27T09:59:50Z</time>
      </trkpt>
      <trkpt lat="44.91833" lon="4.57063">
        <ele>622.2</ele>
        <time>2021-03-27T09:59:54Z</time>
      </trkpt>
      <trkpt lat="44.91837" lon="4.57086">
        <ele>621.8</ele>
        <time>2021-03-27T09:59:58Z</time>
      </trkpt>
      <trkpt lat="44.91839" lon="4.57112">
        <ele>620.6</ele>
        <time>2021-03-27T10:00:02Z</time>
      </trkpt>
      <trkpt lat="44.91847" lon="4.57139">
        <ele>619.8</ele>
        <time>2021-03-27T10:00:06Z</time>
      </trkpt>
      <trkpt lat="44.91862" lon="4.57154">
        <ele>621.8</ele>
        <time>2021-03-27T10:00:10Z</time>
      </trkpt>
      <trkpt lat="44.91877" lon="4.57166">
        <ele>622</ele>
        <time>2021-03-27T10:00:14Z</time>
      </trkpt>
      <trkpt lat="44.91891" lon="4.57178">
        <ele>622</ele>
        <time>2021-03-27T10:00:18Z</time>
      </trkpt>
      <trkpt lat="44.91902" lon="4.57194">
        <ele>622.8</ele>
        <time>2021-03-27T10:00:22Z</time>
      </trkpt>
      <trkpt lat="44.91906" lon="4.57213">
        <ele>622.6</ele>
        <time>2021-03-27T10:00:26Z</time>
      </trkpt>
      <trkpt lat="44.91903" lon="4.57232">
        <ele>623.2</ele>
        <time>2021-03-27T10:00:30Z</time>
      </trkpt>
      <trkpt lat="44.91898" lon="4.57249">
        <ele>623.4</ele>
        <time>2021-03-27T10:00:34Z</time>
      </trkpt>
      <trkpt lat="44.91891" lon="4.57264">
        <ele>624.4</ele>
        <time>2021-03-27T10:00:38Z</time>
      </trkpt>
      <trkpt lat="44.91885" lon="4.57283">
        <ele>624.2</ele>
        <time>2021-03-27T10:00:42Z</time>
      </trkpt>
      <trkpt lat="44.91881" lon="4.57302">
        <ele>624.2</ele>
        <time>2021-03-27T10:00:46Z</time>
      </trkpt>
      <trkpt lat="44.91877" lon="4.57323">
        <ele>623.8</ele>
        <time>2021-03-27T10:00:50Z</time>
      </trkpt>
      <trkpt lat="44.91873" lon="4.57344">
        <ele>623.6</ele>
        <time>2021-03-27T10:00:54Z</time>
      </trkpt>
      <trkpt lat="44.91867" lon="4.57366">
        <ele>623.2</ele>
        <time>2021-03-27T10:00:58Z</time>
      </trkpt>
      <trkpt lat="44.91858" lon="4.57388">
        <ele>622.4</ele>
        <time>2021-03-27T10:01:02Z</time>
      </trkpt>
      <trkpt lat="44.91846" lon="4.5741">
        <ele>621.6</ele>
        <time>2021-03-27T10:01:06Z</time>
      </trkpt>
      <trkpt lat="44.91826" lon="4.57432">
        <ele>619.4</ele>
        <time>2021-03-27T10:01:10Z</time>
      </trkpt>
      <trkpt lat="44.91806" lon="4.57456">
        <ele>617.4</ele>
        <time>2021-03-27T10:01:14Z</time>
      </trkpt>
      <trkpt lat="44.91792" lon="4.57479">
        <ele>618</ele>
        <time>2021-03-27T10:01:18Z</time>
      </trkpt>
      <trkpt lat="44.9178" lon="4.57498">
        <ele>619</ele>
        <time>2021-03-27T10:01:22Z</time>
      </trkpt>
      <trkpt lat="44.9177" lon="4.57518">
        <ele>620</ele>
        <time>2021-03-27T10:01:26Z</time>
      </trkpt>
      <trkpt lat="44.91766" lon="4.57535">
        <ele>620.4</ele>
        <time>2021-03-27T10:01:30Z</time>
      </trkpt>
      <trkpt lat="44.91763" lon="4.57555">
        <ele>620.8</ele>
        <time>2021-03-27T10:01:34Z</time>
      </trkpt>
      <trkpt lat="44.91759" lon="4.57578">
        <ele>621.2</ele>
        <time>2021-03-27T10:01:38Z</time>
      </trkpt>
      <trkpt lat="44.91755" lon="4.57601">
        <ele>620.8</ele>
        <time>2021-03-27T10:01:42Z</time>
      </trkpt>
      <trkpt lat="44.91748" lon="4.57617">
        <ele>620.8</ele>
        <time>2021-03-27T10:01:46Z</time>
      </trkpt>
      <trkpt lat="44.91735" lon="4.57632">
        <ele>620.4</ele>
        <time>2021-03-27T10:01:50Z</time>
      </trkpt>
      <trkpt lat="44.91718" lon="4.57639">
        <ele>619.6</ele>
        <time>2021-03-27T10:01:54Z</time>
      </trkpt>
      <trkpt lat="44.91703" lon="4.57644">
        <ele>620</ele>
        <time>2021-03-27T10:01:58Z</time>
      </trkpt>
      <trkpt lat="44.91686" lon="4.57643">
        <ele>619.4</ele>
        <time>2021-03-27T10:02:02Z</time>
      </trkpt>
      <trkpt lat="44.91671" lon="4.57641">
        <ele>618.8</ele>
        <time>2021-03-27T10:02:06Z</time>
      </trkpt>
      <trkpt lat="44.91653" lon="4.57636">
        <ele>619.4</ele>
        <time>2021-03-27T10:02:10Z</time>
      </trkpt>
      <trkpt lat="44.91642" lon="4.57623">
        <ele>619.6</ele>
        <time>2021-03-27T10:02:14Z</time>
      </trkpt>
      <trkpt lat="44.91627" lon="4.57615">
        <ele>619.6</ele>
        <time>2021-03-27T10:02:18Z</time>
      </trkpt>
      <trkpt lat="44.91615" lon="4.57634">
        <ele>618.8</ele>
        <time>2021-03-27T10:02:22Z</time>
      </trkpt>
      <trkpt lat="44.91613" lon="4.57659">
        <ele>618</ele>
        <time>2021-03-27T10:02:26Z</time>
      </trkpt>
      <trkpt lat="44.91614" lon="4.57681">
        <ele>618.2</ele>
        <time>2021-03-27T10:02:30Z</time>
      </trkpt>
      <trkpt lat="44.91618" lon="4.57703">
        <ele>618.2</ele>
        <time>2021-03-27T10:02:34Z</time>
      </trkpt>
      <trkpt lat="44.91621" lon="4.57727">
        <ele>618</ele>
        <time>2021-03-27T10:02:38Z</time>
      </trkpt>
      <trkpt lat="44.91622" lon="4.57749">
        <ele>618</ele>
        <time>2021-03-27T10:02:42Z</time>
      </trkpt>
      <trkpt lat="44.91624" lon="4.57773">
        <ele>618</ele>
        <time>2021-03-27T10:02:46Z</time>
      </trkpt>
      <trkpt lat="44.91634" lon="4.57793">
        <ele>617.8</ele>
        <time>2021-03-27T10:02:50Z</time>
      </trkpt>
      <trkpt lat="44.91644" lon="4.57813">
        <ele>619.2</ele>
        <time>2021-03-27T10:02:54Z</time>
      </trkpt>
      <trkpt lat="44.91648" lon="4.57837">
        <ele>617.8</ele>
        <time>2021-03-27T10:02:58Z</time>
      </trkpt>
      <trkpt lat="44.91648" lon="4.57866">
        <ele>616.4</ele>
        <time>2021-03-27T10:03:02Z</time>
      </trkpt>
      <trkpt lat="44.91662" lon="4.57885">
        <ele>614.8</ele>
        <time>2021-03-27T10:03:06Z</time>
      </trkpt>
      <trkpt lat="44.9168" lon="4.57883">
        <ele>613.6</ele>
        <time>2021-03-27T10:03:10Z</time>
      </trkpt>
      <trkpt lat="44.91698" lon="4.5788">
        <ele>612</ele>
        <time>2021-03-27T10:03:14Z</time>
      </trkpt>
      <trkpt lat="44.91715" lon="4.57886">
        <ele>611.8</ele>
        <time>2021-03-27T10:03:18Z</time>
      </trkpt>
      <trkpt lat="44.91734" lon="4.57908">
        <ele>609</ele>
        <time>2021-03-27T10:03:22Z</time>
      </trkpt>
      <trkpt lat="44.91734" lon="4.57941">
        <ele>609.8</ele>
        <time>2021-03-27T10:03:26Z</time>
      </trkpt>
      <trkpt lat="44.91732" lon="4.57976">
        <ele>606.4</ele>
        <time>2021-03-27T10:03:30Z</time>
      </trkpt>
      <trkpt lat="44.91726" lon="4.58006">
        <ele>606.2</ele>
        <time>2021-03-27T10:03:34Z</time>
      </trkpt>
      <trkpt lat="44.91713" lon="4.58038">
        <ele>606</ele>
        <time>2021-03-27T10:03:38Z</time>
      </trkpt>
      <trkpt lat="44.91701" lon="4.58064">
        <ele>603.8</ele>
        <time>2021-03-27T10:03:42Z</time>
      </trkpt>
      <trkpt lat="44.91679" lon="4.58095">
        <ele>602.8</ele>
        <time>2021-03-27T10:03:46Z</time>
      </trkpt>
      <trkpt lat="44.91651" lon="4.58113">
        <ele>601.4</ele>
        <time>2021-03-27T10:03:50Z</time>
      </trkpt>
      <trkpt lat="44.91626" lon="4.58103">
        <ele>601.2</ele>
        <time>2021-03-27T10:03:54Z</time>
      </trkpt>
      <trkpt lat="44.91608" lon="4.58122">
        <ele>598</ele>
        <time>2021-03-27T10:03:58Z</time>
      </trkpt>
      <trkpt lat="44.9159" lon="4.58145">
        <ele>598.2</ele>
        <time>2021-03-27T10:04:02Z</time>
      </trkpt>
      <trkpt lat="44.91588" lon="4.58173">
        <ele>597.4</ele>
        <time>2021-03-27T10:04:06Z</time>
      </trkpt>
      <trkpt lat="44.91588" lon="4.58218">
        <ele>594.6</ele>
        <time>2021-03-27T10:04:10Z</time>
      </trkpt>
      <trkpt lat="44.91583" lon="4.58257">
        <ele>593</ele>
        <time>2021-03-27T10:04:14Z</time>
      </trkpt>
      <trkpt lat="44.91578" lon="4.58295">
        <ele>591.2</ele>
        <time>2021-03-27T10:04:18Z</time>
      </trkpt>
      <trkpt lat="44.91573" lon="4.58323">
        <ele>590.8</ele>
        <time>2021-03-27T10:04:22Z</time>
      </trkpt>
      <trkpt lat="44.91577" lon="4.58375">
        <ele>589.2</ele>
        <time>2021-03-27T10:04:26Z</time>
      </trkpt>
      <trkpt lat="44.91583" lon="4.58427">
        <ele>586.4</ele>
        <time>2021-03-27T10:04:30Z</time>
      </trkpt>
      <trkpt lat="44.91579" lon="4.5847">
        <ele>585.8</ele>
        <time>2021-03-27T10:04:34Z</time>
      </trkpt>
      <trkpt lat="44.91575" lon="4.58514">
        <ele>584</ele>
        <time>2021-03-27T10:04:38Z</time>
      </trkpt>
      <trkpt lat="44.91582" lon="4.5856">
        <ele>585.4</ele>
        <time>2021-03-27T10:04:42Z</time>
      </trkpt>
      <trkpt lat="44.91571" lon="4.58592">
        <ele>584</ele>
        <time>2021-03-27T10:04:46Z</time>
      </trkpt>
      <trkpt lat="44.91547" lon="4.58616">
        <ele>580.4</ele>
        <time>2021-03-27T10:04:50Z</time>
      </trkpt>
      <trkpt lat="44.91522" lon="4.58648">
        <ele>575.4</ele>
        <time>2021-03-27T10:04:54Z</time>
      </trkpt>
      <trkpt lat="44.91506" lon="4.58683">
        <ele>575.6</ele>
        <time>2021-03-27T10:04:58Z</time>
      </trkpt>
      <trkpt lat="44.91494" lon="4.58711">
        <ele>578</ele>
        <time>2021-03-27T10:05:02Z</time>
      </trkpt>
      <trkpt lat="44.91478" lon="4.58735">
        <ele>578.2</ele>
        <time>2021-03-27T10:05:06Z</time>
      </trkpt>
      <trkpt lat="44.91467" lon="4.58761">
        <ele>577.4</ele>
        <time>2021-03-27T10:05:10Z</time>
      </trkpt>
      <trkpt lat="44.91461" lon="4.5879">
        <ele>576.4</ele>
        <time>2021-03-27T10:05:14Z</time>
      </trkpt>
      <trkpt lat="44.91456" lon="4.58823">
        <ele>575.8</ele>
        <time>2021-03-27T10:05:18Z</time>
      </trkpt>
      <trkpt lat="44.91448" lon="4.58857">
        <ele>576.2</ele>
        <time>2021-03-27T10:05:22Z</time>
      </trkpt>
      <trkpt lat="44.91437" lon="4.58886">
        <ele>574.2</ele>
        <time>2021-03-27T10:05:26Z</time>
      </trkpt>
      <trkpt lat="44.91422" lon="4.58915">
        <ele>571.8</ele>
        <time>2021-03-27T10:05:30Z</time>
      </trkpt>
      <trkpt lat="44.9141" lon="4.58942">
        <ele>570.4</ele>
        <time>2021-03-27T10:05:34Z</time>
      </trkpt>
      <trkpt lat="44.91404" lon="4.58971">
        <ele>571</ele>
        <time>2021-03-27T10:05:38Z</time>
      </trkpt>
      <trkpt lat="44.91397" lon="4.58998">
        <ele>571.4</ele>
        <time>2021-03-27T10:05:42Z</time>
      </trkpt>
      <trkpt lat="44.91382" lon="4.59032">
        <ele>568.6</ele>
        <time>2021-03-27T10:05:46Z</time>
      </trkpt>
      <trkpt lat="44.91367" lon="4.59059">
        <ele>571</ele>
        <time>2021-03-27T10:05:50Z</time>
      </trkpt>
      <trkpt lat="44.91355" lon="4.59087">
        <ele>571.4</ele>
        <time>2021-03-27T10:05:54Z</time>
      </trkpt>
      <trkpt lat="44.91347" lon="4.59106">
        <ele>573</ele>
        <time>2021-03-27T10:05:58Z</time>
      </trkpt>
      <trkpt lat="44.91343" lon="4.59119">
        <ele>573.2</ele>
        <time>2021-03-27T10:06:02Z</time>
      </trkpt>
      <trkpt lat="44.91337" lon="4.5913">
        <ele>574.2</ele>
        <time>2021-03-27T10:06:06Z</time>
      </trkpt>
      <trkpt lat="44.9133" lon="4.5914">
        <ele>575.2</ele>
        <time>2021-03-27T10:06:10Z</time>
      </trkpt>
      <trkpt lat="44.91322" lon="4.59151">
        <ele>575.6</ele>
        <time>2021-03-27T10:06:14Z</time>
      </trkpt>
      <trkpt lat="44.91316" lon="4.59158">
        <ele>576.4</ele>
        <time>2021-03-27T10:06:18Z</time>
      </trkpt>
      <trkpt lat="44.91303" lon="4.59165">
        <ele>576.8</ele>
        <time>2021-03-27T10:06:22Z</time>
      </trkpt>
      <trkpt lat="44.9129" lon="4.59175">
        <ele>577.2</ele>
        <time>2021-03-27T10:06:26Z</time>
      </trkpt>
      <trkpt lat="44.91278" lon="4.59185">
        <ele>578</ele>
        <time>2021-03-27T10:06:30Z</time>
      </trkpt>
      <trkpt lat="44.91266" lon="4.5919">
        <ele>578.8</ele>
        <time>2021-03-27T10:06:34Z</time>
      </trkpt>
      <trkpt lat="44.91255" lon="4.59192">
        <ele>578.8</ele>
        <time>2021-03-27T10:06:38Z</time>
      </trkpt>
      <trkpt lat="44.91245" lon="4.5919">
        <ele>579</ele>
        <time>2021-03-27T10:06:42Z</time>
      </trkpt>
      <trkpt lat="44.91236" lon="4.59181">
        <ele>579.6</ele>
        <time>2021-03-27T10:06:46Z</time>
      </trkpt>
      <trkpt lat="44.91231" lon="4.59169">
        <ele>580.8</ele>
        <time>2021-03-27T10:06:50Z</time>
      </trkpt>
      <trkpt lat="44.9123" lon="4.59155">
        <ele>582</ele>
        <time>2021-03-27T10:06:54Z</time>
      </trkpt>
      <trkpt lat="44.91231" lon="4.5914">
        <ele>581.4</ele>
        <time>2021-03-27T10:06:58Z</time>
      </trkpt>
      <trkpt lat="44.91231" lon="4.59125">
        <ele>581.8</ele>
        <time>2021-03-27T10:07:02Z</time>
      </trkpt>
      <trkpt lat="44.91228" lon="4.59111">
        <ele>582.6</ele>
        <time>2021-03-27T10:07:06Z</time>
      </trkpt>
      <trkpt lat="44.9122" lon="4.59099">
        <ele>583.6</ele>
        <time>2021-03-27T10:07:10Z</time>
      </trkpt>
      <trkpt lat="44.91209" lon="4.59097">
        <ele>584</ele>
        <time>2021-03-27T10:07:14Z</time>
      </trkpt>
      <trkpt lat="44.91199" lon="4.591">
        <ele>584.4</ele>
        <time>2021-03-27T10:07:18Z</time>
      </trkpt>
      <trkpt lat="44.91189" lon="4.59104">
        <ele>585</ele>
        <time>2021-03-27T10:07:22Z</time>
      </trkpt>
      <trkpt lat="44.9118" lon="4.59107">
        <ele>585.2</ele>
        <time>2021-03-27T10:07:26Z</time>
      </trkpt>
      <trkpt lat="44.9117" lon="4.59111">
        <ele>586</ele>
        <time>2021-03-27T10:07:30Z</time>
      </trkpt>
      <trkpt lat="44.91161" lon="4.59113">
        <ele>586.8</ele>
        <time>2021-03-27T10:07:34Z</time>
      </trkpt>
      <trkpt lat="44.91151" lon="4.59118">
        <ele>586.4</ele>
        <time>2021-03-27T10:07:38Z</time>
      </trkpt>
      <trkpt lat="44.91143" lon="4.59126">
        <ele>587</ele>
        <time>2021-03-27T10:07:42Z</time>
      </trkpt>
      <trkpt lat="44.91136" lon="4.59136">
        <ele>587.6</ele>
        <time>2021-03-27T10:07:46Z</time>
      </trkpt>
      <trkpt lat="44.91129" lon="4.59146">
        <ele>588.4</ele>
        <time>2021-03-27T10:07:50Z</time>
      </trkpt>
      <trkpt lat="44.91123" lon="4.59157">
        <ele>589.2</ele>
        <time>2021-03-27T10:07:54Z</time>
      </trkpt>
      <trkpt lat="44.91119" lon="4.59169">
        <ele>589.4</ele>
        <time>2021-03-27T10:07:58Z</time>
      </trkpt>
      <trkpt lat="44.91115" lon="4.5918">
        <ele>589.8</ele>
        <time>2021-03-27T10:08:02Z</time>
      </trkpt>
      <trkpt lat="44.91111" lon="4.59192">
        <ele>590.8</ele>
        <time>2021-03-27T10:08:06Z</time>
      </trkpt>
      <trkpt lat="44.91105" lon="4.59203">
        <ele>590.8</ele>
        <time>2021-03-27T10:08:10Z</time>
      </trkpt>
      <trkpt lat="44.91099" lon="4.59213">
        <ele>592</ele>
        <time>2021-03-27T10:08:14Z</time>
      </trkpt>
      <trkpt lat="44.91093" lon="4.59218">
        <ele>592</ele>
        <time>2021-03-27T10:08:18Z</time>
      </trkpt>
      <trkpt lat="44.91083" lon="4.59223">
        <ele>593</ele>
        <time>2021-03-27T10:08:22Z</time>
      </trkpt>
      <trkpt lat="44.91074" lon="4.59227">
        <ele>593.6</ele>
        <time>2021-03-27T10:08:26Z</time>
      </trkpt>
      <trkpt lat="44.91066" lon="4.59232">
        <ele>593.6</ele>
        <time>2021-03-27T10:08:30Z</time>
      </trkpt>
      <trkpt lat="44.91057" lon="4.59234">
        <ele>595.4</ele>
        <time>2021-03-27T10:08:34Z</time>
      </trkpt>
      <trkpt lat="44.91045" lon="4.59236">
        <ele>595.4</ele>
        <time>2021-03-27T10:08:38Z</time>
      </trkpt>
      <trkpt lat="44.91034" lon="4.59239">
        <ele>595.8</ele>
        <time>2021-03-27T10:08:42Z</time>
      </trkpt>
      <trkpt lat="44.91023" lon="4.5924">
        <ele>596.8</ele>
        <time>2021-03-27T10:08:46Z</time>
      </trkpt>
      <trkpt lat="44.91012" lon="4.59239">
        <ele>597</ele>
        <time>2021-03-27T10:08:50Z</time>
      </trkpt>
      <trkpt lat="44.91003" lon="4.59238">
        <ele>597.8</ele>
        <time>2021-03-27T10:08:54Z</time>
      </trkpt>
      <trkpt lat="44.90995" lon="4.59239">
        <ele>598.4</ele>
        <time>2021-03-27T10:08:58Z</time>
      </trkpt>
      <trkpt lat="44.90984" lon="4.59236">
        <ele>599.6</ele>
        <time>2021-03-27T10:09:02Z</time>
      </trkpt>
      <trkpt lat="44.90973" lon="4.59236">
        <ele>600.2</ele>
        <time>2021-03-27T10:09:06Z</time>
      </trkpt>
      <trkpt lat="44.90964" lon="4.59241">
        <ele>600.8</ele>
        <time>2021-03-27T10:09:10Z</time>
      </trkpt>
      <trkpt lat="44.90953" lon="4.59246">
        <ele>601.2</ele>
        <time>2021-03-27T10:09:14Z</time>
      </trkpt>
      <trkpt lat="44.90944" lon="4.5925">
        <ele>602.4</ele>
        <time>2021-03-27T10:09:18Z</time>
      </trkpt>
      <trkpt lat="44.90937" lon="4.59254">
        <ele>602.8</ele>
        <time>2021-03-27T10:09:22Z</time>
      </trkpt>
      <trkpt lat="44.90931" lon="4.5926">
        <ele>603.8</ele>
        <time>2021-03-27T10:09:26Z</time>
      </trkpt>
      <trkpt lat="44.90925" lon="4.59262">
        <ele>604</ele>
        <time>2021-03-27T10:09:30Z</time>
      </trkpt>
      <trkpt lat="44.90916" lon="4.59266">
        <ele>604.8</ele>
        <time>2021-03-27T10:09:34Z</time>
      </trkpt>
      <trkpt lat="44.90909" lon="4.59266">
        <ele>604.8</ele>
        <time>2021-03-27T10:09:38Z</time>
      </trkpt>
      <trkpt lat="44.90898" lon="4.59269">
        <ele>606</ele>
        <time>2021-03-27T10:09:42Z</time>
      </trkpt>
      <trkpt lat="44.90889" lon="4.59271">
        <ele>606.4</ele>
        <time>2021-03-27T10:09:46Z</time>
      </trkpt>
      <trkpt lat="44.90878" lon="4.59272">
        <ele>606.8</ele>
        <time>2021-03-27T10:09:50Z</time>
      </trkpt>
      <trkpt lat="44.90867" lon="4.5927">
        <ele>607.8</ele>
        <time>2021-03-27T10:09:54Z</time>
      </trkpt>
      <trkpt lat="44.90859" lon="4.59268">
        <ele>608.8</ele>
        <time>2021-03-27T10:09:58Z</time>
      </trkpt>
      <trkpt lat="44.90851" lon="4.59266">
        <ele>609.6</ele>
        <time>2021-03-27T10:10:02Z</time>
      </trkpt>
      <trkpt lat="44.90842" lon="4.59262">
        <ele>609.8</ele>
        <time>2021-03-27T10:10:06Z</time>
      </trkpt>
      <trkpt lat="44.90836" lon="4.5926">
        <ele>610.8</ele>
        <time>2021-03-27T10:10:10Z</time>
      </trkpt>
      <trkpt lat="44.90829" lon="4.59257">
        <ele>611.6</ele>
        <time>2021-03-27T10:10:14Z</time>
      </trkpt>
      <trkpt lat="44.90817" lon="4.59254">
        <ele>612.8</ele>
        <time>2021-03-27T10:10:18Z</time>
      </trkpt>
      <trkpt lat="44.90809" lon="4.59252">
        <ele>613.8</ele>
        <time>2021-03-27T10:10:22Z</time>
      </trkpt>
      <trkpt lat="44.90799" lon="4.59248">
        <ele>613.8</ele>
        <time>2021-03-27T10:10:26Z</time>
      </trkpt>
      <trkpt lat="44.90792" lon="4.5924">
        <ele>614.8</ele>
        <time>2021-03-27T10:10:30Z</time>
      </trkpt>
      <trkpt lat="44.9079" lon="4.59227">
        <ele>615.4</ele>
        <time>2021-03-27T10:10:34Z</time>
      </trkpt>
      <trkpt lat="44.90785" lon="4.59215">
        <ele>615.6</ele>
        <time>2021-03-27T10:10:38Z</time>
      </trkpt>
      <trkpt lat="44.90781" lon="4.592">
        <ele>616</ele>
        <time>2021-03-27T10:10:42Z</time>
      </trkpt>
      <trkpt lat="44.90776" lon="4.59187">
        <ele>616</ele>
        <time>2021-03-27T10:10:46Z</time>
      </trkpt>
      <trkpt lat="44.90771" lon="4.59172">
        <ele>616.4</ele>
        <time>2021-03-27T10:10:50Z</time>
      </trkpt>
      <trkpt lat="44.90764" lon="4.5916">
        <ele>616.2</ele>
        <time>2021-03-27T10:10:54Z</time>
      </trkpt>
      <trkpt lat="44.90759" lon="4.59146">
        <ele>616.6</ele>
        <time>2021-03-27T10:10:58Z</time>
      </trkpt>
      <trkpt lat="44.90756" lon="4.59132">
        <ele>617.6</ele>
        <time>2021-03-27T10:11:02Z</time>
      </trkpt>
      <trkpt lat="44.90752" lon="4.59117">
        <ele>618.4</ele>
        <time>2021-03-27T10:11:06Z</time>
      </trkpt>
      <trkpt lat="44.9075" lon="4.59101">
        <ele>618</ele>
        <time>2021-03-27T10:11:10Z</time>
      </trkpt>
      <trkpt lat="44.90747" lon="4.59085">
        <ele>618.2</ele>
        <time>2021-03-27T10:11:14Z</time>
      </trkpt>
      <trkpt lat="44.90746" lon="4.59068">
        <ele>617.8</ele>
        <time>2021-03-27T10:11:18Z</time>
      </trkpt>
      <trkpt lat="44.90745" lon="4.59051">
        <ele>618.6</ele>
        <time>2021-03-27T10:11:22Z</time>
      </trkpt>
      <trkpt lat="44.90745" lon="4.59035">
        <ele>618.2</ele>
        <time>2021-03-27T10:11:26Z</time>
      </trkpt>
      <trkpt lat="44.90745" lon="4.59018">
        <ele>619.2</ele>
        <time>2021-03-27T10:11:30Z</time>
      </trkpt>
      <trkpt lat="44.90747" lon="4.59003">
        <ele>619.6</ele>
        <time>2021-03-27T10:11:34Z</time>
      </trkpt>
      <trkpt lat="44.90748" lon="4.58988">
        <ele>620.2</ele>
        <time>2021-03-27T10:11:38Z</time>
      </trkpt>
      <trkpt lat="44.9075" lon="4.58974">
        <ele>620.6</ele>
        <time>2021-03-27T10:11:42Z</time>
      </trkpt>
      <trkpt lat="44.90754" lon="4.58959">
        <ele>620.8</ele>
        <time>2021-03-27T10:11:46Z</time>
      </trkpt>
      <trkpt lat="44.90757" lon="4.58944">
        <ele>620.8</ele>
        <time>2021-03-27T10:11:50Z</time>
      </trkpt>
      <trkpt lat="44.90759" lon="4.5893">
        <ele>621</ele>
        <time>2021-03-27T10:11:54Z</time>
      </trkpt>
      <trkpt lat="44.90761" lon="4.58915">
        <ele>621.4</ele>
        <time>2021-03-27T10:11:58Z</time>
      </trkpt>
      <trkpt lat="44.90765" lon="4.589">
        <ele>621.4</ele>
        <time>2021-03-27T10:12:02Z</time>
      </trkpt>
      <trkpt lat="44.90771" lon="4.58884">
        <ele>622</ele>
        <time>2021-03-27T10:12:06Z</time>
      </trkpt>
      <trkpt lat="44.90776" lon="4.58869">
        <ele>621.6</ele>
        <time>2021-03-27T10:12:10Z</time>
      </trkpt>
      <trkpt lat="44.90782" lon="4.58852">
        <ele>622.8</ele>
        <time>2021-03-27T10:12:14Z</time>
      </trkpt>
      <trkpt lat="44.90789" lon="4.58836">
        <ele>623.2</ele>
        <time>2021-03-27T10:12:18Z</time>
      </trkpt>
      <trkpt lat="44.90794" lon="4.58818">
        <ele>624.2</ele>
        <time>2021-03-27T10:12:22Z</time>
      </trkpt>
      <trkpt lat="44.908" lon="4.58802">
        <ele>624.4</ele>
        <time>2021-03-27T10:12:26Z</time>
      </trkpt>
      <trkpt lat="44.90806" lon="4.58786">
        <ele>624.4</ele>
        <time>2021-03-27T10:12:30Z</time>
      </trkpt>
      <trkpt lat="44.90811" lon="4.5877">
        <ele>624.4</ele>
        <time>2021-03-27T10:12:34Z</time>
      </trkpt>
      <trkpt lat="44.90814" lon="4.58755">
        <ele>624.8</ele>
        <time>2021-03-27T10:12:38Z</time>
      </trkpt>
      <trkpt lat="44.90815" lon="4.58738">
        <ele>625.4</ele>
        <time>2021-03-27T10:12:42Z</time>
      </trkpt>
      <trkpt lat="44.90814" lon="4.58723">
        <ele>625.4</ele>
        <time>2021-03-27T10:12:46Z</time>
      </trkpt>
      <trkpt lat="44.90811" lon="4.58707">
        <ele>626</ele>
        <time>2021-03-27T10:12:50Z</time>
      </trkpt>
      <trkpt lat="44.90805" lon="4.58692">
        <ele>626.8</ele>
        <time>2021-03-27T10:12:54Z</time>
      </trkpt>
      <trkpt lat="44.90798" lon="4.58676">
        <ele>626.4</ele>
        <time>2021-03-27T10:12:58Z</time>
      </trkpt>
      <trkpt lat="44.90791" lon="4.58659">
        <ele>626.4</ele>
        <time>2021-03-27T10:13:02Z</time>
      </trkpt>
      <trkpt lat="44.90783" lon="4.58643">
        <ele>626.8</ele>
        <time>2021-03-27T10:13:06Z</time>
      </trkpt>
      <trkpt lat="44.90773" lon="4.58627">
        <ele>626.6</ele>
        <time>2021-03-27T10:13:10Z</time>
      </trkpt>
      <trkpt lat="44.90764" lon="4.5861">
        <ele>627</ele>
        <time>2021-03-27T10:13:14Z</time>
      </trkpt>
      <trkpt lat="44.90758" lon="4.5859">
        <ele>626.4</ele>
        <time>2021-03-27T10:13:18Z</time>
      </trkpt>
      <trkpt lat="44.90758" lon="4.58569">
        <ele>626.2</ele>
        <time>2021-03-27T10:13:22Z</time>
      </trkpt>
      <trkpt lat="44.90766" lon="4.58551">
        <ele>626</ele>
        <time>2021-03-27T10:13:26Z</time>
      </trkpt>
      <trkpt lat="44.90776" lon="4.58537">
        <ele>626.4</ele>
        <time>2021-03-27T10:13:30Z</time>
      </trkpt>
      <trkpt lat="44.90787" lon="4.58524">
        <ele>626.8</ele>
        <time>2021-03-27T10:13:34Z</time>
      </trkpt>
      <trkpt lat="44.90799" lon="4.58512">
        <ele>626.8</ele>
        <time>2021-03-27T10:13:38Z</time>
      </trkpt>
      <trkpt lat="44.90809" lon="4.585">
        <ele>626.4</ele>
        <time>2021-03-27T10:13:42Z</time>
      </trkpt>
      <trkpt lat="44.90819" lon="4.58488">
        <ele>626.6</ele>
        <time>2021-03-27T10:13:46Z</time>
      </trkpt>
      <trkpt lat="44.9083" lon="4.58476">
        <ele>628</ele>
        <time>2021-03-27T10:13:50Z</time>
      </trkpt>
      <trkpt lat="44.90841" lon="4.58463">
        <ele>628.2</ele>
        <time>2021-03-27T10:13:54Z</time>
      </trkpt>
      <trkpt lat="44.90853" lon="4.5845">
        <ele>628.2</ele>
        <time>2021-03-27T10:13:58Z</time>
      </trkpt>
      <trkpt lat="44.90865" lon="4.58437">
        <ele>628.8</ele>
        <time>2021-03-27T10:14:02Z</time>
      </trkpt>
      <trkpt lat="44.90873" lon="4.5842">
        <ele>628.6</ele>
        <time>2021-03-27T10:14:06Z</time>
      </trkpt>
      <trkpt lat="44.90877" lon="4.584">
        <ele>628.4</ele>
        <time>2021-03-27T10:14:10Z</time>
      </trkpt>
      <trkpt lat="44.90873" lon="4.58382">
        <ele>627.8</ele>
        <time>2021-03-27T10:14:14Z</time>
      </trkpt>
      <trkpt lat="44.90865" lon="4.58366">
        <ele>627.8</ele>
        <time>2021-03-27T10:14:18Z</time>
      </trkpt>
      <trkpt lat="44.90857" lon="4.58352">
        <ele>628.8</ele>
        <time>2021-03-27T10:14:22Z</time>
      </trkpt>
      <trkpt lat="44.90849" lon="4.58338">
        <ele>628.6</ele>
        <time>2021-03-27T10:14:26Z</time>
      </trkpt>
      <trkpt lat="44.90842" lon="4.58325">
        <ele>629.4</ele>
        <time>2021-03-27T10:14:30Z</time>
      </trkpt>
      <trkpt lat="44.90834" lon="4.58312">
        <ele>629.2</ele>
        <time>2021-03-27T10:14:34Z</time>
      </trkpt>
      <trkpt lat="44.90828" lon="4.58295">
        <ele>629.4</ele>
        <time>2021-03-27T10:14:38Z</time>
      </trkpt>
      <trkpt lat="44.90823" lon="4.58277">
        <ele>630</ele>
        <time>2021-03-27T10:14:42Z</time>
      </trkpt>
      <trkpt lat="44.90822" lon="4.58259">
        <ele>629.4</ele>
        <time>2021-03-27T10:14:46Z</time>
      </trkpt>
      <trkpt lat="44.90823" lon="4.58241">
        <ele>629.8</ele>
        <time>2021-03-27T10:14:50Z</time>
      </trkpt>
      <trkpt lat="44.90824" lon="4.58224">
        <ele>630.4</ele>
        <time>2021-03-27T10:14:54Z</time>
      </trkpt>
      <trkpt lat="44.90824" lon="4.58205">
        <ele>630.2</ele>
        <time>2021-03-27T10:14:58Z</time>
      </trkpt>
      <trkpt lat="44.90825" lon="4.58186">
        <ele>630.2</ele>
        <time>2021-03-27T10:15:02Z</time>
      </trkpt>
      <trkpt lat="44.90825" lon="4.58168">
        <ele>631.4</ele>
        <time>2021-03-27T10:15:06Z</time>
      </trkpt>
      <trkpt lat="44.90828" lon="4.58152">
        <ele>631.2</ele>
        <time>2021-03-27T10:15:10Z</time>
      </trkpt>
      <trkpt lat="44.90828" lon="4.58123">
        <ele>631.4</ele>
        <time>2021-03-27T10:18:51Z</time>
      </trkpt>
      <trkpt lat="44.90834" lon="4.58108">
        <ele>630.8</ele>
        <time>2021-03-27T10:18:55Z</time>
      </trkpt>
      <trkpt lat="44.90844" lon="4.58096">
        <ele>630.8</ele>
        <time>2021-03-27T10:18:59Z</time>
      </trkpt>
      <trkpt lat="44.90856" lon="4.58088">
        <ele>631.4</ele>
        <time>2021-03-27T10:19:03Z</time>
      </trkpt>
      <trkpt lat="44.90869" lon="4.58084">
        <ele>631.2</ele>
        <time>2021-03-27T10:19:07Z</time>
      </trkpt>
      <trkpt lat="44.90883" lon="4.58082">
        <ele>631.4</ele>
        <time>2021-03-27T10:19:11Z</time>
      </trkpt>
      <trkpt lat="44.90898" lon="4.5808">
        <ele>632</ele>
        <time>2021-03-27T10:19:15Z</time>
      </trkpt>
      <trkpt lat="44.90912" lon="4.58081">
        <ele>632</ele>
        <time>2021-03-27T10:19:19Z</time>
      </trkpt>
      <trkpt lat="44.90927" lon="4.58084">
        <ele>633</ele>
        <time>2021-03-27T10:19:23Z</time>
      </trkpt>
      <trkpt lat="44.90941" lon="4.58084">
        <ele>632.8</ele>
        <time>2021-03-27T10:19:27Z</time>
      </trkpt>
      <trkpt lat="44.90954" lon="4.58071">
        <ele>633.8</ele>
        <time>2021-03-27T10:19:31Z</time>
      </trkpt>
      <trkpt lat="44.90964" lon="4.58054">
        <ele>634</ele>
        <time>2021-03-27T10:19:35Z</time>
      </trkpt>
      <trkpt lat="44.9097" lon="4.58034">
        <ele>634.2</ele>
        <time>2021-03-27T10:19:39Z</time>
      </trkpt>
      <trkpt lat="44.90974" lon="4.58014">
        <ele>633.8</ele>
        <time>2021-03-27T10:19:43Z</time>
      </trkpt>
      <trkpt lat="44.90976" lon="4.57993">
        <ele>633.4</ele>
        <time>2021-03-27T10:19:47Z</time>
      </trkpt>
      <trkpt lat="44.90976" lon="4.57973">
        <ele>633.4</ele>
        <time>2021-03-27T10:19:51Z</time>
      </trkpt>
      <trkpt lat="44.90974" lon="4.57954">
        <ele>634</ele>
        <time>2021-03-27T10:19:55Z</time>
      </trkpt>
      <trkpt lat="44.90971" lon="4.57935">
        <ele>634.8</ele>
        <time>2021-03-27T10:19:59Z</time>
      </trkpt>
      <trkpt lat="44.90966" lon="4.57917">
        <ele>635.4</ele>
        <time>2021-03-27T10:20:03Z</time>
      </trkpt>
      <trkpt lat="44.90962" lon="4.57898">
        <ele>636</ele>
        <time>2021-03-27T10:20:07Z</time>
      </trkpt>
      <trkpt lat="44.90957" lon="4.57879">
        <ele>636.4</ele>
        <time>2021-03-27T10:20:11Z</time>
      </trkpt>
      <trkpt lat="44.90956" lon="4.57859">
        <ele>636.6</ele>
        <time>2021-03-27T10:20:15Z</time>
      </trkpt>
      <trkpt lat="44.90959" lon="4.5784">
        <ele>636.2</ele>
        <time>2021-03-27T10:20:19Z</time>
      </trkpt>
      <trkpt lat="44.90965" lon="4.57822">
        <ele>636.8</ele>
        <time>2021-03-27T10:20:23Z</time>
      </trkpt>
      <trkpt lat="44.90972" lon="4.57805">
        <ele>636.4</ele>
        <time>2021-03-27T10:20:27Z</time>
      </trkpt>
      <trkpt lat="44.90979" lon="4.57784">
        <ele>636.6</ele>
        <time>2021-03-27T10:20:31Z</time>
      </trkpt>
      <trkpt lat="44.90989" lon="4.57767">
        <ele>637.2</ele>
        <time>2021-03-27T10:20:35Z</time>
      </trkpt>
      <trkpt lat="44.91001" lon="4.57756">
        <ele>637.6</ele>
        <time>2021-03-27T10:20:39Z</time>
      </trkpt>
      <trkpt lat="44.91013" lon="4.57744">
        <ele>638</ele>
        <time>2021-03-27T10:20:43Z</time>
      </trkpt>
      <trkpt lat="44.91026" lon="4.57732">
        <ele>638.4</ele>
        <time>2021-03-27T10:20:47Z</time>
      </trkpt>
      <trkpt lat="44.91039" lon="4.57718">
        <ele>637</ele>
        <time>2021-03-27T10:20:51Z</time>
      </trkpt>
      <trkpt lat="44.91048" lon="4.57698">
        <ele>636.8</ele>
        <time>2021-03-27T10:20:55Z</time>
      </trkpt>
      <trkpt lat="44.91054" lon="4.57677">
        <ele>636.8</ele>
        <time>2021-03-27T10:20:59Z</time>
      </trkpt>
      <trkpt lat="44.91057" lon="4.57655">
        <ele>637.4</ele>
        <time>2021-03-27T10:21:03Z</time>
      </trkpt>
      <trkpt lat="44.9106" lon="4.57633">
        <ele>637</ele>
        <time>2021-03-27T10:21:07Z</time>
      </trkpt>
      <trkpt lat="44.91063" lon="4.57611">
        <ele>637.2</ele>
        <time>2021-03-27T10:21:11Z</time>
      </trkpt>
      <trkpt lat="44.91065" lon="4.57588">
        <ele>636.8</ele>
        <time>2021-03-27T10:21:15Z</time>
      </trkpt>
      <trkpt lat="44.91068" lon="4.57567">
        <ele>636.8</ele>
        <time>2021-03-27T10:21:19Z</time>
      </trkpt>
      <trkpt lat="44.91073" lon="4.57546">
        <ele>636.8</ele>
        <time>2021-03-27T10:21:23Z</time>
      </trkpt>
      <trkpt lat="44.91078" lon="4.57525">
        <ele>636.4</ele>
        <time>2021-03-27T10:21:27Z</time>
      </trkpt>
      <trkpt lat="44.91083" lon="4.57505">
        <ele>636.2</ele>
        <time>2021-03-27T10:21:31Z</time>
      </trkpt>
      <trkpt lat="44.91086" lon="4.57485">
        <ele>636.8</ele>
        <time>2021-03-27T10:21:35Z</time>
      </trkpt>
      <trkpt lat="44.91085" lon="4.57464">
        <ele>637.6</ele>
        <time>2021-03-27T10:21:39Z</time>
      </trkpt>
      <trkpt lat="44.9108" lon="4.57444">
        <ele>637.2</ele>
        <time>2021-03-27T10:21:43Z</time>
      </trkpt>
      <trkpt lat="44.91069" lon="4.57426">
        <ele>636.6</ele>
        <time>2021-03-27T10:21:47Z</time>
      </trkpt>
      <trkpt lat="44.91055" lon="4.57414">
        <ele>637</ele>
        <time>2021-03-27T10:21:51Z</time>
      </trkpt>
      <trkpt lat="44.9104" lon="4.57404">
        <ele>637.6</ele>
        <time>2021-03-27T10:21:55Z</time>
      </trkpt>
      <trkpt lat="44.91025" lon="4.57393">
        <ele>637.4</ele>
        <time>2021-03-27T10:21:59Z</time>
      </trkpt>
      <trkpt lat="44.91013" lon="4.57376">
        <ele>637.6</ele>
        <time>2021-03-27T10:22:03Z</time>
      </trkpt>
      <trkpt lat="44.91005" lon="4.57355">
        <ele>637.4</ele>
        <time>2021-03-27T10:22:07Z</time>
      </trkpt>
      <trkpt lat="44.91002" lon="4.57333">
        <ele>636.8</ele>
        <time>2021-03-27T10:22:11Z</time>
      </trkpt>
      <trkpt lat="44.90999" lon="4.57312">
        <ele>636.6</ele>
        <time>2021-03-27T10:22:15Z</time>
      </trkpt>
      <trkpt lat="44.90999" lon="4.57288">
        <ele>637.2</ele>
        <time>2021-03-27T10:22:19Z</time>
      </trkpt>
      <trkpt lat="44.91001" lon="4.57263">
        <ele>637</ele>
        <time>2021-03-27T10:22:23Z</time>
      </trkpt>
      <trkpt lat="44.91004" lon="4.57241">
        <ele>637.4</ele>
        <time>2021-03-27T10:22:27Z</time>
      </trkpt>
      <trkpt lat="44.91007" lon="4.5722">
        <ele>637.6</ele>
        <time>2021-03-27T10:22:31Z</time>
      </trkpt>
      <trkpt lat="44.91009" lon="4.57198">
        <ele>638</ele>
        <time>2021-03-27T10:22:35Z</time>
      </trkpt>
      <trkpt lat="44.91014" lon="4.57177">
        <ele>638.2</ele>
        <time>2021-03-27T10:22:39Z</time>
      </trkpt>
      <trkpt lat="44.91019" lon="4.57156">
        <ele>638.8</ele>
        <time>2021-03-27T10:22:43Z</time>
      </trkpt>
      <trkpt lat="44.91023" lon="4.57136">
        <ele>638.8</ele>
        <time>2021-03-27T10:22:47Z</time>
      </trkpt>
      <trkpt lat="44.91024" lon="4.57112">
        <ele>638.2</ele>
        <time>2021-03-27T10:22:51Z</time>
      </trkpt>
      <trkpt lat="44.91031" lon="4.57089">
        <ele>637.2</ele>
        <time>2021-03-27T10:22:55Z</time>
      </trkpt>
      <trkpt lat="44.91036" lon="4.57059">
        <ele>636.4</ele>
        <time>2021-03-27T10:22:59Z</time>
      </trkpt>
      <trkpt lat="44.91037" lon="4.57026">
        <ele>635</ele>
        <time>2021-03-27T10:23:03Z</time>
      </trkpt>
      <trkpt lat="44.91033" lon="4.56993">
        <ele>634</ele>
        <time>2021-03-27T10:23:07Z</time>
      </trkpt>
      <trkpt lat="44.91025" lon="4.56962">
        <ele>633.6</ele>
        <time>2021-03-27T10:23:11Z</time>
      </trkpt>
      <trkpt lat="44.91016" lon="4.56931">
        <ele>632.6</ele>
        <time>2021-03-27T10:23:15Z</time>
      </trkpt>
      <trkpt lat="44.91009" lon="4.56901">
        <ele>633</ele>
        <time>2021-03-27T10:23:19Z</time>
      </trkpt>
      <trkpt lat="44.91012" lon="4.56869">
        <ele>631.4</ele>
        <time>2021-03-27T10:23:23Z</time>
      </trkpt>
      <trkpt lat="44.91025" lon="4.56842">
        <ele>629</ele>
        <time>2021-03-27T10:23:27Z</time>
      </trkpt>
      <trkpt lat="44.9104" lon="4.56818">
        <ele>628.4</ele>
        <time>2021-03-27T10:23:31Z</time>
      </trkpt>
      <trkpt lat="44.91049" lon="4.56791">
        <ele>627.8</ele>
        <time>2021-03-27T10:23:35Z</time>
      </trkpt>
      <trkpt lat="44.91048" lon="4.56755">
        <ele>627.6</ele>
        <time>2021-03-27T10:23:39Z</time>
      </trkpt>
      <trkpt lat="44.91044" lon="4.56723">
        <ele>627.2</ele>
        <time>2021-03-27T10:23:43Z</time>
      </trkpt>
      <trkpt lat="44.91026" lon="4.56712">
        <ele>627.2</ele>
        <time>2021-03-27T10:23:47Z</time>
      </trkpt>
      <trkpt lat="44.91012" lon="4.56724">
        <ele>627.4</ele>
        <time>2021-03-27T10:23:51Z</time>
      </trkpt>
      <trkpt lat="44.91003" lon="4.56737">
        <ele>629.4</ele>
        <time>2021-03-27T10:23:55Z</time>
      </trkpt>
      <trkpt lat="44.90996" lon="4.56751">
        <ele>630.4</ele>
        <time>2021-03-27T10:23:59Z</time>
      </trkpt>
      <trkpt lat="44.90994" lon="4.5676">
        <ele>630.8</ele>
        <time>2021-03-27T10:24:03Z</time>
      </trkpt>
      <trkpt lat="44.90989" lon="4.56768">
        <ele>632</ele>
        <time>2021-03-27T10:24:07Z</time>
      </trkpt>
      <trkpt lat="44.90983" lon="4.56774">
        <ele>632.2</ele>
        <time>2021-03-27T10:24:11Z</time>
      </trkpt>
      <trkpt lat="44.90971" lon="4.56781">
        <ele>633</ele>
        <time>2021-03-27T10:24:15Z</time>
      </trkpt>
      <trkpt lat="44.9096" lon="4.5679">
        <ele>633.4</ele>
        <time>2021-03-27T10:24:19Z</time>
      </trkpt>
      <trkpt lat="44.90949" lon="4.568">
        <ele>634.2</ele>
        <time>2021-03-27T10:24:23Z</time>
      </trkpt>
      <trkpt lat="44.90938" lon="4.56814">
        <ele>634</ele>
        <time>2021-03-27T10:24:27Z</time>
      </trkpt>
      <trkpt lat="44.90928" lon="4.56829">
        <ele>633.2</ele>
        <time>2021-03-27T10:24:31Z</time>
      </trkpt>
      <trkpt lat="44.90924" lon="4.56838">
        <ele>633.6</ele>
        <time>2021-03-27T10:24:35Z</time>
      </trkpt>
      <trkpt lat="44.90924" lon="4.56844">
        <ele>633.4</ele>
        <time>2021-03-27T10:24:39Z</time>
      </trkpt>
      <trkpt lat="44.90926" lon="4.56837">
        <ele>632.8</ele>
        <time>2021-03-27T10:24:43Z</time>
      </trkpt>
      <trkpt lat="44.9093" lon="4.56825">
        <ele>633.2</ele>
        <time>2021-03-27T10:24:47Z</time>
      </trkpt>
      <trkpt lat="44.90935" lon="4.56814">
        <ele>633.4</ele>
        <time>2021-03-27T10:24:51Z</time>
      </trkpt>
      <trkpt lat="44.9094" lon="4.56801">
        <ele>633.6</ele>
        <time>2021-03-27T10:24:55Z</time>
      </trkpt>
      <trkpt lat="44.90943" lon="4.56792">
        <ele>634.8</ele>
        <time>2021-03-27T10:24:59Z</time>
      </trkpt>
      <trkpt lat="44.90948" lon="4.56787">
        <ele>635</ele>
        <time>2021-03-27T10:25:03Z</time>
      </trkpt>
      <trkpt lat="44.90952" lon="4.5678">
        <ele>637</ele>
        <time>2021-03-27T10:25:07Z</time>
      </trkpt>
      <trkpt lat="44.90959" lon="4.56775">
        <ele>637.4</ele>
        <time>2021-03-27T10:25:11Z</time>
      </trkpt>
      <trkpt lat="44.90969" lon="4.56758">
        <ele>640</ele>
        <time>2021-03-27T10:25:36Z</time>
      </trkpt>
      <trkpt lat="44.90969" lon="4.56746">
        <ele>641.2</ele>
        <time>2021-03-27T10:25:40Z</time>
      </trkpt>
      <trkpt lat="44.90968" lon="4.56735">
        <ele>641.6</ele>
        <time>2021-03-27T10:25:44Z</time>
      </trkpt>
      <trkpt lat="44.90967" lon="4.56724">
        <ele>642.2</ele>
        <time>2021-03-27T10:25:48Z</time>
      </trkpt>
      <trkpt lat="44.90965" lon="4.56715">
        <ele>642.6</ele>
        <time>2021-03-27T10:25:52Z</time>
      </trkpt>
      <trkpt lat="44.90965" lon="4.56704">
        <ele>643.4</ele>
        <time>2021-03-27T10:25:56Z</time>
      </trkpt>
      <trkpt lat="44.90963" lon="4.56694">
        <ele>644.4</ele>
        <time>2021-03-27T10:26:00Z</time>
      </trkpt>
      <trkpt lat="44.90961" lon="4.56684">
        <ele>644.8</ele>
        <time>2021-03-27T10:26:04Z</time>
      </trkpt>
      <trkpt lat="44.9096" lon="4.56674">
        <ele>645.4</ele>
        <time>2021-03-27T10:26:08Z</time>
      </trkpt>
      <trkpt lat="44.90958" lon="4.56665">
        <ele>646.4</ele>
        <time>2021-03-27T10:26:12Z</time>
      </trkpt>
      <trkpt lat="44.90955" lon="4.56655">
        <ele>646.8</ele>
        <time>2021-03-27T10:26:16Z</time>
      </trkpt>
      <trkpt lat="44.90951" lon="4.56645">
        <ele>648.2</ele>
        <time>2021-03-27T10:26:20Z</time>
      </trkpt>
      <trkpt lat="44.90945" lon="4.56639">
        <ele>648.6</ele>
        <time>2021-03-27T10:26:24Z</time>
      </trkpt>
      <trkpt lat="44.90937" lon="4.56636">
        <ele>649.2</ele>
        <time>2021-03-27T10:26:28Z</time>
      </trkpt>
      <trkpt lat="44.90932" lon="4.5664">
        <ele>649.8</ele>
        <time>2021-03-27T10:26:32Z</time>
      </trkpt>
      <trkpt lat="44.90928" lon="4.56646">
        <ele>650.6</ele>
        <time>2021-03-27T10:26:36Z</time>
      </trkpt>
      <trkpt lat="44.90928" lon="4.56654">
        <ele>651.2</ele>
        <time>2021-03-27T10:26:40Z</time>
      </trkpt>
      <trkpt lat="44.90929" lon="4.56662">
        <ele>651.8</ele>
        <time>2021-03-27T10:26:44Z</time>
      </trkpt>
      <trkpt lat="44.90931" lon="4.5667">
        <ele>652.4</ele>
        <time>2021-03-27T10:26:48Z</time>
      </trkpt>
      <trkpt lat="44.9093" lon="4.5668">
        <ele>653.2</ele>
        <time>2021-03-27T10:26:52Z</time>
      </trkpt>
      <trkpt lat="44.9093" lon="4.56687">
        <ele>653.8</ele>
        <time>2021-03-27T10:26:56Z</time>
      </trkpt>
      <trkpt lat="44.90928" lon="4.56696">
        <ele>654.4</ele>
        <time>2021-03-27T10:27:00Z</time>
      </trkpt>
      <trkpt lat="44.90924" lon="4.56705">
        <ele>654.6</ele>
        <time>2021-03-27T10:27:04Z</time>
      </trkpt>
      <trkpt lat="44.90919" lon="4.56714">
        <ele>655.4</ele>
        <time>2021-03-27T10:27:08Z</time>
      </trkpt>
      <trkpt lat="44.90914" lon="4.56722">
        <ele>655.6</ele>
        <time>2021-03-27T10:27:12Z</time>
      </trkpt>
      <trkpt lat="44.90909" lon="4.56729">
        <ele>657.2</ele>
        <time>2021-03-27T10:27:16Z</time>
      </trkpt>
      <trkpt lat="44.90903" lon="4.56735">
        <ele>657.4</ele>
        <time>2021-03-27T10:27:20Z</time>
      </trkpt>
      <trkpt lat="44.90896" lon="4.56741">
        <ele>658</ele>
        <time>2021-03-27T10:27:24Z</time>
      </trkpt>
      <trkpt lat="44.90889" lon="4.56745">
        <ele>659</ele>
        <time>2021-03-27T10:27:28Z</time>
      </trkpt>
      <trkpt lat="44.90883" lon="4.56749">
        <ele>659.4</ele>
        <time>2021-03-27T10:27:32Z</time>
      </trkpt>
      <trkpt lat="44.90876" lon="4.56753">
        <ele>659.6</ele>
        <time>2021-03-27T10:27:36Z</time>
      </trkpt>
      <trkpt lat="44.90869" lon="4.56758">
        <ele>660.6</ele>
        <time>2021-03-27T10:27:40Z</time>
      </trkpt>
      <trkpt lat="44.90863" lon="4.56763">
        <ele>661.2</ele>
        <time>2021-03-27T10:27:44Z</time>
      </trkpt>
      <trkpt lat="44.90856" lon="4.56767">
        <ele>661.4</ele>
        <time>2021-03-27T10:27:48Z</time>
      </trkpt>
      <trkpt lat="44.90848" lon="4.56772">
        <ele>662.2</ele>
        <time>2021-03-27T10:27:52Z</time>
      </trkpt>
      <trkpt lat="44.9084" lon="4.56776">
        <ele>662.6</ele>
        <time>2021-03-27T10:27:56Z</time>
      </trkpt>
      <trkpt lat="44.90832" lon="4.56781">
        <ele>662.8</ele>
        <time>2021-03-27T10:28:00Z</time>
      </trkpt>
      <trkpt lat="44.90823" lon="4.56787">
        <ele>663.4</ele>
        <time>2021-03-27T10:28:04Z</time>
      </trkpt>
      <trkpt lat="44.90814" lon="4.56793">
        <ele>664</ele>
        <time>2021-03-27T10:28:08Z</time>
      </trkpt>
      <trkpt lat="44.90806" lon="4.568">
        <ele>664</ele>
        <time>2021-03-27T10:28:12Z</time>
      </trkpt>
      <trkpt lat="44.90799" lon="4.56808">
        <ele>664.2</ele>
        <time>2021-03-27T10:28:16Z</time>
      </trkpt>
      <trkpt lat="44.9079" lon="4.56816">
        <ele>664.2</ele>
        <time>2021-03-27T10:28:20Z</time>
      </trkpt>
      <trkpt lat="44.90781" lon="4.56826">
        <ele>664.2</ele>
        <time>2021-03-27T10:28:24Z</time>
      </trkpt>
      <trkpt lat="44.90774" lon="4.56837">
        <ele>664.2</ele>
        <time>2021-03-27T10:28:28Z</time>
      </trkpt>
      <trkpt lat="44.90768" lon="4.56846">
        <ele>665</ele>
        <time>2021-03-27T10:28:32Z</time>
      </trkpt>
      <trkpt lat="44.90765" lon="4.56854">
        <ele>665.6</ele>
        <time>2021-03-27T10:28:36Z</time>
      </trkpt>
      <trkpt lat="44.9076" lon="4.56864">
        <ele>666.2</ele>
        <time>2021-03-27T10:28:40Z</time>
      </trkpt>
      <trkpt lat="44.90758" lon="4.56875">
        <ele>667.2</ele>
        <time>2021-03-27T10:28:44Z</time>
      </trkpt>
      <trkpt lat="44.90756" lon="4.56886">
        <ele>667.8</ele>
        <time>2021-03-27T10:28:48Z</time>
      </trkpt>
      <trkpt lat="44.90753" lon="4.56894">
        <ele>668.4</ele>
        <time>2021-03-27T10:28:52Z</time>
      </trkpt>
      <trkpt lat="44.9075" lon="4.56901">
        <ele>669.4</ele>
        <time>2021-03-27T10:28:56Z</time>
      </trkpt>
      <trkpt lat="44.90747" lon="4.56909">
        <ele>670</ele>
        <time>2021-03-27T10:29:00Z</time>
      </trkpt>
      <trkpt lat="44.90746" lon="4.56917">
        <ele>670.4</ele>
        <time>2021-03-27T10:29:04Z</time>
      </trkpt>
      <trkpt lat="44.90743" lon="4.56925">
        <ele>671.4</ele>
        <time>2021-03-27T10:29:08Z</time>
      </trkpt>
      <trkpt lat="44.90741" lon="4.56933">
        <ele>671.6</ele>
        <time>2021-03-27T10:29:12Z</time>
      </trkpt>
      <trkpt lat="44.90738" lon="4.56941">
        <ele>672.4</ele>
        <time>2021-03-27T10:29:16Z</time>
      </trkpt>
      <trkpt lat="44.90735" lon="4.56949">
        <ele>673.4</ele>
        <time>2021-03-27T10:29:20Z</time>
      </trkpt>
      <trkpt lat="44.90731" lon="4.56957">
        <ele>673.8</ele>
        <time>2021-03-27T10:29:24Z</time>
      </trkpt>
      <trkpt lat="44.90728" lon="4.56964">
        <ele>674.6</ele>
        <time>2021-03-27T10:29:28Z</time>
      </trkpt>
      <trkpt lat="44.90724" lon="4.56971">
        <ele>675.2</ele>
        <time>2021-03-27T10:29:32Z</time>
      </trkpt>
      <trkpt lat="44.90719" lon="4.56978">
        <ele>676.4</ele>
        <time>2021-03-27T10:29:36Z</time>
      </trkpt>
      <trkpt lat="44.90714" lon="4.56984">
        <ele>677</ele>
        <time>2021-03-27T10:29:40Z</time>
      </trkpt>
      <trkpt lat="44.90708" lon="4.5699">
        <ele>677.4</ele>
        <time>2021-03-27T10:29:44Z</time>
      </trkpt>
      <trkpt lat="44.90702" lon="4.56994">
        <ele>678.8</ele>
        <time>2021-03-27T10:29:48Z</time>
      </trkpt>
      <trkpt lat="44.90697" lon="4.56999">
        <ele>679</ele>
        <time>2021-03-27T10:29:52Z</time>
      </trkpt>
      <trkpt lat="44.9069" lon="4.57004">
        <ele>680</ele>
        <time>2021-03-27T10:29:56Z</time>
      </trkpt>
      <trkpt lat="44.90681" lon="4.57008">
        <ele>680</ele>
        <time>2021-03-27T10:30:14Z</time>
      </trkpt>
      <trkpt lat="44.90674" lon="4.5701">
        <ele>680.6</ele>
        <time>2021-03-27T10:30:18Z</time>
      </trkpt>
      <trkpt lat="44.90668" lon="4.57011">
        <ele>682.2</ele>
        <time>2021-03-27T10:30:22Z</time>
      </trkpt>
      <trkpt lat="44.90662" lon="4.57013">
        <ele>682.2</ele>
        <time>2021-03-27T10:30:26Z</time>
      </trkpt>
      <trkpt lat="44.90655" lon="4.57015">
        <ele>683.4</ele>
        <time>2021-03-27T10:30:30Z</time>
      </trkpt>
      <trkpt lat="44.90648" lon="4.57015">
        <ele>683.6</ele>
        <time>2021-03-27T10:30:34Z</time>
      </trkpt>
      <trkpt lat="44.9064" lon="4.57016">
        <ele>684.2</ele>
        <time>2021-03-27T10:30:38Z</time>
      </trkpt>
      <trkpt lat="44.90634" lon="4.57016">
        <ele>684.6</ele>
        <time>2021-03-27T10:30:42Z</time>
      </trkpt>
      <trkpt lat="44.90627" lon="4.57017">
        <ele>685.4</ele>
        <time>2021-03-27T10:30:46Z</time>
      </trkpt>
      <trkpt lat="44.90621" lon="4.57019">
        <ele>686.6</ele>
        <time>2021-03-27T10:30:50Z</time>
      </trkpt>
      <trkpt lat="44.90615" lon="4.5702">
        <ele>687.4</ele>
        <time>2021-03-27T10:30:54Z</time>
      </trkpt>
      <trkpt lat="44.90609" lon="4.57021">
        <ele>688.2</ele>
        <time>2021-03-27T10:30:58Z</time>
      </trkpt>
      <trkpt lat="44.90603" lon="4.5702">
        <ele>689.2</ele>
        <time>2021-03-27T10:31:02Z</time>
      </trkpt>
      <trkpt lat="44.90597" lon="4.5702">
        <ele>689.2</ele>
        <time>2021-03-27T10:31:06Z</time>
      </trkpt>
      <trkpt lat="44.90591" lon="4.57021">
        <ele>690</ele>
        <time>2021-03-27T10:31:10Z</time>
      </trkpt>
      <trkpt lat="44.90586" lon="4.57021">
        <ele>691</ele>
        <time>2021-03-27T10:31:14Z</time>
      </trkpt>
      <trkpt lat="44.9058" lon="4.57021">
        <ele>691.6</ele>
        <time>2021-03-27T10:31:18Z</time>
      </trkpt>
      <trkpt lat="44.90574" lon="4.57022">
        <ele>692.2</ele>
        <time>2021-03-27T10:31:22Z</time>
      </trkpt>
      <trkpt lat="44.90571" lon="4.57023">
        <ele>693.2</ele>
        <time>2021-03-27T10:31:26Z</time>
      </trkpt>
      <trkpt lat="44.90565" lon="4.57022">
        <ele>694</ele>
        <time>2021-03-27T10:31:30Z</time>
      </trkpt>
      <trkpt lat="44.90561" lon="4.57019">
        <ele>694.2</ele>
        <time>2021-03-27T10:31:34Z</time>
      </trkpt>
      <trkpt lat="44.90557" lon="4.57015">
        <ele>694.8</ele>
        <time>2021-03-27T10:31:38Z</time>
      </trkpt>
      <trkpt lat="44.90555" lon="4.57011">
        <ele>695</ele>
        <time>2021-03-27T10:31:42Z</time>
      </trkpt>
      <trkpt lat="44.9055" lon="4.57005">
        <ele>696.2</ele>
        <time>2021-03-27T10:31:46Z</time>
      </trkpt>
      <trkpt lat="44.90547" lon="4.56996">
        <ele>696.2</ele>
        <time>2021-03-27T10:31:50Z</time>
      </trkpt>
      <trkpt lat="44.9054" lon="4.56985">
        <ele>698</ele>
        <time>2021-03-27T10:31:54Z</time>
      </trkpt>
      <trkpt lat="44.90536" lon="4.56975">
        <ele>697.6</ele>
        <time>2021-03-27T10:31:58Z</time>
      </trkpt>
      <trkpt lat="44.90533" lon="4.56965">
        <ele>699</ele>
        <time>2021-03-27T10:32:02Z</time>
      </trkpt>
      <trkpt lat="44.90528" lon="4.56957">
        <ele>699.2</ele>
        <time>2021-03-27T10:32:06Z</time>
      </trkpt>
      <trkpt lat="44.90523" lon="4.56949">
        <ele>699.8</ele>
        <time>2021-03-27T10:32:10Z</time>
      </trkpt>
      <trkpt lat="44.90515" lon="4.56944">
        <ele>700.2</ele>
        <time>2021-03-27T10:32:14Z</time>
      </trkpt>
      <trkpt lat="44.90507" lon="4.56943">
        <ele>700.8</ele>
        <time>2021-03-27T10:32:18Z</time>
      </trkpt>
      <trkpt lat="44.90498" lon="4.56944">
        <ele>701.4</ele>
        <time>2021-03-27T10:32:22Z</time>
      </trkpt>
      <trkpt lat="44.90493" lon="4.56947">
        <ele>701.8</ele>
        <time>2021-03-27T10:32:26Z</time>
      </trkpt>
      <trkpt lat="44.90487" lon="4.56951">
        <ele>702.2</ele>
        <time>2021-03-27T10:32:30Z</time>
      </trkpt>
      <trkpt lat="44.90483" lon="4.56954">
        <ele>702.6</ele>
        <time>2021-03-27T10:32:34Z</time>
      </trkpt>
      <trkpt lat="44.90477" lon="4.5696">
        <ele>703.4</ele>
        <time>2021-03-27T10:32:38Z</time>
      </trkpt>
      <trkpt lat="44.90409" lon="4.57051">
        <ele>714.6</ele>
        <time>2021-03-27T10:33:39Z</time>
      </trkpt>
      <trkpt lat="44.90405" lon="4.57048">
        <ele>716</ele>
        <time>2021-03-27T10:33:43Z</time>
      </trkpt>
      <trkpt lat="44.90403" lon="4.57043">
        <ele>716</ele>
        <time>2021-03-27T10:33:47Z</time>
      </trkpt>
      <trkpt lat="44.90402" lon="4.57035">
        <ele>717</ele>
        <time>2021-03-27T10:33:51Z</time>
      </trkpt>
      <trkpt lat="44.904" lon="4.57028">
        <ele>717.6</ele>
        <time>2021-03-27T10:33:55Z</time>
      </trkpt>
      <trkpt lat="44.90397" lon="4.5702">
        <ele>718.4</ele>
        <time>2021-03-27T10:33:59Z</time>
      </trkpt>
      <trkpt lat="44.90392" lon="4.57013">
        <ele>718.4</ele>
        <time>2021-03-27T10:34:03Z</time>
      </trkpt>
      <trkpt lat="44.90387" lon="4.57005">
        <ele>719</ele>
        <time>2021-03-27T10:34:07Z</time>
      </trkpt>
      <trkpt lat="44.90382" lon="4.56999">
        <ele>719.6</ele>
        <time>2021-03-27T10:34:11Z</time>
      </trkpt>
      <trkpt lat="44.90377" lon="4.56992">
        <ele>720.8</ele>
        <time>2021-03-27T10:34:15Z</time>
      </trkpt>
      <trkpt lat="44.90373" lon="4.56986">
        <ele>720.8</ele>
        <time>2021-03-27T10:34:19Z</time>
      </trkpt>
      <trkpt lat="44.90367" lon="4.56981">
        <ele>722</ele>
        <time>2021-03-27T10:34:23Z</time>
      </trkpt>
      <trkpt lat="44.90357" lon="4.56988">
        <ele>720.8</ele>
        <time>2021-03-27T10:34:27Z</time>
      </trkpt>
      <trkpt lat="44.90347" lon="4.57001">
        <ele>720.6</ele>
        <time>2021-03-27T10:34:31Z</time>
      </trkpt>
      <trkpt lat="44.90338" lon="4.57014">
        <ele>720.4</ele>
        <time>2021-03-27T10:34:35Z</time>
      </trkpt>
      <trkpt lat="44.90328" lon="4.57032">
        <ele>719</ele>
        <time>2021-03-27T10:34:39Z</time>
      </trkpt>
      <trkpt lat="44.90313" lon="4.57056">
        <ele>715.8</ele>
        <time>2021-03-27T10:34:43Z</time>
      </trkpt>
      <trkpt lat="44.9029" lon="4.57074">
        <ele>713.4</ele>
        <time>2021-03-27T10:34:47Z</time>
      </trkpt>
      <trkpt lat="44.90273" lon="4.57083">
        <ele>710.8</ele>
        <time>2021-03-27T10:34:51Z</time>
      </trkpt>
      <trkpt lat="44.90261" lon="4.57082">
        <ele>707</ele>
        <time>2021-03-27T10:36:05Z</time>
      </trkpt>
      <trkpt lat="44.90248" lon="4.57094">
        <ele>705.6</ele>
        <time>2021-03-27T10:36:09Z</time>
      </trkpt>
      <trkpt lat="44.90234" lon="4.57112">
        <ele>703.6</ele>
        <time>2021-03-27T10:36:13Z</time>
      </trkpt>
      <trkpt lat="44.90217" lon="4.57133">
        <ele>701.4</ele>
        <time>2021-03-27T10:36:17Z</time>
      </trkpt>
      <trkpt lat="44.90197" lon="4.57157">
        <ele>700.2</ele>
        <time>2021-03-27T10:36:21Z</time>
      </trkpt>
      <trkpt lat="44.90173" lon="4.57182">
        <ele>697.6</ele>
        <time>2021-03-27T10:36:25Z</time>
      </trkpt>
      <trkpt lat="44.90158" lon="4.57218">
        <ele>696.4</ele>
        <time>2021-03-27T10:36:29Z</time>
      </trkpt>
      <trkpt lat="44.90153" lon="4.57265">
        <ele>696.2</ele>
        <time>2021-03-27T10:36:33Z</time>
      </trkpt>
      <trkpt lat="44.90152" lon="4.57316">
        <ele>691.6</ele>
        <time>2021-03-27T10:36:37Z</time>
      </trkpt>
      <trkpt lat="44.90151" lon="4.57369">
        <ele>688.8</ele>
        <time>2021-03-27T10:36:41Z</time>
      </trkpt>
      <trkpt lat="44.90146" lon="4.57419">
        <ele>686.8</ele>
        <time>2021-03-27T10:36:45Z</time>
      </trkpt>
      <trkpt lat="44.90132" lon="4.57462">
        <ele>681.8</ele>
        <time>2021-03-27T10:36:49Z</time>
      </trkpt>
      <trkpt lat="44.90116" lon="4.57498">
        <ele>684.2</ele>
        <time>2021-03-27T10:36:53Z</time>
      </trkpt>
      <trkpt lat="44.90103" lon="4.57532">
        <ele>679</ele>
        <time>2021-03-27T10:36:57Z</time>
      </trkpt>
      <trkpt lat="44.90113" lon="4.57564">
        <ele>679.2</ele>
        <time>2021-03-27T10:37:01Z</time>
      </trkpt>
      <trkpt lat="44.90137" lon="4.57587">
        <ele>679</ele>
        <time>2021-03-27T10:37:05Z</time>
      </trkpt>
      <trkpt lat="44.90156" lon="4.57622">
        <ele>676.6</ele>
        <time>2021-03-27T10:37:09Z</time>
      </trkpt>
      <trkpt lat="44.90175" lon="4.57656">
        <ele>672.8</ele>
        <time>2021-03-27T10:37:13Z</time>
      </trkpt>
      <trkpt lat="44.90195" lon="4.57692">
        <ele>669.8</ele>
        <time>2021-03-27T10:37:17Z</time>
      </trkpt>
      <trkpt lat="44.90193" lon="4.5774">
        <ele>669.4</ele>
        <time>2021-03-27T10:37:21Z</time>
      </trkpt>
      <trkpt lat="44.90187" lon="4.57791">
        <ele>666.8</ele>
        <time>2021-03-27T10:37:25Z</time>
      </trkpt>
      <trkpt lat="44.90171" lon="4.57838">
        <ele>664</ele>
        <time>2021-03-27T10:37:29Z</time>
      </trkpt>
      <trkpt lat="44.90139" lon="4.57868">
        <ele>663.6</ele>
        <time>2021-03-27T10:37:33Z</time>
      </trkpt>
      <trkpt lat="44.90111" lon="4.57892">
        <ele>664.8</ele>
        <time>2021-03-27T10:37:37Z</time>
      </trkpt>
      <trkpt lat="44.90089" lon="4.57925">
        <ele>660</ele>
        <time>2021-03-27T10:37:41Z</time>
      </trkpt>
      <trkpt lat="44.90063" lon="4.57963">
        <ele>655.8</ele>
        <time>2021-03-27T10:37:45Z</time>
      </trkpt>
      <trkpt lat="44.90034" lon="4.57991">
        <ele>654.2</ele>
        <time>2021-03-27T10:37:49Z</time>
      </trkpt>
      <trkpt lat="44.90008" lon="4.58024">
        <ele>651</ele>
        <time>2021-03-27T10:37:53Z</time>
      </trkpt>
      <trkpt lat="44.89977" lon="4.58063">
        <ele>648.8</ele>
        <time>2021-03-27T10:37:57Z</time>
      </trkpt>
      <trkpt lat="44.89953" lon="4.5809">
        <ele>649</ele>
        <time>2021-03-27T10:38:01Z</time>
      </trkpt>
      <trkpt lat="44.89931" lon="4.58117">
        <ele>646</ele>
        <time>2021-03-27T10:38:05Z</time>
      </trkpt>
      <trkpt lat="44.89898" lon="4.5815">
        <ele>644.2</ele>
        <time>2021-03-27T10:38:09Z</time>
      </trkpt>
      <trkpt lat="44.89868" lon="4.58186">
        <ele>642</ele>
        <time>2021-03-27T10:38:13Z</time>
      </trkpt>
      <trkpt lat="44.89828" lon="4.58215">
        <ele>638.6</ele>
        <time>2021-03-27T10:38:17Z</time>
      </trkpt>
      <trkpt lat="44.89807" lon="4.58264">
        <ele>635.6</ele>
        <time>2021-03-27T10:38:21Z</time>
      </trkpt>
      <trkpt lat="44.89791" lon="4.58319">
        <ele>633.8</ele>
        <time>2021-03-27T10:38:25Z</time>
      </trkpt>
      <trkpt lat="44.89775" lon="4.58371">
        <ele>631.2</ele>
        <time>2021-03-27T10:38:29Z</time>
      </trkpt>
      <trkpt lat="44.89752" lon="4.58412">
        <ele>628.4</ele>
        <time>2021-03-27T10:38:33Z</time>
      </trkpt>
      <trkpt lat="44.89715" lon="4.58432">
        <ele>626.8</ele>
        <time>2021-03-27T10:38:37Z</time>
      </trkpt>
      <trkpt lat="44.89676" lon="4.58433">
        <ele>622.8</ele>
        <time>2021-03-27T10:38:41Z</time>
      </trkpt>
      <trkpt lat="44.89643" lon="4.58456">
        <ele>622.6</ele>
        <time>2021-03-27T10:38:45Z</time>
      </trkpt>
      <trkpt lat="44.89622" lon="4.58492">
        <ele>619.6</ele>
        <time>2021-03-27T10:38:49Z</time>
      </trkpt>
      <trkpt lat="44.89587" lon="4.58525">
        <ele>616.8</ele>
        <time>2021-03-27T10:38:53Z</time>
      </trkpt>
      <trkpt lat="44.89553" lon="4.58555">
        <ele>615.8</ele>
        <time>2021-03-27T10:38:57Z</time>
      </trkpt>
      <trkpt lat="44.89523" lon="4.58589">
        <ele>612.8</ele>
        <time>2021-03-27T10:39:01Z</time>
      </trkpt>
      <trkpt lat="44.89495" lon="4.58623">
        <ele>609.8</ele>
        <time>2021-03-27T10:39:05Z</time>
      </trkpt>
      <trkpt lat="44.89475" lon="4.58661">
        <ele>609.4</ele>
        <time>2021-03-27T10:39:09Z</time>
      </trkpt>
      <trkpt lat="44.89454" lon="4.58698">
        <ele>607</ele>
        <time>2021-03-27T10:39:13Z</time>
      </trkpt>
      <trkpt lat="44.89438" lon="4.58745">
        <ele>604.2</ele>
        <time>2021-03-27T10:39:17Z</time>
      </trkpt>
      <trkpt lat="44.8942" lon="4.58791">
        <ele>602.2</ele>
        <time>2021-03-27T10:39:21Z</time>
      </trkpt>
      <trkpt lat="44.89401" lon="4.58838">
        <ele>599.6</ele>
        <time>2021-03-27T10:39:25Z</time>
      </trkpt>
      <trkpt lat="44.89387" lon="4.5888">
        <ele>597.4</ele>
        <time>2021-03-27T10:39:29Z</time>
      </trkpt>
      <trkpt lat="44.89377" lon="4.58926">
        <ele>596.2</ele>
        <time>2021-03-27T10:39:33Z</time>
      </trkpt>
      <trkpt lat="44.89366" lon="4.58963">
        <ele>595</ele>
        <time>2021-03-27T10:39:37Z</time>
      </trkpt>
      <trkpt lat="44.89361" lon="4.59007">
        <ele>591.8</ele>
        <time>2021-03-27T10:39:41Z</time>
      </trkpt>
      <trkpt lat="44.89352" lon="4.59053">
        <ele>589.2</ele>
        <time>2021-03-27T10:39:45Z</time>
      </trkpt>
      <trkpt lat="44.8935" lon="4.59106">
        <ele>588.4</ele>
        <time>2021-03-27T10:39:49Z</time>
      </trkpt>
      <trkpt lat="44.89349" lon="4.59161">
        <ele>587.2</ele>
        <time>2021-03-27T10:39:53Z</time>
      </trkpt>
      <trkpt lat="44.8933" lon="4.59189">
        <ele>582.2</ele>
        <time>2021-03-27T10:39:57Z</time>
      </trkpt>
      <trkpt lat="44.89297" lon="4.59201">
        <ele>582.4</ele>
        <time>2021-03-27T10:40:01Z</time>
      </trkpt>
      <trkpt lat="44.89266" lon="4.59198">
        <ele>580.2</ele>
        <time>2021-03-27T10:40:05Z</time>
      </trkpt>
      <trkpt lat="44.89239" lon="4.5921">
        <ele>579.2</ele>
        <time>2021-03-27T10:40:09Z</time>
      </trkpt>
      <trkpt lat="44.89223" lon="4.59252">
        <ele>576.6</ele>
        <time>2021-03-27T10:40:13Z</time>
      </trkpt>
      <trkpt lat="44.8921" lon="4.59296">
        <ele>578.8</ele>
        <time>2021-03-27T10:40:17Z</time>
      </trkpt>
      <trkpt lat="44.89206" lon="4.59332">
        <ele>578.4</ele>
        <time>2021-03-27T10:40:50Z</time>
      </trkpt>
      <trkpt lat="44.89202" lon="4.59327">
        <ele>579.6</ele>
        <time>2021-03-27T10:40:54Z</time>
      </trkpt>
      <trkpt lat="44.89199" lon="4.59309">
        <ele>578.2</ele>
        <time>2021-03-27T10:40:58Z</time>
      </trkpt>
      <trkpt lat="44.89204" lon="4.59285">
        <ele>576.6</ele>
        <time>2021-03-27T10:41:02Z</time>
      </trkpt>
      <trkpt lat="44.89211" lon="4.59263">
        <ele>575.2</ele>
        <time>2021-03-27T10:41:06Z</time>
      </trkpt>
      <trkpt lat="44.89218" lon="4.59244">
        <ele>575.6</ele>
        <time>2021-03-27T10:41:10Z</time>
      </trkpt>
      <trkpt lat="44.89228" lon="4.59229">
        <ele>577</ele>
        <time>2021-03-27T10:41:14Z</time>
      </trkpt>
      <trkpt lat="44.89241" lon="4.59218">
        <ele>577.2</ele>
        <time>2021-03-27T10:41:18Z</time>
      </trkpt>
      <trkpt lat="44.89255" lon="4.59215">
        <ele>576</ele>
        <time>2021-03-27T10:41:22Z</time>
      </trkpt>
      <trkpt lat="44.8927" lon="4.59215">
        <ele>577.6</ele>
        <time>2021-03-27T10:41:26Z</time>
      </trkpt>
      <trkpt lat="44.89282" lon="4.59217">
        <ele>577.6</ele>
        <time>2021-03-27T10:41:30Z</time>
      </trkpt>
      <trkpt lat="44.89275" lon="4.59215">
        <ele>577.8</ele>
        <time>2021-03-27T10:42:12Z</time>
      </trkpt>
      <trkpt lat="44.89263" lon="4.59213">
        <ele>576.6</ele>
        <time>2021-03-27T10:42:16Z</time>
      </trkpt>
      <trkpt lat="44.89249" lon="4.59213">
        <ele>577.2</ele>
        <time>2021-03-27T10:42:20Z</time>
      </trkpt>
      <trkpt lat="44.89235" lon="4.5922">
        <ele>577.2</ele>
        <time>2021-03-27T10:42:24Z</time>
      </trkpt>
      <trkpt lat="44.89223" lon="4.59233">
        <ele>577.2</ele>
        <time>2021-03-27T10:42:28Z</time>
      </trkpt>
      <trkpt lat="44.89214" lon="4.59251">
        <ele>576.8</ele>
        <time>2021-03-27T10:42:32Z</time>
      </trkpt>
      <trkpt lat="44.89209" lon="4.59271">
        <ele>576.8</ele>
        <time>2021-03-27T10:42:36Z</time>
      </trkpt>
      <trkpt lat="44.89204" lon="4.59289">
        <ele>577</ele>
        <time>2021-03-27T10:42:40Z</time>
      </trkpt>
      <trkpt lat="44.89201" lon="4.59306">
        <ele>578</ele>
        <time>2021-03-27T10:42:44Z</time>
      </trkpt>
      <trkpt lat="44.89195" lon="4.59313">
        <ele>577.8</ele>
        <time>2021-03-27T10:42:48Z</time>
      </trkpt>
      <trkpt lat="44.89191" lon="4.59313">
        <ele>577.4</ele>
        <time>2021-03-27T10:42:52Z</time>
      </trkpt>
      <trkpt lat="44.89188" lon="4.59312">
        <ele>576.8</ele>
        <time>2021-03-27T10:42:56Z</time>
      </trkpt>
      <trkpt lat="44.89182" lon="4.59312">
        <ele>575.6</ele>
        <time>2021-03-27T10:43:00Z</time>
      </trkpt>
      <trkpt lat="44.89175" lon="4.59311">
        <ele>574.6</ele>
        <time>2021-03-27T10:43:04Z</time>
      </trkpt>
      <trkpt lat="44.8917" lon="4.59311">
        <ele>574</ele>
        <time>2021-03-27T10:43:08Z</time>
      </trkpt>
      <trkpt lat="44.89166" lon="4.59313">
        <ele>573.6</ele>
        <time>2021-03-27T10:43:12Z</time>
      </trkpt>
      <trkpt lat="44.89161" lon="4.59317">
        <ele>571.4</ele>
        <time>2021-03-27T10:43:16Z</time>
      </trkpt>
      <trkpt lat="44.89154" lon="4.59327">
        <ele>570</ele>
        <time>2021-03-27T10:43:20Z</time>
      </trkpt>
      <trkpt lat="44.89148" lon="4.59343">
        <ele>567</ele>
        <time>2021-03-27T10:43:24Z</time>
      </trkpt>
      <trkpt lat="44.89143" lon="4.59362">
        <ele>565.2</ele>
        <time>2021-03-27T10:43:28Z</time>
      </trkpt>
      <trkpt lat="44.8914" lon="4.59384">
        <ele>564.6</ele>
        <time>2021-03-27T10:43:32Z</time>
      </trkpt>
      <trkpt lat="44.89147" lon="4.59405">
        <ele>564.6</ele>
        <time>2021-03-27T10:43:36Z</time>
      </trkpt>
      <trkpt lat="44.89157" lon="4.59414">
        <ele>561.2</ele>
        <time>2021-03-27T10:43:40Z</time>
      </trkpt>
      <trkpt lat="44.89147" lon="4.59431">
        <ele>555.6</ele>
        <time>2021-03-27T10:43:44Z</time>
      </trkpt>
      <trkpt lat="44.89131" lon="4.5945">
        <ele>551.8</ele>
        <time>2021-03-27T10:43:48Z</time>
      </trkpt>
      <trkpt lat="44.89113" lon="4.59471">
        <ele>550.2</ele>
        <time>2021-03-27T10:43:52Z</time>
      </trkpt>
      <trkpt lat="44.89094" lon="4.59499">
        <ele>547.4</ele>
        <time>2021-03-27T10:43:56Z</time>
      </trkpt>
      <trkpt lat="44.89076" lon="4.59528">
        <ele>545.6</ele>
        <time>2021-03-27T10:44:00Z</time>
      </trkpt>
      <trkpt lat="44.89066" lon="4.59548">
        <ele>545.6</ele>
        <time>2021-03-27T10:44:04Z</time>
      </trkpt>
      <trkpt lat="44.89055" lon="4.59544">
        <ele>545</ele>
        <time>2021-03-27T10:44:08Z</time>
      </trkpt>
      <trkpt lat="44.89049" lon="4.5954">
        <ele>545.2</ele>
        <time>2021-03-27T10:44:12Z</time>
      </trkpt>
      <trkpt lat="44.89041" lon="4.59534">
        <ele>544.4</ele>
        <time>2021-03-27T10:44:16Z</time>
      </trkpt>
      <trkpt lat="44.8903" lon="4.59525">
        <ele>544</ele>
        <time>2021-03-27T10:44:20Z</time>
      </trkpt>
      <trkpt lat="44.89015" lon="4.59512">
        <ele>541.6</ele>
        <time>2021-03-27T10:44:24Z</time>
      </trkpt>
      <trkpt lat="44.88997" lon="4.59496">
        <ele>544</ele>
        <time>2021-03-27T10:44:28Z</time>
      </trkpt>
      <trkpt lat="44.88984" lon="4.59482">
        <ele>544.4</ele>
        <time>2021-03-27T10:44:32Z</time>
      </trkpt>
      <trkpt lat="44.88977" lon="4.59472">
        <ele>545.4</ele>
        <time>2021-03-27T10:44:36Z</time>
      </trkpt>
      <trkpt lat="44.88973" lon="4.59465">
        <ele>546.2</ele>
        <time>2021-03-27T10:44:40Z</time>
      </trkpt>
      <trkpt lat="44.88971" lon="4.5946">
        <ele>546.8</ele>
        <time>2021-03-27T10:44:44Z</time>
      </trkpt>
      <trkpt lat="44.88967" lon="4.59453">
        <ele>548.2</ele>
        <time>2021-03-27T10:44:48Z</time>
      </trkpt>
      <trkpt lat="44.88963" lon="4.59446">
        <ele>549</ele>
        <time>2021-03-27T10:44:52Z</time>
      </trkpt>
      <trkpt lat="44.88959" lon="4.59439">
        <ele>550</ele>
        <time>2021-03-27T10:44:56Z</time>
      </trkpt>
      <trkpt lat="44.88953" lon="4.59434">
        <ele>550.6</ele>
        <time>2021-03-27T10:45:00Z</time>
      </trkpt>
      <trkpt lat="44.88946" lon="4.59429">
        <ele>551.4</ele>
        <time>2021-03-27T10:45:04Z</time>
      </trkpt>
      <trkpt lat="44.8894" lon="4.59426">
        <ele>552.4</ele>
        <time>2021-03-27T10:45:08Z</time>
      </trkpt>
      <trkpt lat="44.88933" lon="4.59423">
        <ele>552.8</ele>
        <time>2021-03-27T10:45:12Z</time>
      </trkpt>
      <trkpt lat="44.88926" lon="4.59419">
        <ele>553.2</ele>
        <time>2021-03-27T10:45:16Z</time>
      </trkpt>
      <trkpt lat="44.88921" lon="4.59415">
        <ele>554.4</ele>
        <time>2021-03-27T10:45:20Z</time>
      </trkpt>
      <trkpt lat="44.88917" lon="4.5941">
        <ele>553.2</ele>
        <time>2021-03-27T10:45:24Z</time>
      </trkpt>
      <trkpt lat="44.88913" lon="4.59404">
        <ele>553.2</ele>
        <time>2021-03-27T10:45:28Z</time>
      </trkpt>
      <trkpt lat="44.88908" lon="4.59392">
        <ele>551.2</ele>
        <time>2021-03-27T10:45:32Z</time>
      </trkpt>
      <trkpt lat="44.88888" lon="4.59385">
        <ele>551.8</ele>
        <time>2021-03-27T10:45:36Z</time>
      </trkpt>
      <trkpt lat="44.88873" lon="4.59383">
        <ele>553.2</ele>
        <time>2021-03-27T10:45:40Z</time>
      </trkpt>
      <trkpt lat="44.88865" lon="4.5938">
        <ele>554.4</ele>
        <time>2021-03-27T10:45:44Z</time>
      </trkpt>
      <trkpt lat="44.88857" lon="4.59378">
        <ele>555.2</ele>
        <time>2021-03-27T10:45:48Z</time>
      </trkpt>
      <trkpt lat="44.88849" lon="4.59377">
        <ele>555.8</ele>
        <time>2021-03-27T10:45:52Z</time>
      </trkpt>
      <trkpt lat="44.88843" lon="4.59374">
        <ele>556.2</ele>
        <time>2021-03-27T10:45:56Z</time>
      </trkpt>
      <trkpt lat="44.88835" lon="4.59372">
        <ele>557</ele>
        <time>2021-03-27T10:46:00Z</time>
      </trkpt>
      <trkpt lat="44.88828" lon="4.5937">
        <ele>557.4</ele>
        <time>2021-03-27T10:46:04Z</time>
      </trkpt>
      <trkpt lat="44.8882" lon="4.59367">
        <ele>557.8</ele>
        <time>2021-03-27T10:46:08Z</time>
      </trkpt>
      <trkpt lat="44.88813" lon="4.59366">
        <ele>558.2</ele>
        <time>2021-03-27T10:46:12Z</time>
      </trkpt>
      <trkpt lat="44.88808" lon="4.59365">
        <ele>558.4</ele>
        <time>2021-03-27T10:46:16Z</time>
      </trkpt>
      <trkpt lat="44.88803" lon="4.59365">
        <ele>559.6</ele>
        <time>2021-03-27T10:46:20Z</time>
      </trkpt>
      <trkpt lat="44.88799" lon="4.59362">
        <ele>559.8</ele>
        <time>2021-03-27T10:46:24Z</time>
      </trkpt>
      <trkpt lat="44.88789" lon="4.59354">
        <ele>560.4</ele>
        <time>2021-03-27T10:46:28Z</time>
      </trkpt>
      <trkpt lat="44.88783" lon="4.59346">
        <ele>561.4</ele>
        <time>2021-03-27T10:46:32Z</time>
      </trkpt>
      <trkpt lat="44.88777" lon="4.59338">
        <ele>562</ele>
        <time>2021-03-27T10:46:36Z</time>
      </trkpt>
      <trkpt lat="44.88775" lon="4.59332">
        <ele>562.6</ele>
        <time>2021-03-27T10:46:40Z</time>
      </trkpt>
      <trkpt lat="44.88769" lon="4.59325">
        <ele>563.8</ele>
        <time>2021-03-27T10:46:44Z</time>
      </trkpt>
      <trkpt lat="44.88763" lon="4.59317">
        <ele>563.6</ele>
        <time>2021-03-27T10:46:48Z</time>
      </trkpt>
      <trkpt lat="44.88755" lon="4.59306">
        <ele>564.2</ele>
        <time>2021-03-27T10:46:52Z</time>
      </trkpt>
      <trkpt lat="44.8875" lon="4.59296">
        <ele>565</ele>
        <time>2021-03-27T10:46:56Z</time>
      </trkpt>
      <trkpt lat="44.88743" lon="4.59286">
        <ele>565.6</ele>
        <time>2021-03-27T10:47:00Z</time>
      </trkpt>
      <trkpt lat="44.88739" lon="4.59275">
        <ele>566.6</ele>
        <time>2021-03-27T10:47:04Z</time>
      </trkpt>
      <trkpt lat="44.88732" lon="4.59264">
        <ele>567</ele>
        <time>2021-03-27T10:47:08Z</time>
      </trkpt>
      <trkpt lat="44.88724" lon="4.59253">
        <ele>566.8</ele>
        <time>2021-03-27T10:47:12Z</time>
      </trkpt>
      <trkpt lat="44.88716" lon="4.59242">
        <ele>567.4</ele>
        <time>2021-03-27T10:47:16Z</time>
      </trkpt>
      <trkpt lat="44.88709" lon="4.59234">
        <ele>567.4</ele>
        <time>2021-03-27T10:47:20Z</time>
      </trkpt>
      <trkpt lat="44.88698" lon="4.5923">
        <ele>568</ele>
        <time>2021-03-27T10:47:24Z</time>
      </trkpt>
      <trkpt lat="44.8869" lon="4.59227">
        <ele>568.4</ele>
        <time>2021-03-27T10:47:28Z</time>
      </trkpt>
      <trkpt lat="44.8868" lon="4.59224">
        <ele>569.6</ele>
        <time>2021-03-27T10:47:32Z</time>
      </trkpt>
      <trkpt lat="44.88672" lon="4.59223">
        <ele>570.2</ele>
        <time>2021-03-27T10:47:36Z</time>
      </trkpt>
      <trkpt lat="44.88664" lon="4.59221">
        <ele>570</ele>
        <time>2021-03-27T10:47:40Z</time>
      </trkpt>
      <trkpt lat="44.88656" lon="4.59219">
        <ele>570</ele>
        <time>2021-03-27T10:47:44Z</time>
      </trkpt>
      <trkpt lat="44.88647" lon="4.59217">
        <ele>570.8</ele>
        <time>2021-03-27T10:47:48Z</time>
      </trkpt>
      <trkpt lat="44.88637" lon="4.59214">
        <ele>570.8</ele>
        <time>2021-03-27T10:47:52Z</time>
      </trkpt>
      <trkpt lat="44.88626" lon="4.59213">
        <ele>571.2</ele>
        <time>2021-03-27T10:47:56Z</time>
      </trkpt>
      <trkpt lat="44.88616" lon="4.59213">
        <ele>571.8</ele>
        <time>2021-03-27T10:48:00Z</time>
      </trkpt>
      <trkpt lat="44.88613" lon="4.59223">
        <ele>571.4</ele>
        <time>2021-03-27T10:48:04Z</time>
      </trkpt>
      <trkpt lat="44.88618" lon="4.59227">
        <ele>572.2</ele>
        <time>2021-03-27T10:48:08Z</time>
      </trkpt>
      <trkpt lat="44.88624" lon="4.59232">
        <ele>573.6</ele>
        <time>2021-03-27T10:48:12Z</time>
      </trkpt>
      <trkpt lat="44.88629" lon="4.59238">
        <ele>573.8</ele>
        <time>2021-03-27T10:48:16Z</time>
      </trkpt>
      <trkpt lat="44.88634" lon="4.5924">
        <ele>574.8</ele>
        <time>2021-03-27T10:48:20Z</time>
      </trkpt>
      <trkpt lat="44.88639" lon="4.59246">
        <ele>575</ele>
        <time>2021-03-27T10:48:24Z</time>
      </trkpt>
      <trkpt lat="44.88646" lon="4.59253">
        <ele>576</ele>
        <time>2021-03-27T10:48:28Z</time>
      </trkpt>
      <trkpt lat="44.88653" lon="4.59261">
        <ele>576.4</ele>
        <time>2021-03-27T10:48:32Z</time>
      </trkpt>
      <trkpt lat="44.88659" lon="4.59268">
        <ele>576.8</ele>
        <time>2021-03-27T10:48:36Z</time>
      </trkpt>
      <trkpt lat="44.88665" lon="4.59275">
        <ele>577.4</ele>
        <time>2021-03-27T10:48:40Z</time>
      </trkpt>
      <trkpt lat="44.88672" lon="4.59281">
        <ele>578</ele>
        <time>2021-03-27T10:48:44Z</time>
      </trkpt>
      <trkpt lat="44.88677" lon="4.59288">
        <ele>577.8</ele>
        <time>2021-03-27T10:48:48Z</time>
      </trkpt>
      <trkpt lat="44.88682" lon="4.59296">
        <ele>578.2</ele>
        <time>2021-03-27T10:48:52Z</time>
      </trkpt>
      <trkpt lat="44.88687" lon="4.59304">
        <ele>578</ele>
        <time>2021-03-27T10:48:56Z</time>
      </trkpt>
      <trkpt lat="44.88693" lon="4.59313">
        <ele>577.8</ele>
        <time>2021-03-27T10:49:00Z</time>
      </trkpt>
      <trkpt lat="44.88699" lon="4.59326">
        <ele>575.8</ele>
        <time>2021-03-27T10:49:04Z</time>
      </trkpt>
      <trkpt lat="44.88706" lon="4.5934">
        <ele>575.4</ele>
        <time>2021-03-27T10:49:08Z</time>
      </trkpt>
      <trkpt lat="44.88712" lon="4.59357">
        <ele>574.6</ele>
        <time>2021-03-27T10:49:12Z</time>
      </trkpt>
      <trkpt lat="44.88717" lon="4.59376">
        <ele>574.2</ele>
        <time>2021-03-27T10:49:16Z</time>
      </trkpt>
      <trkpt lat="44.88721" lon="4.59399">
        <ele>572.8</ele>
        <time>2021-03-27T10:49:20Z</time>
      </trkpt>
      <trkpt lat="44.88723" lon="4.59423">
        <ele>573.6</ele>
        <time>2021-03-27T10:49:24Z</time>
      </trkpt>
      <trkpt lat="44.88726" lon="4.59448">
        <ele>571.6</ele>
        <time>2021-03-27T10:49:28Z</time>
      </trkpt>
      <trkpt lat="44.8873" lon="4.59473">
        <ele>571.6</ele>
        <time>2021-03-27T10:49:32Z</time>
      </trkpt>
      <trkpt lat="44.88736" lon="4.59496">
        <ele>571</ele>
        <time>2021-03-27T10:49:36Z</time>
      </trkpt>
      <trkpt lat="44.88744" lon="4.59514">
        <ele>573.6</ele>
        <time>2021-03-27T10:49:40Z</time>
      </trkpt>
      <trkpt lat="44.88754" lon="4.59526">
        <ele>573.8</ele>
        <time>2021-03-27T10:49:44Z</time>
      </trkpt>
      <trkpt lat="44.88764" lon="4.59535">
        <ele>574.2</ele>
        <time>2021-03-27T10:49:48Z</time>
      </trkpt>
      <trkpt lat="44.88775" lon="4.5954">
        <ele>573.6</ele>
        <time>2021-03-27T10:49:52Z</time>
      </trkpt>
      <trkpt lat="44.88785" lon="4.59546">
        <ele>574.4</ele>
        <time>2021-03-27T10:49:56Z</time>
      </trkpt>
      <trkpt lat="44.88794" lon="4.59553">
        <ele>575.6</ele>
        <time>2021-03-27T10:50:00Z</time>
      </trkpt>
      <trkpt lat="44.88802" lon="4.59561">
        <ele>576.8</ele>
        <time>2021-03-27T10:50:04Z</time>
      </trkpt>
      <trkpt lat="44.88809" lon="4.59569">
        <ele>576.8</ele>
        <time>2021-03-27T10:50:08Z</time>
      </trkpt>
      <trkpt lat="44.88813" lon="4.5958">
        <ele>578</ele>
        <time>2021-03-27T10:50:12Z</time>
      </trkpt>
      <trkpt lat="44.88815" lon="4.59591">
        <ele>578.6</ele>
        <time>2021-03-27T10:50:16Z</time>
      </trkpt>
      <trkpt lat="44.88815" lon="4.59604">
        <ele>578.4</ele>
        <time>2021-03-27T10:50:20Z</time>
      </trkpt>
      <trkpt lat="44.88816" lon="4.59618">
        <ele>579</ele>
        <time>2021-03-27T10:50:24Z</time>
      </trkpt>
      <trkpt lat="44.88818" lon="4.59635">
        <ele>579</ele>
        <time>2021-03-27T10:50:28Z</time>
      </trkpt>
      <trkpt lat="44.8882" lon="4.59651">
        <ele>580</ele>
        <time>2021-03-27T10:50:32Z</time>
      </trkpt>
      <trkpt lat="44.88822" lon="4.59664">
        <ele>580.6</ele>
        <time>2021-03-27T10:50:36Z</time>
      </trkpt>
      <trkpt lat="44.88824" lon="4.59676">
        <ele>579.6</ele>
        <time>2021-03-27T10:50:40Z</time>
      </trkpt>
      <trkpt lat="44.88826" lon="4.59688">
        <ele>581.6</ele>
        <time>2021-03-27T10:50:44Z</time>
      </trkpt>
      <trkpt lat="44.88828" lon="4.59701">
        <ele>580.6</ele>
        <time>2021-03-27T10:50:48Z</time>
      </trkpt>
      <trkpt lat="44.88829" lon="4.59715">
        <ele>580.6</ele>
        <time>2021-03-27T10:50:52Z</time>
      </trkpt>
      <trkpt lat="44.88831" lon="4.59731">
        <ele>580.8</ele>
        <time>2021-03-27T10:50:56Z</time>
      </trkpt>
      <trkpt lat="44.88832" lon="4.59749">
        <ele>579.4</ele>
        <time>2021-03-27T10:51:00Z</time>
      </trkpt>
      <trkpt lat="44.88831" lon="4.59769">
        <ele>577.6</ele>
        <time>2021-03-27T10:51:04Z</time>
      </trkpt>
      <trkpt lat="44.88828" lon="4.59788">
        <ele>578</ele>
        <time>2021-03-27T10:51:08Z</time>
      </trkpt>
      <trkpt lat="44.88825" lon="4.59808">
        <ele>577.2</ele>
        <time>2021-03-27T10:51:12Z</time>
      </trkpt>
      <trkpt lat="44.8882" lon="4.59831">
        <ele>576</ele>
        <time>2021-03-27T10:51:16Z</time>
      </trkpt>
      <trkpt lat="44.88812" lon="4.59854">
        <ele>575.2</ele>
        <time>2021-03-27T10:51:20Z</time>
      </trkpt>
      <trkpt lat="44.88802" lon="4.59871">
        <ele>574.4</ele>
        <time>2021-03-27T10:51:24Z</time>
      </trkpt>
      <trkpt lat="44.88791" lon="4.59888">
        <ele>572.2</ele>
        <time>2021-03-27T10:51:28Z</time>
      </trkpt>
      <trkpt lat="44.88782" lon="4.5991">
        <ele>575</ele>
        <time>2021-03-27T10:51:32Z</time>
      </trkpt>
      <trkpt lat="44.88776" lon="4.59925">
        <ele>575.6</ele>
        <time>2021-03-27T10:51:36Z</time>
      </trkpt>
      <trkpt lat="44.88772" lon="4.59939">
        <ele>575</ele>
        <time>2021-03-27T10:51:40Z</time>
      </trkpt>
      <trkpt lat="44.88767" lon="4.59954">
        <ele>576.6</ele>
        <time>2021-03-27T10:51:44Z</time>
      </trkpt>
      <trkpt lat="44.88759" lon="4.59969">
        <ele>576</ele>
        <time>2021-03-27T10:51:48Z</time>
      </trkpt>
      <trkpt lat="44.88751" lon="4.59989">
        <ele>577</ele>
        <time>2021-03-27T10:51:52Z</time>
      </trkpt>
      <trkpt lat="44.88745" lon="4.60007">
        <ele>576.2</ele>
        <time>2021-03-27T10:51:56Z</time>
      </trkpt>
      <trkpt lat="44.88747" lon="4.60045">
        <ele>576.2</ele>
        <time>2021-03-27T10:52:00Z</time>
      </trkpt>
      <trkpt lat="44.88749" lon="4.60068">
        <ele>577.8</ele>
        <time>2021-03-27T10:52:04Z</time>
      </trkpt>
      <trkpt lat="44.8875" lon="4.60084">
        <ele>580</ele>
        <time>2021-03-27T10:52:08Z</time>
      </trkpt>
      <trkpt lat="44.88752" lon="4.60103">
        <ele>579.6</ele>
        <time>2021-03-27T10:52:12Z</time>
      </trkpt>
      <trkpt lat="44.88754" lon="4.6012">
        <ele>578.4</ele>
        <time>2021-03-27T10:52:16Z</time>
      </trkpt>
      <trkpt lat="44.88756" lon="4.60136">
        <ele>580</ele>
        <time>2021-03-27T10:52:20Z</time>
      </trkpt>
      <trkpt lat="44.88757" lon="4.60149">
        <ele>580.2</ele>
        <time>2021-03-27T10:52:24Z</time>
      </trkpt>
      <trkpt lat="44.88757" lon="4.60159">
        <ele>581.6</ele>
        <time>2021-03-27T10:52:28Z</time>
      </trkpt>
      <trkpt lat="44.88757" lon="4.60165">
        <ele>582.2</ele>
        <time>2021-03-27T10:52:32Z</time>
      </trkpt>
      <trkpt lat="44.88759" lon="4.60174">
        <ele>583.6</ele>
        <time>2021-03-27T10:52:36Z</time>
      </trkpt>
      <trkpt lat="44.88759" lon="4.60182">
        <ele>584.4</ele>
        <time>2021-03-27T10:52:40Z</time>
      </trkpt>
      <trkpt lat="44.88761" lon="4.60192">
        <ele>585.2</ele>
        <time>2021-03-27T10:52:44Z</time>
      </trkpt>
      <trkpt lat="44.88762" lon="4.60202">
        <ele>585.2</ele>
        <time>2021-03-27T10:52:48Z</time>
      </trkpt>
      <trkpt lat="44.88762" lon="4.60212">
        <ele>586.6</ele>
        <time>2021-03-27T10:52:52Z</time>
      </trkpt>
      <trkpt lat="44.88761" lon="4.60219">
        <ele>587.2</ele>
        <time>2021-03-27T10:52:56Z</time>
      </trkpt>
      <trkpt lat="44.88762" lon="4.60229">
        <ele>587.6</ele>
        <time>2021-03-27T10:53:00Z</time>
      </trkpt>
      <trkpt lat="44.88762" lon="4.60239">
        <ele>588.2</ele>
        <time>2021-03-27T10:53:04Z</time>
      </trkpt>
      <trkpt lat="44.88764" lon="4.60248">
        <ele>588.4</ele>
        <time>2021-03-27T10:53:08Z</time>
      </trkpt>
      <trkpt lat="44.88763" lon="4.60258">
        <ele>588.6</ele>
        <time>2021-03-27T10:53:12Z</time>
      </trkpt>
      <trkpt lat="44.88759" lon="4.60267">
        <ele>589.2</ele>
        <time>2021-03-27T10:53:16Z</time>
      </trkpt>
      <trkpt lat="44.88755" lon="4.60276">
        <ele>589.4</ele>
        <time>2021-03-27T10:53:20Z</time>
      </trkpt>
      <trkpt lat="44.88749" lon="4.60284">
        <ele>589.6</ele>
        <time>2021-03-27T10:53:24Z</time>
      </trkpt>
      <trkpt lat="44.88741" lon="4.60293">
        <ele>589.8</ele>
        <time>2021-03-27T10:53:28Z</time>
      </trkpt>
      <trkpt lat="44.88733" lon="4.60298">
        <ele>590.6</ele>
        <time>2021-03-27T10:53:32Z</time>
      </trkpt>
      <trkpt lat="44.88729" lon="4.60308">
        <ele>590</ele>
        <time>2021-03-27T10:53:36Z</time>
      </trkpt>
      <trkpt lat="44.8872" lon="4.60317">
        <ele>589.4</ele>
        <time>2021-03-27T10:53:40Z</time>
      </trkpt>
      <trkpt lat="44.88708" lon="4.60326">
        <ele>589.4</ele>
        <time>2021-03-27T10:53:44Z</time>
      </trkpt>
      <trkpt lat="44.88698" lon="4.60337">
        <ele>589.6</ele>
        <time>2021-03-27T10:53:48Z</time>
      </trkpt>
      <trkpt lat="44.88687" lon="4.6035">
        <ele>590.4</ele>
        <time>2021-03-27T10:53:52Z</time>
      </trkpt>
      <trkpt lat="44.88676" lon="4.6037">
        <ele>589</ele>
        <time>2021-03-27T10:53:56Z</time>
      </trkpt>
      <trkpt lat="44.88669" lon="4.60389">
        <ele>589.6</ele>
        <time>2021-03-27T10:54:00Z</time>
      </trkpt>
      <trkpt lat="44.88659" lon="4.60402">
        <ele>589</ele>
        <time>2021-03-27T10:54:04Z</time>
      </trkpt>
      <trkpt lat="44.88649" lon="4.60423">
        <ele>587.2</ele>
        <time>2021-03-27T10:54:08Z</time>
      </trkpt>
      <trkpt lat="44.88642" lon="4.60448">
        <ele>588</ele>
        <time>2021-03-27T10:54:12Z</time>
      </trkpt>
      <trkpt lat="44.88637" lon="4.60466">
        <ele>588.4</ele>
        <time>2021-03-27T10:54:16Z</time>
      </trkpt>
      <trkpt lat="44.88631" lon="4.60484">
        <ele>589.2</ele>
        <time>2021-03-27T10:54:20Z</time>
      </trkpt>
      <trkpt lat="44.88626" lon="4.60496">
        <ele>588.8</ele>
        <time>2021-03-27T10:54:24Z</time>
      </trkpt>
      <trkpt lat="44.88623" lon="4.60509">
        <ele>589.8</ele>
        <time>2021-03-27T10:54:28Z</time>
      </trkpt>
      <trkpt lat="44.88618" lon="4.60518">
        <ele>589.4</ele>
        <time>2021-03-27T10:54:32Z</time>
      </trkpt>
      <trkpt lat="44.88607" lon="4.60529">
        <ele>589.6</ele>
        <time>2021-03-27T10:54:36Z</time>
      </trkpt>
      <trkpt lat="44.88592" lon="4.60541">
        <ele>589.4</ele>
        <time>2021-03-27T10:54:40Z</time>
      </trkpt>
      <trkpt lat="44.88579" lon="4.60551">
        <ele>589.4</ele>
        <time>2021-03-27T10:54:44Z</time>
      </trkpt>
      <trkpt lat="44.88569" lon="4.60567">
        <ele>590.2</ele>
        <time>2021-03-27T10:54:48Z</time>
      </trkpt>
      <trkpt lat="44.88561" lon="4.60587">
        <ele>590</ele>
        <time>2021-03-27T10:54:52Z</time>
      </trkpt>
      <trkpt lat="44.88556" lon="4.60611">
        <ele>589.8</ele>
        <time>2021-03-27T10:54:56Z</time>
      </trkpt>
      <trkpt lat="44.88554" lon="4.60638">
        <ele>588.8</ele>
        <time>2021-03-27T10:55:00Z</time>
      </trkpt>
      <trkpt lat="44.8855" lon="4.60663">
        <ele>587.6</ele>
        <time>2021-03-27T10:55:04Z</time>
      </trkpt>
      <trkpt lat="44.88547" lon="4.60686">
        <ele>587.4</ele>
        <time>2021-03-27T10:55:08Z</time>
      </trkpt>
      <trkpt lat="44.88544" lon="4.60707">
        <ele>588.6</ele>
        <time>2021-03-27T10:55:12Z</time>
      </trkpt>
      <trkpt lat="44.88542" lon="4.60726">
        <ele>589.2</ele>
        <time>2021-03-27T10:55:16Z</time>
      </trkpt>
      <trkpt lat="44.88539" lon="4.60746">
        <ele>589.2</ele>
        <time>2021-03-27T10:55:20Z</time>
      </trkpt>
      <trkpt lat="44.88535" lon="4.60767">
        <ele>590.2</ele>
        <time>2021-03-27T10:55:24Z</time>
      </trkpt>
      <trkpt lat="44.88526" lon="4.60785">
        <ele>590.4</ele>
        <time>2021-03-27T10:55:28Z</time>
      </trkpt>
      <trkpt lat="44.8851" lon="4.60792">
        <ele>590.2</ele>
        <time>2021-03-27T10:55:32Z</time>
      </trkpt>
      <trkpt lat="44.88493" lon="4.6079">
        <ele>590</ele>
        <time>2021-03-27T10:55:36Z</time>
      </trkpt>
      <trkpt lat="44.8848" lon="4.60779">
        <ele>589.8</ele>
        <time>2021-03-27T10:55:40Z</time>
      </trkpt>
      <trkpt lat="44.88467" lon="4.60764">
        <ele>589.8</ele>
        <time>2021-03-27T10:55:44Z</time>
      </trkpt>
      <trkpt lat="44.88451" lon="4.60754">
        <ele>590.4</ele>
        <time>2021-03-27T10:55:48Z</time>
      </trkpt>
      <trkpt lat="44.88436" lon="4.60747">
        <ele>590.4</ele>
        <time>2021-03-27T10:55:52Z</time>
      </trkpt>
      <trkpt lat="44.88423" lon="4.60738">
        <ele>590</ele>
        <time>2021-03-27T10:55:56Z</time>
      </trkpt>
      <trkpt lat="44.88412" lon="4.60724">
        <ele>590.6</ele>
        <time>2021-03-27T10:56:00Z</time>
      </trkpt>
      <trkpt lat="44.88404" lon="4.60708">
        <ele>590.4</ele>
        <time>2021-03-27T10:56:04Z</time>
      </trkpt>
      <trkpt lat="44.88396" lon="4.60692">
        <ele>590.4</ele>
        <time>2021-03-27T10:56:08Z</time>
      </trkpt>
      <trkpt lat="44.8839" lon="4.60675">
        <ele>590.2</ele>
        <time>2021-03-27T10:56:12Z</time>
      </trkpt>
      <trkpt lat="44.88386" lon="4.60656">
        <ele>589.4</ele>
        <time>2021-03-27T10:56:16Z</time>
      </trkpt>
      <trkpt lat="44.88384" lon="4.60637">
        <ele>590.2</ele>
        <time>2021-03-27T10:56:20Z</time>
      </trkpt>
      <trkpt lat="44.88375" lon="4.60618">
        <ele>590</ele>
        <time>2021-03-27T10:56:24Z</time>
      </trkpt>
      <trkpt lat="44.88363" lon="4.60604">
        <ele>589.8</ele>
        <time>2021-03-27T10:56:28Z</time>
      </trkpt>
      <trkpt lat="44.88344" lon="4.60599">
        <ele>587.8</ele>
        <time>2021-03-27T10:56:32Z</time>
      </trkpt>
      <trkpt lat="44.88326" lon="4.6061">
        <ele>586.4</ele>
        <time>2021-03-27T10:56:36Z</time>
      </trkpt>
      <trkpt lat="44.88307" lon="4.60625">
        <ele>584.4</ele>
        <time>2021-03-27T10:56:40Z</time>
      </trkpt>
      <trkpt lat="44.88287" lon="4.60642">
        <ele>583</ele>
        <time>2021-03-27T10:56:44Z</time>
      </trkpt>
      <trkpt lat="44.88264" lon="4.60659">
        <ele>580.4</ele>
        <time>2021-03-27T10:56:48Z</time>
      </trkpt>
      <trkpt lat="44.88243" lon="4.60674">
        <ele>582.2</ele>
        <time>2021-03-27T10:56:52Z</time>
      </trkpt>
      <trkpt lat="44.88227" lon="4.60678">
        <ele>581.4</ele>
        <time>2021-03-27T10:56:56Z</time>
      </trkpt>
      <trkpt lat="44.88218" lon="4.60677">
        <ele>580.4</ele>
        <time>2021-03-27T10:57:00Z</time>
      </trkpt>
      <trkpt lat="44.8821" lon="4.60676">
        <ele>580.8</ele>
        <time>2021-03-27T10:57:04Z</time>
      </trkpt>
      <trkpt lat="44.88199" lon="4.60672">
        <ele>581.6</ele>
        <time>2021-03-27T10:57:08Z</time>
      </trkpt>
      <trkpt lat="44.88187" lon="4.60667">
        <ele>582</ele>
        <time>2021-03-27T10:57:12Z</time>
      </trkpt>
      <trkpt lat="44.88177" lon="4.60664">
        <ele>582.4</ele>
        <time>2021-03-27T10:57:16Z</time>
      </trkpt>
      <trkpt lat="44.88171" lon="4.60664">
        <ele>582.6</ele>
        <time>2021-03-27T10:57:20Z</time>
      </trkpt>
      <trkpt lat="44.88166" lon="4.60663">
        <ele>582.2</ele>
        <time>2021-03-27T10:57:24Z</time>
      </trkpt>
      <trkpt lat="44.88157" lon="4.60667">
        <ele>581.6</ele>
        <time>2021-03-27T10:57:28Z</time>
      </trkpt>
      <trkpt lat="44.88145" lon="4.6067">
        <ele>580.6</ele>
        <time>2021-03-27T10:57:32Z</time>
      </trkpt>
      <trkpt lat="44.88129" lon="4.60662">
        <ele>578.8</ele>
        <time>2021-03-27T10:57:36Z</time>
      </trkpt>
      <trkpt lat="44.88116" lon="4.60643">
        <ele>579.4</ele>
        <time>2021-03-27T10:57:40Z</time>
      </trkpt>
      <trkpt lat="44.88108" lon="4.60632">
        <ele>579.4</ele>
        <time>2021-03-27T10:57:44Z</time>
      </trkpt>
      <trkpt lat="44.881" lon="4.6063">
        <ele>578.2</ele>
        <time>2021-03-27T10:57:48Z</time>
      </trkpt>
      <trkpt lat="44.8809" lon="4.60626">
        <ele>577.8</ele>
        <time>2021-03-27T10:57:52Z</time>
      </trkpt>
      <trkpt lat="44.88081" lon="4.60625">
        <ele>575.4</ele>
        <time>2021-03-27T10:57:56Z</time>
      </trkpt>
      <trkpt lat="44.88069" lon="4.60623">
        <ele>574.6</ele>
        <time>2021-03-27T10:58:00Z</time>
      </trkpt>
      <trkpt lat="44.88058" lon="4.60621">
        <ele>573</ele>
        <time>2021-03-27T10:58:04Z</time>
      </trkpt>
      <trkpt lat="44.88048" lon="4.60618">
        <ele>571.8</ele>
        <time>2021-03-27T10:58:08Z</time>
      </trkpt>
      <trkpt lat="44.88049" lon="4.60593">
        <ele>575.8</ele>
        <time>2021-03-27T11:39:29Z</time>
      </trkpt>
      <trkpt lat="44.88055" lon="4.606">
        <ele>576.6</ele>
        <time>2021-03-27T11:39:33Z</time>
      </trkpt>
      <trkpt lat="44.88061" lon="4.60608">
        <ele>575.6</ele>
        <time>2021-03-27T11:39:37Z</time>
      </trkpt>
      <trkpt lat="44.88064" lon="4.6062">
        <ele>575.8</ele>
        <time>2021-03-27T11:39:41Z</time>
      </trkpt>
      <trkpt lat="44.88069" lon="4.60626">
        <ele>576.4</ele>
        <time>2021-03-27T11:39:45Z</time>
      </trkpt>
      <trkpt lat="44.88076" lon="4.60624">
        <ele>576.8</ele>
        <time>2021-03-27T11:39:49Z</time>
      </trkpt>
      <trkpt lat="44.88083" lon="4.60625">
        <ele>578</ele>
        <time>2021-03-27T11:39:53Z</time>
      </trkpt>
      <trkpt lat="44.8809" lon="4.60628">
        <ele>579.2</ele>
        <time>2021-03-27T11:39:57Z</time>
      </trkpt>
      <trkpt lat="44.88096" lon="4.60632">
        <ele>579.4</ele>
        <time>2021-03-27T11:40:01Z</time>
      </trkpt>
      <trkpt lat="44.88103" lon="4.60635">
        <ele>580.4</ele>
        <time>2021-03-27T11:40:05Z</time>
      </trkpt>
      <trkpt lat="44.88109" lon="4.60641">
        <ele>579.8</ele>
        <time>2021-03-27T11:40:09Z</time>
      </trkpt>
      <trkpt lat="44.88115" lon="4.60651">
        <ele>580</ele>
        <time>2021-03-27T11:40:13Z</time>
      </trkpt>
      <trkpt lat="44.88122" lon="4.60661">
        <ele>580.8</ele>
        <time>2021-03-27T11:40:17Z</time>
      </trkpt>
      <trkpt lat="44.8813" lon="4.60669">
        <ele>580</ele>
        <time>2021-03-27T11:40:21Z</time>
      </trkpt>
      <trkpt lat="44.88139" lon="4.60672">
        <ele>581.8</ele>
        <time>2021-03-27T11:40:25Z</time>
      </trkpt>
      <trkpt lat="44.88148" lon="4.60673">
        <ele>582.6</ele>
        <time>2021-03-27T11:40:29Z</time>
      </trkpt>
      <trkpt lat="44.88157" lon="4.6067">
        <ele>582.8</ele>
        <time>2021-03-27T11:40:33Z</time>
      </trkpt>
      <trkpt lat="44.88165" lon="4.6067">
        <ele>583</ele>
        <time>2021-03-27T11:40:37Z</time>
      </trkpt>
      <trkpt lat="44.88171" lon="4.60661">
        <ele>583.4</ele>
        <time>2021-03-27T11:40:41Z</time>
      </trkpt>
      <trkpt lat="44.88168" lon="4.60648">
        <ele>584.6</ele>
        <time>2021-03-27T11:40:45Z</time>
      </trkpt>
      <trkpt lat="44.88163" lon="4.60636">
        <ele>585</ele>
        <time>2021-03-27T11:40:49Z</time>
      </trkpt>
      <trkpt lat="44.88158" lon="4.60624">
        <ele>585.8</ele>
        <time>2021-03-27T11:40:53Z</time>
      </trkpt>
      <trkpt lat="44.88155" lon="4.60611">
        <ele>586.6</ele>
        <time>2021-03-27T11:40:57Z</time>
      </trkpt>
      <trkpt lat="44.88153" lon="4.60599">
        <ele>587.8</ele>
        <time>2021-03-27T11:41:01Z</time>
      </trkpt>
      <trkpt lat="44.8815" lon="4.60586">
        <ele>587.8</ele>
        <time>2021-03-27T11:41:05Z</time>
      </trkpt>
      <trkpt lat="44.88148" lon="4.60573">
        <ele>588.2</ele>
        <time>2021-03-27T11:41:09Z</time>
      </trkpt>
      <trkpt lat="44.88146" lon="4.6056">
        <ele>589.4</ele>
        <time>2021-03-27T11:41:13Z</time>
      </trkpt>
      <trkpt lat="44.88143" lon="4.60546">
        <ele>589.8</ele>
        <time>2021-03-27T11:41:17Z</time>
      </trkpt>
      <trkpt lat="44.88142" lon="4.60532">
        <ele>590.2</ele>
        <time>2021-03-27T11:41:21Z</time>
      </trkpt>
      <trkpt lat="44.88141" lon="4.60519">
        <ele>591</ele>
        <time>2021-03-27T11:41:25Z</time>
      </trkpt>
      <trkpt lat="44.88139" lon="4.60505">
        <ele>591.4</ele>
        <time>2021-03-27T11:41:29Z</time>
      </trkpt>
      <trkpt lat="44.88137" lon="4.60491">
        <ele>592.2</ele>
        <time>2021-03-27T11:41:33Z</time>
      </trkpt>
      <trkpt lat="44.88135" lon="4.60477">
        <ele>592</ele>
        <time>2021-03-27T11:41:37Z</time>
      </trkpt>
      <trkpt lat="44.88133" lon="4.60463">
        <ele>592.8</ele>
        <time>2021-03-27T11:41:41Z</time>
      </trkpt>
      <trkpt lat="44.8813" lon="4.6045">
        <ele>593.8</ele>
        <time>2021-03-27T11:41:45Z</time>
      </trkpt>
      <trkpt lat="44.88128" lon="4.60435">
        <ele>594.2</ele>
        <time>2021-03-27T11:41:49Z</time>
      </trkpt>
      <trkpt lat="44.88126" lon="4.6042">
        <ele>594</ele>
        <time>2021-03-27T11:41:53Z</time>
      </trkpt>
      <trkpt lat="44.88124" lon="4.60405">
        <ele>595.4</ele>
        <time>2021-03-27T11:41:57Z</time>
      </trkpt>
      <trkpt lat="44.88124" lon="4.6039">
        <ele>596.2</ele>
        <time>2021-03-27T11:42:01Z</time>
      </trkpt>
      <trkpt lat="44.88125" lon="4.60376">
        <ele>596.6</ele>
        <time>2021-03-27T11:42:05Z</time>
      </trkpt>
      <trkpt lat="44.88126" lon="4.60362">
        <ele>597.6</ele>
        <time>2021-03-27T11:42:09Z</time>
      </trkpt>
      <trkpt lat="44.88128" lon="4.60349">
        <ele>597.6</ele>
        <time>2021-03-27T11:42:13Z</time>
      </trkpt>
      <trkpt lat="44.88131" lon="4.60336">
        <ele>598.8</ele>
        <time>2021-03-27T11:42:17Z</time>
      </trkpt>
      <trkpt lat="44.88134" lon="4.60324">
        <ele>599.6</ele>
        <time>2021-03-27T11:42:21Z</time>
      </trkpt>
      <trkpt lat="44.88137" lon="4.60313">
        <ele>600</ele>
        <time>2021-03-27T11:42:25Z</time>
      </trkpt>
      <trkpt lat="44.8814" lon="4.60302">
        <ele>600.6</ele>
        <time>2021-03-27T11:42:29Z</time>
      </trkpt>
      <trkpt lat="44.88141" lon="4.60289">
        <ele>601.4</ele>
        <time>2021-03-27T11:42:33Z</time>
      </trkpt>
      <trkpt lat="44.88144" lon="4.60278">
        <ele>601.8</ele>
        <time>2021-03-27T11:42:37Z</time>
      </trkpt>
      <trkpt lat="44.88146" lon="4.60267">
        <ele>601.8</ele>
        <time>2021-03-27T11:42:41Z</time>
      </trkpt>
      <trkpt lat="44.88151" lon="4.60254">
        <ele>602.6</ele>
        <time>2021-03-27T11:42:45Z</time>
      </trkpt>
      <trkpt lat="44.88151" lon="4.60242">
        <ele>603.4</ele>
        <time>2021-03-27T11:42:49Z</time>
      </trkpt>
      <trkpt lat="44.88153" lon="4.60227">
        <ele>604</ele>
        <time>2021-03-27T11:42:53Z</time>
      </trkpt>
      <trkpt lat="44.88153" lon="4.60211">
        <ele>605.2</ele>
        <time>2021-03-27T11:42:57Z</time>
      </trkpt>
      <trkpt lat="44.88152" lon="4.60195">
        <ele>606</ele>
        <time>2021-03-27T11:43:01Z</time>
      </trkpt>
      <trkpt lat="44.88154" lon="4.60181">
        <ele>606</ele>
        <time>2021-03-27T11:43:05Z</time>
      </trkpt>
      <trkpt lat="44.88152" lon="4.60164">
        <ele>606.4</ele>
        <time>2021-03-27T11:43:09Z</time>
      </trkpt>
      <trkpt lat="44.8815" lon="4.60147">
        <ele>606.4</ele>
        <time>2021-03-27T11:43:13Z</time>
      </trkpt>
      <trkpt lat="44.88146" lon="4.60128">
        <ele>607.2</ele>
        <time>2021-03-27T11:43:17Z</time>
      </trkpt>
      <trkpt lat="44.88143" lon="4.60112">
        <ele>607.6</ele>
        <time>2021-03-27T11:43:21Z</time>
      </trkpt>
      <trkpt lat="44.88139" lon="4.60097">
        <ele>608</ele>
        <time>2021-03-27T11:43:25Z</time>
      </trkpt>
      <trkpt lat="44.88135" lon="4.60082">
        <ele>608.4</ele>
        <time>2021-03-27T11:43:29Z</time>
      </trkpt>
      <trkpt lat="44.8813" lon="4.60068">
        <ele>608.8</ele>
        <time>2021-03-27T11:43:33Z</time>
      </trkpt>
      <trkpt lat="44.88124" lon="4.60055">
        <ele>608.8</ele>
        <time>2021-03-27T11:43:37Z</time>
      </trkpt>
      <trkpt lat="44.88115" lon="4.60044">
        <ele>610.2</ele>
        <time>2021-03-27T11:43:41Z</time>
      </trkpt>
      <trkpt lat="44.88107" lon="4.60035">
        <ele>610.8</ele>
        <time>2021-03-27T11:43:45Z</time>
      </trkpt>
      <trkpt lat="44.88098" lon="4.60027">
        <ele>611</ele>
        <time>2021-03-27T11:43:49Z</time>
      </trkpt>
      <trkpt lat="44.88088" lon="4.60022">
        <ele>611.6</ele>
        <time>2021-03-27T11:43:53Z</time>
      </trkpt>
      <trkpt lat="44.88078" lon="4.60018">
        <ele>612</ele>
        <time>2021-03-27T11:43:57Z</time>
      </trkpt>
      <trkpt lat="44.88068" lon="4.60014">
        <ele>613.2</ele>
        <time>2021-03-27T11:44:01Z</time>
      </trkpt>
      <trkpt lat="44.88059" lon="4.60011">
        <ele>614</ele>
        <time>2021-03-27T11:44:05Z</time>
      </trkpt>
      <trkpt lat="44.88049" lon="4.60007">
        <ele>614</ele>
        <time>2021-03-27T11:44:09Z</time>
      </trkpt>
      <trkpt lat="44.88039" lon="4.60001">
        <ele>614.2</ele>
        <time>2021-03-27T11:44:13Z</time>
      </trkpt>
      <trkpt lat="44.8803" lon="4.59995">
        <ele>615.4</ele>
        <time>2021-03-27T11:44:17Z</time>
      </trkpt>
      <trkpt lat="44.88023" lon="4.59986">
        <ele>616</ele>
        <time>2021-03-27T11:44:21Z</time>
      </trkpt>
      <trkpt lat="44.88018" lon="4.59977">
        <ele>616.8</ele>
        <time>2021-03-27T11:44:25Z</time>
      </trkpt>
      <trkpt lat="44.88015" lon="4.59968">
        <ele>617.8</ele>
        <time>2021-03-27T11:44:29Z</time>
      </trkpt>
      <trkpt lat="44.88011" lon="4.59956">
        <ele>618.2</ele>
        <time>2021-03-27T11:44:33Z</time>
      </trkpt>
      <trkpt lat="44.88008" lon="4.59945">
        <ele>618.8</ele>
        <time>2021-03-27T11:44:37Z</time>
      </trkpt>
      <trkpt lat="44.88003" lon="4.59934">
        <ele>619.2</ele>
        <time>2021-03-27T11:44:41Z</time>
      </trkpt>
      <trkpt lat="44.87997" lon="4.59924">
        <ele>619.8</ele>
        <time>2021-03-27T11:44:45Z</time>
      </trkpt>
      <trkpt lat="44.87992" lon="4.59912">
        <ele>620.2</ele>
        <time>2021-03-27T11:44:49Z</time>
      </trkpt>
      <trkpt lat="44.87987" lon="4.59899">
        <ele>620.4</ele>
        <time>2021-03-27T11:44:53Z</time>
      </trkpt>
      <trkpt lat="44.87981" lon="4.59886">
        <ele>621.8</ele>
        <time>2021-03-27T11:44:57Z</time>
      </trkpt>
      <trkpt lat="44.87977" lon="4.59872">
        <ele>621.6</ele>
        <time>2021-03-27T11:45:01Z</time>
      </trkpt>
      <trkpt lat="44.87972" lon="4.5986">
        <ele>622.2</ele>
        <time>2021-03-27T11:45:05Z</time>
      </trkpt>
      <trkpt lat="44.87967" lon="4.59846">
        <ele>623</ele>
        <time>2021-03-27T11:45:09Z</time>
      </trkpt>
      <trkpt lat="44.87962" lon="4.59835">
        <ele>623.2</ele>
        <time>2021-03-27T11:45:13Z</time>
      </trkpt>
      <trkpt lat="44.87957" lon="4.59822">
        <ele>623.8</ele>
        <time>2021-03-27T11:45:17Z</time>
      </trkpt>
      <trkpt lat="44.87953" lon="4.59811">
        <ele>624.4</ele>
        <time>2021-03-27T11:45:21Z</time>
      </trkpt>
      <trkpt lat="44.87952" lon="4.59797">
        <ele>625</ele>
        <time>2021-03-27T11:45:25Z</time>
      </trkpt>
      <trkpt lat="44.8795" lon="4.59783">
        <ele>625.2</ele>
        <time>2021-03-27T11:45:29Z</time>
      </trkpt>
      <trkpt lat="44.87951" lon="4.59772">
        <ele>626.4</ele>
        <time>2021-03-27T11:45:33Z</time>
      </trkpt>
      <trkpt lat="44.87951" lon="4.59757">
        <ele>627</ele>
        <time>2021-03-27T11:45:37Z</time>
      </trkpt>
      <trkpt lat="44.8795" lon="4.59744">
        <ele>627.8</ele>
        <time>2021-03-27T11:45:41Z</time>
      </trkpt>
      <trkpt lat="44.87946" lon="4.59728">
        <ele>628.6</ele>
        <time>2021-03-27T11:45:45Z</time>
      </trkpt>
      <trkpt lat="44.87941" lon="4.59715">
        <ele>628.8</ele>
        <time>2021-03-27T11:45:49Z</time>
      </trkpt>
      <trkpt lat="44.87935" lon="4.59702">
        <ele>629.4</ele>
        <time>2021-03-27T11:45:53Z</time>
      </trkpt>
      <trkpt lat="44.87926" lon="4.5969">
        <ele>629.6</ele>
        <time>2021-03-27T11:45:57Z</time>
      </trkpt>
      <trkpt lat="44.8792" lon="4.59679">
        <ele>630.8</ele>
        <time>2021-03-27T11:46:01Z</time>
      </trkpt>
      <trkpt lat="44.87913" lon="4.59669">
        <ele>631</ele>
        <time>2021-03-27T11:46:05Z</time>
      </trkpt>
      <trkpt lat="44.87906" lon="4.59658">
        <ele>631.2</ele>
        <time>2021-03-27T11:46:09Z</time>
      </trkpt>
      <trkpt lat="44.87899" lon="4.59645">
        <ele>631.8</ele>
        <time>2021-03-27T11:46:13Z</time>
      </trkpt>
      <trkpt lat="44.87893" lon="4.59633">
        <ele>632.2</ele>
        <time>2021-03-27T11:46:17Z</time>
      </trkpt>
      <trkpt lat="44.87888" lon="4.5962">
        <ele>632.6</ele>
        <time>2021-03-27T11:46:21Z</time>
      </trkpt>
      <trkpt lat="44.87884" lon="4.59607">
        <ele>633.6</ele>
        <time>2021-03-27T11:46:25Z</time>
      </trkpt>
      <trkpt lat="44.87881" lon="4.59594">
        <ele>633.8</ele>
        <time>2021-03-27T11:46:29Z</time>
      </trkpt>
      <trkpt lat="44.87878" lon="4.59582">
        <ele>634.2</ele>
        <time>2021-03-27T11:46:33Z</time>
      </trkpt>
      <trkpt lat="44.87875" lon="4.59569">
        <ele>635.2</ele>
        <time>2021-03-27T11:46:37Z</time>
      </trkpt>
      <trkpt lat="44.87873" lon="4.59555">
        <ele>636</ele>
        <time>2021-03-27T11:46:41Z</time>
      </trkpt>
      <trkpt lat="44.8787" lon="4.59541">
        <ele>636.6</ele>
        <time>2021-03-27T11:46:45Z</time>
      </trkpt>
      <trkpt lat="44.87868" lon="4.59528">
        <ele>636.2</ele>
        <time>2021-03-27T11:46:49Z</time>
      </trkpt>
      <trkpt lat="44.87867" lon="4.59516">
        <ele>637.4</ele>
        <time>2021-03-27T11:46:53Z</time>
      </trkpt>
      <trkpt lat="44.87864" lon="4.59504">
        <ele>637.2</ele>
        <time>2021-03-27T11:46:57Z</time>
      </trkpt>
      <trkpt lat="44.87858" lon="4.59491">
        <ele>637.8</ele>
        <time>2021-03-27T11:47:01Z</time>
      </trkpt>
      <trkpt lat="44.87852" lon="4.59481">
        <ele>638.6</ele>
        <time>2021-03-27T11:47:05Z</time>
      </trkpt>
      <trkpt lat="44.87844" lon="4.59471">
        <ele>639.6</ele>
        <time>2021-03-27T11:47:09Z</time>
      </trkpt>
      <trkpt lat="44.87838" lon="4.59461">
        <ele>639.4</ele>
        <time>2021-03-27T11:47:13Z</time>
      </trkpt>
      <trkpt lat="44.87832" lon="4.59461">
        <ele>640.2</ele>
        <time>2021-03-27T11:47:17Z</time>
      </trkpt>
      <trkpt lat="44.87826" lon="4.5947">
        <ele>639.6</ele>
        <time>2021-03-27T11:47:21Z</time>
      </trkpt>
      <trkpt lat="44.87816" lon="4.59476">
        <ele>639.8</ele>
        <time>2021-03-27T11:47:25Z</time>
      </trkpt>
      <trkpt lat="44.87807" lon="4.5948">
        <ele>638.2</ele>
        <time>2021-03-27T11:47:29Z</time>
      </trkpt>
      <trkpt lat="44.87799" lon="4.59485">
        <ele>637.6</ele>
        <time>2021-03-27T11:47:33Z</time>
      </trkpt>
      <trkpt lat="44.8779" lon="4.59494">
        <ele>637.2</ele>
        <time>2021-03-27T11:47:37Z</time>
      </trkpt>
      <trkpt lat="44.8779" lon="4.59494">
        <ele>637.6</ele>
        <time>2021-03-27T11:47:41Z</time>
      </trkpt>
      <trkpt lat="44.87788" lon="4.59494">
        <ele>637.6</ele>
        <time>2021-03-27T11:51:19Z</time>
      </trkpt>
      <trkpt lat="44.87796" lon="4.59489">
        <ele>638</ele>
        <time>2021-03-27T11:51:23Z</time>
      </trkpt>
      <trkpt lat="44.87805" lon="4.59483">
        <ele>638.2</ele>
        <time>2021-03-27T11:51:27Z</time>
      </trkpt>
      <trkpt lat="44.87813" lon="4.59478">
        <ele>639</ele>
        <time>2021-03-27T11:51:31Z</time>
      </trkpt>
      <trkpt lat="44.87821" lon="4.59468">
        <ele>639.6</ele>
        <time>2021-03-27T11:51:35Z</time>
      </trkpt>
      <trkpt lat="44.87823" lon="4.59455">
        <ele>640</ele>
        <time>2021-03-27T11:51:39Z</time>
      </trkpt>
      <trkpt lat="44.87825" lon="4.59442">
        <ele>641</ele>
        <time>2021-03-27T11:51:43Z</time>
      </trkpt>
      <trkpt lat="44.87826" lon="4.59429">
        <ele>641.6</ele>
        <time>2021-03-27T11:51:47Z</time>
      </trkpt>
      <trkpt lat="44.87827" lon="4.59417">
        <ele>641.8</ele>
        <time>2021-03-27T11:51:51Z</time>
      </trkpt>
      <trkpt lat="44.87827" lon="4.59404">
        <ele>642.6</ele>
        <time>2021-03-27T11:51:55Z</time>
      </trkpt>
      <trkpt lat="44.87828" lon="4.59391">
        <ele>643</ele>
        <time>2021-03-27T11:51:59Z</time>
      </trkpt>
      <trkpt lat="44.87829" lon="4.59378">
        <ele>643.2</ele>
        <time>2021-03-27T11:52:03Z</time>
      </trkpt>
      <trkpt lat="44.87828" lon="4.59364">
        <ele>643.6</ele>
        <time>2021-03-27T11:52:07Z</time>
      </trkpt>
      <trkpt lat="44.87827" lon="4.59348">
        <ele>643.6</ele>
        <time>2021-03-27T11:52:11Z</time>
      </trkpt>
      <trkpt lat="44.87819" lon="4.5933">
        <ele>643.8</ele>
        <time>2021-03-27T11:52:15Z</time>
      </trkpt>
      <trkpt lat="44.87809" lon="4.59314">
        <ele>644.2</ele>
        <time>2021-03-27T11:52:19Z</time>
      </trkpt>
      <trkpt lat="44.87797" lon="4.59304">
        <ele>643.6</ele>
        <time>2021-03-27T11:52:23Z</time>
      </trkpt>
      <trkpt lat="44.87781" lon="4.59294">
        <ele>644</ele>
        <time>2021-03-27T11:52:27Z</time>
      </trkpt>
      <trkpt lat="44.87768" lon="4.59287">
        <ele>643.6</ele>
        <time>2021-03-27T11:52:31Z</time>
      </trkpt>
      <trkpt lat="44.87758" lon="4.59281">
        <ele>644</ele>
        <time>2021-03-27T11:52:35Z</time>
      </trkpt>
      <trkpt lat="44.87745" lon="4.59275">
        <ele>644.2</ele>
        <time>2021-03-27T11:52:39Z</time>
      </trkpt>
      <trkpt lat="44.87729" lon="4.59271">
        <ele>644.2</ele>
        <time>2021-03-27T11:52:43Z</time>
      </trkpt>
      <trkpt lat="44.87714" lon="4.59274">
        <ele>644</ele>
        <time>2021-03-27T11:52:47Z</time>
      </trkpt>
      <trkpt lat="44.87699" lon="4.59277">
        <ele>644.4</ele>
        <time>2021-03-27T11:52:51Z</time>
      </trkpt>
      <trkpt lat="44.87686" lon="4.5928">
        <ele>645.4</ele>
        <time>2021-03-27T11:52:55Z</time>
      </trkpt>
      <trkpt lat="44.87674" lon="4.59282">
        <ele>645.8</ele>
        <time>2021-03-27T11:52:59Z</time>
      </trkpt>
      <trkpt lat="44.87661" lon="4.59285">
        <ele>646.4</ele>
        <time>2021-03-27T11:53:03Z</time>
      </trkpt>
      <trkpt lat="44.87647" lon="4.59288">
        <ele>646.6</ele>
        <time>2021-03-27T11:53:07Z</time>
      </trkpt>
      <trkpt lat="44.87633" lon="4.59292">
        <ele>646.6</ele>
        <time>2021-03-27T11:53:11Z</time>
      </trkpt>
      <trkpt lat="44.87618" lon="4.59296">
        <ele>647.8</ele>
        <time>2021-03-27T11:53:15Z</time>
      </trkpt>
      <trkpt lat="44.87605" lon="4.59303">
        <ele>648.4</ele>
        <time>2021-03-27T11:53:19Z</time>
      </trkpt>
      <trkpt lat="44.87592" lon="4.59309">
        <ele>648.4</ele>
        <time>2021-03-27T11:53:23Z</time>
      </trkpt>
      <trkpt lat="44.87577" lon="4.59314">
        <ele>648.8</ele>
        <time>2021-03-27T11:53:27Z</time>
      </trkpt>
      <trkpt lat="44.87563" lon="4.59317">
        <ele>648</ele>
        <time>2021-03-27T11:53:31Z</time>
      </trkpt>
      <trkpt lat="44.87547" lon="4.5932">
        <ele>648.4</ele>
        <time>2021-03-27T11:53:35Z</time>
      </trkpt>
      <trkpt lat="44.87531" lon="4.59321">
        <ele>649.2</ele>
        <time>2021-03-27T11:53:39Z</time>
      </trkpt>
      <trkpt lat="44.87515" lon="4.59323">
        <ele>649.2</ele>
        <time>2021-03-27T11:53:43Z</time>
      </trkpt>
      <trkpt lat="44.87498" lon="4.59324">
        <ele>648.8</ele>
        <time>2021-03-27T11:53:47Z</time>
      </trkpt>
      <trkpt lat="44.87483" lon="4.59321">
        <ele>648.4</ele>
        <time>2021-03-27T11:53:51Z</time>
      </trkpt>
      <trkpt lat="44.8747" lon="4.59311">
        <ele>647.8</ele>
        <time>2021-03-27T11:53:55Z</time>
      </trkpt>
      <trkpt lat="44.87464" lon="4.59297">
        <ele>648</ele>
        <time>2021-03-27T11:53:59Z</time>
      </trkpt>
      <trkpt lat="44.87463" lon="4.59281">
        <ele>648.8</ele>
        <time>2021-03-27T11:54:03Z</time>
      </trkpt>
      <trkpt lat="44.87462" lon="4.59267">
        <ele>649.4</ele>
        <time>2021-03-27T11:54:07Z</time>
      </trkpt>
      <trkpt lat="44.87463" lon="4.59251">
        <ele>649.8</ele>
        <time>2021-03-27T11:54:11Z</time>
      </trkpt>
      <trkpt lat="44.87464" lon="4.59233">
        <ele>649.4</ele>
        <time>2021-03-27T11:54:15Z</time>
      </trkpt>
      <trkpt lat="44.87467" lon="4.59219">
        <ele>650.2</ele>
        <time>2021-03-27T11:54:19Z</time>
      </trkpt>
      <trkpt lat="44.87466" lon="4.59198">
        <ele>650.8</ele>
        <time>2021-03-27T11:54:23Z</time>
      </trkpt>
      <trkpt lat="44.87461" lon="4.59178">
        <ele>651.4</ele>
        <time>2021-03-27T11:54:27Z</time>
      </trkpt>
      <trkpt lat="44.87457" lon="4.59159">
        <ele>651.4</ele>
        <time>2021-03-27T11:54:31Z</time>
      </trkpt>
      <trkpt lat="44.87449" lon="4.59144">
        <ele>652</ele>
        <time>2021-03-27T11:54:35Z</time>
      </trkpt>
      <trkpt lat="44.87441" lon="4.59155">
        <ele>651.6</ele>
        <time>2021-03-27T11:54:39Z</time>
      </trkpt>
      <trkpt lat="44.87443" lon="4.59171">
        <ele>651</ele>
        <time>2021-03-27T11:54:43Z</time>
      </trkpt>
      <trkpt lat="44.87443" lon="4.59189">
        <ele>651.2</ele>
        <time>2021-03-27T11:54:47Z</time>
      </trkpt>
      <trkpt lat="44.87441" lon="4.59204">
        <ele>653.4</ele>
        <time>2021-03-27T11:54:51Z</time>
      </trkpt>
      <trkpt lat="44.87439" lon="4.59216">
        <ele>654.4</ele>
        <time>2021-03-27T11:54:55Z</time>
      </trkpt>
      <trkpt lat="44.87436" lon="4.59228">
        <ele>655</ele>
        <time>2021-03-27T11:54:59Z</time>
      </trkpt>
      <trkpt lat="44.87432" lon="4.59238">
        <ele>655.2</ele>
        <time>2021-03-27T11:55:03Z</time>
      </trkpt>
      <trkpt lat="44.87431" lon="4.59248">
        <ele>655.8</ele>
        <time>2021-03-27T11:55:07Z</time>
      </trkpt>
      <trkpt lat="44.87429" lon="4.5926">
        <ele>656.8</ele>
        <time>2021-03-27T11:55:11Z</time>
      </trkpt>
      <trkpt lat="44.87429" lon="4.59275">
        <ele>657.2</ele>
        <time>2021-03-27T11:55:15Z</time>
      </trkpt>
      <trkpt lat="44.87428" lon="4.5929">
        <ele>657.2</ele>
        <time>2021-03-27T11:55:19Z</time>
      </trkpt>
      <trkpt lat="44.87429" lon="4.59305">
        <ele>658.8</ele>
        <time>2021-03-27T11:55:23Z</time>
      </trkpt>
      <trkpt lat="44.87426" lon="4.5932">
        <ele>659.2</ele>
        <time>2021-03-27T11:55:27Z</time>
      </trkpt>
      <trkpt lat="44.87425" lon="4.59335">
        <ele>660.2</ele>
        <time>2021-03-27T11:55:31Z</time>
      </trkpt>
      <trkpt lat="44.8742" lon="4.59347">
        <ele>660.6</ele>
        <time>2021-03-27T11:55:35Z</time>
      </trkpt>
      <trkpt lat="44.87414" lon="4.59358">
        <ele>660.8</ele>
        <time>2021-03-27T11:55:39Z</time>
      </trkpt>
      <trkpt lat="44.87409" lon="4.59367">
        <ele>661.4</ele>
        <time>2021-03-27T11:55:43Z</time>
      </trkpt>
      <trkpt lat="44.87402" lon="4.59379">
        <ele>662.8</ele>
        <time>2021-03-27T11:55:47Z</time>
      </trkpt>
      <trkpt lat="44.87394" lon="4.5939">
        <ele>662.8</ele>
        <time>2021-03-27T11:55:51Z</time>
      </trkpt>
      <trkpt lat="44.87388" lon="4.59402">
        <ele>664.4</ele>
        <time>2021-03-27T11:55:55Z</time>
      </trkpt>
      <trkpt lat="44.87381" lon="4.59416">
        <ele>664.8</ele>
        <time>2021-03-27T11:55:59Z</time>
      </trkpt>
      <trkpt lat="44.87373" lon="4.5943">
        <ele>665.4</ele>
        <time>2021-03-27T11:56:03Z</time>
      </trkpt>
      <trkpt lat="44.87365" lon="4.59442">
        <ele>665.8</ele>
        <time>2021-03-27T11:56:07Z</time>
      </trkpt>
      <trkpt lat="44.87356" lon="4.59451">
        <ele>666.8</ele>
        <time>2021-03-27T11:56:11Z</time>
      </trkpt>
      <trkpt lat="44.87345" lon="4.59456">
        <ele>667.4</ele>
        <time>2021-03-27T11:56:15Z</time>
      </trkpt>
      <trkpt lat="44.87333" lon="4.59457">
        <ele>667.6</ele>
        <time>2021-03-27T11:56:19Z</time>
      </trkpt>
      <trkpt lat="44.87321" lon="4.59457">
        <ele>668</ele>
        <time>2021-03-27T11:56:23Z</time>
      </trkpt>
      <trkpt lat="44.87314" lon="4.59455">
        <ele>668.2</ele>
        <time>2021-03-27T11:56:27Z</time>
      </trkpt>
      <trkpt lat="44.87308" lon="4.59452">
        <ele>668.4</ele>
        <time>2021-03-27T11:56:31Z</time>
      </trkpt>
      <trkpt lat="44.87297" lon="4.59451">
        <ele>667.4</ele>
        <time>2021-03-27T11:57:25Z</time>
      </trkpt>
      <trkpt lat="44.87283" lon="4.59446">
        <ele>666.8</ele>
        <time>2021-03-27T11:57:29Z</time>
      </trkpt>
      <trkpt lat="44.87262" lon="4.59437">
        <ele>665.6</ele>
        <time>2021-03-27T11:57:33Z</time>
      </trkpt>
      <trkpt lat="44.87249" lon="4.59431">
        <ele>666</ele>
        <time>2021-03-27T11:57:37Z</time>
      </trkpt>
      <trkpt lat="44.87235" lon="4.59426">
        <ele>665.6</ele>
        <time>2021-03-27T11:57:41Z</time>
      </trkpt>
      <trkpt lat="44.8722" lon="4.59422">
        <ele>665.6</ele>
        <time>2021-03-27T11:57:45Z</time>
      </trkpt>
      <trkpt lat="44.87202" lon="4.5942">
        <ele>663.8</ele>
        <time>2021-03-27T11:57:49Z</time>
      </trkpt>
      <trkpt lat="44.87183" lon="4.59426">
        <ele>663</ele>
        <time>2021-03-27T11:57:53Z</time>
      </trkpt>
      <trkpt lat="44.87164" lon="4.59433">
        <ele>660.6</ele>
        <time>2021-03-27T11:57:57Z</time>
      </trkpt>
      <trkpt lat="44.87145" lon="4.59439">
        <ele>659.6</ele>
        <time>2021-03-27T11:58:01Z</time>
      </trkpt>
      <trkpt lat="44.87126" lon="4.5944">
        <ele>659.6</ele>
        <time>2021-03-27T11:58:05Z</time>
      </trkpt>
      <trkpt lat="44.87104" lon="4.5944">
        <ele>657.4</ele>
        <time>2021-03-27T11:58:09Z</time>
      </trkpt>
      <trkpt lat="44.87079" lon="4.59456">
        <ele>655.2</ele>
        <time>2021-03-27T11:58:13Z</time>
      </trkpt>
      <trkpt lat="44.87055" lon="4.59482">
        <ele>652.8</ele>
        <time>2021-03-27T11:58:17Z</time>
      </trkpt>
      <trkpt lat="44.87025" lon="4.59497">
        <ele>650.8</ele>
        <time>2021-03-27T11:58:21Z</time>
      </trkpt>
      <trkpt lat="44.86998" lon="4.5948">
        <ele>649</ele>
        <time>2021-03-27T11:58:25Z</time>
      </trkpt>
      <trkpt lat="44.86992" lon="4.59434">
        <ele>645.4</ele>
        <time>2021-03-27T11:58:29Z</time>
      </trkpt>
      <trkpt lat="44.8699" lon="4.59385">
        <ele>642.4</ele>
        <time>2021-03-27T11:58:33Z</time>
      </trkpt>
      <trkpt lat="44.86997" lon="4.59336">
        <ele>637.2</ele>
        <time>2021-03-27T11:58:37Z</time>
      </trkpt>
      <trkpt lat="44.86999" lon="4.59291">
        <ele>636.4</ele>
        <time>2021-03-27T11:58:41Z</time>
      </trkpt>
      <trkpt lat="44.86974" lon="4.59271">
        <ele>636.6</ele>
        <time>2021-03-27T11:58:45Z</time>
      </trkpt>
      <trkpt lat="44.86951" lon="4.59275">
        <ele>636.8</ele>
        <time>2021-03-27T11:58:49Z</time>
      </trkpt>
      <trkpt lat="44.86925" lon="4.59276">
        <ele>635.2</ele>
        <time>2021-03-27T11:58:53Z</time>
      </trkpt>
      <trkpt lat="44.86896" lon="4.59262">
        <ele>632.2</ele>
        <time>2021-03-27T11:58:57Z</time>
      </trkpt>
      <trkpt lat="44.8687" lon="4.59232">
        <ele>630.4</ele>
        <time>2021-03-27T11:59:01Z</time>
      </trkpt>
      <trkpt lat="44.86832" lon="4.59233">
        <ele>625.6</ele>
        <time>2021-03-27T11:59:05Z</time>
      </trkpt>
      <trkpt lat="44.86793" lon="4.5922">
        <ele>623.2</ele>
        <time>2021-03-27T11:59:09Z</time>
      </trkpt>
      <trkpt lat="44.86753" lon="4.59207">
        <ele>621.6</ele>
        <time>2021-03-27T11:59:13Z</time>
      </trkpt>
      <trkpt lat="44.86714" lon="4.59192">
        <ele>620</ele>
        <time>2021-03-27T11:59:17Z</time>
      </trkpt>
      <trkpt lat="44.86677" lon="4.59168">
        <ele>617</ele>
        <time>2021-03-27T11:59:21Z</time>
      </trkpt>
      <trkpt lat="44.86642" lon="4.59141">
        <ele>614</ele>
        <time>2021-03-27T11:59:25Z</time>
      </trkpt>
      <trkpt lat="44.86608" lon="4.59113">
        <ele>611.6</ele>
        <time>2021-03-27T11:59:29Z</time>
      </trkpt>
      <trkpt lat="44.86581" lon="4.59072">
        <ele>607.6</ele>
        <time>2021-03-27T11:59:33Z</time>
      </trkpt>
      <trkpt lat="44.86558" lon="4.59027">
        <ele>605.4</ele>
        <time>2021-03-27T11:59:37Z</time>
      </trkpt>
      <trkpt lat="44.86524" lon="4.59014">
        <ele>604.4</ele>
        <time>2021-03-27T11:59:41Z</time>
      </trkpt>
      <trkpt lat="44.8649" lon="4.59025">
        <ele>601.2</ele>
        <time>2021-03-27T11:59:45Z</time>
      </trkpt>
      <trkpt lat="44.86454" lon="4.59047">
        <ele>599.4</ele>
        <time>2021-03-27T11:59:49Z</time>
      </trkpt>
      <trkpt lat="44.86421" lon="4.59069">
        <ele>600</ele>
        <time>2021-03-27T11:59:53Z</time>
      </trkpt>
      <trkpt lat="44.86384" lon="4.5908">
        <ele>597.2</ele>
        <time>2021-03-27T11:59:57Z</time>
      </trkpt>
      <trkpt lat="44.86348" lon="4.59082">
        <ele>595.8</ele>
        <time>2021-03-27T12:00:01Z</time>
      </trkpt>
      <trkpt lat="44.86318" lon="4.5905">
        <ele>591.8</ele>
        <time>2021-03-27T12:00:05Z</time>
      </trkpt>
      <trkpt lat="44.86285" lon="4.59015">
        <ele>588.8</ele>
        <time>2021-03-27T12:00:09Z</time>
      </trkpt>
      <trkpt lat="44.86248" lon="4.5899">
        <ele>586</ele>
        <time>2021-03-27T12:00:13Z</time>
      </trkpt>
      <trkpt lat="44.86213" lon="4.58961">
        <ele>582.4</ele>
        <time>2021-03-27T12:00:17Z</time>
      </trkpt>
      <trkpt lat="44.86179" lon="4.58937">
        <ele>580.8</ele>
        <time>2021-03-27T12:00:21Z</time>
      </trkpt>
      <trkpt lat="44.86143" lon="4.58935">
        <ele>578</ele>
        <time>2021-03-27T12:00:25Z</time>
      </trkpt>
      <trkpt lat="44.86102" lon="4.58935">
        <ele>575</ele>
        <time>2021-03-27T12:00:29Z</time>
      </trkpt>
      <trkpt lat="44.86063" lon="4.58932">
        <ele>573.6</ele>
        <time>2021-03-27T12:00:33Z</time>
      </trkpt>
      <trkpt lat="44.86033" lon="4.58896">
        <ele>570.8</ele>
        <time>2021-03-27T12:00:37Z</time>
      </trkpt>
      <trkpt lat="44.86005" lon="4.58861">
        <ele>568.4</ele>
        <time>2021-03-27T12:00:41Z</time>
      </trkpt>
      <trkpt lat="44.85972" lon="4.58864">
        <ele>564.6</ele>
        <time>2021-03-27T12:00:45Z</time>
      </trkpt>
      <trkpt lat="44.85937" lon="4.58882">
        <ele>560.2</ele>
        <time>2021-03-27T12:00:49Z</time>
      </trkpt>
      <trkpt lat="44.85903" lon="4.58916">
        <ele>556.4</ele>
        <time>2021-03-27T12:00:53Z</time>
      </trkpt>
      <trkpt lat="44.85881" lon="4.5896">
        <ele>555.6</ele>
        <time>2021-03-27T12:00:57Z</time>
      </trkpt>
      <trkpt lat="44.85856" lon="4.58992">
        <ele>554.4</ele>
        <time>2021-03-27T12:01:01Z</time>
      </trkpt>
      <trkpt lat="44.85829" lon="4.5902">
        <ele>556.4</ele>
        <time>2021-03-27T12:01:05Z</time>
      </trkpt>
      <trkpt lat="44.85811" lon="4.59042">
        <ele>557.6</ele>
        <time>2021-03-27T12:01:09Z</time>
      </trkpt>
      <trkpt lat="44.85799" lon="4.59067">
        <ele>558</ele>
        <time>2021-03-27T12:01:13Z</time>
      </trkpt>
      <trkpt lat="44.85793" lon="4.59089">
        <ele>558.4</ele>
        <time>2021-03-27T12:01:17Z</time>
      </trkpt>
      <trkpt lat="44.85788" lon="4.5911">
        <ele>559</ele>
        <time>2021-03-27T12:01:21Z</time>
      </trkpt>
      <trkpt lat="44.85784" lon="4.59128">
        <ele>559.4</ele>
        <time>2021-03-27T12:01:25Z</time>
      </trkpt>
      <trkpt lat="44.8578" lon="4.59148">
        <ele>559.4</ele>
        <time>2021-03-27T12:01:29Z</time>
      </trkpt>
      <trkpt lat="44.85777" lon="4.59168">
        <ele>558.8</ele>
        <time>2021-03-27T12:01:33Z</time>
      </trkpt>
      <trkpt lat="44.85774" lon="4.59188">
        <ele>559.4</ele>
        <time>2021-03-27T12:01:37Z</time>
      </trkpt>
      <trkpt lat="44.85776" lon="4.59213">
        <ele>559.8</ele>
        <time>2021-03-27T12:01:41Z</time>
      </trkpt>
      <trkpt lat="44.85776" lon="4.59234">
        <ele>558.8</ele>
        <time>2021-03-27T12:01:45Z</time>
      </trkpt>
      <trkpt lat="44.85775" lon="4.59257">
        <ele>558.8</ele>
        <time>2021-03-27T12:01:49Z</time>
      </trkpt>
      <trkpt lat="44.8577" lon="4.59277">
        <ele>558.4</ele>
        <time>2021-03-27T12:01:53Z</time>
      </trkpt>
      <trkpt lat="44.85765" lon="4.59296">
        <ele>558.8</ele>
        <time>2021-03-27T12:01:57Z</time>
      </trkpt>
      <trkpt lat="44.85757" lon="4.59316">
        <ele>559.6</ele>
        <time>2021-03-27T12:02:01Z</time>
      </trkpt>
      <trkpt lat="44.85748" lon="4.59337">
        <ele>559.8</ele>
        <time>2021-03-27T12:02:05Z</time>
      </trkpt>
      <trkpt lat="44.8574" lon="4.59357">
        <ele>560.8</ele>
        <time>2021-03-27T12:02:09Z</time>
      </trkpt>
      <trkpt lat="44.85732" lon="4.59377">
        <ele>561.2</ele>
        <time>2021-03-27T12:02:13Z</time>
      </trkpt>
      <trkpt lat="44.85726" lon="4.59395">
        <ele>561</ele>
        <time>2021-03-27T12:02:17Z</time>
      </trkpt>
      <trkpt lat="44.85722" lon="4.59414">
        <ele>561.2</ele>
        <time>2021-03-27T12:02:21Z</time>
      </trkpt>
      <trkpt lat="44.85716" lon="4.59432">
        <ele>561</ele>
        <time>2021-03-27T12:02:25Z</time>
      </trkpt>
      <trkpt lat="44.85707" lon="4.59448">
        <ele>561.2</ele>
        <time>2021-03-27T12:02:29Z</time>
      </trkpt>
      <trkpt lat="44.85694" lon="4.5946">
        <ele>560.8</ele>
        <time>2021-03-27T12:02:33Z</time>
      </trkpt>
      <trkpt lat="44.85681" lon="4.59467">
        <ele>561</ele>
        <time>2021-03-27T12:02:37Z</time>
      </trkpt>
      <trkpt lat="44.85671" lon="4.59471">
        <ele>561.6</ele>
        <time>2021-03-27T12:02:41Z</time>
      </trkpt>
      <trkpt lat="44.85658" lon="4.59478">
        <ele>560.8</ele>
        <time>2021-03-27T12:02:45Z</time>
      </trkpt>
      <trkpt lat="44.85644" lon="4.59482">
        <ele>561.2</ele>
        <time>2021-03-27T12:02:49Z</time>
      </trkpt>
      <trkpt lat="44.85626" lon="4.59491">
        <ele>560.8</ele>
        <time>2021-03-27T12:02:53Z</time>
      </trkpt>
      <trkpt lat="44.8561" lon="4.59497">
        <ele>561.2</ele>
        <time>2021-03-27T12:02:57Z</time>
      </trkpt>
      <trkpt lat="44.85592" lon="4.59509">
        <ele>560.8</ele>
        <time>2021-03-27T12:03:01Z</time>
      </trkpt>
      <trkpt lat="44.85575" lon="4.59517">
        <ele>560.6</ele>
        <time>2021-03-27T12:03:05Z</time>
      </trkpt>
      <trkpt lat="44.85557" lon="4.59529">
        <ele>559.8</ele>
        <time>2021-03-27T12:03:09Z</time>
      </trkpt>
      <trkpt lat="44.85538" lon="4.59538">
        <ele>560.8</ele>
        <time>2021-03-27T12:03:13Z</time>
      </trkpt>
      <trkpt lat="44.85516" lon="4.59539">
        <ele>559.6</ele>
        <time>2021-03-27T12:03:17Z</time>
      </trkpt>
      <trkpt lat="44.85494" lon="4.59532">
        <ele>560</ele>
        <time>2021-03-27T12:03:21Z</time>
      </trkpt>
      <trkpt lat="44.85477" lon="4.59528">
        <ele>560</ele>
        <time>2021-03-27T12:03:25Z</time>
      </trkpt>
      <trkpt lat="44.85466" lon="4.59547">
        <ele>559</ele>
        <time>2021-03-27T12:03:29Z</time>
      </trkpt>
      <trkpt lat="44.85463" lon="4.59567">
        <ele>560.2</ele>
        <time>2021-03-27T12:03:33Z</time>
      </trkpt>
      <trkpt lat="44.85458" lon="4.59595">
        <ele>559.8</ele>
        <time>2021-03-27T12:03:37Z</time>
      </trkpt>
      <trkpt lat="44.85445" lon="4.59622">
        <ele>560.4</ele>
        <time>2021-03-27T12:03:41Z</time>
      </trkpt>
      <trkpt lat="44.85428" lon="4.59644">
        <ele>560</ele>
        <time>2021-03-27T12:03:45Z</time>
      </trkpt>
      <trkpt lat="44.85412" lon="4.59663">
        <ele>560.6</ele>
        <time>2021-03-27T12:03:49Z</time>
      </trkpt>
      <trkpt lat="44.85394" lon="4.59684">
        <ele>560</ele>
        <time>2021-03-27T12:03:53Z</time>
      </trkpt>
      <trkpt lat="44.85377" lon="4.59703">
        <ele>558.6</ele>
        <time>2021-03-27T12:03:57Z</time>
      </trkpt>
      <trkpt lat="44.85362" lon="4.59722">
        <ele>559.6</ele>
        <time>2021-03-27T12:04:01Z</time>
      </trkpt>
      <trkpt lat="44.85347" lon="4.59741">
        <ele>559.4</ele>
        <time>2021-03-27T12:04:05Z</time>
      </trkpt>
      <trkpt lat="44.85333" lon="4.5976">
        <ele>559.4</ele>
        <time>2021-03-27T12:04:09Z</time>
      </trkpt>
      <trkpt lat="44.85321" lon="4.59777">
        <ele>559.2</ele>
        <time>2021-03-27T12:04:13Z</time>
      </trkpt>
      <trkpt lat="44.85311" lon="4.598">
        <ele>559.2</ele>
        <time>2021-03-27T12:04:17Z</time>
      </trkpt>
      <trkpt lat="44.85303" lon="4.59825">
        <ele>558.8</ele>
        <time>2021-03-27T12:04:21Z</time>
      </trkpt>
      <trkpt lat="44.85298" lon="4.59849">
        <ele>557.4</ele>
        <time>2021-03-27T12:04:25Z</time>
      </trkpt>
      <trkpt lat="44.85287" lon="4.59873">
        <ele>557.4</ele>
        <time>2021-03-27T12:04:29Z</time>
      </trkpt>
      <trkpt lat="44.85277" lon="4.59895">
        <ele>558</ele>
        <time>2021-03-27T12:04:33Z</time>
      </trkpt>
      <trkpt lat="44.85266" lon="4.59918">
        <ele>557.6</ele>
        <time>2021-03-27T12:04:37Z</time>
      </trkpt>
      <trkpt lat="44.85258" lon="4.5994">
        <ele>556.6</ele>
        <time>2021-03-27T12:04:41Z</time>
      </trkpt>
      <trkpt lat="44.85251" lon="4.59965">
        <ele>557</ele>
        <time>2021-03-27T12:04:45Z</time>
      </trkpt>
      <trkpt lat="44.85242" lon="4.59993">
        <ele>556</ele>
        <time>2021-03-27T12:04:49Z</time>
      </trkpt>
      <trkpt lat="44.85229" lon="4.60016">
        <ele>555.8</ele>
        <time>2021-03-27T12:04:53Z</time>
      </trkpt>
      <trkpt lat="44.85208" lon="4.60035">
        <ele>556</ele>
        <time>2021-03-27T12:04:57Z</time>
      </trkpt>
      <trkpt lat="44.85185" lon="4.60044">
        <ele>556.4</ele>
        <time>2021-03-27T12:05:01Z</time>
      </trkpt>
      <trkpt lat="44.85162" lon="4.6005">
        <ele>555.6</ele>
        <time>2021-03-27T12:05:05Z</time>
      </trkpt>
      <trkpt lat="44.8514" lon="4.6005">
        <ele>555.4</ele>
        <time>2021-03-27T12:05:09Z</time>
      </trkpt>
      <trkpt lat="44.8512" lon="4.6004">
        <ele>555.2</ele>
        <time>2021-03-27T12:05:13Z</time>
      </trkpt>
      <trkpt lat="44.85103" lon="4.60025">
        <ele>555.6</ele>
        <time>2021-03-27T12:05:17Z</time>
      </trkpt>
      <trkpt lat="44.85088" lon="4.60009">
        <ele>554.4</ele>
        <time>2021-03-27T12:05:21Z</time>
      </trkpt>
      <trkpt lat="44.8507" lon="4.60011">
        <ele>554.2</ele>
        <time>2021-03-27T12:05:25Z</time>
      </trkpt>
      <trkpt lat="44.85051" lon="4.60022">
        <ele>554</ele>
        <time>2021-03-27T12:05:29Z</time>
      </trkpt>
      <trkpt lat="44.85032" lon="4.60033">
        <ele>554.4</ele>
        <time>2021-03-27T12:05:33Z</time>
      </trkpt>
      <trkpt lat="44.85014" lon="4.60045">
        <ele>554.6</ele>
        <time>2021-03-27T12:05:37Z</time>
      </trkpt>
      <trkpt lat="44.84998" lon="4.60066">
        <ele>554</ele>
        <time>2021-03-27T12:05:41Z</time>
      </trkpt>
      <trkpt lat="44.84989" lon="4.60089">
        <ele>554.8</ele>
        <time>2021-03-27T12:05:45Z</time>
      </trkpt>
      <trkpt lat="44.84982" lon="4.60105">
        <ele>555.4</ele>
        <time>2021-03-27T12:05:49Z</time>
      </trkpt>
      <trkpt lat="44.84985" lon="4.60115">
        <ele>554.4</ele>
        <time>2021-03-27T12:05:53Z</time>
      </trkpt>
      <trkpt lat="44.84989" lon="4.60111">
        <ele>553.6</ele>
        <time>2021-03-27T12:05:57Z</time>
      </trkpt>
      <trkpt lat="44.84996" lon="4.60097">
        <ele>552.2</ele>
        <time>2021-03-27T12:06:01Z</time>
      </trkpt>
      <trkpt lat="44.85007" lon="4.60084">
        <ele>551.6</ele>
        <time>2021-03-27T12:06:05Z</time>
      </trkpt>
      <trkpt lat="44.85023" lon="4.60069">
        <ele>550.8</ele>
        <time>2021-03-27T12:06:09Z</time>
      </trkpt>
      <trkpt lat="44.85041" lon="4.60061">
        <ele>548.4</ele>
        <time>2021-03-27T12:06:13Z</time>
      </trkpt>
      <trkpt lat="44.85058" lon="4.60047">
        <ele>548.6</ele>
        <time>2021-03-27T12:06:17Z</time>
      </trkpt>
      <trkpt lat="44.85073" lon="4.60056">
        <ele>546.6</ele>
        <time>2021-03-27T12:06:21Z</time>
      </trkpt>
      <trkpt lat="44.85084" lon="4.60074">
        <ele>542.4</ele>
        <time>2021-03-27T12:06:25Z</time>
      </trkpt>
      <trkpt lat="44.85103" lon="4.60085">
        <ele>542.4</ele>
        <time>2021-03-27T12:06:29Z</time>
      </trkpt>
      <trkpt lat="44.85126" lon="4.60094">
        <ele>540.6</ele>
        <time>2021-03-27T12:06:33Z</time>
      </trkpt>
      <trkpt lat="44.85151" lon="4.60101">
        <ele>539.6</ele>
        <time>2021-03-27T12:06:37Z</time>
      </trkpt>
      <trkpt lat="44.85179" lon="4.60103">
        <ele>537.6</ele>
        <time>2021-03-27T12:06:41Z</time>
      </trkpt>
      <trkpt lat="44.85212" lon="4.60101">
        <ele>537</ele>
        <time>2021-03-27T12:06:45Z</time>
      </trkpt>
      <trkpt lat="44.8524" lon="4.60096">
        <ele>535.6</ele>
        <time>2021-03-27T12:06:49Z</time>
      </trkpt>
      <trkpt lat="44.85262" lon="4.60089">
        <ele>534.2</ele>
        <time>2021-03-27T12:06:53Z</time>
      </trkpt>
      <trkpt lat="44.85282" lon="4.60074">
        <ele>534.4</ele>
        <time>2021-03-27T12:06:57Z</time>
      </trkpt>
      <trkpt lat="44.85304" lon="4.60049">
        <ele>532.6</ele>
        <time>2021-03-27T12:07:01Z</time>
      </trkpt>
      <trkpt lat="44.85324" lon="4.60021">
        <ele>531.2</ele>
        <time>2021-03-27T12:07:05Z</time>
      </trkpt>
      <trkpt lat="44.85342" lon="4.5999">
        <ele>530.2</ele>
        <time>2021-03-27T12:07:09Z</time>
      </trkpt>
      <trkpt lat="44.85362" lon="4.59981">
        <ele>529</ele>
        <time>2021-03-27T12:07:13Z</time>
      </trkpt>
      <trkpt lat="44.85372" lon="4.60001">
        <ele>528.2</ele>
        <time>2021-03-27T12:07:17Z</time>
      </trkpt>
      <trkpt lat="44.85381" lon="4.60022">
        <ele>526.6</ele>
        <time>2021-03-27T12:07:21Z</time>
      </trkpt>
      <trkpt lat="44.85387" lon="4.60049">
        <ele>525.8</ele>
        <time>2021-03-27T12:07:25Z</time>
      </trkpt>
      <trkpt lat="44.85406" lon="4.60067">
        <ele>524.2</ele>
        <time>2021-03-27T12:07:29Z</time>
      </trkpt>
      <trkpt lat="44.85424" lon="4.60081">
        <ele>523.4</ele>
        <time>2021-03-27T12:07:33Z</time>
      </trkpt>
      <trkpt lat="44.85447" lon="4.60084">
        <ele>520.8</ele>
        <time>2021-03-27T12:07:37Z</time>
      </trkpt>
      <trkpt lat="44.85472" lon="4.60077">
        <ele>521.8</ele>
        <time>2021-03-27T12:07:41Z</time>
      </trkpt>
      <trkpt lat="44.85497" lon="4.60065">
        <ele>521.6</ele>
        <time>2021-03-27T12:07:45Z</time>
      </trkpt>
      <trkpt lat="44.85518" lon="4.60048">
        <ele>519</ele>
        <time>2021-03-27T12:07:49Z</time>
      </trkpt>
      <trkpt lat="44.85533" lon="4.60022">
        <ele>516.6</ele>
        <time>2021-03-27T12:07:53Z</time>
      </trkpt>
      <trkpt lat="44.85546" lon="4.59998">
        <ele>516.6</ele>
        <time>2021-03-27T12:07:57Z</time>
      </trkpt>
      <trkpt lat="44.85563" lon="4.59981">
        <ele>515.2</ele>
        <time>2021-03-27T12:08:01Z</time>
      </trkpt>
      <trkpt lat="44.85583" lon="4.59966">
        <ele>514.8</ele>
        <time>2021-03-27T12:08:05Z</time>
      </trkpt>
      <trkpt lat="44.85605" lon="4.59941">
        <ele>514.6</ele>
        <time>2021-03-27T12:08:09Z</time>
      </trkpt>
      <trkpt lat="44.85627" lon="4.59915">
        <ele>512.6</ele>
        <time>2021-03-27T12:08:13Z</time>
      </trkpt>
      <trkpt lat="44.85653" lon="4.59897">
        <ele>511.4</ele>
        <time>2021-03-27T12:08:17Z</time>
      </trkpt>
      <trkpt lat="44.85672" lon="4.59872">
        <ele>508</ele>
        <time>2021-03-27T12:08:21Z</time>
      </trkpt>
      <trkpt lat="44.85684" lon="4.59845">
        <ele>506.8</ele>
        <time>2021-03-27T12:08:25Z</time>
      </trkpt>
      <trkpt lat="44.85705" lon="4.59837">
        <ele>506.8</ele>
        <time>2021-03-27T12:08:29Z</time>
      </trkpt>
      <trkpt lat="44.85725" lon="4.59843">
        <ele>509.4</ele>
        <time>2021-03-27T12:08:33Z</time>
      </trkpt>
      <trkpt lat="44.85724" lon="4.59857">
        <ele>511</ele>
        <time>2021-03-27T12:08:37Z</time>
      </trkpt>
      <trkpt lat="44.85722" lon="4.59866">
        <ele>511.2</ele>
        <time>2021-03-27T12:08:41Z</time>
      </trkpt>
      <trkpt lat="44.85721" lon="4.59877">
        <ele>511.8</ele>
        <time>2021-03-27T12:08:45Z</time>
      </trkpt>
      <trkpt lat="44.85719" lon="4.59886">
        <ele>511.8</ele>
        <time>2021-03-27T12:08:49Z</time>
      </trkpt>
      <trkpt lat="44.85718" lon="4.59896">
        <ele>512.4</ele>
        <time>2021-03-27T12:08:53Z</time>
      </trkpt>
      <trkpt lat="44.85716" lon="4.59905">
        <ele>511.8</ele>
        <time>2021-03-27T12:08:57Z</time>
      </trkpt>
      <trkpt lat="44.85714" lon="4.59916">
        <ele>512.2</ele>
        <time>2021-03-27T12:09:01Z</time>
      </trkpt>
      <trkpt lat="44.85713" lon="4.59931">
        <ele>512.4</ele>
        <time>2021-03-27T12:09:05Z</time>
      </trkpt>
      <trkpt lat="44.8571" lon="4.59943">
        <ele>512.8</ele>
        <time>2021-03-27T12:09:09Z</time>
      </trkpt>
      <trkpt lat="44.85708" lon="4.59956">
        <ele>513.4</ele>
        <time>2021-03-27T12:09:13Z</time>
      </trkpt>
      <trkpt lat="44.85707" lon="4.5997">
        <ele>514.2</ele>
        <time>2021-03-27T12:09:17Z</time>
      </trkpt>
      <trkpt lat="44.85708" lon="4.59983">
        <ele>515.2</ele>
        <time>2021-03-27T12:09:21Z</time>
      </trkpt>
      <trkpt lat="44.85708" lon="4.59999">
        <ele>516.2</ele>
        <time>2021-03-27T12:09:25Z</time>
      </trkpt>
      <trkpt lat="44.85711" lon="4.60019">
        <ele>516.6</ele>
        <time>2021-03-27T12:09:29Z</time>
      </trkpt>
      <trkpt lat="44.85714" lon="4.60035">
        <ele>517.6</ele>
        <time>2021-03-27T12:09:33Z</time>
      </trkpt>
      <trkpt lat="44.85716" lon="4.6005">
        <ele>517.6</ele>
        <time>2021-03-27T12:09:37Z</time>
      </trkpt>
      <trkpt lat="44.8572" lon="4.6007">
        <ele>518</ele>
        <time>2021-03-27T12:09:41Z</time>
      </trkpt>
      <trkpt lat="44.85721" lon="4.60088">
        <ele>518.6</ele>
        <time>2021-03-27T12:09:45Z</time>
      </trkpt>
      <trkpt lat="44.85722" lon="4.60103">
        <ele>518.6</ele>
        <time>2021-03-27T12:09:49Z</time>
      </trkpt>
      <trkpt lat="44.85722" lon="4.60117">
        <ele>519.6</ele>
        <time>2021-03-27T12:09:53Z</time>
      </trkpt>
      <trkpt lat="44.85723" lon="4.60129">
        <ele>520.6</ele>
        <time>2021-03-27T12:09:57Z</time>
      </trkpt>
      <trkpt lat="44.85725" lon="4.60142">
        <ele>521.2</ele>
        <time>2021-03-27T12:10:01Z</time>
      </trkpt>
      <trkpt lat="44.85726" lon="4.60156">
        <ele>522.2</ele>
        <time>2021-03-27T12:10:05Z</time>
      </trkpt>
      <trkpt lat="44.85728" lon="4.60169">
        <ele>522</ele>
        <time>2021-03-27T12:10:09Z</time>
      </trkpt>
      <trkpt lat="44.8573" lon="4.60179">
        <ele>523.2</ele>
        <time>2021-03-27T12:10:13Z</time>
      </trkpt>
      <trkpt lat="44.85729" lon="4.6019">
        <ele>523.8</ele>
        <time>2021-03-27T12:10:17Z</time>
      </trkpt>
      <trkpt lat="44.85728" lon="4.60199">
        <ele>524.4</ele>
        <time>2021-03-27T12:10:21Z</time>
      </trkpt>
      <trkpt lat="44.85725" lon="4.60207">
        <ele>525.4</ele>
        <time>2021-03-27T12:10:25Z</time>
      </trkpt>
      <trkpt lat="44.85724" lon="4.60219">
        <ele>526</ele>
        <time>2021-03-27T12:10:29Z</time>
      </trkpt>
      <trkpt lat="44.85724" lon="4.60234">
        <ele>526.4</ele>
        <time>2021-03-27T12:10:33Z</time>
      </trkpt>
      <trkpt lat="44.85723" lon="4.60248">
        <ele>527</ele>
        <time>2021-03-27T12:10:37Z</time>
      </trkpt>
      <trkpt lat="44.85724" lon="4.60261">
        <ele>527.6</ele>
        <time>2021-03-27T12:10:41Z</time>
      </trkpt>
      <trkpt lat="44.85726" lon="4.60273">
        <ele>527.8</ele>
        <time>2021-03-27T12:10:45Z</time>
      </trkpt>
      <trkpt lat="44.85724" lon="4.60283">
        <ele>528.6</ele>
        <time>2021-03-27T12:10:49Z</time>
      </trkpt>
      <trkpt lat="44.85719" lon="4.60291">
        <ele>529.6</ele>
        <time>2021-03-27T12:10:53Z</time>
      </trkpt>
      <trkpt lat="44.85713" lon="4.60295">
        <ele>530.2</ele>
        <time>2021-03-27T12:10:57Z</time>
      </trkpt>
      <trkpt lat="44.85706" lon="4.60296">
        <ele>530.6</ele>
        <time>2021-03-27T12:11:01Z</time>
      </trkpt>
      <trkpt lat="44.85699" lon="4.60304">
        <ele>531.2</ele>
        <time>2021-03-27T12:11:05Z</time>
      </trkpt>
      <trkpt lat="44.85694" lon="4.60312">
        <ele>531.6</ele>
        <time>2021-03-27T12:11:09Z</time>
      </trkpt>
      <trkpt lat="44.85691" lon="4.60321">
        <ele>532.2</ele>
        <time>2021-03-27T12:11:13Z</time>
      </trkpt>
      <trkpt lat="44.85687" lon="4.6033">
        <ele>533</ele>
        <time>2021-03-27T12:11:17Z</time>
      </trkpt>
      <trkpt lat="44.85686" lon="4.60339">
        <ele>533.6</ele>
        <time>2021-03-27T12:11:21Z</time>
      </trkpt>
      <trkpt lat="44.85686" lon="4.60339">
        <ele>534</ele>
        <time>2021-03-27T12:11:25Z</time>
      </trkpt>
      <trkpt lat="44.85677" lon="4.60381">
        <ele>535.8</ele>
        <time>2021-03-27T12:12:13Z</time>
      </trkpt>
      <trkpt lat="44.85676" lon="4.60391">
        <ele>536.4</ele>
        <time>2021-03-27T12:12:17Z</time>
      </trkpt>
      <trkpt lat="44.85674" lon="4.60404">
        <ele>537.2</ele>
        <time>2021-03-27T12:12:21Z</time>
      </trkpt>
      <trkpt lat="44.85677" lon="4.60418">
        <ele>537.8</ele>
        <time>2021-03-27T12:12:25Z</time>
      </trkpt>
      <trkpt lat="44.8568" lon="4.60432">
        <ele>538.4</ele>
        <time>2021-03-27T12:12:29Z</time>
      </trkpt>
      <trkpt lat="44.85682" lon="4.60443">
        <ele>539</ele>
        <time>2021-03-27T12:12:33Z</time>
      </trkpt>
      <trkpt lat="44.85685" lon="4.60452">
        <ele>539.6</ele>
        <time>2021-03-27T12:12:37Z</time>
      </trkpt>
      <trkpt lat="44.85688" lon="4.60464">
        <ele>540</ele>
        <time>2021-03-27T12:12:41Z</time>
      </trkpt>
      <trkpt lat="44.85687" lon="4.60473">
        <ele>540.4</ele>
        <time>2021-03-27T12:12:45Z</time>
      </trkpt>
      <trkpt lat="44.85685" lon="4.60483">
        <ele>541.6</ele>
        <time>2021-03-27T12:12:49Z</time>
      </trkpt>
      <trkpt lat="44.85685" lon="4.60491">
        <ele>541.8</ele>
        <time>2021-03-27T12:12:53Z</time>
      </trkpt>
      <trkpt lat="44.85683" lon="4.60501">
        <ele>542</ele>
        <time>2021-03-27T12:12:57Z</time>
      </trkpt>
      <trkpt lat="44.8568" lon="4.6051">
        <ele>542.4</ele>
        <time>2021-03-27T12:13:01Z</time>
      </trkpt>
      <trkpt lat="44.8568" lon="4.6052">
        <ele>543.4</ele>
        <time>2021-03-27T12:13:05Z</time>
      </trkpt>
      <trkpt lat="44.85682" lon="4.60528">
        <ele>543.8</ele>
        <time>2021-03-27T12:13:09Z</time>
      </trkpt>
      <trkpt lat="44.85681" lon="4.60539">
        <ele>543.8</ele>
        <time>2021-03-27T12:13:13Z</time>
      </trkpt>
      <trkpt lat="44.85683" lon="4.60552">
        <ele>544.4</ele>
        <time>2021-03-27T12:13:17Z</time>
      </trkpt>
      <trkpt lat="44.85682" lon="4.60559">
        <ele>545</ele>
        <time>2021-03-27T12:13:21Z</time>
      </trkpt>
      <trkpt lat="44.85681" lon="4.60565">
        <ele>544.8</ele>
        <time>2021-03-27T12:13:25Z</time>
      </trkpt>
      <trkpt lat="44.85677" lon="4.60579">
        <ele>546</ele>
        <time>2021-03-27T12:13:29Z</time>
      </trkpt>
      <trkpt lat="44.85671" lon="4.60592">
        <ele>546.2</ele>
        <time>2021-03-27T12:13:33Z</time>
      </trkpt>
      <trkpt lat="44.85663" lon="4.60598">
        <ele>547</ele>
        <time>2021-03-27T12:13:37Z</time>
      </trkpt>
      <trkpt lat="44.85653" lon="4.60608">
        <ele>547.8</ele>
        <time>2021-03-27T12:13:41Z</time>
      </trkpt>
      <trkpt lat="44.85647" lon="4.60617">
        <ele>547.8</ele>
        <time>2021-03-27T12:13:45Z</time>
      </trkpt>
      <trkpt lat="44.85639" lon="4.60624">
        <ele>549</ele>
        <time>2021-03-27T12:13:49Z</time>
      </trkpt>
      <trkpt lat="44.85631" lon="4.60631">
        <ele>549.4</ele>
        <time>2021-03-27T12:13:53Z</time>
      </trkpt>
      <trkpt lat="44.85626" lon="4.60639">
        <ele>550</ele>
        <time>2021-03-27T12:13:57Z</time>
      </trkpt>
      <trkpt lat="44.85622" lon="4.60647">
        <ele>550.8</ele>
        <time>2021-03-27T12:14:01Z</time>
      </trkpt>
      <trkpt lat="44.85618" lon="4.60659">
        <ele>551.2</ele>
        <time>2021-03-27T12:14:05Z</time>
      </trkpt>
      <trkpt lat="44.85615" lon="4.60669">
        <ele>552.2</ele>
        <time>2021-03-27T12:14:09Z</time>
      </trkpt>
      <trkpt lat="44.85611" lon="4.60678">
        <ele>552.8</ele>
        <time>2021-03-27T12:14:13Z</time>
      </trkpt>
      <trkpt lat="44.85602" lon="4.60687">
        <ele>553.2</ele>
        <time>2021-03-27T12:14:17Z</time>
      </trkpt>
      <trkpt lat="44.85595" lon="4.60694">
        <ele>552.8</ele>
        <time>2021-03-27T12:14:21Z</time>
      </trkpt>
      <trkpt lat="44.85588" lon="4.60701">
        <ele>554.4</ele>
        <time>2021-03-27T12:14:25Z</time>
      </trkpt>
      <trkpt lat="44.85581" lon="4.60707">
        <ele>555.2</ele>
        <time>2021-03-27T12:14:29Z</time>
      </trkpt>
      <trkpt lat="44.85575" lon="4.60715">
        <ele>555.4</ele>
        <time>2021-03-27T12:14:33Z</time>
      </trkpt>
      <trkpt lat="44.85569" lon="4.60724">
        <ele>556.2</ele>
        <time>2021-03-27T12:14:37Z</time>
      </trkpt>
      <trkpt lat="44.85564" lon="4.60732">
        <ele>555.6</ele>
        <time>2021-03-27T12:14:41Z</time>
      </trkpt>
      <trkpt lat="44.85562" lon="4.60742">
        <ele>557</ele>
        <time>2021-03-27T12:14:45Z</time>
      </trkpt>
      <trkpt lat="44.8556" lon="4.60751">
        <ele>557.6</ele>
        <time>2021-03-27T12:14:49Z</time>
      </trkpt>
      <trkpt lat="44.85559" lon="4.6076">
        <ele>558.2</ele>
        <time>2021-03-27T12:14:53Z</time>
      </trkpt>
      <trkpt lat="44.85558" lon="4.60771">
        <ele>558.4</ele>
        <time>2021-03-27T12:14:57Z</time>
      </trkpt>
      <trkpt lat="44.85557" lon="4.6078">
        <ele>558.8</ele>
        <time>2021-03-27T12:15:01Z</time>
      </trkpt>
      <trkpt lat="44.85558" lon="4.60791">
        <ele>560.2</ele>
        <time>2021-03-27T12:15:05Z</time>
      </trkpt>
      <trkpt lat="44.85557" lon="4.60804">
        <ele>560</ele>
        <time>2021-03-27T12:15:09Z</time>
      </trkpt>
      <trkpt lat="44.85557" lon="4.60817">
        <ele>561</ele>
        <time>2021-03-27T12:15:13Z</time>
      </trkpt>
      <trkpt lat="44.85555" lon="4.60828">
        <ele>562</ele>
        <time>2021-03-27T12:15:17Z</time>
      </trkpt>
      <trkpt lat="44.85556" lon="4.60839">
        <ele>562</ele>
        <time>2021-03-27T12:15:21Z</time>
      </trkpt>
      <trkpt lat="44.85555" lon="4.60851">
        <ele>562.8</ele>
        <time>2021-03-27T12:15:25Z</time>
      </trkpt>
      <trkpt lat="44.85553" lon="4.60868">
        <ele>563.2</ele>
        <time>2021-03-27T12:15:29Z</time>
      </trkpt>
      <trkpt lat="44.85555" lon="4.60882">
        <ele>562.8</ele>
        <time>2021-03-27T12:15:33Z</time>
      </trkpt>
      <trkpt lat="44.85557" lon="4.60897">
        <ele>563.4</ele>
        <time>2021-03-27T12:15:37Z</time>
      </trkpt>
      <trkpt lat="44.85558" lon="4.60909">
        <ele>564.6</ele>
        <time>2021-03-27T12:15:41Z</time>
      </trkpt>
      <trkpt lat="44.8556" lon="4.6092">
        <ele>565.8</ele>
        <time>2021-03-27T12:15:45Z</time>
      </trkpt>
      <trkpt lat="44.85562" lon="4.6093">
        <ele>567.2</ele>
        <time>2021-03-27T12:15:49Z</time>
      </trkpt>
      <trkpt lat="44.85565" lon="4.60943">
        <ele>565.8</ele>
        <time>2021-03-27T12:15:53Z</time>
      </trkpt>
      <trkpt lat="44.85568" lon="4.60952">
        <ele>566.8</ele>
        <time>2021-03-27T12:15:57Z</time>
      </trkpt>
      <trkpt lat="44.85575" lon="4.60964">
        <ele>567.2</ele>
        <time>2021-03-27T12:16:01Z</time>
      </trkpt>
      <trkpt lat="44.85582" lon="4.60973">
        <ele>568.2</ele>
        <time>2021-03-27T12:16:05Z</time>
      </trkpt>
      <trkpt lat="44.85593" lon="4.60979">
        <ele>568.6</ele>
        <time>2021-03-27T12:16:09Z</time>
      </trkpt>
      <trkpt lat="44.85604" lon="4.60984">
        <ele>568.6</ele>
        <time>2021-03-27T12:16:13Z</time>
      </trkpt>
      <trkpt lat="44.85613" lon="4.60987">
        <ele>568</ele>
        <time>2021-03-27T12:16:17Z</time>
      </trkpt>
      <trkpt lat="44.85624" lon="4.60993">
        <ele>569.2</ele>
        <time>2021-03-27T12:16:21Z</time>
      </trkpt>
      <trkpt lat="44.85632" lon="4.61001">
        <ele>569.8</ele>
        <time>2021-03-27T12:16:25Z</time>
      </trkpt>
      <trkpt lat="44.8564" lon="4.6101">
        <ele>570</ele>
        <time>2021-03-27T12:16:29Z</time>
      </trkpt>
      <trkpt lat="44.85647" lon="4.61021">
        <ele>570</ele>
        <time>2021-03-27T12:16:33Z</time>
      </trkpt>
      <trkpt lat="44.85653" lon="4.61034">
        <ele>570</ele>
        <time>2021-03-27T12:16:37Z</time>
      </trkpt>
      <trkpt lat="44.85663" lon="4.61044">
        <ele>571.4</ele>
        <time>2021-03-27T12:16:41Z</time>
      </trkpt>
      <trkpt lat="44.85673" lon="4.61053">
        <ele>571</ele>
        <time>2021-03-27T12:16:45Z</time>
      </trkpt>
      <trkpt lat="44.8568" lon="4.61062">
        <ele>571.6</ele>
        <time>2021-03-27T12:16:49Z</time>
      </trkpt>
      <trkpt lat="44.85691" lon="4.61069">
        <ele>571.6</ele>
        <time>2021-03-27T12:16:53Z</time>
      </trkpt>
      <trkpt lat="44.85702" lon="4.61076">
        <ele>572.2</ele>
        <time>2021-03-27T12:16:57Z</time>
      </trkpt>
      <trkpt lat="44.85711" lon="4.61081">
        <ele>572.4</ele>
        <time>2021-03-27T12:17:01Z</time>
      </trkpt>
      <trkpt lat="44.8572" lon="4.61088">
        <ele>573.2</ele>
        <time>2021-03-27T12:17:05Z</time>
      </trkpt>
      <trkpt lat="44.85728" lon="4.61097">
        <ele>574</ele>
        <time>2021-03-27T12:17:09Z</time>
      </trkpt>
      <trkpt lat="44.85735" lon="4.61108">
        <ele>574</ele>
        <time>2021-03-27T12:17:13Z</time>
      </trkpt>
      <trkpt lat="44.85742" lon="4.61119">
        <ele>574.2</ele>
        <time>2021-03-27T12:17:17Z</time>
      </trkpt>
      <trkpt lat="44.85747" lon="4.61129">
        <ele>573.6</ele>
        <time>2021-03-27T12:17:21Z</time>
      </trkpt>
      <trkpt lat="44.8575" lon="4.61145">
        <ele>574.8</ele>
        <time>2021-03-27T12:17:25Z</time>
      </trkpt>
      <trkpt lat="44.85751" lon="4.61159">
        <ele>574.2</ele>
        <time>2021-03-27T12:17:29Z</time>
      </trkpt>
      <trkpt lat="44.85752" lon="4.61175">
        <ele>574.8</ele>
        <time>2021-03-27T12:17:33Z</time>
      </trkpt>
      <trkpt lat="44.85754" lon="4.61191">
        <ele>575.4</ele>
        <time>2021-03-27T12:17:37Z</time>
      </trkpt>
      <trkpt lat="44.85757" lon="4.61206">
        <ele>576.8</ele>
        <time>2021-03-27T12:17:41Z</time>
      </trkpt>
      <trkpt lat="44.85754" lon="4.61219">
        <ele>577.8</ele>
        <time>2021-03-27T12:17:45Z</time>
      </trkpt>
      <trkpt lat="44.85752" lon="4.61231">
        <ele>577.6</ele>
        <time>2021-03-27T12:17:49Z</time>
      </trkpt>
      <trkpt lat="44.85748" lon="4.61242">
        <ele>578</ele>
        <time>2021-03-27T12:17:53Z</time>
      </trkpt>
      <trkpt lat="44.85743" lon="4.61254">
        <ele>578</ele>
        <time>2021-03-27T12:17:57Z</time>
      </trkpt>
      <trkpt lat="44.85737" lon="4.61266">
        <ele>578.8</ele>
        <time>2021-03-27T12:18:01Z</time>
      </trkpt>
      <trkpt lat="44.85733" lon="4.6128">
        <ele>578.6</ele>
        <time>2021-03-27T12:18:05Z</time>
      </trkpt>
      <trkpt lat="44.85738" lon="4.61291">
        <ele>579.4</ele>
        <time>2021-03-27T12:18:09Z</time>
      </trkpt>
      <trkpt lat="44.85745" lon="4.61295">
        <ele>579.8</ele>
        <time>2021-03-27T12:18:13Z</time>
      </trkpt>
      <trkpt lat="44.85753" lon="4.61297">
        <ele>581</ele>
        <time>2021-03-27T12:18:17Z</time>
      </trkpt>
      <trkpt lat="44.8576" lon="4.613">
        <ele>580.8</ele>
        <time>2021-03-27T12:18:21Z</time>
      </trkpt>
      <trkpt lat="44.85767" lon="4.61304">
        <ele>582.8</ele>
        <time>2021-03-27T12:18:25Z</time>
      </trkpt>
      <trkpt lat="44.85775" lon="4.61308">
        <ele>583.2</ele>
        <time>2021-03-27T12:18:29Z</time>
      </trkpt>
      <trkpt lat="44.85782" lon="4.61312">
        <ele>583.4</ele>
        <time>2021-03-27T12:18:33Z</time>
      </trkpt>
      <trkpt lat="44.85789" lon="4.61317">
        <ele>584.2</ele>
        <time>2021-03-27T12:18:37Z</time>
      </trkpt>
      <trkpt lat="44.85797" lon="4.61321">
        <ele>585.2</ele>
        <time>2021-03-27T12:18:41Z</time>
      </trkpt>
      <trkpt lat="44.85804" lon="4.61325">
        <ele>586</ele>
        <time>2021-03-27T12:18:45Z</time>
      </trkpt>
      <trkpt lat="44.85811" lon="4.61329">
        <ele>585.8</ele>
        <time>2021-03-27T12:18:49Z</time>
      </trkpt>
      <trkpt lat="44.85818" lon="4.61332">
        <ele>586.8</ele>
        <time>2021-03-27T12:18:53Z</time>
      </trkpt>
      <trkpt lat="44.85824" lon="4.61337">
        <ele>587.4</ele>
        <time>2021-03-27T12:18:57Z</time>
      </trkpt>
      <trkpt lat="44.8583" lon="4.61344">
        <ele>587</ele>
        <time>2021-03-27T12:19:01Z</time>
      </trkpt>
      <trkpt lat="44.85836" lon="4.61351">
        <ele>586.8</ele>
        <time>2021-03-27T12:19:05Z</time>
      </trkpt>
      <trkpt lat="44.85845" lon="4.61358">
        <ele>585.6</ele>
        <time>2021-03-27T12:19:09Z</time>
      </trkpt>
      <trkpt lat="44.85858" lon="4.61368">
        <ele>582.4</ele>
        <time>2021-03-27T12:19:13Z</time>
      </trkpt>
      <trkpt lat="44.85874" lon="4.61377">
        <ele>581.4</ele>
        <time>2021-03-27T12:19:17Z</time>
      </trkpt>
      <trkpt lat="44.85894" lon="4.61381">
        <ele>580.2</ele>
        <time>2021-03-27T12:19:21Z</time>
      </trkpt>
      <trkpt lat="44.85912" lon="4.61373">
        <ele>581.6</ele>
        <time>2021-03-27T12:19:25Z</time>
      </trkpt>
      <trkpt lat="44.85927" lon="4.61365">
        <ele>582.2</ele>
        <time>2021-03-27T12:19:29Z</time>
      </trkpt>
      <trkpt lat="44.85942" lon="4.61365">
        <ele>582</ele>
        <time>2021-03-27T12:19:33Z</time>
      </trkpt>
      <trkpt lat="44.85957" lon="4.61368">
        <ele>583</ele>
        <time>2021-03-27T12:19:37Z</time>
      </trkpt>
      <trkpt lat="44.85973" lon="4.6137">
        <ele>581.6</ele>
        <time>2021-03-27T12:19:41Z</time>
      </trkpt>
      <trkpt lat="44.85988" lon="4.6137">
        <ele>581.4</ele>
        <time>2021-03-27T12:19:45Z</time>
      </trkpt>
      <trkpt lat="44.85998" lon="4.61371">
        <ele>581.6</ele>
        <time>2021-03-27T12:19:49Z</time>
      </trkpt>
      <trkpt lat="44.8601" lon="4.61361">
        <ele>581.8</ele>
        <time>2021-03-27T12:19:53Z</time>
      </trkpt>
      <trkpt lat="44.86019" lon="4.61348">
        <ele>581</ele>
        <time>2021-03-27T12:19:57Z</time>
      </trkpt>
      <trkpt lat="44.86028" lon="4.61337">
        <ele>581.4</ele>
        <time>2021-03-27T12:20:01Z</time>
      </trkpt>
      <trkpt lat="44.86041" lon="4.61324">
        <ele>581.6</ele>
        <time>2021-03-27T12:20:05Z</time>
      </trkpt>
      <trkpt lat="44.86053" lon="4.61317">
        <ele>582</ele>
        <time>2021-03-27T12:20:09Z</time>
      </trkpt>
      <trkpt lat="44.86068" lon="4.61309">
        <ele>582.4</ele>
        <time>2021-03-27T12:20:13Z</time>
      </trkpt>
      <trkpt lat="44.86081" lon="4.61304">
        <ele>581.2</ele>
        <time>2021-03-27T12:20:17Z</time>
      </trkpt>
      <trkpt lat="44.86099" lon="4.61302">
        <ele>582.4</ele>
        <time>2021-03-27T12:20:21Z</time>
      </trkpt>
      <trkpt lat="44.86116" lon="4.61299">
        <ele>582</ele>
        <time>2021-03-27T12:20:25Z</time>
      </trkpt>
      <trkpt lat="44.86127" lon="4.61294">
        <ele>582</ele>
        <time>2021-03-27T12:20:29Z</time>
      </trkpt>
      <trkpt lat="44.86142" lon="4.61286">
        <ele>581.4</ele>
        <time>2021-03-27T12:20:33Z</time>
      </trkpt>
      <trkpt lat="44.86154" lon="4.61277">
        <ele>582.2</ele>
        <time>2021-03-27T12:20:37Z</time>
      </trkpt>
      <trkpt lat="44.86167" lon="4.61273">
        <ele>579.8</ele>
        <time>2021-03-27T12:20:41Z</time>
      </trkpt>
      <trkpt lat="44.86178" lon="4.6127">
        <ele>581.6</ele>
        <time>2021-03-27T12:20:45Z</time>
      </trkpt>
      <trkpt lat="44.86191" lon="4.61268">
        <ele>581.2</ele>
        <time>2021-03-27T12:20:49Z</time>
      </trkpt>
      <trkpt lat="44.86209" lon="4.61261">
        <ele>581.6</ele>
        <time>2021-03-27T12:20:53Z</time>
      </trkpt>
      <trkpt lat="44.86222" lon="4.61256">
        <ele>581.4</ele>
        <time>2021-03-27T12:20:57Z</time>
      </trkpt>
      <trkpt lat="44.86236" lon="4.61245">
        <ele>582.8</ele>
        <time>2021-03-27T12:21:01Z</time>
      </trkpt>
      <trkpt lat="44.86248" lon="4.61234">
        <ele>584</ele>
        <time>2021-03-27T12:21:05Z</time>
      </trkpt>
      <trkpt lat="44.8626" lon="4.61223">
        <ele>584.4</ele>
        <time>2021-03-27T12:21:09Z</time>
      </trkpt>
      <trkpt lat="44.86272" lon="4.61212">
        <ele>584</ele>
        <time>2021-03-27T12:21:13Z</time>
      </trkpt>
      <trkpt lat="44.86282" lon="4.61201">
        <ele>583.8</ele>
        <time>2021-03-27T12:21:17Z</time>
      </trkpt>
      <trkpt lat="44.86295" lon="4.61194">
        <ele>585</ele>
        <time>2021-03-27T12:21:21Z</time>
      </trkpt>
      <trkpt lat="44.86307" lon="4.61187">
        <ele>585.2</ele>
        <time>2021-03-27T12:21:25Z</time>
      </trkpt>
      <trkpt lat="44.86317" lon="4.61179">
        <ele>586</ele>
        <time>2021-03-27T12:21:29Z</time>
      </trkpt>
      <trkpt lat="44.86328" lon="4.61172">
        <ele>585.8</ele>
        <time>2021-03-27T12:21:33Z</time>
      </trkpt>
      <trkpt lat="44.86339" lon="4.61164">
        <ele>587</ele>
        <time>2021-03-27T12:21:37Z</time>
      </trkpt>
      <trkpt lat="44.8635" lon="4.61156">
        <ele>587</ele>
        <time>2021-03-27T12:21:41Z</time>
      </trkpt>
      <trkpt lat="44.8636" lon="4.61148">
        <ele>586.8</ele>
        <time>2021-03-27T12:21:45Z</time>
      </trkpt>
      <trkpt lat="44.8637" lon="4.61143">
        <ele>589</ele>
        <time>2021-03-27T12:21:49Z</time>
      </trkpt>
      <trkpt lat="44.86381" lon="4.61134">
        <ele>587.6</ele>
        <time>2021-03-27T12:21:53Z</time>
      </trkpt>
      <trkpt lat="44.86392" lon="4.61125">
        <ele>588.8</ele>
        <time>2021-03-27T12:21:57Z</time>
      </trkpt>
      <trkpt lat="44.86404" lon="4.61117">
        <ele>589.6</ele>
        <time>2021-03-27T12:22:01Z</time>
      </trkpt>
      <trkpt lat="44.86414" lon="4.61109">
        <ele>589.4</ele>
        <time>2021-03-27T12:22:05Z</time>
      </trkpt>
      <trkpt lat="44.86423" lon="4.61099">
        <ele>589.6</ele>
        <time>2021-03-27T12:22:09Z</time>
      </trkpt>
      <trkpt lat="44.86432" lon="4.61089">
        <ele>589.8</ele>
        <time>2021-03-27T12:22:13Z</time>
      </trkpt>
      <trkpt lat="44.86441" lon="4.61078">
        <ele>589.4</ele>
        <time>2021-03-27T12:22:17Z</time>
      </trkpt>
      <trkpt lat="44.8645" lon="4.61066">
        <ele>588.8</ele>
        <time>2021-03-27T12:22:21Z</time>
      </trkpt>
      <trkpt lat="44.86459" lon="4.61055">
        <ele>588</ele>
        <time>2021-03-27T12:22:25Z</time>
      </trkpt>
      <trkpt lat="44.86468" lon="4.61045">
        <ele>590.4</ele>
        <time>2021-03-27T12:22:29Z</time>
      </trkpt>
      <trkpt lat="44.86476" lon="4.61034">
        <ele>588.8</ele>
        <time>2021-03-27T12:22:33Z</time>
      </trkpt>
      <trkpt lat="44.86483" lon="4.61021">
        <ele>590.4</ele>
        <time>2021-03-27T12:22:37Z</time>
      </trkpt>
      <trkpt lat="44.86488" lon="4.61008">
        <ele>590.8</ele>
        <time>2021-03-27T12:22:41Z</time>
      </trkpt>
      <trkpt lat="44.86496" lon="4.61">
        <ele>591.8</ele>
        <time>2021-03-27T12:22:45Z</time>
      </trkpt>
      <trkpt lat="44.86506" lon="4.61003">
        <ele>592.6</ele>
        <time>2021-03-27T12:22:49Z</time>
      </trkpt>
      <trkpt lat="44.86515" lon="4.61006">
        <ele>591.8</ele>
        <time>2021-03-27T12:22:53Z</time>
      </trkpt>
      <trkpt lat="44.86524" lon="4.61005">
        <ele>593.8</ele>
        <time>2021-03-27T12:22:57Z</time>
      </trkpt>
      <trkpt lat="44.86531" lon="4.61005">
        <ele>592.4</ele>
        <time>2021-03-27T12:23:01Z</time>
      </trkpt>
      <trkpt lat="44.8654" lon="4.61004">
        <ele>592</ele>
        <time>2021-03-27T12:23:05Z</time>
      </trkpt>
      <trkpt lat="44.86552" lon="4.61003">
        <ele>590.8</ele>
        <time>2021-03-27T12:23:09Z</time>
      </trkpt>
      <trkpt lat="44.86566" lon="4.61004">
        <ele>590.4</ele>
        <time>2021-03-27T12:23:13Z</time>
      </trkpt>
      <trkpt lat="44.86583" lon="4.61007">
        <ele>589.2</ele>
        <time>2021-03-27T12:23:17Z</time>
      </trkpt>
      <trkpt lat="44.86602" lon="4.61014">
        <ele>587.8</ele>
        <time>2021-03-27T12:23:21Z</time>
      </trkpt>
      <trkpt lat="44.86621" lon="4.61022">
        <ele>586.6</ele>
        <time>2021-03-27T12:23:25Z</time>
      </trkpt>
      <trkpt lat="44.8664" lon="4.61033">
        <ele>584.8</ele>
        <time>2021-03-27T12:23:29Z</time>
      </trkpt>
      <trkpt lat="44.8666" lon="4.6105">
        <ele>585.6</ele>
        <time>2021-03-27T12:23:33Z</time>
      </trkpt>
      <trkpt lat="44.86682" lon="4.61064">
        <ele>584</ele>
        <time>2021-03-27T12:23:37Z</time>
      </trkpt>
      <trkpt lat="44.86704" lon="4.61072">
        <ele>584.8</ele>
        <time>2021-03-27T12:23:41Z</time>
      </trkpt>
      <trkpt lat="44.86721" lon="4.61077">
        <ele>583.6</ele>
        <time>2021-03-27T12:23:45Z</time>
      </trkpt>
      <trkpt lat="44.86738" lon="4.61081">
        <ele>585.2</ele>
        <time>2021-03-27T12:23:49Z</time>
      </trkpt>
      <trkpt lat="44.86755" lon="4.61084">
        <ele>584.2</ele>
        <time>2021-03-27T12:23:53Z</time>
      </trkpt>
      <trkpt lat="44.86771" lon="4.61087">
        <ele>582</ele>
        <time>2021-03-27T12:23:57Z</time>
      </trkpt>
      <trkpt lat="44.86788" lon="4.61091">
        <ele>581.6</ele>
        <time>2021-03-27T12:24:01Z</time>
      </trkpt>
      <trkpt lat="44.86807" lon="4.61091">
        <ele>580.2</ele>
        <time>2021-03-27T12:24:05Z</time>
      </trkpt>
      <trkpt lat="44.86827" lon="4.61088">
        <ele>579</ele>
        <time>2021-03-27T12:24:09Z</time>
      </trkpt>
      <trkpt lat="44.86848" lon="4.61092">
        <ele>579.4</ele>
        <time>2021-03-27T12:24:13Z</time>
      </trkpt>
      <trkpt lat="44.86869" lon="4.61104">
        <ele>576.6</ele>
        <time>2021-03-27T12:24:17Z</time>
      </trkpt>
      <trkpt lat="44.86893" lon="4.61099">
        <ele>575.2</ele>
        <time>2021-03-27T12:24:21Z</time>
      </trkpt>
      <trkpt lat="44.86914" lon="4.61087">
        <ele>573.6</ele>
        <time>2021-03-27T12:24:25Z</time>
      </trkpt>
      <trkpt lat="44.86938" lon="4.61089">
        <ele>571.4</ele>
        <time>2021-03-27T12:24:29Z</time>
      </trkpt>
      <trkpt lat="44.86958" lon="4.61108">
        <ele>570.8</ele>
        <time>2021-03-27T12:24:33Z</time>
      </trkpt>
      <trkpt lat="44.86976" lon="4.61123">
        <ele>566.8</ele>
        <time>2021-03-27T12:24:37Z</time>
      </trkpt>
      <trkpt lat="44.87001" lon="4.61119">
        <ele>564.6</ele>
        <time>2021-03-27T12:24:41Z</time>
      </trkpt>
      <trkpt lat="44.87028" lon="4.61116">
        <ele>562</ele>
        <time>2021-03-27T12:24:45Z</time>
      </trkpt>
      <trkpt lat="44.87058" lon="4.61114">
        <ele>559.8</ele>
        <time>2021-03-27T12:24:49Z</time>
      </trkpt>
      <trkpt lat="44.87088" lon="4.61119">
        <ele>558.4</ele>
        <time>2021-03-27T12:24:53Z</time>
      </trkpt>
      <trkpt lat="44.87116" lon="4.61123">
        <ele>557.4</ele>
        <time>2021-03-27T12:24:57Z</time>
      </trkpt>
      <trkpt lat="44.87141" lon="4.61124">
        <ele>560</ele>
        <time>2021-03-27T12:25:01Z</time>
      </trkpt>
      <trkpt lat="44.87162" lon="4.61123">
        <ele>558</ele>
        <time>2021-03-27T12:25:05Z</time>
      </trkpt>
      <trkpt lat="44.87183" lon="4.61126">
        <ele>557</ele>
        <time>2021-03-27T12:25:09Z</time>
      </trkpt>
      <trkpt lat="44.87206" lon="4.61136">
        <ele>555.2</ele>
        <time>2021-03-27T12:25:13Z</time>
      </trkpt>
      <trkpt lat="44.87229" lon="4.61146">
        <ele>554.6</ele>
        <time>2021-03-27T12:25:17Z</time>
      </trkpt>
      <trkpt lat="44.87253" lon="4.61155">
        <ele>554.2</ele>
        <time>2021-03-27T12:25:21Z</time>
      </trkpt>
      <trkpt lat="44.87271" lon="4.61169">
        <ele>551.2</ele>
        <time>2021-03-27T12:25:25Z</time>
      </trkpt>
      <trkpt lat="44.87272" lon="4.61196">
        <ele>549.4</ele>
        <time>2021-03-27T12:25:29Z</time>
      </trkpt>
      <trkpt lat="44.87266" lon="4.61227">
        <ele>549.4</ele>
        <time>2021-03-27T12:25:33Z</time>
      </trkpt>
      <trkpt lat="44.8726" lon="4.61259">
        <ele>548.4</ele>
        <time>2021-03-27T12:25:37Z</time>
      </trkpt>
      <trkpt lat="44.87258" lon="4.61288">
        <ele>549</ele>
        <time>2021-03-27T12:25:41Z</time>
      </trkpt>
      <trkpt lat="44.87267" lon="4.61308">
        <ele>549</ele>
        <time>2021-03-27T12:25:45Z</time>
      </trkpt>
      <trkpt lat="44.87284" lon="4.61328">
        <ele>549</ele>
        <time>2021-03-27T12:25:49Z</time>
      </trkpt>
      <trkpt lat="44.87303" lon="4.61347">
        <ele>548.2</ele>
        <time>2021-03-27T12:25:53Z</time>
      </trkpt>
      <trkpt lat="44.87325" lon="4.61367">
        <ele>548</ele>
        <time>2021-03-27T12:25:57Z</time>
      </trkpt>
      <trkpt lat="44.87359" lon="4.61389">
        <ele>549.6</ele>
        <time>2021-03-27T12:26:01Z</time>
      </trkpt>
      <trkpt lat="44.87379" lon="4.6141">
        <ele>549</ele>
        <time>2021-03-27T12:26:05Z</time>
      </trkpt>
      <trkpt lat="44.87391" lon="4.61432">
        <ele>547.8</ele>
        <time>2021-03-27T12:26:09Z</time>
      </trkpt>
      <trkpt lat="44.874" lon="4.61457">
        <ele>548.4</ele>
        <time>2021-03-27T12:26:13Z</time>
      </trkpt>
      <trkpt lat="44.87411" lon="4.61481">
        <ele>549.4</ele>
        <time>2021-03-27T12:26:17Z</time>
      </trkpt>
      <trkpt lat="44.87422" lon="4.61503">
        <ele>548.8</ele>
        <time>2021-03-27T12:26:21Z</time>
      </trkpt>
      <trkpt lat="44.87434" lon="4.61523">
        <ele>548.4</ele>
        <time>2021-03-27T12:26:25Z</time>
      </trkpt>
      <trkpt lat="44.87444" lon="4.61545">
        <ele>548.2</ele>
        <time>2021-03-27T12:26:29Z</time>
      </trkpt>
      <trkpt lat="44.87446" lon="4.61567">
        <ele>547.6</ele>
        <time>2021-03-27T12:26:33Z</time>
      </trkpt>
      <trkpt lat="44.8744" lon="4.61585">
        <ele>546.8</ele>
        <time>2021-03-27T12:26:37Z</time>
      </trkpt>
      <trkpt lat="44.87429" lon="4.61599">
        <ele>545</ele>
        <time>2021-03-27T12:26:41Z</time>
      </trkpt>
      <trkpt lat="44.87414" lon="4.61608">
        <ele>543</ele>
        <time>2021-03-27T12:26:45Z</time>
      </trkpt>
      <trkpt lat="44.874" lon="4.61612">
        <ele>543.6</ele>
        <time>2021-03-27T12:26:49Z</time>
      </trkpt>
      <trkpt lat="44.87386" lon="4.61617">
        <ele>542.4</ele>
        <time>2021-03-27T12:26:53Z</time>
      </trkpt>
      <trkpt lat="44.87367" lon="4.61625">
        <ele>541.4</ele>
        <time>2021-03-27T12:26:57Z</time>
      </trkpt>
      <trkpt lat="44.8735" lon="4.6163">
        <ele>539.2</ele>
        <time>2021-03-27T12:27:01Z</time>
      </trkpt>
      <trkpt lat="44.87336" lon="4.61657">
        <ele>541.8</ele>
        <time>2021-03-27T12:27:05Z</time>
      </trkpt>
      <trkpt lat="44.87338" lon="4.61677">
        <ele>543.2</ele>
        <time>2021-03-27T12:27:09Z</time>
      </trkpt>
      <trkpt lat="44.87339" lon="4.61696">
        <ele>544.8</ele>
        <time>2021-03-27T12:27:13Z</time>
      </trkpt>
      <trkpt lat="44.87338" lon="4.61717">
        <ele>545</ele>
        <time>2021-03-27T12:27:17Z</time>
      </trkpt>
      <trkpt lat="44.87336" lon="4.61737">
        <ele>545.8</ele>
        <time>2021-03-27T12:27:21Z</time>
      </trkpt>
      <trkpt lat="44.87333" lon="4.61753">
        <ele>546.4</ele>
        <time>2021-03-27T12:27:25Z</time>
      </trkpt>
      <trkpt lat="44.87331" lon="4.61765">
        <ele>546.8</ele>
        <time>2021-03-27T12:27:29Z</time>
      </trkpt>
      <trkpt lat="44.87328" lon="4.61777">
        <ele>548</ele>
        <time>2021-03-27T12:27:33Z</time>
      </trkpt>
      <trkpt lat="44.87321" lon="4.6179">
        <ele>547.8</ele>
        <time>2021-03-27T12:27:37Z</time>
      </trkpt>
      <trkpt lat="44.87314" lon="4.61798">
        <ele>548.4</ele>
        <time>2021-03-27T12:27:41Z</time>
      </trkpt>
      <trkpt lat="44.87306" lon="4.61805">
        <ele>547.2</ele>
        <time>2021-03-27T12:27:45Z</time>
      </trkpt>
      <trkpt lat="44.87299" lon="4.61811">
        <ele>546.6</ele>
        <time>2021-03-27T12:27:49Z</time>
      </trkpt>
      <trkpt lat="44.87287" lon="4.61826">
        <ele>545.4</ele>
        <time>2021-03-27T12:27:53Z</time>
      </trkpt>
      <trkpt lat="44.87275" lon="4.61847">
        <ele>544.2</ele>
        <time>2021-03-27T12:27:57Z</time>
      </trkpt>
      <trkpt lat="44.87274" lon="4.61873">
        <ele>543.6</ele>
        <time>2021-03-27T12:28:01Z</time>
      </trkpt>
      <trkpt lat="44.87277" lon="4.61893">
        <ele>543.4</ele>
        <time>2021-03-27T12:28:05Z</time>
      </trkpt>
      <trkpt lat="44.87279" lon="4.6192">
        <ele>543.6</ele>
        <time>2021-03-27T12:28:09Z</time>
      </trkpt>
      <trkpt lat="44.87281" lon="4.61945">
        <ele>543</ele>
        <time>2021-03-27T12:28:13Z</time>
      </trkpt>
      <trkpt lat="44.87308" lon="4.61966">
        <ele>543.8</ele>
        <time>2021-03-27T12:28:17Z</time>
      </trkpt>
      <trkpt lat="44.87325" lon="4.61967">
        <ele>544.8</ele>
        <time>2021-03-27T12:28:21Z</time>
      </trkpt>
      <trkpt lat="44.87336" lon="4.61966">
        <ele>545.6</ele>
        <time>2021-03-27T12:28:25Z</time>
      </trkpt>
      <trkpt lat="44.87346" lon="4.61963">
        <ele>546.4</ele>
        <time>2021-03-27T12:28:29Z</time>
      </trkpt>
      <trkpt lat="44.87356" lon="4.61963">
        <ele>547.2</ele>
        <time>2021-03-27T12:28:33Z</time>
      </trkpt>
      <trkpt lat="44.87366" lon="4.61966">
        <ele>547.4</ele>
        <time>2021-03-27T12:28:37Z</time>
      </trkpt>
      <trkpt lat="44.87376" lon="4.61971">
        <ele>548.2</ele>
        <time>2021-03-27T12:28:41Z</time>
      </trkpt>
      <trkpt lat="44.87386" lon="4.61978">
        <ele>546.8</ele>
        <time>2021-03-27T12:28:45Z</time>
      </trkpt>
      <trkpt lat="44.87396" lon="4.61987">
        <ele>547.2</ele>
        <time>2021-03-27T12:28:49Z</time>
      </trkpt>
      <trkpt lat="44.87405" lon="4.62">
        <ele>547</ele>
        <time>2021-03-27T12:28:53Z</time>
      </trkpt>
      <trkpt lat="44.87412" lon="4.62014">
        <ele>545.4</ele>
        <time>2021-03-27T12:28:57Z</time>
      </trkpt>
      <trkpt lat="44.87416" lon="4.6203">
        <ele>547</ele>
        <time>2021-03-27T12:29:01Z</time>
      </trkpt>
      <trkpt lat="44.87416" lon="4.62043">
        <ele>546.8</ele>
        <time>2021-03-27T12:29:05Z</time>
      </trkpt>
      <trkpt lat="44.87418" lon="4.6206">
        <ele>547.8</ele>
        <time>2021-03-27T12:29:09Z</time>
      </trkpt>
      <trkpt lat="44.87422" lon="4.62077">
        <ele>548.8</ele>
        <time>2021-03-27T12:29:13Z</time>
      </trkpt>
      <trkpt lat="44.87423" lon="4.62096">
        <ele>548.2</ele>
        <time>2021-03-27T12:29:17Z</time>
      </trkpt>
      <trkpt lat="44.87424" lon="4.62116">
        <ele>548.6</ele>
        <time>2021-03-27T12:29:21Z</time>
      </trkpt>
      <trkpt lat="44.87423" lon="4.62136">
        <ele>547.8</ele>
        <time>2021-03-27T12:29:25Z</time>
      </trkpt>
      <trkpt lat="44.87421" lon="4.62158">
        <ele>549.2</ele>
        <time>2021-03-27T12:29:29Z</time>
      </trkpt>
      <trkpt lat="44.87413" lon="4.62179">
        <ele>548</ele>
        <time>2021-03-27T12:29:33Z</time>
      </trkpt>
      <trkpt lat="44.87409" lon="4.62197">
        <ele>548.8</ele>
        <time>2021-03-27T12:29:37Z</time>
      </trkpt>
      <trkpt lat="44.87406" lon="4.62214">
        <ele>549.6</ele>
        <time>2021-03-27T12:29:41Z</time>
      </trkpt>
      <trkpt lat="44.87408" lon="4.62229">
        <ele>550.8</ele>
        <time>2021-03-27T12:29:45Z</time>
      </trkpt>
      <trkpt lat="44.87407" lon="4.62244">
        <ele>551.2</ele>
        <time>2021-03-27T12:29:49Z</time>
      </trkpt>
      <trkpt lat="44.8741" lon="4.62259">
        <ele>552.2</ele>
        <time>2021-03-27T12:29:53Z</time>
      </trkpt>
      <trkpt lat="44.87413" lon="4.62272">
        <ele>552.4</ele>
        <time>2021-03-27T12:29:57Z</time>
      </trkpt>
      <trkpt lat="44.8742" lon="4.62285">
        <ele>553.4</ele>
        <time>2021-03-27T12:30:01Z</time>
      </trkpt>
      <trkpt lat="44.87428" lon="4.62296">
        <ele>551.8</ele>
        <time>2021-03-27T12:30:05Z</time>
      </trkpt>
      <trkpt lat="44.87437" lon="4.62305">
        <ele>553</ele>
        <time>2021-03-27T12:30:09Z</time>
      </trkpt>
      <trkpt lat="44.87446" lon="4.62317">
        <ele>551.4</ele>
        <time>2021-03-27T12:30:13Z</time>
      </trkpt>
      <trkpt lat="44.87457" lon="4.62328">
        <ele>552</ele>
        <time>2021-03-27T12:30:17Z</time>
      </trkpt>
      <trkpt lat="44.87469" lon="4.62338">
        <ele>552.4</ele>
        <time>2021-03-27T12:30:21Z</time>
      </trkpt>
      <trkpt lat="44.87481" lon="4.62347">
        <ele>553</ele>
        <time>2021-03-27T12:30:25Z</time>
      </trkpt>
      <trkpt lat="44.87493" lon="4.62355">
        <ele>553.6</ele>
        <time>2021-03-27T12:30:29Z</time>
      </trkpt>
      <trkpt lat="44.87505" lon="4.62362">
        <ele>553.6</ele>
        <time>2021-03-27T12:30:33Z</time>
      </trkpt>
      <trkpt lat="44.87516" lon="4.62368">
        <ele>554.6</ele>
        <time>2021-03-27T12:30:37Z</time>
      </trkpt>
      <trkpt lat="44.87526" lon="4.62375">
        <ele>554.2</ele>
        <time>2021-03-27T12:30:41Z</time>
      </trkpt>
      <trkpt lat="44.87536" lon="4.62382">
        <ele>555</ele>
        <time>2021-03-27T12:30:45Z</time>
      </trkpt>
      <trkpt lat="44.87546" lon="4.62388">
        <ele>555.8</ele>
        <time>2021-03-27T12:30:49Z</time>
      </trkpt>
      <trkpt lat="44.87556" lon="4.62395">
        <ele>556.4</ele>
        <time>2021-03-27T12:30:53Z</time>
      </trkpt>
      <trkpt lat="44.87567" lon="4.62402">
        <ele>556.2</ele>
        <time>2021-03-27T12:30:57Z</time>
      </trkpt>
      <trkpt lat="44.87577" lon="4.62408">
        <ele>556.2</ele>
        <time>2021-03-27T12:31:01Z</time>
      </trkpt>
      <trkpt lat="44.87588" lon="4.62414">
        <ele>557.4</ele>
        <time>2021-03-27T12:31:05Z</time>
      </trkpt>
      <trkpt lat="44.87598" lon="4.62421">
        <ele>558.4</ele>
        <time>2021-03-27T12:31:09Z</time>
      </trkpt>
      <trkpt lat="44.87606" lon="4.62428">
        <ele>558</ele>
        <time>2021-03-27T12:31:13Z</time>
      </trkpt>
      <trkpt lat="44.87613" lon="4.62434">
        <ele>557.6</ele>
        <time>2021-03-27T12:31:17Z</time>
      </trkpt>
      <trkpt lat="44.87621" lon="4.62442">
        <ele>557.2</ele>
        <time>2021-03-27T12:31:21Z</time>
      </trkpt>
      <trkpt lat="44.87626" lon="4.62449">
        <ele>556.2</ele>
        <time>2021-03-27T12:31:25Z</time>
      </trkpt>
      <trkpt lat="44.87632" lon="4.62459">
        <ele>555</ele>
        <time>2021-03-27T12:31:29Z</time>
      </trkpt>
      <trkpt lat="44.87639" lon="4.62478">
        <ele>553</ele>
        <time>2021-03-27T12:31:33Z</time>
      </trkpt>
      <trkpt lat="44.87642" lon="4.62496">
        <ele>552.6</ele>
        <time>2021-03-27T12:31:37Z</time>
      </trkpt>
      <trkpt lat="44.87644" lon="4.62517">
        <ele>551.4</ele>
        <time>2021-03-27T12:31:41Z</time>
      </trkpt>
      <trkpt lat="44.87647" lon="4.62541">
        <ele>550</ele>
        <time>2021-03-27T12:31:45Z</time>
      </trkpt>
      <trkpt lat="44.87654" lon="4.62568">
        <ele>548.4</ele>
        <time>2021-03-27T12:31:49Z</time>
      </trkpt>
      <trkpt lat="44.87658" lon="4.62601">
        <ele>548.2</ele>
        <time>2021-03-27T12:31:53Z</time>
      </trkpt>
      <trkpt lat="44.87661" lon="4.62638">
        <ele>543.2</ele>
        <time>2021-03-27T12:31:57Z</time>
      </trkpt>
      <trkpt lat="44.87665" lon="4.6268">
        <ele>542.6</ele>
        <time>2021-03-27T12:32:01Z</time>
      </trkpt>
      <trkpt lat="44.87677" lon="4.62721">
        <ele>542</ele>
        <time>2021-03-27T12:32:05Z</time>
      </trkpt>
      <trkpt lat="44.87679" lon="4.62756">
        <ele>541</ele>
        <time>2021-03-27T12:32:09Z</time>
      </trkpt>
      <trkpt lat="44.87682" lon="4.62795">
        <ele>541.2</ele>
        <time>2021-03-27T12:32:13Z</time>
      </trkpt>
      <trkpt lat="44.8768" lon="4.6283">
        <ele>539.8</ele>
        <time>2021-03-27T12:32:17Z</time>
      </trkpt>
      <trkpt lat="44.87685" lon="4.62867">
        <ele>538.2</ele>
        <time>2021-03-27T12:32:21Z</time>
      </trkpt>
      <trkpt lat="44.87688" lon="4.62905">
        <ele>539</ele>
        <time>2021-03-27T12:32:25Z</time>
      </trkpt>
      <trkpt lat="44.87687" lon="4.62933">
        <ele>539</ele>
        <time>2021-03-27T12:32:29Z</time>
      </trkpt>
      <trkpt lat="44.87697" lon="4.62954">
        <ele>538.4</ele>
        <time>2021-03-27T12:32:33Z</time>
      </trkpt>
      <trkpt lat="44.87711" lon="4.62971">
        <ele>539.2</ele>
        <time>2021-03-27T12:32:37Z</time>
      </trkpt>
      <trkpt lat="44.87718" lon="4.62996">
        <ele>535.6</ele>
        <time>2021-03-27T12:32:41Z</time>
      </trkpt>
      <trkpt lat="44.87716" lon="4.63021">
        <ele>534.6</ele>
        <time>2021-03-27T12:32:45Z</time>
      </trkpt>
      <trkpt lat="44.87709" lon="4.63052">
        <ele>531.4</ele>
        <time>2021-03-27T12:32:49Z</time>
      </trkpt>
      <trkpt lat="44.87698" lon="4.63084">
        <ele>530.2</ele>
        <time>2021-03-27T12:32:53Z</time>
      </trkpt>
      <trkpt lat="44.87685" lon="4.63107">
        <ele>527.2</ele>
        <time>2021-03-27T12:32:57Z</time>
      </trkpt>
      <trkpt lat="44.87685" lon="4.63138">
        <ele>523</ele>
        <time>2021-03-27T12:33:01Z</time>
      </trkpt>
      <trkpt lat="44.87683" lon="4.63172">
        <ele>520.4</ele>
        <time>2021-03-27T12:33:05Z</time>
      </trkpt>
      <trkpt lat="44.87676" lon="4.63196">
        <ele>519</ele>
        <time>2021-03-27T12:33:09Z</time>
      </trkpt>
      <trkpt lat="44.87672" lon="4.63215">
        <ele>516.2</ele>
        <time>2021-03-27T12:33:13Z</time>
      </trkpt>
      <trkpt lat="44.87681" lon="4.63228">
        <ele>515.4</ele>
        <time>2021-03-27T12:33:17Z</time>
      </trkpt>
      <trkpt lat="44.87697" lon="4.63224">
        <ele>513.8</ele>
        <time>2021-03-27T12:33:21Z</time>
      </trkpt>
      <trkpt lat="44.87716" lon="4.63207">
        <ele>510.4</ele>
        <time>2021-03-27T12:33:25Z</time>
      </trkpt>
      <trkpt lat="44.87729" lon="4.63186">
        <ele>510</ele>
        <time>2021-03-27T12:33:29Z</time>
      </trkpt>
      <trkpt lat="44.87741" lon="4.63168">
        <ele>506.6</ele>
        <time>2021-03-27T12:33:33Z</time>
      </trkpt>
      <trkpt lat="44.87761" lon="4.63159">
        <ele>505.2</ele>
        <time>2021-03-27T12:33:37Z</time>
      </trkpt>
      <trkpt lat="44.87778" lon="4.63132">
        <ele>503.2</ele>
        <time>2021-03-27T12:33:41Z</time>
      </trkpt>
      <trkpt lat="44.8779" lon="4.63099">
        <ele>501.2</ele>
        <time>2021-03-27T12:33:45Z</time>
      </trkpt>
      <trkpt lat="44.87804" lon="4.63063">
        <ele>500.6</ele>
        <time>2021-03-27T12:33:49Z</time>
      </trkpt>
      <trkpt lat="44.87828" lon="4.63033">
        <ele>496.8</ele>
        <time>2021-03-27T12:33:53Z</time>
      </trkpt>
      <trkpt lat="44.87853" lon="4.63006">
        <ele>496.4</ele>
        <time>2021-03-27T12:33:57Z</time>
      </trkpt>
      <trkpt lat="44.8787" lon="4.62975">
        <ele>494</ele>
        <time>2021-03-27T12:34:01Z</time>
      </trkpt>
      <trkpt lat="44.87895" lon="4.62957">
        <ele>491.2</ele>
        <time>2021-03-27T12:34:05Z</time>
      </trkpt>
      <trkpt lat="44.87925" lon="4.62959">
        <ele>489.8</ele>
        <time>2021-03-27T12:34:09Z</time>
      </trkpt>
      <trkpt lat="44.8795" lon="4.62949">
        <ele>485.4</ele>
        <time>2021-03-27T12:34:13Z</time>
      </trkpt>
      <trkpt lat="44.87978" lon="4.62936">
        <ele>482.8</ele>
        <time>2021-03-27T12:34:17Z</time>
      </trkpt>
      <trkpt lat="44.88009" lon="4.62923">
        <ele>483</ele>
        <time>2021-03-27T12:34:21Z</time>
      </trkpt>
      <trkpt lat="44.88038" lon="4.62915">
        <ele>483</ele>
        <time>2021-03-27T12:34:25Z</time>
      </trkpt>
      <trkpt lat="44.88056" lon="4.62899">
        <ele>481</ele>
        <time>2021-03-27T12:34:29Z</time>
      </trkpt>
      <trkpt lat="44.88048" lon="4.6288">
        <ele>479.4</ele>
        <time>2021-03-27T12:34:33Z</time>
      </trkpt>
      <trkpt lat="44.88036" lon="4.62852">
        <ele>478</ele>
        <time>2021-03-27T12:34:37Z</time>
      </trkpt>
      <trkpt lat="44.88051" lon="4.62841">
        <ele>475.2</ele>
        <time>2021-03-27T12:34:41Z</time>
      </trkpt>
      <trkpt lat="44.88076" lon="4.62847">
        <ele>471.8</ele>
        <time>2021-03-27T12:34:45Z</time>
      </trkpt>
      <trkpt lat="44.88105" lon="4.62841">
        <ele>470.2</ele>
        <time>2021-03-27T12:34:49Z</time>
      </trkpt>
      <trkpt lat="44.88134" lon="4.62835">
        <ele>467.2</ele>
        <time>2021-03-27T12:34:53Z</time>
      </trkpt>
      <trkpt lat="44.88166" lon="4.62834">
        <ele>465</ele>
        <time>2021-03-27T12:34:57Z</time>
      </trkpt>
      <trkpt lat="44.88199" lon="4.62827">
        <ele>464</ele>
        <time>2021-03-27T12:35:01Z</time>
      </trkpt>
      <trkpt lat="44.88227" lon="4.62828">
        <ele>460.4</ele>
        <time>2021-03-27T12:35:05Z</time>
      </trkpt>
      <trkpt lat="44.8825" lon="4.62852">
        <ele>459.4</ele>
        <time>2021-03-27T12:35:09Z</time>
      </trkpt>
      <trkpt lat="44.88268" lon="4.62878">
        <ele>457</ele>
        <time>2021-03-27T12:35:13Z</time>
      </trkpt>
      <trkpt lat="44.88278" lon="4.62914">
        <ele>455.6</ele>
        <time>2021-03-27T12:35:17Z</time>
      </trkpt>
      <trkpt lat="44.88287" lon="4.62948">
        <ele>454.8</ele>
        <time>2021-03-27T12:35:21Z</time>
      </trkpt>
      <trkpt lat="44.88293" lon="4.62983">
        <ele>454</ele>
        <time>2021-03-27T12:35:25Z</time>
      </trkpt>
      <trkpt lat="44.8831" lon="4.63002">
        <ele>452</ele>
        <time>2021-03-27T12:35:29Z</time>
      </trkpt>
      <trkpt lat="44.88338" lon="4.63004">
        <ele>450.2</ele>
        <time>2021-03-27T12:35:33Z</time>
      </trkpt>
      <trkpt lat="44.88373" lon="4.63019">
        <ele>447.2</ele>
        <time>2021-03-27T12:35:37Z</time>
      </trkpt>
      <trkpt lat="44.884" lon="4.6305">
        <ele>446.8</ele>
        <time>2021-03-27T12:35:41Z</time>
      </trkpt>
      <trkpt lat="44.88415" lon="4.63082">
        <ele>446.2</ele>
        <time>2021-03-27T12:35:45Z</time>
      </trkpt>
      <trkpt lat="44.88438" lon="4.63105">
        <ele>444.4</ele>
        <time>2021-03-27T12:35:49Z</time>
      </trkpt>
      <trkpt lat="44.88471" lon="4.63112">
        <ele>443.2</ele>
        <time>2021-03-27T12:35:53Z</time>
      </trkpt>
      <trkpt lat="44.88496" lon="4.63111">
        <ele>441</ele>
        <time>2021-03-27T12:35:57Z</time>
      </trkpt>
      <trkpt lat="44.8852" lon="4.63097">
        <ele>438.4</ele>
        <time>2021-03-27T12:36:01Z</time>
      </trkpt>
      <trkpt lat="44.88542" lon="4.63073">
        <ele>438</ele>
        <time>2021-03-27T12:36:05Z</time>
      </trkpt>
      <trkpt lat="44.88564" lon="4.6305">
        <ele>440.8</ele>
        <time>2021-03-27T12:36:09Z</time>
      </trkpt>
      <trkpt lat="44.88579" lon="4.6303">
        <ele>440.4</ele>
        <time>2021-03-27T12:36:13Z</time>
      </trkpt>
      <trkpt lat="44.88583" lon="4.63017">
        <ele>441.6</ele>
        <time>2021-03-27T12:36:17Z</time>
      </trkpt>
      <trkpt lat="44.88583" lon="4.63004">
        <ele>442.6</ele>
        <time>2021-03-27T12:36:21Z</time>
      </trkpt>
      <trkpt lat="44.88581" lon="4.6299">
        <ele>443.2</ele>
        <time>2021-03-27T12:36:25Z</time>
      </trkpt>
      <trkpt lat="44.88581" lon="4.62978">
        <ele>443.8</ele>
        <time>2021-03-27T12:36:29Z</time>
      </trkpt>
      <trkpt lat="44.8858" lon="4.62966">
        <ele>444.8</ele>
        <time>2021-03-27T12:36:33Z</time>
      </trkpt>
      <trkpt lat="44.88579" lon="4.62955">
        <ele>445</ele>
        <time>2021-03-27T12:36:37Z</time>
      </trkpt>
      <trkpt lat="44.88577" lon="4.62946">
        <ele>446.6</ele>
        <time>2021-03-27T12:36:41Z</time>
      </trkpt>
      <trkpt lat="44.88575" lon="4.62937">
        <ele>446.6</ele>
        <time>2021-03-27T12:36:45Z</time>
      </trkpt>
      <trkpt lat="44.88572" lon="4.62928">
        <ele>447.2</ele>
        <time>2021-03-27T12:36:49Z</time>
      </trkpt>
      <trkpt lat="44.88568" lon="4.62921">
        <ele>447.4</ele>
        <time>2021-03-27T12:36:53Z</time>
      </trkpt>
      <trkpt lat="44.88565" lon="4.62913">
        <ele>448.2</ele>
        <time>2021-03-27T12:36:57Z</time>
      </trkpt>
      <trkpt lat="44.88565" lon="4.62905">
        <ele>449</ele>
        <time>2021-03-27T12:37:01Z</time>
      </trkpt>
      <trkpt lat="44.88569" lon="4.62898">
        <ele>449.8</ele>
        <time>2021-03-27T12:37:05Z</time>
      </trkpt>
      <trkpt lat="44.88574" lon="4.62894">
        <ele>450.8</ele>
        <time>2021-03-27T12:37:09Z</time>
      </trkpt>
      <trkpt lat="44.8858" lon="4.62893">
        <ele>452</ele>
        <time>2021-03-27T12:37:13Z</time>
      </trkpt>
      <trkpt lat="44.88587" lon="4.62894">
        <ele>452.6</ele>
        <time>2021-03-27T12:37:17Z</time>
      </trkpt>
      <trkpt lat="44.88594" lon="4.62894">
        <ele>453.2</ele>
        <time>2021-03-27T12:37:21Z</time>
      </trkpt>
      <trkpt lat="44.88601" lon="4.62892">
        <ele>453.4</ele>
        <time>2021-03-27T12:37:25Z</time>
      </trkpt>
      <trkpt lat="44.88608" lon="4.62891">
        <ele>453.8</ele>
        <time>2021-03-27T12:37:29Z</time>
      </trkpt>
      <trkpt lat="44.88614" lon="4.62891">
        <ele>454.4</ele>
        <time>2021-03-27T12:37:33Z</time>
      </trkpt>
      <trkpt lat="44.88621" lon="4.62891">
        <ele>455.4</ele>
        <time>2021-03-27T12:37:37Z</time>
      </trkpt>
      <trkpt lat="44.88628" lon="4.62893">
        <ele>456.2</ele>
        <time>2021-03-27T12:37:41Z</time>
      </trkpt>
      <trkpt lat="44.88634" lon="4.62896">
        <ele>456.2</ele>
        <time>2021-03-27T12:37:45Z</time>
      </trkpt>
      <trkpt lat="44.8864" lon="4.629">
        <ele>456.8</ele>
        <time>2021-03-27T12:37:49Z</time>
      </trkpt>
      <trkpt lat="44.88646" lon="4.62905">
        <ele>457.6</ele>
        <time>2021-03-27T12:37:53Z</time>
      </trkpt>
      <trkpt lat="44.88653" lon="4.62909">
        <ele>458.4</ele>
        <time>2021-03-27T12:37:57Z</time>
      </trkpt>
      <trkpt lat="44.88662" lon="4.62913">
        <ele>458.6</ele>
        <time>2021-03-27T12:38:01Z</time>
      </trkpt>
      <trkpt lat="44.88669" lon="4.62916">
        <ele>458.2</ele>
        <time>2021-03-27T12:38:05Z</time>
      </trkpt>
      <trkpt lat="44.88678" lon="4.62919">
        <ele>459.4</ele>
        <time>2021-03-27T12:38:09Z</time>
      </trkpt>
      <trkpt lat="44.88687" lon="4.62922">
        <ele>459.4</ele>
        <time>2021-03-27T12:38:13Z</time>
      </trkpt>
      <trkpt lat="44.88695" lon="4.62926">
        <ele>459.8</ele>
        <time>2021-03-27T12:38:17Z</time>
      </trkpt>
      <trkpt lat="44.88704" lon="4.62928">
        <ele>460.4</ele>
        <time>2021-03-27T12:38:21Z</time>
      </trkpt>
      <trkpt lat="44.88719" lon="4.62933">
        <ele>461.8</ele>
        <time>2021-03-27T12:39:00Z</time>
      </trkpt>
      <trkpt lat="44.88728" lon="4.62937">
        <ele>462.8</ele>
        <time>2021-03-27T12:39:04Z</time>
      </trkpt>
      <trkpt lat="44.88737" lon="4.62939">
        <ele>463.4</ele>
        <time>2021-03-27T12:39:08Z</time>
      </trkpt>
      <trkpt lat="44.88747" lon="4.62939">
        <ele>464</ele>
        <time>2021-03-27T12:39:12Z</time>
      </trkpt>
      <trkpt lat="44.88757" lon="4.62941">
        <ele>464.2</ele>
        <time>2021-03-27T12:39:16Z</time>
      </trkpt>
      <trkpt lat="44.88767" lon="4.62942">
        <ele>464.6</ele>
        <time>2021-03-27T12:39:20Z</time>
      </trkpt>
      <trkpt lat="44.88777" lon="4.62944">
        <ele>465.6</ele>
        <time>2021-03-27T12:39:24Z</time>
      </trkpt>
      <trkpt lat="44.88787" lon="4.62945">
        <ele>465.6</ele>
        <time>2021-03-27T12:39:28Z</time>
      </trkpt>
      <trkpt lat="44.88796" lon="4.62947">
        <ele>466.8</ele>
        <time>2021-03-27T12:39:32Z</time>
      </trkpt>
      <trkpt lat="44.88805" lon="4.62948">
        <ele>467.2</ele>
        <time>2021-03-27T12:39:36Z</time>
      </trkpt>
      <trkpt lat="44.88814" lon="4.62949">
        <ele>467.6</ele>
        <time>2021-03-27T12:39:40Z</time>
      </trkpt>
      <trkpt lat="44.88822" lon="4.6295">
        <ele>468</ele>
        <time>2021-03-27T12:39:44Z</time>
      </trkpt>
      <trkpt lat="44.8883" lon="4.62952">
        <ele>468.4</ele>
        <time>2021-03-27T12:39:48Z</time>
      </trkpt>
      <trkpt lat="44.8884" lon="4.62954">
        <ele>468.6</ele>
        <time>2021-03-27T12:39:52Z</time>
      </trkpt>
      <trkpt lat="44.8885" lon="4.62954">
        <ele>469.8</ele>
        <time>2021-03-27T12:39:56Z</time>
      </trkpt>
      <trkpt lat="44.8886" lon="4.62952">
        <ele>469.8</ele>
        <time>2021-03-27T12:40:00Z</time>
      </trkpt>
      <trkpt lat="44.8887" lon="4.62946">
        <ele>468.8</ele>
        <time>2021-03-27T12:40:04Z</time>
      </trkpt>
      <trkpt lat="44.88878" lon="4.62938">
        <ele>469.8</ele>
        <time>2021-03-27T12:40:08Z</time>
      </trkpt>
      <trkpt lat="44.88885" lon="4.6293">
        <ele>470.4</ele>
        <time>2021-03-27T12:40:12Z</time>
      </trkpt>
      <trkpt lat="44.88892" lon="4.62921">
        <ele>471</ele>
        <time>2021-03-27T12:40:16Z</time>
      </trkpt>
      <trkpt lat="44.88898" lon="4.62912">
        <ele>472.8</ele>
        <time>2021-03-27T12:40:20Z</time>
      </trkpt>
      <trkpt lat="44.88904" lon="4.62904">
        <ele>471.6</ele>
        <time>2021-03-27T12:40:24Z</time>
      </trkpt>
      <trkpt lat="44.88911" lon="4.62896">
        <ele>472.8</ele>
        <time>2021-03-27T12:40:28Z</time>
      </trkpt>
      <trkpt lat="44.88917" lon="4.62889">
        <ele>473.2</ele>
        <time>2021-03-27T12:40:32Z</time>
      </trkpt>
      <trkpt lat="44.88924" lon="4.62883">
        <ele>474.2</ele>
        <time>2021-03-27T12:40:36Z</time>
      </trkpt>
      <trkpt lat="44.88933" lon="4.62877">
        <ele>474.8</ele>
        <time>2021-03-27T12:40:40Z</time>
      </trkpt>
      <trkpt lat="44.88943" lon="4.62874">
        <ele>475.2</ele>
        <time>2021-03-27T12:40:44Z</time>
      </trkpt>
      <trkpt lat="44.88952" lon="4.62872">
        <ele>475.6</ele>
        <time>2021-03-27T12:40:48Z</time>
      </trkpt>
      <trkpt lat="44.8896" lon="4.6287">
        <ele>475.8</ele>
        <time>2021-03-27T12:40:52Z</time>
      </trkpt>
      <trkpt lat="44.88969" lon="4.62868">
        <ele>476.8</ele>
        <time>2021-03-27T12:40:56Z</time>
      </trkpt>
      <trkpt lat="44.88978" lon="4.62867">
        <ele>476.4</ele>
        <time>2021-03-27T12:41:00Z</time>
      </trkpt>
      <trkpt lat="44.88986" lon="4.62866">
        <ele>477.6</ele>
        <time>2021-03-27T12:41:04Z</time>
      </trkpt>
      <trkpt lat="44.88994" lon="4.62865">
        <ele>478.8</ele>
        <time>2021-03-27T12:41:08Z</time>
      </trkpt>
      <trkpt lat="44.89002" lon="4.62864">
        <ele>479.4</ele>
        <time>2021-03-27T12:41:12Z</time>
      </trkpt>
      <trkpt lat="44.8901" lon="4.62863">
        <ele>479.6</ele>
        <time>2021-03-27T12:41:16Z</time>
      </trkpt>
      <trkpt lat="44.89018" lon="4.62863">
        <ele>481</ele>
        <time>2021-03-27T12:41:20Z</time>
      </trkpt>
      <trkpt lat="44.89026" lon="4.62863">
        <ele>481.4</ele>
        <time>2021-03-27T12:41:24Z</time>
      </trkpt>
      <trkpt lat="44.89034" lon="4.62863">
        <ele>482.4</ele>
        <time>2021-03-27T12:41:28Z</time>
      </trkpt>
      <trkpt lat="44.89041" lon="4.62864">
        <ele>482.6</ele>
        <time>2021-03-27T12:41:32Z</time>
      </trkpt>
      <trkpt lat="44.89049" lon="4.62867">
        <ele>482.8</ele>
        <time>2021-03-27T12:41:36Z</time>
      </trkpt>
      <trkpt lat="44.89053" lon="4.62873">
        <ele>483.6</ele>
        <time>2021-03-27T12:41:40Z</time>
      </trkpt>
      <trkpt lat="44.89056" lon="4.62882">
        <ele>485.4</ele>
        <time>2021-03-27T12:41:44Z</time>
      </trkpt>
      <trkpt lat="44.89058" lon="4.62891">
        <ele>486.2</ele>
        <time>2021-03-27T12:41:48Z</time>
      </trkpt>
      <trkpt lat="44.89059" lon="4.629">
        <ele>486.2</ele>
        <time>2021-03-27T12:41:52Z</time>
      </trkpt>
      <trkpt lat="44.89061" lon="4.62909">
        <ele>486.4</ele>
        <time>2021-03-27T12:41:56Z</time>
      </trkpt>
      <trkpt lat="44.89065" lon="4.62916">
        <ele>486</ele>
        <time>2021-03-27T12:42:00Z</time>
      </trkpt>
      <trkpt lat="44.89071" lon="4.62923">
        <ele>489.2</ele>
        <time>2021-03-27T12:42:04Z</time>
      </trkpt>
      <trkpt lat="44.89076" lon="4.6293">
        <ele>489.2</ele>
        <time>2021-03-27T12:42:08Z</time>
      </trkpt>
      <trkpt lat="44.89079" lon="4.62937">
        <ele>489.8</ele>
        <time>2021-03-27T12:42:12Z</time>
      </trkpt>
      <trkpt lat="44.89079" lon="4.62944">
        <ele>491</ele>
        <time>2021-03-27T12:42:16Z</time>
      </trkpt>
      <trkpt lat="44.89073" lon="4.62943">
        <ele>492.2</ele>
        <time>2021-03-27T12:42:20Z</time>
      </trkpt>
      <trkpt lat="44.89065" lon="4.62938">
        <ele>492.4</ele>
        <time>2021-03-27T12:42:24Z</time>
      </trkpt>
      <trkpt lat="44.89057" lon="4.62935">
        <ele>493</ele>
        <time>2021-03-27T12:42:28Z</time>
      </trkpt>
      <trkpt lat="44.89048" lon="4.62932">
        <ele>493.4</ele>
        <time>2021-03-27T12:42:32Z</time>
      </trkpt>
      <trkpt lat="44.8904" lon="4.62934">
        <ele>493.8</ele>
        <time>2021-03-27T12:42:36Z</time>
      </trkpt>
      <trkpt lat="44.89032" lon="4.62938">
        <ele>494.8</ele>
        <time>2021-03-27T12:42:40Z</time>
      </trkpt>
      <trkpt lat="44.89023" lon="4.62943">
        <ele>495</ele>
        <time>2021-03-27T12:42:44Z</time>
      </trkpt>
      <trkpt lat="44.89015" lon="4.62951">
        <ele>495.8</ele>
        <time>2021-03-27T12:42:48Z</time>
      </trkpt>
      <trkpt lat="44.89008" lon="4.62961">
        <ele>495.8</ele>
        <time>2021-03-27T12:42:52Z</time>
      </trkpt>
      <trkpt lat="44.89001" lon="4.62972">
        <ele>495.6</ele>
        <time>2021-03-27T12:42:56Z</time>
      </trkpt>
      <trkpt lat="44.88994" lon="4.62982">
        <ele>496.8</ele>
        <time>2021-03-27T12:43:00Z</time>
      </trkpt>
      <trkpt lat="44.88988" lon="4.6299">
        <ele>496.6</ele>
        <time>2021-03-27T12:43:04Z</time>
      </trkpt>
      <trkpt lat="44.88981" lon="4.62997">
        <ele>497</ele>
        <time>2021-03-27T12:43:08Z</time>
      </trkpt>
      <trkpt lat="44.88975" lon="4.63004">
        <ele>497.8</ele>
        <time>2021-03-27T12:43:12Z</time>
      </trkpt>
      <trkpt lat="44.88969" lon="4.63012">
        <ele>498.8</ele>
        <time>2021-03-27T12:43:16Z</time>
      </trkpt>
      <trkpt lat="44.88962" lon="4.63021">
        <ele>499.4</ele>
        <time>2021-03-27T12:43:20Z</time>
      </trkpt>
      <trkpt lat="44.88955" lon="4.6303">
        <ele>499.8</ele>
        <time>2021-03-27T12:43:24Z</time>
      </trkpt>
      <trkpt lat="44.88948" lon="4.63039">
        <ele>500.2</ele>
        <time>2021-03-27T12:43:28Z</time>
      </trkpt>
      <trkpt lat="44.8894" lon="4.63048">
        <ele>500.6</ele>
        <time>2021-03-27T12:43:32Z</time>
      </trkpt>
      <trkpt lat="44.88932" lon="4.63055">
        <ele>500.6</ele>
        <time>2021-03-27T12:43:36Z</time>
      </trkpt>
      <trkpt lat="44.88924" lon="4.63062">
        <ele>501.2</ele>
        <time>2021-03-27T12:43:40Z</time>
      </trkpt>
      <trkpt lat="44.88917" lon="4.63069">
        <ele>501.6</ele>
        <time>2021-03-27T12:43:44Z</time>
      </trkpt>
      <trkpt lat="44.88909" lon="4.63075">
        <ele>502</ele>
        <time>2021-03-27T12:43:48Z</time>
      </trkpt>
      <trkpt lat="44.88902" lon="4.63081">
        <ele>502.6</ele>
        <time>2021-03-27T12:43:52Z</time>
      </trkpt>
      <trkpt lat="44.88894" lon="4.63087">
        <ele>503.8</ele>
        <time>2021-03-27T12:43:56Z</time>
      </trkpt>
      <trkpt lat="44.88886" lon="4.63096">
        <ele>504.4</ele>
        <time>2021-03-27T12:44:00Z</time>
      </trkpt>
      <trkpt lat="44.88877" lon="4.63104">
        <ele>504.6</ele>
        <time>2021-03-27T12:44:04Z</time>
      </trkpt>
      <trkpt lat="44.88871" lon="4.63112">
        <ele>504.8</ele>
        <time>2021-03-27T12:44:08Z</time>
      </trkpt>
      <trkpt lat="44.88863" lon="4.63121">
        <ele>505.6</ele>
        <time>2021-03-27T12:44:12Z</time>
      </trkpt>
      <trkpt lat="44.88854" lon="4.6313">
        <ele>505.8</ele>
        <time>2021-03-27T12:44:16Z</time>
      </trkpt>
      <trkpt lat="44.88845" lon="4.63135">
        <ele>506.2</ele>
        <time>2021-03-27T12:44:20Z</time>
      </trkpt>
      <trkpt lat="44.88835" lon="4.63139">
        <ele>506.4</ele>
        <time>2021-03-27T12:44:24Z</time>
      </trkpt>
      <trkpt lat="44.88825" lon="4.63142">
        <ele>508.2</ele>
        <time>2021-03-27T12:44:28Z</time>
      </trkpt>
      <trkpt lat="44.88815" lon="4.63147">
        <ele>508.4</ele>
        <time>2021-03-27T12:44:32Z</time>
      </trkpt>
      <trkpt lat="44.88805" lon="4.63153">
        <ele>509</ele>
        <time>2021-03-27T12:44:36Z</time>
      </trkpt>
      <trkpt lat="44.88796" lon="4.63159">
        <ele>509.8</ele>
        <time>2021-03-27T12:44:40Z</time>
      </trkpt>
      <trkpt lat="44.88789" lon="4.63167">
        <ele>510.2</ele>
        <time>2021-03-27T12:44:44Z</time>
      </trkpt>
      <trkpt lat="44.88782" lon="4.6318">
        <ele>509.8</ele>
        <time>2021-03-27T12:45:05Z</time>
      </trkpt>
      <trkpt lat="44.88777" lon="4.63188">
        <ele>510.4</ele>
        <time>2021-03-27T12:45:09Z</time>
      </trkpt>
      <trkpt lat="44.88771" lon="4.63197">
        <ele>511</ele>
        <time>2021-03-27T12:45:13Z</time>
      </trkpt>
      <trkpt lat="44.88766" lon="4.63207">
        <ele>510.8</ele>
        <time>2021-03-27T12:45:17Z</time>
      </trkpt>
      <trkpt lat="44.8876" lon="4.63216">
        <ele>511.8</ele>
        <time>2021-03-27T12:45:21Z</time>
      </trkpt>
      <trkpt lat="44.88754" lon="4.63225">
        <ele>512.4</ele>
        <time>2021-03-27T12:45:25Z</time>
      </trkpt>
      <trkpt lat="44.88749" lon="4.63232">
        <ele>513.4</ele>
        <time>2021-03-27T12:45:29Z</time>
      </trkpt>
      <trkpt lat="44.88743" lon="4.63241">
        <ele>513.6</ele>
        <time>2021-03-27T12:45:33Z</time>
      </trkpt>
      <trkpt lat="44.88739" lon="4.6325">
        <ele>514.4</ele>
        <time>2021-03-27T12:45:37Z</time>
      </trkpt>
      <trkpt lat="44.88733" lon="4.63261">
        <ele>515</ele>
        <time>2021-03-27T12:45:41Z</time>
      </trkpt>
      <trkpt lat="44.88729" lon="4.63272">
        <ele>515.2</ele>
        <time>2021-03-27T12:45:45Z</time>
      </trkpt>
      <trkpt lat="44.88724" lon="4.63286">
        <ele>516</ele>
        <time>2021-03-27T12:45:49Z</time>
      </trkpt>
      <trkpt lat="44.88721" lon="4.63301">
        <ele>515.8</ele>
        <time>2021-03-27T12:45:53Z</time>
      </trkpt>
      <trkpt lat="44.88717" lon="4.63314">
        <ele>517</ele>
        <time>2021-03-27T12:45:57Z</time>
      </trkpt>
      <trkpt lat="44.88713" lon="4.63328">
        <ele>516.6</ele>
        <time>2021-03-27T12:46:01Z</time>
      </trkpt>
      <trkpt lat="44.88708" lon="4.6334">
        <ele>516.8</ele>
        <time>2021-03-27T12:46:05Z</time>
      </trkpt>
      <trkpt lat="44.88702" lon="4.63352">
        <ele>517.8</ele>
        <time>2021-03-27T12:46:09Z</time>
      </trkpt>
      <trkpt lat="44.88696" lon="4.63363">
        <ele>518.2</ele>
        <time>2021-03-27T12:46:13Z</time>
      </trkpt>
      <trkpt lat="44.88688" lon="4.63372">
        <ele>518.8</ele>
        <time>2021-03-27T12:46:17Z</time>
      </trkpt>
      <trkpt lat="44.8868" lon="4.6338">
        <ele>519.2</ele>
        <time>2021-03-27T12:46:21Z</time>
      </trkpt>
      <trkpt lat="44.88672" lon="4.63387">
        <ele>519</ele>
        <time>2021-03-27T12:46:25Z</time>
      </trkpt>
      <trkpt lat="44.88665" lon="4.63395">
        <ele>520</ele>
        <time>2021-03-27T12:46:29Z</time>
      </trkpt>
      <trkpt lat="44.88659" lon="4.63406">
        <ele>520.4</ele>
        <time>2021-03-27T12:46:33Z</time>
      </trkpt>
      <trkpt lat="44.88653" lon="4.63418">
        <ele>521.4</ele>
        <time>2021-03-27T12:46:37Z</time>
      </trkpt>
      <trkpt lat="44.88649" lon="4.6343">
        <ele>521.2</ele>
        <time>2021-03-27T12:46:41Z</time>
      </trkpt>
      <trkpt lat="44.88646" lon="4.63443">
        <ele>522</ele>
        <time>2021-03-27T12:46:45Z</time>
      </trkpt>
      <trkpt lat="44.88645" lon="4.63456">
        <ele>522.2</ele>
        <time>2021-03-27T12:46:49Z</time>
      </trkpt>
      <trkpt lat="44.88645" lon="4.63468">
        <ele>522.8</ele>
        <time>2021-03-27T12:46:53Z</time>
      </trkpt>
      <trkpt lat="44.88646" lon="4.6348">
        <ele>523.4</ele>
        <time>2021-03-27T12:46:57Z</time>
      </trkpt>
      <trkpt lat="44.88649" lon="4.63492">
        <ele>524</ele>
        <time>2021-03-27T12:47:01Z</time>
      </trkpt>
      <trkpt lat="44.88654" lon="4.63504">
        <ele>524.4</ele>
        <time>2021-03-27T12:47:05Z</time>
      </trkpt>
      <trkpt lat="44.8866" lon="4.63515">
        <ele>525.6</ele>
        <time>2021-03-27T12:47:09Z</time>
      </trkpt>
      <trkpt lat="44.88668" lon="4.63525">
        <ele>525.8</ele>
        <time>2021-03-27T12:47:13Z</time>
      </trkpt>
      <trkpt lat="44.88678" lon="4.63534">
        <ele>526.6</ele>
        <time>2021-03-27T12:47:17Z</time>
      </trkpt>
      <trkpt lat="44.88687" lon="4.63541">
        <ele>527</ele>
        <time>2021-03-27T12:47:21Z</time>
      </trkpt>
      <trkpt lat="44.88696" lon="4.63547">
        <ele>527.2</ele>
        <time>2021-03-27T12:47:25Z</time>
      </trkpt>
      <trkpt lat="44.88705" lon="4.63554">
        <ele>527.8</ele>
        <time>2021-03-27T12:47:29Z</time>
      </trkpt>
      <trkpt lat="44.88714" lon="4.63561">
        <ele>528.2</ele>
        <time>2021-03-27T12:47:33Z</time>
      </trkpt>
      <trkpt lat="44.88721" lon="4.63569">
        <ele>529.2</ele>
        <time>2021-03-27T12:47:37Z</time>
      </trkpt>
      <trkpt lat="44.88728" lon="4.63578">
        <ele>529.8</ele>
        <time>2021-03-27T12:47:41Z</time>
      </trkpt>
      <trkpt lat="44.88736" lon="4.63586">
        <ele>530.2</ele>
        <time>2021-03-27T12:47:45Z</time>
      </trkpt>
      <trkpt lat="44.88743" lon="4.63594">
        <ele>530.6</ele>
        <time>2021-03-27T12:47:49Z</time>
      </trkpt>
      <trkpt lat="44.88751" lon="4.63603">
        <ele>531.2</ele>
        <time>2021-03-27T12:47:53Z</time>
      </trkpt>
      <trkpt lat="44.88757" lon="4.63612">
        <ele>531.4</ele>
        <time>2021-03-27T12:47:57Z</time>
      </trkpt>
      <trkpt lat="44.88765" lon="4.6362">
        <ele>531.6</ele>
        <time>2021-03-27T12:48:01Z</time>
      </trkpt>
      <trkpt lat="44.88772" lon="4.63628">
        <ele>531.8</ele>
        <time>2021-03-27T12:48:05Z</time>
      </trkpt>
      <trkpt lat="44.88778" lon="4.63637">
        <ele>532.8</ele>
        <time>2021-03-27T12:48:09Z</time>
      </trkpt>
      <trkpt lat="44.88786" lon="4.63645">
        <ele>533</ele>
        <time>2021-03-27T12:48:13Z</time>
      </trkpt>
      <trkpt lat="44.88794" lon="4.63653">
        <ele>532.6</ele>
        <time>2021-03-27T12:48:17Z</time>
      </trkpt>
      <trkpt lat="44.88803" lon="4.63658">
        <ele>533.6</ele>
        <time>2021-03-27T12:48:21Z</time>
      </trkpt>
      <trkpt lat="44.88812" lon="4.63663">
        <ele>534.6</ele>
        <time>2021-03-27T12:48:25Z</time>
      </trkpt>
      <trkpt lat="44.88823" lon="4.63667">
        <ele>535.2</ele>
        <time>2021-03-27T12:48:29Z</time>
      </trkpt>
      <trkpt lat="44.88832" lon="4.6367">
        <ele>535.4</ele>
        <time>2021-03-27T12:48:33Z</time>
      </trkpt>
      <trkpt lat="44.88841" lon="4.63673">
        <ele>535.6</ele>
        <time>2021-03-27T12:48:37Z</time>
      </trkpt>
      <trkpt lat="44.88851" lon="4.63676">
        <ele>536.6</ele>
        <time>2021-03-27T12:48:41Z</time>
      </trkpt>
      <trkpt lat="44.8886" lon="4.63679">
        <ele>537.4</ele>
        <time>2021-03-27T12:48:45Z</time>
      </trkpt>
      <trkpt lat="44.8887" lon="4.63682">
        <ele>537.4</ele>
        <time>2021-03-27T12:48:49Z</time>
      </trkpt>
      <trkpt lat="44.88879" lon="4.63687">
        <ele>538.8</ele>
        <time>2021-03-27T12:48:53Z</time>
      </trkpt>
      <trkpt lat="44.88887" lon="4.63694">
        <ele>539.2</ele>
        <time>2021-03-27T12:48:57Z</time>
      </trkpt>
      <trkpt lat="44.88896" lon="4.63702">
        <ele>538.8</ele>
        <time>2021-03-27T12:49:01Z</time>
      </trkpt>
      <trkpt lat="44.88903" lon="4.63713">
        <ele>539.6</ele>
        <time>2021-03-27T12:49:05Z</time>
      </trkpt>
      <trkpt lat="44.88907" lon="4.63725">
        <ele>540.6</ele>
        <time>2021-03-27T12:49:09Z</time>
      </trkpt>
      <trkpt lat="44.8891" lon="4.63738">
        <ele>541.6</ele>
        <time>2021-03-27T12:49:13Z</time>
      </trkpt>
      <trkpt lat="44.88913" lon="4.63751">
        <ele>542.8</ele>
        <time>2021-03-27T12:49:17Z</time>
      </trkpt>
      <trkpt lat="44.88916" lon="4.63763">
        <ele>542.6</ele>
        <time>2021-03-27T12:49:21Z</time>
      </trkpt>
      <trkpt lat="44.88919" lon="4.63776">
        <ele>543.8</ele>
        <time>2021-03-27T12:49:25Z</time>
      </trkpt>
      <trkpt lat="44.88923" lon="4.63789">
        <ele>543.6</ele>
        <time>2021-03-27T12:49:29Z</time>
      </trkpt>
      <trkpt lat="44.88925" lon="4.63803">
        <ele>543.8</ele>
        <time>2021-03-27T12:49:33Z</time>
      </trkpt>
      <trkpt lat="44.88926" lon="4.63818">
        <ele>544.6</ele>
        <time>2021-03-27T12:49:37Z</time>
      </trkpt>
      <trkpt lat="44.88925" lon="4.63831">
        <ele>545.8</ele>
        <time>2021-03-27T12:49:41Z</time>
      </trkpt>
      <trkpt lat="44.88923" lon="4.63843">
        <ele>547.2</ele>
        <time>2021-03-27T12:49:45Z</time>
      </trkpt>
      <trkpt lat="44.88921" lon="4.63855">
        <ele>547.2</ele>
        <time>2021-03-27T12:49:49Z</time>
      </trkpt>
      <trkpt lat="44.88919" lon="4.63867">
        <ele>547.2</ele>
        <time>2021-03-27T12:49:53Z</time>
      </trkpt>
      <trkpt lat="44.88917" lon="4.6388">
        <ele>548</ele>
        <time>2021-03-27T12:49:57Z</time>
      </trkpt>
      <trkpt lat="44.88915" lon="4.63894">
        <ele>547.8</ele>
        <time>2021-03-27T12:50:01Z</time>
      </trkpt>
      <trkpt lat="44.88913" lon="4.63907">
        <ele>549</ele>
        <time>2021-03-27T12:50:05Z</time>
      </trkpt>
      <trkpt lat="44.88909" lon="4.63917">
        <ele>549.4</ele>
        <time>2021-03-27T12:50:09Z</time>
      </trkpt>
      <trkpt lat="44.88904" lon="4.63927">
        <ele>550</ele>
        <time>2021-03-27T12:50:13Z</time>
      </trkpt>
      <trkpt lat="44.88898" lon="4.63938">
        <ele>550.4</ele>
        <time>2021-03-27T12:50:17Z</time>
      </trkpt>
      <trkpt lat="44.88892" lon="4.63948">
        <ele>551.2</ele>
        <time>2021-03-27T12:50:21Z</time>
      </trkpt>
      <trkpt lat="44.88885" lon="4.63959">
        <ele>551.8</ele>
        <time>2021-03-27T12:50:25Z</time>
      </trkpt>
      <trkpt lat="44.88878" lon="4.63969">
        <ele>552.4</ele>
        <time>2021-03-27T12:50:29Z</time>
      </trkpt>
      <trkpt lat="44.88872" lon="4.6398">
        <ele>553</ele>
        <time>2021-03-27T12:50:33Z</time>
      </trkpt>
      <trkpt lat="44.88866" lon="4.63991">
        <ele>553.8</ele>
        <time>2021-03-27T12:50:37Z</time>
      </trkpt>
      <trkpt lat="44.88863" lon="4.64005">
        <ele>554.4</ele>
        <time>2021-03-27T12:50:41Z</time>
      </trkpt>
      <trkpt lat="44.88862" lon="4.64019">
        <ele>554.8</ele>
        <time>2021-03-27T12:50:45Z</time>
      </trkpt>
      <trkpt lat="44.88865" lon="4.64033">
        <ele>553.8</ele>
        <time>2021-03-27T12:50:49Z</time>
      </trkpt>
      <trkpt lat="44.88872" lon="4.64045">
        <ele>554.2</ele>
        <time>2021-03-27T12:50:53Z</time>
      </trkpt>
      <trkpt lat="44.8888" lon="4.64054">
        <ele>555.6</ele>
        <time>2021-03-27T12:50:57Z</time>
      </trkpt>
      <trkpt lat="44.88888" lon="4.64061">
        <ele>553.8</ele>
        <time>2021-03-27T12:51:01Z</time>
      </trkpt>
      <trkpt lat="44.88896" lon="4.64067">
        <ele>556.6</ele>
        <time>2021-03-27T12:51:05Z</time>
      </trkpt>
      <trkpt lat="44.88904" lon="4.64072">
        <ele>555.6</ele>
        <time>2021-03-27T12:51:09Z</time>
      </trkpt>
      <trkpt lat="44.88911" lon="4.64078">
        <ele>555.8</ele>
        <time>2021-03-27T12:51:13Z</time>
      </trkpt>
      <trkpt lat="44.88919" lon="4.64082">
        <ele>556.4</ele>
        <time>2021-03-27T12:51:17Z</time>
      </trkpt>
      <trkpt lat="44.88927" lon="4.64086">
        <ele>557</ele>
        <time>2021-03-27T12:51:21Z</time>
      </trkpt>
      <trkpt lat="44.88935" lon="4.6409">
        <ele>557.4</ele>
        <time>2021-03-27T12:51:25Z</time>
      </trkpt>
      <trkpt lat="44.88944" lon="4.64092">
        <ele>558.2</ele>
        <time>2021-03-27T12:51:29Z</time>
      </trkpt>
      <trkpt lat="44.88952" lon="4.64095">
        <ele>559</ele>
        <time>2021-03-27T12:51:33Z</time>
      </trkpt>
      <trkpt lat="44.88961" lon="4.64095">
        <ele>559</ele>
        <time>2021-03-27T12:51:37Z</time>
      </trkpt>
      <trkpt lat="44.8897" lon="4.64095">
        <ele>560</ele>
        <time>2021-03-27T12:51:41Z</time>
      </trkpt>
      <trkpt lat="44.8898" lon="4.64095">
        <ele>560.4</ele>
        <time>2021-03-27T12:51:45Z</time>
      </trkpt>
      <trkpt lat="44.88989" lon="4.64094">
        <ele>559.8</ele>
        <time>2021-03-27T12:51:49Z</time>
      </trkpt>
      <trkpt lat="44.88999" lon="4.64093">
        <ele>561.2</ele>
        <time>2021-03-27T12:51:53Z</time>
      </trkpt>
      <trkpt lat="44.89009" lon="4.6409">
        <ele>561.4</ele>
        <time>2021-03-27T12:51:57Z</time>
      </trkpt>
      <trkpt lat="44.89019" lon="4.64086">
        <ele>561.8</ele>
        <time>2021-03-27T12:52:01Z</time>
      </trkpt>
      <trkpt lat="44.89028" lon="4.64082">
        <ele>561.2</ele>
        <time>2021-03-27T12:52:05Z</time>
      </trkpt>
      <trkpt lat="44.89038" lon="4.64076">
        <ele>562.6</ele>
        <time>2021-03-27T12:52:09Z</time>
      </trkpt>
      <trkpt lat="44.89047" lon="4.6407">
        <ele>563.2</ele>
        <time>2021-03-27T12:52:13Z</time>
      </trkpt>
      <trkpt lat="44.89056" lon="4.64064">
        <ele>563.6</ele>
        <time>2021-03-27T12:52:17Z</time>
      </trkpt>
      <trkpt lat="44.89065" lon="4.64057">
        <ele>564.2</ele>
        <time>2021-03-27T12:52:21Z</time>
      </trkpt>
      <trkpt lat="44.89074" lon="4.64049">
        <ele>564.4</ele>
        <time>2021-03-27T12:52:25Z</time>
      </trkpt>
      <trkpt lat="44.89083" lon="4.64042">
        <ele>565.2</ele>
        <time>2021-03-27T12:52:29Z</time>
      </trkpt>
      <trkpt lat="44.89092" lon="4.64034">
        <ele>564.2</ele>
        <time>2021-03-27T12:52:33Z</time>
      </trkpt>
      <trkpt lat="44.891" lon="4.64025">
        <ele>565.8</ele>
        <time>2021-03-27T12:52:37Z</time>
      </trkpt>
      <trkpt lat="44.89109" lon="4.64018">
        <ele>566.2</ele>
        <time>2021-03-27T12:52:41Z</time>
      </trkpt>
      <trkpt lat="44.89119" lon="4.64011">
        <ele>565.6</ele>
        <time>2021-03-27T12:52:45Z</time>
      </trkpt>
      <trkpt lat="44.89128" lon="4.64006">
        <ele>566.2</ele>
        <time>2021-03-27T12:52:49Z</time>
      </trkpt>
      <trkpt lat="44.89138" lon="4.64001">
        <ele>566.6</ele>
        <time>2021-03-27T12:52:53Z</time>
      </trkpt>
      <trkpt lat="44.89148" lon="4.63997">
        <ele>566.6</ele>
        <time>2021-03-27T12:52:57Z</time>
      </trkpt>
      <trkpt lat="44.89158" lon="4.63993">
        <ele>567</ele>
        <time>2021-03-27T12:53:01Z</time>
      </trkpt>
      <trkpt lat="44.89168" lon="4.63988">
        <ele>566.4</ele>
        <time>2021-03-27T12:53:05Z</time>
      </trkpt>
      <trkpt lat="44.89176" lon="4.63989">
        <ele>565.4</ele>
        <time>2021-03-27T12:53:09Z</time>
      </trkpt>
      <trkpt lat="44.89176" lon="4.63989">
        <ele>567.4</ele>
        <time>2021-03-27T12:53:13Z</time>
      </trkpt>
      <trkpt lat="44.89179" lon="4.64016">
        <ele>566</ele>
        <time>2021-03-27T12:54:18Z</time>
      </trkpt>
      <trkpt lat="44.89179" lon="4.64039">
        <ele>566.2</ele>
        <time>2021-03-27T12:54:22Z</time>
      </trkpt>
      <trkpt lat="44.89182" lon="4.64068">
        <ele>564.2</ele>
        <time>2021-03-27T12:54:26Z</time>
      </trkpt>
      <trkpt lat="44.892" lon="4.64101">
        <ele>556.4</ele>
        <time>2021-03-27T12:54:30Z</time>
      </trkpt>
      <trkpt lat="44.8922" lon="4.64135">
        <ele>551.2</ele>
        <time>2021-03-27T12:54:34Z</time>
      </trkpt>
      <trkpt lat="44.89241" lon="4.64166">
        <ele>551.8</ele>
        <time>2021-03-27T12:54:38Z</time>
      </trkpt>
      <trkpt lat="44.89259" lon="4.64195">
        <ele>551.6</ele>
        <time>2021-03-27T12:54:42Z</time>
      </trkpt>
      <trkpt lat="44.89268" lon="4.64224">
        <ele>554.6</ele>
        <time>2021-03-27T12:54:46Z</time>
      </trkpt>
      <trkpt lat="44.89266" lon="4.64251">
        <ele>554.4</ele>
        <time>2021-03-27T12:54:50Z</time>
      </trkpt>
      <trkpt lat="44.89262" lon="4.64276">
        <ele>555.8</ele>
        <time>2021-03-27T12:54:54Z</time>
      </trkpt>
      <trkpt lat="44.89261" lon="4.64301">
        <ele>555.6</ele>
        <time>2021-03-27T12:54:58Z</time>
      </trkpt>
      <trkpt lat="44.8926" lon="4.64326">
        <ele>555.6</ele>
        <time>2021-03-27T12:55:02Z</time>
      </trkpt>
      <trkpt lat="44.89261" lon="4.64351">
        <ele>555.4</ele>
        <time>2021-03-27T12:55:06Z</time>
      </trkpt>
      <trkpt lat="44.89262" lon="4.64374">
        <ele>556.6</ele>
        <time>2021-03-27T12:55:10Z</time>
      </trkpt>
      <trkpt lat="44.89264" lon="4.64398">
        <ele>557.4</ele>
        <time>2021-03-27T12:55:14Z</time>
      </trkpt>
      <trkpt lat="44.89265" lon="4.64423">
        <ele>557.4</ele>
        <time>2021-03-27T12:55:18Z</time>
      </trkpt>
      <trkpt lat="44.89266" lon="4.64447">
        <ele>557.4</ele>
        <time>2021-03-27T12:55:22Z</time>
      </trkpt>
      <trkpt lat="44.89266" lon="4.6447">
        <ele>557.4</ele>
        <time>2021-03-27T12:55:26Z</time>
      </trkpt>
      <trkpt lat="44.89265" lon="4.64494">
        <ele>558.2</ele>
        <time>2021-03-27T12:55:30Z</time>
      </trkpt>
      <trkpt lat="44.89266" lon="4.64517">
        <ele>558.4</ele>
        <time>2021-03-27T12:55:34Z</time>
      </trkpt>
      <trkpt lat="44.89266" lon="4.64539">
        <ele>557.6</ele>
        <time>2021-03-27T12:55:38Z</time>
      </trkpt>
      <trkpt lat="44.89268" lon="4.64558">
        <ele>558.6</ele>
        <time>2021-03-27T12:55:42Z</time>
      </trkpt>
      <trkpt lat="44.8927" lon="4.64575">
        <ele>559</ele>
        <time>2021-03-27T12:55:46Z</time>
      </trkpt>
      <trkpt lat="44.89273" lon="4.64588">
        <ele>559.6</ele>
        <time>2021-03-27T12:55:50Z</time>
      </trkpt>
      <trkpt lat="44.89279" lon="4.64598">
        <ele>561</ele>
        <time>2021-03-27T12:55:54Z</time>
      </trkpt>
      <trkpt lat="44.89288" lon="4.64602">
        <ele>561.4</ele>
        <time>2021-03-27T12:55:58Z</time>
      </trkpt>
      <trkpt lat="44.89297" lon="4.64603">
        <ele>562.6</ele>
        <time>2021-03-27T12:56:02Z</time>
      </trkpt>
      <trkpt lat="44.89305" lon="4.64601">
        <ele>563.6</ele>
        <time>2021-03-27T12:56:06Z</time>
      </trkpt>
      <trkpt lat="44.89314" lon="4.64598">
        <ele>564.2</ele>
        <time>2021-03-27T12:56:10Z</time>
      </trkpt>
      <trkpt lat="44.89322" lon="4.64595">
        <ele>564.2</ele>
        <time>2021-03-27T12:56:14Z</time>
      </trkpt>
      <trkpt lat="44.89328" lon="4.64591">
        <ele>565</ele>
        <time>2021-03-27T12:56:18Z</time>
      </trkpt>
      <trkpt lat="44.89333" lon="4.64584">
        <ele>565.8</ele>
        <time>2021-03-27T12:56:22Z</time>
      </trkpt>
      <trkpt lat="44.89337" lon="4.64573">
        <ele>567</ele>
        <time>2021-03-27T12:56:26Z</time>
      </trkpt>
      <trkpt lat="44.89339" lon="4.64562">
        <ele>567.6</ele>
        <time>2021-03-27T12:56:30Z</time>
      </trkpt>
      <trkpt lat="44.89338" lon="4.64549">
        <ele>567.6</ele>
        <time>2021-03-27T12:56:34Z</time>
      </trkpt>
      <trkpt lat="44.89336" lon="4.64533">
        <ele>568</ele>
        <time>2021-03-27T12:56:38Z</time>
      </trkpt>
      <trkpt lat="44.89332" lon="4.6452">
        <ele>567.2</ele>
        <time>2021-03-27T12:56:42Z</time>
      </trkpt>
      <trkpt lat="44.89325" lon="4.64516">
        <ele>566</ele>
        <time>2021-03-27T12:56:46Z</time>
      </trkpt>
      <trkpt lat="44.8933" lon="4.64496">
        <ele>567</ele>
        <time>2021-03-27T12:56:50Z</time>
      </trkpt>
      <trkpt lat="44.89327" lon="4.64479">
        <ele>568</ele>
        <time>2021-03-27T12:56:54Z</time>
      </trkpt>
      <trkpt lat="44.89332" lon="4.64458">
        <ele>569.2</ele>
        <time>2021-03-27T12:56:58Z</time>
      </trkpt>
      <trkpt lat="44.89336" lon="4.64443">
        <ele>570.8</ele>
        <time>2021-03-27T12:57:02Z</time>
      </trkpt>
      <trkpt lat="44.8934" lon="4.64432">
        <ele>572</ele>
        <time>2021-03-27T12:57:06Z</time>
      </trkpt>
      <trkpt lat="44.89345" lon="4.64426">
        <ele>571.8</ele>
        <time>2021-03-27T12:57:10Z</time>
      </trkpt>
      <trkpt lat="44.89351" lon="4.64427">
        <ele>572.6</ele>
        <time>2021-03-27T12:57:14Z</time>
      </trkpt>
      <trkpt lat="44.89356" lon="4.64422">
        <ele>572.8</ele>
        <time>2021-03-27T12:57:18Z</time>
      </trkpt>
      <trkpt lat="44.89362" lon="4.64422">
        <ele>573.6</ele>
        <time>2021-03-27T12:57:22Z</time>
      </trkpt>
      <trkpt lat="44.89367" lon="4.64422">
        <ele>574.4</ele>
        <time>2021-03-27T12:57:26Z</time>
      </trkpt>
      <trkpt lat="44.89373" lon="4.64421">
        <ele>574.8</ele>
        <time>2021-03-27T12:57:30Z</time>
      </trkpt>
      <trkpt lat="44.89378" lon="4.64419">
        <ele>575.6</ele>
        <time>2021-03-27T12:57:34Z</time>
      </trkpt>
      <trkpt lat="44.89384" lon="4.64418">
        <ele>576.8</ele>
        <time>2021-03-27T12:57:38Z</time>
      </trkpt>
      <trkpt lat="44.89389" lon="4.64416">
        <ele>576.8</ele>
        <time>2021-03-27T12:57:42Z</time>
      </trkpt>
      <trkpt lat="44.89395" lon="4.64413">
        <ele>577.8</ele>
        <time>2021-03-27T12:57:46Z</time>
      </trkpt>
      <trkpt lat="44.894" lon="4.64408">
        <ele>578</ele>
        <time>2021-03-27T12:57:50Z</time>
      </trkpt>
      <trkpt lat="44.89405" lon="4.64407">
        <ele>578</ele>
        <time>2021-03-27T12:57:54Z</time>
      </trkpt>
      <trkpt lat="44.89414" lon="4.64404">
        <ele>578.2</ele>
        <time>2021-03-27T12:57:58Z</time>
      </trkpt>
      <trkpt lat="44.89423" lon="4.64405">
        <ele>578.8</ele>
        <time>2021-03-27T12:58:02Z</time>
      </trkpt>
      <trkpt lat="44.89432" lon="4.64407">
        <ele>578.4</ele>
        <time>2021-03-27T12:58:06Z</time>
      </trkpt>
      <trkpt lat="44.8944" lon="4.64405">
        <ele>578.8</ele>
        <time>2021-03-27T12:58:10Z</time>
      </trkpt>
      <trkpt lat="44.89446" lon="4.64407">
        <ele>579.4</ele>
        <time>2021-03-27T12:58:14Z</time>
      </trkpt>
      <trkpt lat="44.89449" lon="4.64416">
        <ele>579.8</ele>
        <time>2021-03-27T12:58:18Z</time>
      </trkpt>
      <trkpt lat="44.89453" lon="4.64426">
        <ele>580</ele>
        <time>2021-03-27T12:58:22Z</time>
      </trkpt>
      <trkpt lat="44.89459" lon="4.64433">
        <ele>581</ele>
        <time>2021-03-27T12:58:26Z</time>
      </trkpt>
      <trkpt lat="44.89465" lon="4.64439">
        <ele>581.4</ele>
        <time>2021-03-27T12:58:30Z</time>
      </trkpt>
      <trkpt lat="44.89475" lon="4.6444">
        <ele>581.2</ele>
        <time>2021-03-27T12:58:34Z</time>
      </trkpt>
      <trkpt lat="44.89483" lon="4.64442">
        <ele>581.2</ele>
        <time>2021-03-27T12:58:38Z</time>
      </trkpt>
      <trkpt lat="44.8949" lon="4.64446">
        <ele>581</ele>
        <time>2021-03-27T12:58:42Z</time>
      </trkpt>
      <trkpt lat="44.89497" lon="4.64449">
        <ele>580.8</ele>
        <time>2021-03-27T12:58:46Z</time>
      </trkpt>
      <trkpt lat="44.89507" lon="4.6445">
        <ele>580.6</ele>
        <time>2021-03-27T12:58:50Z</time>
      </trkpt>
      <trkpt lat="44.89516" lon="4.64452">
        <ele>580.4</ele>
        <time>2021-03-27T12:58:54Z</time>
      </trkpt>
      <trkpt lat="44.89527" lon="4.64454">
        <ele>579.6</ele>
        <time>2021-03-27T12:58:58Z</time>
      </trkpt>
      <trkpt lat="44.89541" lon="4.64455">
        <ele>579.8</ele>
        <time>2021-03-27T12:59:02Z</time>
      </trkpt>
      <trkpt lat="44.89551" lon="4.64456">
        <ele>579.2</ele>
        <time>2021-03-27T12:59:06Z</time>
      </trkpt>
      <trkpt lat="44.89565" lon="4.64459">
        <ele>578.6</ele>
        <time>2021-03-27T12:59:10Z</time>
      </trkpt>
      <trkpt lat="44.89577" lon="4.64459">
        <ele>578.4</ele>
        <time>2021-03-27T12:59:14Z</time>
      </trkpt>
      <trkpt lat="44.89593" lon="4.64459">
        <ele>577.4</ele>
        <time>2021-03-27T12:59:18Z</time>
      </trkpt>
      <trkpt lat="44.89602" lon="4.64466">
        <ele>577.4</ele>
        <time>2021-03-27T12:59:22Z</time>
      </trkpt>
      <trkpt lat="44.89614" lon="4.6447">
        <ele>577.6</ele>
        <time>2021-03-27T12:59:26Z</time>
      </trkpt>
      <trkpt lat="44.89625" lon="4.64474">
        <ele>577.4</ele>
        <time>2021-03-27T12:59:30Z</time>
      </trkpt>
      <trkpt lat="44.89636" lon="4.64477">
        <ele>576.8</ele>
        <time>2021-03-27T12:59:34Z</time>
      </trkpt>
      <trkpt lat="44.89638" lon="4.64487">
        <ele>576.6</ele>
        <time>2021-03-27T12:59:38Z</time>
      </trkpt>
      <trkpt lat="44.89642" lon="4.64501">
        <ele>577.6</ele>
        <time>2021-03-27T12:59:42Z</time>
      </trkpt>
      <trkpt lat="44.89641" lon="4.64515">
        <ele>576.6</ele>
        <time>2021-03-27T12:59:46Z</time>
      </trkpt>
      <trkpt lat="44.89636" lon="4.64529">
        <ele>578</ele>
        <time>2021-03-27T13:00:11Z</time>
      </trkpt>
      <trkpt lat="44.89633" lon="4.64542">
        <ele>576.8</ele>
        <time>2021-03-27T13:00:15Z</time>
      </trkpt>
      <trkpt lat="44.8963" lon="4.64556">
        <ele>576.6</ele>
        <time>2021-03-27T13:00:19Z</time>
      </trkpt>
      <trkpt lat="44.89625" lon="4.64569">
        <ele>577.8</ele>
        <time>2021-03-27T13:00:23Z</time>
      </trkpt>
      <trkpt lat="44.89619" lon="4.64579">
        <ele>576.8</ele>
        <time>2021-03-27T13:00:27Z</time>
      </trkpt>
      <trkpt lat="44.89609" lon="4.64583">
        <ele>577</ele>
        <time>2021-03-27T13:00:31Z</time>
      </trkpt>
      <trkpt lat="44.89597" lon="4.64584">
        <ele>576.6</ele>
        <time>2021-03-27T13:00:35Z</time>
      </trkpt>
      <trkpt lat="44.89582" lon="4.64583">
        <ele>575.4</ele>
        <time>2021-03-27T13:00:39Z</time>
      </trkpt>
      <trkpt lat="44.89566" lon="4.6458">
        <ele>574.8</ele>
        <time>2021-03-27T13:00:43Z</time>
      </trkpt>
      <trkpt lat="44.89547" lon="4.64576">
        <ele>573.8</ele>
        <time>2021-03-27T13:00:47Z</time>
      </trkpt>
      <trkpt lat="44.8953" lon="4.64571">
        <ele>573.4</ele>
        <time>2021-03-27T13:00:51Z</time>
      </trkpt>
      <trkpt lat="44.89518" lon="4.64568">
        <ele>574</ele>
        <time>2021-03-27T13:00:55Z</time>
      </trkpt>
      <trkpt lat="44.89504" lon="4.64565">
        <ele>573.4</ele>
        <time>2021-03-27T13:00:59Z</time>
      </trkpt>
      <trkpt lat="44.89489" lon="4.64565">
        <ele>573</ele>
        <time>2021-03-27T13:01:03Z</time>
      </trkpt>
      <trkpt lat="44.89476" lon="4.64572">
        <ele>572.6</ele>
        <time>2021-03-27T13:01:07Z</time>
      </trkpt>
      <trkpt lat="44.89464" lon="4.64586">
        <ele>572</ele>
        <time>2021-03-27T13:01:11Z</time>
      </trkpt>
      <trkpt lat="44.89456" lon="4.64607">
        <ele>571.6</ele>
        <time>2021-03-27T13:01:15Z</time>
      </trkpt>
      <trkpt lat="44.89452" lon="4.64619">
        <ele>571</ele>
        <time>2021-03-27T13:01:19Z</time>
      </trkpt>
      <trkpt lat="44.89451" lon="4.64633">
        <ele>569.6</ele>
        <time>2021-03-27T13:01:34Z</time>
      </trkpt>
      <trkpt lat="44.89449" lon="4.64646">
        <ele>568.2</ele>
        <time>2021-03-27T13:01:38Z</time>
      </trkpt>
      <trkpt lat="44.89445" lon="4.64662">
        <ele>567.8</ele>
        <time>2021-03-27T13:01:42Z</time>
      </trkpt>
      <trkpt lat="44.89441" lon="4.64679">
        <ele>567.8</ele>
        <time>2021-03-27T13:01:46Z</time>
      </trkpt>
      <trkpt lat="44.8944" lon="4.64698">
        <ele>568</ele>
        <time>2021-03-27T13:01:50Z</time>
      </trkpt>
      <trkpt lat="44.89443" lon="4.64728">
        <ele>567</ele>
        <time>2021-03-27T13:04:38Z</time>
      </trkpt>
      <trkpt lat="44.89447" lon="4.64742">
        <ele>565.8</ele>
        <time>2021-03-27T13:04:42Z</time>
      </trkpt>
      <trkpt lat="44.8945" lon="4.64756">
        <ele>565</ele>
        <time>2021-03-27T13:04:46Z</time>
      </trkpt>
      <trkpt lat="44.89455" lon="4.64771">
        <ele>564.2</ele>
        <time>2021-03-27T13:04:50Z</time>
      </trkpt>
      <trkpt lat="44.8946" lon="4.64789">
        <ele>563.8</ele>
        <time>2021-03-27T13:04:54Z</time>
      </trkpt>
      <trkpt lat="44.89463" lon="4.64811">
        <ele>563.6</ele>
        <time>2021-03-27T13:04:58Z</time>
      </trkpt>
      <trkpt lat="44.89463" lon="4.64836">
        <ele>563.6</ele>
        <time>2021-03-27T13:05:02Z</time>
      </trkpt>
      <trkpt lat="44.89467" lon="4.64866">
        <ele>562</ele>
        <time>2021-03-27T13:05:06Z</time>
      </trkpt>
      <trkpt lat="44.89473" lon="4.64897">
        <ele>559.8</ele>
        <time>2021-03-27T13:05:10Z</time>
      </trkpt>
      <trkpt lat="44.89481" lon="4.64927">
        <ele>558.2</ele>
        <time>2021-03-27T13:05:14Z</time>
      </trkpt>
      <trkpt lat="44.89485" lon="4.6496">
        <ele>557.8</ele>
        <time>2021-03-27T13:05:18Z</time>
      </trkpt>
      <trkpt lat="44.89485" lon="4.64994">
        <ele>556.4</ele>
        <time>2021-03-27T13:05:22Z</time>
      </trkpt>
      <trkpt lat="44.89484" lon="4.65028">
        <ele>556</ele>
        <time>2021-03-27T13:05:26Z</time>
      </trkpt>
      <trkpt lat="44.89484" lon="4.65064">
        <ele>555.6</ele>
        <time>2021-03-27T13:05:30Z</time>
      </trkpt>
      <trkpt lat="44.89484" lon="4.65103">
        <ele>554.4</ele>
        <time>2021-03-27T13:05:34Z</time>
      </trkpt>
      <trkpt lat="44.89487" lon="4.65146">
        <ele>551.4</ele>
        <time>2021-03-27T13:05:38Z</time>
      </trkpt>
      <trkpt lat="44.8949" lon="4.65191">
        <ele>550</ele>
        <time>2021-03-27T13:05:42Z</time>
      </trkpt>
      <trkpt lat="44.89493" lon="4.65236">
        <ele>548.8</ele>
        <time>2021-03-27T13:05:46Z</time>
      </trkpt>
      <trkpt lat="44.89495" lon="4.65292">
        <ele>549.6</ele>
        <time>2021-03-27T13:06:13Z</time>
      </trkpt>
      <trkpt lat="44.89494" lon="4.65313">
        <ele>548</ele>
        <time>2021-03-27T13:06:17Z</time>
      </trkpt>
      <trkpt lat="44.89492" lon="4.65335">
        <ele>547</ele>
        <time>2021-03-27T13:06:21Z</time>
      </trkpt>
      <trkpt lat="44.8949" lon="4.6535">
        <ele>547.2</ele>
        <time>2021-03-27T13:06:25Z</time>
      </trkpt>
      <trkpt lat="44.89487" lon="4.65367">
        <ele>546.6</ele>
        <time>2021-03-27T13:06:29Z</time>
      </trkpt>
      <trkpt lat="44.89491" lon="4.65379">
        <ele>546</ele>
        <time>2021-03-27T13:06:33Z</time>
      </trkpt>
      <trkpt lat="44.89502" lon="4.65371">
        <ele>544.4</ele>
        <time>2021-03-27T13:06:37Z</time>
      </trkpt>
      <trkpt lat="44.89514" lon="4.65361">
        <ele>542</ele>
        <time>2021-03-27T13:06:41Z</time>
      </trkpt>
      <trkpt lat="44.89527" lon="4.65357">
        <ele>540.4</ele>
        <time>2021-03-27T13:06:45Z</time>
      </trkpt>
      <trkpt lat="44.89539" lon="4.65353">
        <ele>539.4</ele>
        <time>2021-03-27T13:06:49Z</time>
      </trkpt>
      <trkpt lat="44.89541" lon="4.65361">
        <ele>538.4</ele>
        <time>2021-03-27T13:06:53Z</time>
      </trkpt>
      <trkpt lat="44.89535" lon="4.65372">
        <ele>538.4</ele>
        <time>2021-03-27T13:06:57Z</time>
      </trkpt>
      <trkpt lat="44.89531" lon="4.65391">
        <ele>536.6</ele>
        <time>2021-03-27T13:07:01Z</time>
      </trkpt>
      <trkpt lat="44.89528" lon="4.65411">
        <ele>536.4</ele>
        <time>2021-03-27T13:07:05Z</time>
      </trkpt>
      <trkpt lat="44.89523" lon="4.65433">
        <ele>536</ele>
        <time>2021-03-27T13:07:09Z</time>
      </trkpt>
      <trkpt lat="44.89516" lon="4.65456">
        <ele>536.2</ele>
        <time>2021-03-27T13:07:13Z</time>
      </trkpt>
      <trkpt lat="44.89503" lon="4.65484">
        <ele>534.4</ele>
        <time>2021-03-27T13:07:17Z</time>
      </trkpt>
      <trkpt lat="44.89485" lon="4.65518">
        <ele>529.8</ele>
        <time>2021-03-27T13:07:21Z</time>
      </trkpt>
      <trkpt lat="44.89474" lon="4.6556">
        <ele>528.4</ele>
        <time>2021-03-27T13:07:25Z</time>
      </trkpt>
      <trkpt lat="44.89469" lon="4.65599">
        <ele>526.6</ele>
        <time>2021-03-27T13:07:29Z</time>
      </trkpt>
      <trkpt lat="44.89463" lon="4.65636">
        <ele>522.6</ele>
        <time>2021-03-27T13:07:33Z</time>
      </trkpt>
      <trkpt lat="44.89458" lon="4.65671">
        <ele>522.4</ele>
        <time>2021-03-27T13:07:37Z</time>
      </trkpt>
      <trkpt lat="44.89449" lon="4.65708">
        <ele>522.6</ele>
        <time>2021-03-27T13:07:41Z</time>
      </trkpt>
      <trkpt lat="44.89442" lon="4.65741">
        <ele>521.6</ele>
        <time>2021-03-27T13:07:45Z</time>
      </trkpt>
      <trkpt lat="44.89436" lon="4.65775">
        <ele>521</ele>
        <time>2021-03-27T13:07:49Z</time>
      </trkpt>
      <trkpt lat="44.89418" lon="4.65808">
        <ele>517.2</ele>
        <time>2021-03-27T13:07:53Z</time>
      </trkpt>
      <trkpt lat="44.89404" lon="4.65825">
        <ele>515.6</ele>
        <time>2021-03-27T13:07:57Z</time>
      </trkpt>
      <trkpt lat="44.89394" lon="4.65845">
        <ele>512</ele>
        <time>2021-03-27T13:08:01Z</time>
      </trkpt>
      <trkpt lat="44.89375" lon="4.65875">
        <ele>511</ele>
        <time>2021-03-27T13:08:05Z</time>
      </trkpt>
      <trkpt lat="44.89352" lon="4.65917">
        <ele>509.2</ele>
        <time>2021-03-27T13:08:09Z</time>
      </trkpt>
      <trkpt lat="44.89333" lon="4.6595">
        <ele>507.6</ele>
        <time>2021-03-27T13:08:13Z</time>
      </trkpt>
      <trkpt lat="44.89329" lon="4.65961">
        <ele>508.2</ele>
        <time>2021-03-27T13:08:17Z</time>
      </trkpt>
      <trkpt lat="44.89326" lon="4.65975">
        <ele>507.6</ele>
        <time>2021-03-27T13:08:21Z</time>
      </trkpt>
      <trkpt lat="44.89315" lon="4.65997">
        <ele>505.2</ele>
        <time>2021-03-27T13:08:25Z</time>
      </trkpt>
      <trkpt lat="44.89303" lon="4.6602">
        <ele>505.8</ele>
        <time>2021-03-27T13:08:29Z</time>
      </trkpt>
      <trkpt lat="44.89296" lon="4.66039">
        <ele>503</ele>
        <time>2021-03-27T13:08:33Z</time>
      </trkpt>
      <trkpt lat="44.89292" lon="4.66059">
        <ele>502.2</ele>
        <time>2021-03-27T13:08:37Z</time>
      </trkpt>
      <trkpt lat="44.89283" lon="4.66079">
        <ele>502</ele>
        <time>2021-03-27T13:08:41Z</time>
      </trkpt>
      <trkpt lat="44.89273" lon="4.66105">
        <ele>500</ele>
        <time>2021-03-27T13:08:45Z</time>
      </trkpt>
      <trkpt lat="44.89264" lon="4.66129">
        <ele>498.4</ele>
        <time>2021-03-27T13:08:49Z</time>
      </trkpt>
      <trkpt lat="44.89255" lon="4.66154">
        <ele>498.2</ele>
        <time>2021-03-27T13:08:53Z</time>
      </trkpt>
      <trkpt lat="44.89245" lon="4.66178">
        <ele>496.4</ele>
        <time>2021-03-27T13:08:57Z</time>
      </trkpt>
      <trkpt lat="44.89237" lon="4.66193">
        <ele>497.8</ele>
        <time>2021-03-27T13:09:01Z</time>
      </trkpt>
      <trkpt lat="44.89231" lon="4.66204">
        <ele>496.2</ele>
        <time>2021-03-27T13:09:05Z</time>
      </trkpt>
      <trkpt lat="44.89227" lon="4.66213">
        <ele>496.4</ele>
        <time>2021-03-27T13:09:09Z</time>
      </trkpt>
      <trkpt lat="44.8922" lon="4.6623">
        <ele>495</ele>
        <time>2021-03-27T13:09:13Z</time>
      </trkpt>
      <trkpt lat="44.89206" lon="4.66255">
        <ele>492.4</ele>
        <time>2021-03-27T13:09:17Z</time>
      </trkpt>
      <trkpt lat="44.89196" lon="4.66271">
        <ele>490.2</ele>
        <time>2021-03-27T13:09:21Z</time>
      </trkpt>
      <trkpt lat="44.89188" lon="4.66275">
        <ele>492</ele>
        <time>2021-03-27T13:09:25Z</time>
      </trkpt>
      <trkpt lat="44.89177" lon="4.66287">
        <ele>492</ele>
        <time>2021-03-27T13:09:29Z</time>
      </trkpt>
      <trkpt lat="44.89164" lon="4.66306">
        <ele>491</ele>
        <time>2021-03-27T13:09:33Z</time>
      </trkpt>
      <trkpt lat="44.89153" lon="4.66324">
        <ele>491.6</ele>
        <time>2021-03-27T13:09:37Z</time>
      </trkpt>
      <trkpt lat="44.89146" lon="4.66347">
        <ele>491.6</ele>
        <time>2021-03-27T13:09:41Z</time>
      </trkpt>
      <trkpt lat="44.89144" lon="4.66367">
        <ele>490.8</ele>
        <time>2021-03-27T13:09:45Z</time>
      </trkpt>
      <trkpt lat="44.89146" lon="4.66383">
        <ele>490.8</ele>
        <time>2021-03-27T13:09:49Z</time>
      </trkpt>
      <trkpt lat="44.89148" lon="4.66401">
        <ele>490.6</ele>
        <time>2021-03-27T13:09:53Z</time>
      </trkpt>
      <trkpt lat="44.89152" lon="4.66421">
        <ele>490</ele>
        <time>2021-03-27T13:09:57Z</time>
      </trkpt>
      <trkpt lat="44.89157" lon="4.66443">
        <ele>489.4</ele>
        <time>2021-03-27T13:10:01Z</time>
      </trkpt>
      <trkpt lat="44.89163" lon="4.66464">
        <ele>490.2</ele>
        <time>2021-03-27T13:10:05Z</time>
      </trkpt>
      <trkpt lat="44.8917" lon="4.66486">
        <ele>489.4</ele>
        <time>2021-03-27T13:10:09Z</time>
      </trkpt>
      <trkpt lat="44.89173" lon="4.66507">
        <ele>488</ele>
        <time>2021-03-27T13:10:13Z</time>
      </trkpt>
      <trkpt lat="44.89174" lon="4.66526">
        <ele>487.4</ele>
        <time>2021-03-27T13:10:17Z</time>
      </trkpt>
      <trkpt lat="44.89176" lon="4.66544">
        <ele>486.4</ele>
        <time>2021-03-27T13:10:21Z</time>
      </trkpt>
      <trkpt lat="44.89179" lon="4.66562">
        <ele>485.4</ele>
        <time>2021-03-27T13:10:25Z</time>
      </trkpt>
      <trkpt lat="44.89179" lon="4.66576">
        <ele>485.4</ele>
        <time>2021-03-27T13:10:29Z</time>
      </trkpt>
      <trkpt lat="44.8918" lon="4.66592">
        <ele>480</ele>
        <time>2021-03-27T13:10:33Z</time>
      </trkpt>
      <trkpt lat="44.8918" lon="4.66608">
        <ele>484.4</ele>
        <time>2021-03-27T13:10:37Z</time>
      </trkpt>
      <trkpt lat="44.8918" lon="4.66629">
        <ele>479.4</ele>
        <time>2021-03-27T13:10:41Z</time>
      </trkpt>
      <trkpt lat="44.89178" lon="4.66647">
        <ele>479.6</ele>
        <time>2021-03-27T13:10:45Z</time>
      </trkpt>
      <trkpt lat="44.89176" lon="4.66662">
        <ele>478.4</ele>
        <time>2021-03-27T13:10:49Z</time>
      </trkpt>
      <trkpt lat="44.89171" lon="4.6668">
        <ele>478.2</ele>
        <time>2021-03-27T13:10:53Z</time>
      </trkpt>
      <trkpt lat="44.89166" lon="4.66699">
        <ele>477</ele>
        <time>2021-03-27T13:10:57Z</time>
      </trkpt>
      <trkpt lat="44.89159" lon="4.66718">
        <ele>475.8</ele>
        <time>2021-03-27T13:11:01Z</time>
      </trkpt>
      <trkpt lat="44.89152" lon="4.66737">
        <ele>474.2</ele>
        <time>2021-03-27T13:11:05Z</time>
      </trkpt>
      <trkpt lat="44.89143" lon="4.66753">
        <ele>474.6</ele>
        <time>2021-03-27T13:11:09Z</time>
      </trkpt>
      <trkpt lat="44.89138" lon="4.66765">
        <ele>473.2</ele>
        <time>2021-03-27T13:11:13Z</time>
      </trkpt>
      <trkpt lat="44.89132" lon="4.66774">
        <ele>472.6</ele>
        <time>2021-03-27T13:11:17Z</time>
      </trkpt>
      <trkpt lat="44.89126" lon="4.66788">
        <ele>471.4</ele>
        <time>2021-03-27T13:11:21Z</time>
      </trkpt>
      <trkpt lat="44.89118" lon="4.66801">
        <ele>471.8</ele>
        <time>2021-03-27T13:11:25Z</time>
      </trkpt>
      <trkpt lat="44.89109" lon="4.66816">
        <ele>469.4</ele>
        <time>2021-03-27T13:11:29Z</time>
      </trkpt>
      <trkpt lat="44.89103" lon="4.66827">
        <ele>469.2</ele>
        <time>2021-03-27T13:11:33Z</time>
      </trkpt>
      <trkpt lat="44.89092" lon="4.66845">
        <ele>467.8</ele>
        <time>2021-03-27T13:11:37Z</time>
      </trkpt>
      <trkpt lat="44.89087" lon="4.66871">
        <ele>466.8</ele>
        <time>2021-03-27T13:11:41Z</time>
      </trkpt>
      <trkpt lat="44.8909" lon="4.66894">
        <ele>465.6</ele>
        <time>2021-03-27T13:11:45Z</time>
      </trkpt>
      <trkpt lat="44.89096" lon="4.66914">
        <ele>467.2</ele>
        <time>2021-03-27T13:11:49Z</time>
      </trkpt>
      <trkpt lat="44.891" lon="4.66932">
        <ele>467</ele>
        <time>2021-03-27T13:11:53Z</time>
      </trkpt>
      <trkpt lat="44.89105" lon="4.66945">
        <ele>466.4</ele>
        <time>2021-03-27T13:11:57Z</time>
      </trkpt>
      <trkpt lat="44.89109" lon="4.66948">
        <ele>466.8</ele>
        <time>2021-03-27T13:12:01Z</time>
      </trkpt>
      <trkpt lat="44.89116" lon="4.66952">
        <ele>468.4</ele>
        <time>2021-03-27T13:12:05Z</time>
      </trkpt>
      <trkpt lat="44.89121" lon="4.66956">
        <ele>469.2</ele>
        <time>2021-03-27T13:12:09Z</time>
      </trkpt>
      <trkpt lat="44.89128" lon="4.66959">
        <ele>470</ele>
        <time>2021-03-27T13:12:13Z</time>
      </trkpt>
      <trkpt lat="44.89131" lon="4.66961">
        <ele>471</ele>
        <time>2021-03-27T13:12:17Z</time>
      </trkpt>
      <trkpt lat="44.89137" lon="4.66964">
        <ele>472</ele>
        <time>2021-03-27T13:12:21Z</time>
      </trkpt>
      <trkpt lat="44.89142" lon="4.66968">
        <ele>472.2</ele>
        <time>2021-03-27T13:12:25Z</time>
      </trkpt>
      <trkpt lat="44.89147" lon="4.66971">
        <ele>473</ele>
        <time>2021-03-27T13:12:29Z</time>
      </trkpt>
      <trkpt lat="44.89149" lon="4.66975">
        <ele>473.6</ele>
        <time>2021-03-27T13:12:33Z</time>
      </trkpt>
      <trkpt lat="44.89151" lon="4.66981">
        <ele>474.4</ele>
        <time>2021-03-27T13:12:37Z</time>
      </trkpt>
      <trkpt lat="44.89155" lon="4.66987">
        <ele>474.4</ele>
        <time>2021-03-27T13:12:41Z</time>
      </trkpt>
      <trkpt lat="44.89156" lon="4.66996">
        <ele>474.4</ele>
        <time>2021-03-27T13:12:45Z</time>
      </trkpt>
      <trkpt lat="44.89155" lon="4.67004">
        <ele>475.4</ele>
        <time>2021-03-27T13:12:49Z</time>
      </trkpt>
      <trkpt lat="44.89154" lon="4.67011">
        <ele>476.4</ele>
        <time>2021-03-27T13:12:53Z</time>
      </trkpt>
      <trkpt lat="44.89153" lon="4.67018">
        <ele>477.4</ele>
        <time>2021-03-27T13:12:57Z</time>
      </trkpt>
      <trkpt lat="44.89154" lon="4.67027">
        <ele>478.8</ele>
        <time>2021-03-27T13:13:01Z</time>
      </trkpt>
      <trkpt lat="44.89156" lon="4.67032">
        <ele>478.8</ele>
        <time>2021-03-27T13:13:05Z</time>
      </trkpt>
      <trkpt lat="44.89158" lon="4.67038">
        <ele>479.4</ele>
        <time>2021-03-27T13:13:09Z</time>
      </trkpt>
      <trkpt lat="44.89159" lon="4.67044">
        <ele>480</ele>
        <time>2021-03-27T13:13:13Z</time>
      </trkpt>
      <trkpt lat="44.89161" lon="4.67049">
        <ele>480.8</ele>
        <time>2021-03-27T13:13:17Z</time>
      </trkpt>
      <trkpt lat="44.89163" lon="4.67055">
        <ele>482</ele>
        <time>2021-03-27T13:13:21Z</time>
      </trkpt>
      <trkpt lat="44.89165" lon="4.67061">
        <ele>483.2</ele>
        <time>2021-03-27T13:13:25Z</time>
      </trkpt>
      <trkpt lat="44.89166" lon="4.67067">
        <ele>483.6</ele>
        <time>2021-03-27T13:13:29Z</time>
      </trkpt>
      <trkpt lat="44.89167" lon="4.67072">
        <ele>484.4</ele>
        <time>2021-03-27T13:13:33Z</time>
      </trkpt>
      <trkpt lat="44.89169" lon="4.67078">
        <ele>485.2</ele>
        <time>2021-03-27T13:13:37Z</time>
      </trkpt>
      <trkpt lat="44.89169" lon="4.67085">
        <ele>486.2</ele>
        <time>2021-03-27T13:13:41Z</time>
      </trkpt>
      <trkpt lat="44.89171" lon="4.67093">
        <ele>486.8</ele>
        <time>2021-03-27T13:13:45Z</time>
      </trkpt>
      <trkpt lat="44.89174" lon="4.67102">
        <ele>487.2</ele>
        <time>2021-03-27T13:13:49Z</time>
      </trkpt>
      <trkpt lat="44.89176" lon="4.67111">
        <ele>486.8</ele>
        <time>2021-03-27T13:13:53Z</time>
      </trkpt>
      <trkpt lat="44.89176" lon="4.6712">
        <ele>487.8</ele>
        <time>2021-03-27T13:13:57Z</time>
      </trkpt>
      <trkpt lat="44.89176" lon="4.6713">
        <ele>488.2</ele>
        <time>2021-03-27T13:14:01Z</time>
      </trkpt>
      <trkpt lat="44.89176" lon="4.67139">
        <ele>488.6</ele>
        <time>2021-03-27T13:14:05Z</time>
      </trkpt>
      <trkpt lat="44.89181" lon="4.67149">
        <ele>489.4</ele>
        <time>2021-03-27T13:14:09Z</time>
      </trkpt>
      <trkpt lat="44.89188" lon="4.67158">
        <ele>489.4</ele>
        <time>2021-03-27T13:14:13Z</time>
      </trkpt>
      <trkpt lat="44.89195" lon="4.67163">
        <ele>490.4</ele>
        <time>2021-03-27T13:14:17Z</time>
      </trkpt>
      <trkpt lat="44.89202" lon="4.67166">
        <ele>490.6</ele>
        <time>2021-03-27T13:14:21Z</time>
      </trkpt>
      <trkpt lat="44.89208" lon="4.67169">
        <ele>490.8</ele>
        <time>2021-03-27T13:14:25Z</time>
      </trkpt>
      <trkpt lat="44.89215" lon="4.67173">
        <ele>491.2</ele>
        <time>2021-03-27T13:14:29Z</time>
      </trkpt>
      <trkpt lat="44.8922" lon="4.67176">
        <ele>491.6</ele>
        <time>2021-03-27T13:14:33Z</time>
      </trkpt>
      <trkpt lat="44.89226" lon="4.6718">
        <ele>492</ele>
        <time>2021-03-27T13:14:37Z</time>
      </trkpt>
      <trkpt lat="44.89232" lon="4.67184">
        <ele>493</ele>
        <time>2021-03-27T13:14:41Z</time>
      </trkpt>
      <trkpt lat="44.89237" lon="4.67189">
        <ele>493.4</ele>
        <time>2021-03-27T13:14:45Z</time>
      </trkpt>
      <trkpt lat="44.89242" lon="4.67192">
        <ele>493.6</ele>
        <time>2021-03-27T13:14:49Z</time>
      </trkpt>
      <trkpt lat="44.89248" lon="4.67195">
        <ele>494.6</ele>
        <time>2021-03-27T13:14:53Z</time>
      </trkpt>
      <trkpt lat="44.89253" lon="4.67201">
        <ele>495.4</ele>
        <time>2021-03-27T13:14:57Z</time>
      </trkpt>
      <trkpt lat="44.89256" lon="4.67208">
        <ele>497.8</ele>
        <time>2021-03-27T13:15:01Z</time>
      </trkpt>
      <trkpt lat="44.89254" lon="4.67213">
        <ele>499</ele>
        <time>2021-03-27T13:15:05Z</time>
      </trkpt>
      <trkpt lat="44.89251" lon="4.67215">
        <ele>499.6</ele>
        <time>2021-03-27T13:15:09Z</time>
      </trkpt>
      <trkpt lat="44.89247" lon="4.67215">
        <ele>499.8</ele>
        <time>2021-03-27T13:15:13Z</time>
      </trkpt>
      <trkpt lat="44.89243" lon="4.67213">
        <ele>500.8</ele>
        <time>2021-03-27T13:15:17Z</time>
      </trkpt>
      <trkpt lat="44.89239" lon="4.67213">
        <ele>501.4</ele>
        <time>2021-03-27T13:15:21Z</time>
      </trkpt>
      <trkpt lat="44.89234" lon="4.67214">
        <ele>502.2</ele>
        <time>2021-03-27T13:15:25Z</time>
      </trkpt>
      <trkpt lat="44.8923" lon="4.67215">
        <ele>503.2</ele>
        <time>2021-03-27T13:15:29Z</time>
      </trkpt>
      <trkpt lat="44.89226" lon="4.67216">
        <ele>504.2</ele>
        <time>2021-03-27T13:15:33Z</time>
      </trkpt>
      <trkpt lat="44.89221" lon="4.67217">
        <ele>504.6</ele>
        <time>2021-03-27T13:15:37Z</time>
      </trkpt>
      <trkpt lat="44.89217" lon="4.67219">
        <ele>505.2</ele>
        <time>2021-03-27T13:15:41Z</time>
      </trkpt>
      <trkpt lat="44.89213" lon="4.67221">
        <ele>506.2</ele>
        <time>2021-03-27T13:15:45Z</time>
      </trkpt>
      <trkpt lat="44.89208" lon="4.67223">
        <ele>506.2</ele>
        <time>2021-03-27T13:15:49Z</time>
      </trkpt>
      <trkpt lat="44.89204" lon="4.67226">
        <ele>507.2</ele>
        <time>2021-03-27T13:15:53Z</time>
      </trkpt>
      <trkpt lat="44.89199" lon="4.67229">
        <ele>508</ele>
        <time>2021-03-27T13:15:57Z</time>
      </trkpt>
      <trkpt lat="44.89196" lon="4.67232">
        <ele>508.2</ele>
        <time>2021-03-27T13:16:01Z</time>
      </trkpt>
      <trkpt lat="44.89192" lon="4.67235">
        <ele>509.2</ele>
        <time>2021-03-27T13:16:05Z</time>
      </trkpt>
      <trkpt lat="44.89188" lon="4.67237">
        <ele>509.6</ele>
        <time>2021-03-27T13:16:09Z</time>
      </trkpt>
      <trkpt lat="44.89184" lon="4.6724">
        <ele>510.8</ele>
        <time>2021-03-27T13:16:13Z</time>
      </trkpt>
      <trkpt lat="44.89181" lon="4.67243">
        <ele>511.2</ele>
        <time>2021-03-27T13:16:17Z</time>
      </trkpt>
      <trkpt lat="44.89178" lon="4.67246">
        <ele>512.6</ele>
        <time>2021-03-27T13:16:21Z</time>
      </trkpt>
      <trkpt lat="44.89174" lon="4.67251">
        <ele>512.8</ele>
        <time>2021-03-27T13:16:25Z</time>
      </trkpt>
      <trkpt lat="44.89171" lon="4.67255">
        <ele>513.2</ele>
        <time>2021-03-27T13:16:29Z</time>
      </trkpt>
      <trkpt lat="44.89169" lon="4.6726">
        <ele>514.2</ele>
        <time>2021-03-27T13:16:33Z</time>
      </trkpt>
      <trkpt lat="44.89167" lon="4.67265">
        <ele>514.8</ele>
        <time>2021-03-27T13:16:37Z</time>
      </trkpt>
      <trkpt lat="44.89166" lon="4.6727">
        <ele>515</ele>
        <time>2021-03-27T13:16:41Z</time>
      </trkpt>
      <trkpt lat="44.89164" lon="4.67276">
        <ele>515.8</ele>
        <time>2021-03-27T13:16:45Z</time>
      </trkpt>
      <trkpt lat="44.89162" lon="4.67281">
        <ele>516.4</ele>
        <time>2021-03-27T13:16:49Z</time>
      </trkpt>
      <trkpt lat="44.89158" lon="4.67287">
        <ele>517.2</ele>
        <time>2021-03-27T13:16:53Z</time>
      </trkpt>
      <trkpt lat="44.89155" lon="4.6729">
        <ele>517.8</ele>
        <time>2021-03-27T13:16:57Z</time>
      </trkpt>
      <trkpt lat="44.89151" lon="4.67293">
        <ele>518.2</ele>
        <time>2021-03-27T13:17:01Z</time>
      </trkpt>
      <trkpt lat="44.89149" lon="4.67294">
        <ele>519</ele>
        <time>2021-03-27T13:17:05Z</time>
      </trkpt>
      <trkpt lat="44.89145" lon="4.67295">
        <ele>520</ele>
        <time>2021-03-27T13:17:09Z</time>
      </trkpt>
      <trkpt lat="44.89145" lon="4.67295">
        <ele>520.4</ele>
        <time>2021-03-27T13:17:13Z</time>
      </trkpt>
      <trkpt lat="44.89128" lon="4.6734">
        <ele>527</ele>
        <time>2021-03-27T13:17:51Z</time>
      </trkpt>
      <trkpt lat="44.89131" lon="4.67348">
        <ele>527.4</ele>
        <time>2021-03-27T13:17:55Z</time>
      </trkpt>
      <trkpt lat="44.89134" lon="4.67356">
        <ele>528.2</ele>
        <time>2021-03-27T13:17:59Z</time>
      </trkpt>
      <trkpt lat="44.89136" lon="4.67363">
        <ele>528.4</ele>
        <time>2021-03-27T13:18:03Z</time>
      </trkpt>
      <trkpt lat="44.89137" lon="4.6737">
        <ele>528.6</ele>
        <time>2021-03-27T13:18:07Z</time>
      </trkpt>
      <trkpt lat="44.8914" lon="4.67377">
        <ele>529</ele>
        <time>2021-03-27T13:18:11Z</time>
      </trkpt>
      <trkpt lat="44.89142" lon="4.67385">
        <ele>529.6</ele>
        <time>2021-03-27T13:18:15Z</time>
      </trkpt>
      <trkpt lat="44.89145" lon="4.67391">
        <ele>529.8</ele>
        <time>2021-03-27T13:18:19Z</time>
      </trkpt>
      <trkpt lat="44.89148" lon="4.67398">
        <ele>530.6</ele>
        <time>2021-03-27T13:18:23Z</time>
      </trkpt>
      <trkpt lat="44.8915" lon="4.67404">
        <ele>531.6</ele>
        <time>2021-03-27T13:18:27Z</time>
      </trkpt>
      <trkpt lat="44.89153" lon="4.6741">
        <ele>531.6</ele>
        <time>2021-03-27T13:18:31Z</time>
      </trkpt>
      <trkpt lat="44.89159" lon="4.67412">
        <ele>533.2</ele>
        <time>2021-03-27T13:18:35Z</time>
      </trkpt>
      <trkpt lat="44.89161" lon="4.67418">
        <ele>533</ele>
        <time>2021-03-27T13:18:39Z</time>
      </trkpt>
      <trkpt lat="44.89159" lon="4.67425">
        <ele>533.8</ele>
        <time>2021-03-27T13:18:43Z</time>
      </trkpt>
      <trkpt lat="44.89166" lon="4.67418">
        <ele>533.6</ele>
        <time>2021-03-27T13:19:21Z</time>
      </trkpt>
      <trkpt lat="44.89176" lon="4.67404">
        <ele>532.8</ele>
        <time>2021-03-27T13:19:25Z</time>
      </trkpt>
      <trkpt lat="44.89186" lon="4.67396">
        <ele>532.8</ele>
        <time>2021-03-27T13:19:29Z</time>
      </trkpt>
      <trkpt lat="44.89197" lon="4.67388">
        <ele>531.6</ele>
        <time>2021-03-27T13:19:33Z</time>
      </trkpt>
      <trkpt lat="44.89211" lon="4.67381">
        <ele>531</ele>
        <time>2021-03-27T13:19:37Z</time>
      </trkpt>
      <trkpt lat="44.89224" lon="4.67372">
        <ele>529</ele>
        <time>2021-03-27T13:19:41Z</time>
      </trkpt>
      <trkpt lat="44.89238" lon="4.67368">
        <ele>529.4</ele>
        <time>2021-03-27T13:19:45Z</time>
      </trkpt>
      <trkpt lat="44.89245" lon="4.67379">
        <ele>528.8</ele>
        <time>2021-03-27T13:19:49Z</time>
      </trkpt>
      <trkpt lat="44.89249" lon="4.67393">
        <ele>529.2</ele>
        <time>2021-03-27T13:19:53Z</time>
      </trkpt>
      <trkpt lat="44.89256" lon="4.67403">
        <ele>529.6</ele>
        <time>2021-03-27T13:19:57Z</time>
      </trkpt>
      <trkpt lat="44.89262" lon="4.67412">
        <ele>529</ele>
        <time>2021-03-27T13:20:01Z</time>
      </trkpt>
      <trkpt lat="44.89269" lon="4.67421">
        <ele>529.4</ele>
        <time>2021-03-27T13:20:05Z</time>
      </trkpt>
      <trkpt lat="44.89275" lon="4.67434">
        <ele>528.6</ele>
        <time>2021-03-27T13:20:09Z</time>
      </trkpt>
      <trkpt lat="44.89281" lon="4.67449">
        <ele>528.2</ele>
        <time>2021-03-27T13:20:13Z</time>
      </trkpt>
      <trkpt lat="44.89288" lon="4.67461">
        <ele>528.6</ele>
        <time>2021-03-27T13:20:17Z</time>
      </trkpt>
      <trkpt lat="44.89297" lon="4.6747">
        <ele>527.6</ele>
        <time>2021-03-27T13:20:21Z</time>
      </trkpt>
      <trkpt lat="44.89302" lon="4.67481">
        <ele>527.6</ele>
        <time>2021-03-27T13:20:25Z</time>
      </trkpt>
      <trkpt lat="44.89306" lon="4.67496">
        <ele>526.4</ele>
        <time>2021-03-27T13:20:29Z</time>
      </trkpt>
      <trkpt lat="44.89312" lon="4.67519">
        <ele>525.2</ele>
        <time>2021-03-27T13:20:33Z</time>
      </trkpt>
      <trkpt lat="44.89318" lon="4.67546">
        <ele>524</ele>
        <time>2021-03-27T13:20:37Z</time>
      </trkpt>
      <trkpt lat="44.89328" lon="4.67565">
        <ele>521.8</ele>
        <time>2021-03-27T13:20:41Z</time>
      </trkpt>
      <trkpt lat="44.89341" lon="4.67581">
        <ele>522</ele>
        <time>2021-03-27T13:20:45Z</time>
      </trkpt>
      <trkpt lat="44.8936" lon="4.67588">
        <ele>523.8</ele>
        <time>2021-03-27T13:20:49Z</time>
      </trkpt>
      <trkpt lat="44.89375" lon="4.67573">
        <ele>522.4</ele>
        <time>2021-03-27T13:20:53Z</time>
      </trkpt>
      <trkpt lat="44.89382" lon="4.67559">
        <ele>524.2</ele>
        <time>2021-03-27T13:20:57Z</time>
      </trkpt>
      <trkpt lat="44.8939" lon="4.6755">
        <ele>525.4</ele>
        <time>2021-03-27T13:21:01Z</time>
      </trkpt>
      <trkpt lat="44.89406" lon="4.67547">
        <ele>526</ele>
        <time>2021-03-27T13:21:05Z</time>
      </trkpt>
      <trkpt lat="44.89419" lon="4.67546">
        <ele>526.6</ele>
        <time>2021-03-27T13:21:09Z</time>
      </trkpt>
      <trkpt lat="44.89429" lon="4.67545">
        <ele>526.6</ele>
        <time>2021-03-27T13:21:13Z</time>
      </trkpt>
      <trkpt lat="44.89439" lon="4.67543">
        <ele>527.2</ele>
        <time>2021-03-27T13:21:17Z</time>
      </trkpt>
      <trkpt lat="44.89446" lon="4.67533">
        <ele>527.2</ele>
        <time>2021-03-27T13:21:21Z</time>
      </trkpt>
      <trkpt lat="44.89448" lon="4.6752">
        <ele>527.4</ele>
        <time>2021-03-27T13:21:25Z</time>
      </trkpt>
      <trkpt lat="44.89447" lon="4.67511">
        <ele>528.8</ele>
        <time>2021-03-27T13:21:29Z</time>
      </trkpt>
      <trkpt lat="44.89444" lon="4.67504">
        <ele>529.4</ele>
        <time>2021-03-27T13:21:33Z</time>
      </trkpt>
      <trkpt lat="44.89441" lon="4.67497">
        <ele>530.2</ele>
        <time>2021-03-27T13:21:37Z</time>
      </trkpt>
      <trkpt lat="44.89437" lon="4.67492">
        <ele>530.8</ele>
        <time>2021-03-27T13:21:41Z</time>
      </trkpt>
      <trkpt lat="44.89434" lon="4.67485">
        <ele>531</ele>
        <time>2021-03-27T13:21:45Z</time>
      </trkpt>
      <trkpt lat="44.89431" lon="4.67478">
        <ele>532.2</ele>
        <time>2021-03-27T13:21:49Z</time>
      </trkpt>
      <trkpt lat="44.89428" lon="4.67471">
        <ele>532.8</ele>
        <time>2021-03-27T13:21:53Z</time>
      </trkpt>
      <trkpt lat="44.89426" lon="4.67463">
        <ele>533.2</ele>
        <time>2021-03-27T13:21:57Z</time>
      </trkpt>
      <trkpt lat="44.89423" lon="4.67456">
        <ele>533.6</ele>
        <time>2021-03-27T13:22:01Z</time>
      </trkpt>
      <trkpt lat="44.89422" lon="4.67449">
        <ele>535.2</ele>
        <time>2021-03-27T13:22:05Z</time>
      </trkpt>
      <trkpt lat="44.8942" lon="4.67441">
        <ele>535.6</ele>
        <time>2021-03-27T13:22:09Z</time>
      </trkpt>
      <trkpt lat="44.89416" lon="4.67435">
        <ele>535.2</ele>
        <time>2021-03-27T13:22:13Z</time>
      </trkpt>
      <trkpt lat="44.89412" lon="4.67428">
        <ele>535.6</ele>
        <time>2021-03-27T13:22:17Z</time>
      </trkpt>
      <trkpt lat="44.89406" lon="4.67415">
        <ele>534.8</ele>
        <time>2021-03-27T13:22:21Z</time>
      </trkpt>
      <trkpt lat="44.894" lon="4.67397">
        <ele>533.6</ele>
        <time>2021-03-27T13:22:25Z</time>
      </trkpt>
      <trkpt lat="44.89399" lon="4.67386">
        <ele>533.8</ele>
        <time>2021-03-27T13:22:29Z</time>
      </trkpt>
      <trkpt lat="44.89399" lon="4.67377">
        <ele>534.6</ele>
        <time>2021-03-27T13:22:33Z</time>
      </trkpt>
      <trkpt lat="44.89398" lon="4.67368">
        <ele>535.2</ele>
        <time>2021-03-27T13:22:37Z</time>
      </trkpt>
      <trkpt lat="44.89399" lon="4.67358">
        <ele>535.4</ele>
        <time>2021-03-27T13:22:41Z</time>
      </trkpt>
      <trkpt lat="44.894" lon="4.6735">
        <ele>536</ele>
        <time>2021-03-27T13:22:45Z</time>
      </trkpt>
      <trkpt lat="44.89402" lon="4.6734">
        <ele>536.6</ele>
        <time>2021-03-27T13:22:49Z</time>
      </trkpt>
      <trkpt lat="44.89405" lon="4.67331">
        <ele>536.4</ele>
        <time>2021-03-27T13:22:53Z</time>
      </trkpt>
      <trkpt lat="44.89407" lon="4.67321">
        <ele>537.2</ele>
        <time>2021-03-27T13:22:57Z</time>
      </trkpt>
      <trkpt lat="44.89411" lon="4.67312">
        <ele>538</ele>
        <time>2021-03-27T13:23:01Z</time>
      </trkpt>
      <trkpt lat="44.89414" lon="4.67302">
        <ele>537.8</ele>
        <time>2021-03-27T13:23:05Z</time>
      </trkpt>
      <trkpt lat="44.89418" lon="4.67294">
        <ele>538.2</ele>
        <time>2021-03-27T13:23:09Z</time>
      </trkpt>
      <trkpt lat="44.89424" lon="4.67289">
        <ele>538.6</ele>
        <time>2021-03-27T13:23:13Z</time>
      </trkpt>
      <trkpt lat="44.89432" lon="4.67286">
        <ele>539</ele>
        <time>2021-03-27T13:23:17Z</time>
      </trkpt>
      <trkpt lat="44.89441" lon="4.67286">
        <ele>539.2</ele>
        <time>2021-03-27T13:23:21Z</time>
      </trkpt>
      <trkpt lat="44.8945" lon="4.67286">
        <ele>539</ele>
        <time>2021-03-27T13:23:25Z</time>
      </trkpt>
      <trkpt lat="44.8946" lon="4.67288">
        <ele>539.6</ele>
        <time>2021-03-27T13:23:29Z</time>
      </trkpt>
      <trkpt lat="44.89467" lon="4.67289">
        <ele>540</ele>
        <time>2021-03-27T13:23:33Z</time>
      </trkpt>
      <trkpt lat="44.89472" lon="4.6729">
        <ele>541</ele>
        <time>2021-03-27T13:23:37Z</time>
      </trkpt>
      <trkpt lat="44.89478" lon="4.67295">
        <ele>541</ele>
        <time>2021-03-27T13:23:41Z</time>
      </trkpt>
      <trkpt lat="44.89484" lon="4.67301">
        <ele>541.4</ele>
        <time>2021-03-27T13:23:45Z</time>
      </trkpt>
      <trkpt lat="44.89491" lon="4.67309">
        <ele>542.4</ele>
        <time>2021-03-27T13:23:49Z</time>
      </trkpt>
      <trkpt lat="44.89497" lon="4.67316">
        <ele>543</ele>
        <time>2021-03-27T13:23:53Z</time>
      </trkpt>
      <trkpt lat="44.89504" lon="4.67325">
        <ele>544</ele>
        <time>2021-03-27T13:23:57Z</time>
      </trkpt>
      <trkpt lat="44.8951" lon="4.67333">
        <ele>544.2</ele>
        <time>2021-03-27T13:24:01Z</time>
      </trkpt>
      <trkpt lat="44.89516" lon="4.6734">
        <ele>545</ele>
        <time>2021-03-27T13:24:05Z</time>
      </trkpt>
      <trkpt lat="44.89521" lon="4.67346">
        <ele>545</ele>
        <time>2021-03-27T13:24:09Z</time>
      </trkpt>
      <trkpt lat="44.89526" lon="4.67353">
        <ele>546</ele>
        <time>2021-03-27T13:24:13Z</time>
      </trkpt>
      <trkpt lat="44.89532" lon="4.67358">
        <ele>546.8</ele>
        <time>2021-03-27T13:24:17Z</time>
      </trkpt>
      <trkpt lat="44.89536" lon="4.67363">
        <ele>547.6</ele>
        <time>2021-03-27T13:24:21Z</time>
      </trkpt>
      <trkpt lat="44.89541" lon="4.67367">
        <ele>547.8</ele>
        <time>2021-03-27T13:24:25Z</time>
      </trkpt>
      <trkpt lat="44.89544" lon="4.6737">
        <ele>548</ele>
        <time>2021-03-27T13:24:29Z</time>
      </trkpt>
      <trkpt lat="44.89549" lon="4.67373">
        <ele>548.8</ele>
        <time>2021-03-27T13:24:33Z</time>
      </trkpt>
      <trkpt lat="44.89554" lon="4.67376">
        <ele>549.4</ele>
        <time>2021-03-27T13:24:37Z</time>
      </trkpt>
      <trkpt lat="44.89559" lon="4.67378">
        <ele>549.8</ele>
        <time>2021-03-27T13:24:41Z</time>
      </trkpt>
      <trkpt lat="44.89566" lon="4.67379">
        <ele>550.2</ele>
        <time>2021-03-27T13:24:45Z</time>
      </trkpt>
      <trkpt lat="44.89571" lon="4.67378">
        <ele>551.2</ele>
        <time>2021-03-27T13:24:49Z</time>
      </trkpt>
      <trkpt lat="44.89577" lon="4.67373">
        <ele>551.2</ele>
        <time>2021-03-27T13:24:53Z</time>
      </trkpt>
      <trkpt lat="44.89582" lon="4.67366">
        <ele>551.2</ele>
        <time>2021-03-27T13:24:57Z</time>
      </trkpt>
      <trkpt lat="44.89587" lon="4.67358">
        <ele>552.4</ele>
        <time>2021-03-27T13:25:01Z</time>
      </trkpt>
      <trkpt lat="44.89591" lon="4.67351">
        <ele>552.4</ele>
        <time>2021-03-27T13:25:05Z</time>
      </trkpt>
      <trkpt lat="44.89596" lon="4.67346">
        <ele>553.4</ele>
        <time>2021-03-27T13:25:09Z</time>
      </trkpt>
      <trkpt lat="44.896" lon="4.67339">
        <ele>553.8</ele>
        <time>2021-03-27T13:25:13Z</time>
      </trkpt>
      <trkpt lat="44.89605" lon="4.67334">
        <ele>553.8</ele>
        <time>2021-03-27T13:25:17Z</time>
      </trkpt>
      <trkpt lat="44.8961" lon="4.6733">
        <ele>553.2</ele>
        <time>2021-03-27T13:25:21Z</time>
      </trkpt>
      <trkpt lat="44.89615" lon="4.67325">
        <ele>554.8</ele>
        <time>2021-03-27T13:25:25Z</time>
      </trkpt>
      <trkpt lat="44.89621" lon="4.6732">
        <ele>556.2</ele>
        <time>2021-03-27T13:25:29Z</time>
      </trkpt>
      <trkpt lat="44.89628" lon="4.67315">
        <ele>555.8</ele>
        <time>2021-03-27T13:25:33Z</time>
      </trkpt>
      <trkpt lat="44.89635" lon="4.67311">
        <ele>556.2</ele>
        <time>2021-03-27T13:25:37Z</time>
      </trkpt>
      <trkpt lat="44.89643" lon="4.67308">
        <ele>557.2</ele>
        <time>2021-03-27T13:25:41Z</time>
      </trkpt>
      <trkpt lat="44.89649" lon="4.67306">
        <ele>556.8</ele>
        <time>2021-03-27T13:25:45Z</time>
      </trkpt>
      <trkpt lat="44.89657" lon="4.67303">
        <ele>557.2</ele>
        <time>2021-03-27T13:25:49Z</time>
      </trkpt>
      <trkpt lat="44.89664" lon="4.67299">
        <ele>557.8</ele>
        <time>2021-03-27T13:25:53Z</time>
      </trkpt>
      <trkpt lat="44.89671" lon="4.67297">
        <ele>558.2</ele>
        <time>2021-03-27T13:25:57Z</time>
      </trkpt>
      <trkpt lat="44.89671" lon="4.67297">
        <ele>559.4</ele>
        <time>2021-03-27T13:26:01Z</time>
      </trkpt>
      <trkpt lat="44.89682" lon="4.67291">
        <ele>560.6</ele>
        <time>2021-03-27T13:26:23Z</time>
      </trkpt>
      <trkpt lat="44.89688" lon="4.67289">
        <ele>561.4</ele>
        <time>2021-03-27T13:26:27Z</time>
      </trkpt>
      <trkpt lat="44.89693" lon="4.67286">
        <ele>561</ele>
        <time>2021-03-27T13:26:31Z</time>
      </trkpt>
      <trkpt lat="44.89699" lon="4.67283">
        <ele>562</ele>
        <time>2021-03-27T13:26:35Z</time>
      </trkpt>
      <trkpt lat="44.89706" lon="4.67281">
        <ele>562.6</ele>
        <time>2021-03-27T13:26:39Z</time>
      </trkpt>
      <trkpt lat="44.89713" lon="4.67279">
        <ele>563.4</ele>
        <time>2021-03-27T13:26:43Z</time>
      </trkpt>
      <trkpt lat="44.89719" lon="4.67278">
        <ele>563.2</ele>
        <time>2021-03-27T13:26:47Z</time>
      </trkpt>
      <trkpt lat="44.89726" lon="4.67277">
        <ele>563.8</ele>
        <time>2021-03-27T13:26:51Z</time>
      </trkpt>
      <trkpt lat="44.89733" lon="4.67276">
        <ele>563.8</ele>
        <time>2021-03-27T13:26:55Z</time>
      </trkpt>
      <trkpt lat="44.8974" lon="4.67275">
        <ele>564.8</ele>
        <time>2021-03-27T13:26:59Z</time>
      </trkpt>
      <trkpt lat="44.89746" lon="4.67272">
        <ele>565.4</ele>
        <time>2021-03-27T13:27:03Z</time>
      </trkpt>
      <trkpt lat="44.89753" lon="4.67269">
        <ele>566.2</ele>
        <time>2021-03-27T13:27:07Z</time>
      </trkpt>
      <trkpt lat="44.89759" lon="4.67266">
        <ele>566.6</ele>
        <time>2021-03-27T13:27:11Z</time>
      </trkpt>
      <trkpt lat="44.89765" lon="4.67263">
        <ele>567.2</ele>
        <time>2021-03-27T13:27:15Z</time>
      </trkpt>
      <trkpt lat="44.89771" lon="4.67262">
        <ele>568</ele>
        <time>2021-03-27T13:27:19Z</time>
      </trkpt>
      <trkpt lat="44.89778" lon="4.6726">
        <ele>568.8</ele>
        <time>2021-03-27T13:27:23Z</time>
      </trkpt>
      <trkpt lat="44.89785" lon="4.67259">
        <ele>569.2</ele>
        <time>2021-03-27T13:27:27Z</time>
      </trkpt>
      <trkpt lat="44.89791" lon="4.67258">
        <ele>569.6</ele>
        <time>2021-03-27T13:27:31Z</time>
      </trkpt>
      <trkpt lat="44.89798" lon="4.67257">
        <ele>570.6</ele>
        <time>2021-03-27T13:27:35Z</time>
      </trkpt>
      <trkpt lat="44.89804" lon="4.67256">
        <ele>570.8</ele>
        <time>2021-03-27T13:27:39Z</time>
      </trkpt>
      <trkpt lat="44.8981" lon="4.67256">
        <ele>571.2</ele>
        <time>2021-03-27T13:27:43Z</time>
      </trkpt>
      <trkpt lat="44.89816" lon="4.67256">
        <ele>571.8</ele>
        <time>2021-03-27T13:27:47Z</time>
      </trkpt>
      <trkpt lat="44.89821" lon="4.67256">
        <ele>573.4</ele>
        <time>2021-03-27T13:27:51Z</time>
      </trkpt>
      <trkpt lat="44.89827" lon="4.67257">
        <ele>573.6</ele>
        <time>2021-03-27T13:27:55Z</time>
      </trkpt>
      <trkpt lat="44.89832" lon="4.67258">
        <ele>574.4</ele>
        <time>2021-03-27T13:27:59Z</time>
      </trkpt>
      <trkpt lat="44.89838" lon="4.67261">
        <ele>574.4</ele>
        <time>2021-03-27T13:28:03Z</time>
      </trkpt>
      <trkpt lat="44.89843" lon="4.67264">
        <ele>574.8</ele>
        <time>2021-03-27T13:28:07Z</time>
      </trkpt>
      <trkpt lat="44.8985" lon="4.67269">
        <ele>575</ele>
        <time>2021-03-27T13:28:11Z</time>
      </trkpt>
      <trkpt lat="44.89855" lon="4.67273">
        <ele>575.4</ele>
        <time>2021-03-27T13:28:15Z</time>
      </trkpt>
      <trkpt lat="44.89861" lon="4.67278">
        <ele>576</ele>
        <time>2021-03-27T13:28:19Z</time>
      </trkpt>
      <trkpt lat="44.89867" lon="4.67284">
        <ele>576.8</ele>
        <time>2021-03-27T13:28:23Z</time>
      </trkpt>
      <trkpt lat="44.89874" lon="4.6729">
        <ele>576.8</ele>
        <time>2021-03-27T13:28:27Z</time>
      </trkpt>
      <trkpt lat="44.89879" lon="4.67296">
        <ele>576.8</ele>
        <time>2021-03-27T13:28:31Z</time>
      </trkpt>
      <trkpt lat="44.89885" lon="4.67302">
        <ele>577.2</ele>
        <time>2021-03-27T13:28:35Z</time>
      </trkpt>
      <trkpt lat="44.89891" lon="4.67309">
        <ele>576.4</ele>
        <time>2021-03-27T13:28:39Z</time>
      </trkpt>
      <trkpt lat="44.89897" lon="4.67318">
        <ele>577</ele>
        <time>2021-03-27T13:28:43Z</time>
      </trkpt>
      <trkpt lat="44.89903" lon="4.67328">
        <ele>577.8</ele>
        <time>2021-03-27T13:28:47Z</time>
      </trkpt>
      <trkpt lat="44.89909" lon="4.67341">
        <ele>577.6</ele>
        <time>2021-03-27T13:28:51Z</time>
      </trkpt>
      <trkpt lat="44.89915" lon="4.67353">
        <ele>578.4</ele>
        <time>2021-03-27T13:28:55Z</time>
      </trkpt>
      <trkpt lat="44.89921" lon="4.67366">
        <ele>577.4</ele>
        <time>2021-03-27T13:28:59Z</time>
      </trkpt>
      <trkpt lat="44.89928" lon="4.67379">
        <ele>578.4</ele>
        <time>2021-03-27T13:29:03Z</time>
      </trkpt>
      <trkpt lat="44.89934" lon="4.67393">
        <ele>578.8</ele>
        <time>2021-03-27T13:29:07Z</time>
      </trkpt>
      <trkpt lat="44.89939" lon="4.67407">
        <ele>579.4</ele>
        <time>2021-03-27T13:29:11Z</time>
      </trkpt>
      <trkpt lat="44.89943" lon="4.6742">
        <ele>580</ele>
        <time>2021-03-27T13:29:15Z</time>
      </trkpt>
      <trkpt lat="44.89945" lon="4.67433">
        <ele>580</ele>
        <time>2021-03-27T13:29:19Z</time>
      </trkpt>
      <trkpt lat="44.89947" lon="4.67445">
        <ele>580.8</ele>
        <time>2021-03-27T13:29:23Z</time>
      </trkpt>
      <trkpt lat="44.8995" lon="4.67457">
        <ele>581.4</ele>
        <time>2021-03-27T13:29:27Z</time>
      </trkpt>
      <trkpt lat="44.8995" lon="4.6747">
        <ele>581.2</ele>
        <time>2021-03-27T13:29:31Z</time>
      </trkpt>
      <trkpt lat="44.89946" lon="4.67486">
        <ele>580.8</ele>
        <time>2021-03-27T13:29:35Z</time>
      </trkpt>
      <trkpt lat="44.89944" lon="4.67501">
        <ele>580.8</ele>
        <time>2021-03-27T13:29:39Z</time>
      </trkpt>
      <trkpt lat="44.89946" lon="4.67514">
        <ele>582.8</ele>
        <time>2021-03-27T13:29:43Z</time>
      </trkpt>
      <trkpt lat="44.89949" lon="4.67524">
        <ele>583</ele>
        <time>2021-03-27T13:29:47Z</time>
      </trkpt>
      <trkpt lat="44.89956" lon="4.67532">
        <ele>583.2</ele>
        <time>2021-03-27T13:29:51Z</time>
      </trkpt>
      <trkpt lat="44.89962" lon="4.67536">
        <ele>584</ele>
        <time>2021-03-27T13:29:55Z</time>
      </trkpt>
      <trkpt lat="44.89968" lon="4.67538">
        <ele>584.4</ele>
        <time>2021-03-27T13:29:59Z</time>
      </trkpt>
      <trkpt lat="44.89975" lon="4.67539">
        <ele>585.2</ele>
        <time>2021-03-27T13:30:03Z</time>
      </trkpt>
      <trkpt lat="44.89982" lon="4.67541">
        <ele>585.8</ele>
        <time>2021-03-27T13:30:07Z</time>
      </trkpt>
      <trkpt lat="44.89987" lon="4.67542">
        <ele>586.4</ele>
        <time>2021-03-27T13:30:11Z</time>
      </trkpt>
      <trkpt lat="44.8999" lon="4.67541">
        <ele>587.8</ele>
        <time>2021-03-27T13:30:15Z</time>
      </trkpt>
      <trkpt lat="44.90041" lon="4.67589">
        <ele>590.4</ele>
        <time>2021-03-27T13:30:58Z</time>
      </trkpt>
      <trkpt lat="44.90046" lon="4.67596">
        <ele>591</ele>
        <time>2021-03-27T13:31:02Z</time>
      </trkpt>
      <trkpt lat="44.90044" lon="4.67597">
        <ele>593.6</ele>
        <time>2021-03-27T13:31:06Z</time>
      </trkpt>
      <trkpt lat="44.90044" lon="4.67593">
        <ele>594.2</ele>
        <time>2021-03-27T13:31:10Z</time>
      </trkpt>
      <trkpt lat="44.90042" lon="4.67591">
        <ele>595</ele>
        <time>2021-03-27T13:31:14Z</time>
      </trkpt>
      <trkpt lat="44.90038" lon="4.67587">
        <ele>595</ele>
        <time>2021-03-27T13:31:18Z</time>
      </trkpt>
      <trkpt lat="44.90034" lon="4.67584">
        <ele>595.4</ele>
        <time>2021-03-27T13:31:22Z</time>
      </trkpt>
      <trkpt lat="44.90027" lon="4.67581">
        <ele>596</ele>
        <time>2021-03-27T13:31:26Z</time>
      </trkpt>
      <trkpt lat="44.9002" lon="4.67579">
        <ele>596.2</ele>
        <time>2021-03-27T13:31:30Z</time>
      </trkpt>
      <trkpt lat="44.90014" lon="4.67576">
        <ele>596.6</ele>
        <time>2021-03-27T13:31:34Z</time>
      </trkpt>
      <trkpt lat="44.90008" lon="4.67573">
        <ele>596.8</ele>
        <time>2021-03-27T13:31:38Z</time>
      </trkpt>
      <trkpt lat="44.90001" lon="4.67573">
        <ele>597.2</ele>
        <time>2021-03-27T13:31:42Z</time>
      </trkpt>
      <trkpt lat="44.89994" lon="4.67575">
        <ele>598.2</ele>
        <time>2021-03-27T13:31:46Z</time>
      </trkpt>
      <trkpt lat="44.89988" lon="4.67577">
        <ele>598.4</ele>
        <time>2021-03-27T13:31:50Z</time>
      </trkpt>
      <trkpt lat="44.89981" lon="4.67582">
        <ele>599</ele>
        <time>2021-03-27T13:31:54Z</time>
      </trkpt>
      <trkpt lat="44.89975" lon="4.67586">
        <ele>599.6</ele>
        <time>2021-03-27T13:31:58Z</time>
      </trkpt>
      <trkpt lat="44.89966" lon="4.67591">
        <ele>599.4</ele>
        <time>2021-03-27T13:32:02Z</time>
      </trkpt>
      <trkpt lat="44.89954" lon="4.67598">
        <ele>599.8</ele>
        <time>2021-03-27T13:32:06Z</time>
      </trkpt>
      <trkpt lat="44.89943" lon="4.67606">
        <ele>599.6</ele>
        <time>2021-03-27T13:32:10Z</time>
      </trkpt>
      <trkpt lat="44.89932" lon="4.67613">
        <ele>600</ele>
        <time>2021-03-27T13:32:14Z</time>
      </trkpt>
      <trkpt lat="44.89921" lon="4.6762">
        <ele>600.4</ele>
        <time>2021-03-27T13:32:18Z</time>
      </trkpt>
      <trkpt lat="44.89912" lon="4.67627">
        <ele>601.2</ele>
        <time>2021-03-27T13:32:22Z</time>
      </trkpt>
      <trkpt lat="44.89902" lon="4.67634">
        <ele>602</ele>
        <time>2021-03-27T13:32:26Z</time>
      </trkpt>
      <trkpt lat="44.89895" lon="4.67645">
        <ele>602</ele>
        <time>2021-03-27T13:32:30Z</time>
      </trkpt>
      <trkpt lat="44.8989" lon="4.67658">
        <ele>601.6</ele>
        <time>2021-03-27T13:32:34Z</time>
      </trkpt>
      <trkpt lat="44.8989" lon="4.67673">
        <ele>601.8</ele>
        <time>2021-03-27T13:32:38Z</time>
      </trkpt>
      <trkpt lat="44.89893" lon="4.67686">
        <ele>602.8</ele>
        <time>2021-03-27T13:32:42Z</time>
      </trkpt>
      <trkpt lat="44.89897" lon="4.67699">
        <ele>602.6</ele>
        <time>2021-03-27T13:32:46Z</time>
      </trkpt>
      <trkpt lat="44.89899" lon="4.6771">
        <ele>603.8</ele>
        <time>2021-03-27T13:32:50Z</time>
      </trkpt>
      <trkpt lat="44.89903" lon="4.67721">
        <ele>604</ele>
        <time>2021-03-27T13:32:54Z</time>
      </trkpt>
      <trkpt lat="44.89906" lon="4.67734">
        <ele>604.4</ele>
        <time>2021-03-27T13:32:58Z</time>
      </trkpt>
      <trkpt lat="44.89909" lon="4.67746">
        <ele>605.2</ele>
        <time>2021-03-27T13:33:02Z</time>
      </trkpt>
      <trkpt lat="44.89911" lon="4.67759">
        <ele>605.4</ele>
        <time>2021-03-27T13:33:06Z</time>
      </trkpt>
      <trkpt lat="44.89912" lon="4.67772">
        <ele>605.4</ele>
        <time>2021-03-27T13:33:10Z</time>
      </trkpt>
      <trkpt lat="44.89912" lon="4.67784">
        <ele>605.4</ele>
        <time>2021-03-27T13:33:14Z</time>
      </trkpt>
      <trkpt lat="44.8991" lon="4.67797">
        <ele>606.2</ele>
        <time>2021-03-27T13:33:18Z</time>
      </trkpt>
      <trkpt lat="44.89907" lon="4.6781">
        <ele>606.4</ele>
        <time>2021-03-27T13:33:22Z</time>
      </trkpt>
      <trkpt lat="44.89904" lon="4.67822">
        <ele>607</ele>
        <time>2021-03-27T13:33:26Z</time>
      </trkpt>
      <trkpt lat="44.899" lon="4.67833">
        <ele>607.4</ele>
        <time>2021-03-27T13:33:30Z</time>
      </trkpt>
      <trkpt lat="44.89896" lon="4.67845">
        <ele>607.8</ele>
        <time>2021-03-27T13:33:34Z</time>
      </trkpt>
      <trkpt lat="44.89891" lon="4.67856">
        <ele>607.8</ele>
        <time>2021-03-27T13:33:38Z</time>
      </trkpt>
      <trkpt lat="44.89887" lon="4.67867">
        <ele>609</ele>
        <time>2021-03-27T13:33:42Z</time>
      </trkpt>
      <trkpt lat="44.89883" lon="4.67878">
        <ele>609.4</ele>
        <time>2021-03-27T13:33:46Z</time>
      </trkpt>
      <trkpt lat="44.89879" lon="4.67888">
        <ele>611</ele>
        <time>2021-03-27T13:33:50Z</time>
      </trkpt>
      <trkpt lat="44.89875" lon="4.67898">
        <ele>610.8</ele>
        <time>2021-03-27T13:33:54Z</time>
      </trkpt>
      <trkpt lat="44.8987" lon="4.67908">
        <ele>611.2</ele>
        <time>2021-03-27T13:33:58Z</time>
      </trkpt>
      <trkpt lat="44.89865" lon="4.67917">
        <ele>611.6</ele>
        <time>2021-03-27T13:34:02Z</time>
      </trkpt>
      <trkpt lat="44.89859" lon="4.67926">
        <ele>612.2</ele>
        <time>2021-03-27T13:34:06Z</time>
      </trkpt>
      <trkpt lat="44.89854" lon="4.67935">
        <ele>612.4</ele>
        <time>2021-03-27T13:34:10Z</time>
      </trkpt>
      <trkpt lat="44.89851" lon="4.67943">
        <ele>612.6</ele>
        <time>2021-03-27T13:34:14Z</time>
      </trkpt>
      <trkpt lat="44.89847" lon="4.67951">
        <ele>613.2</ele>
        <time>2021-03-27T13:34:18Z</time>
      </trkpt>
      <trkpt lat="44.89842" lon="4.67961">
        <ele>612.6</ele>
        <time>2021-03-27T13:34:22Z</time>
      </trkpt>
      <trkpt lat="44.89834" lon="4.67972">
        <ele>612.2</ele>
        <time>2021-03-27T13:34:26Z</time>
      </trkpt>
      <trkpt lat="44.89829" lon="4.67983">
        <ele>613.2</ele>
        <time>2021-03-27T13:34:30Z</time>
      </trkpt>
      <trkpt lat="44.89831" lon="4.67989">
        <ele>614.2</ele>
        <time>2021-03-27T13:34:34Z</time>
      </trkpt>
      <trkpt lat="44.89836" lon="4.67987">
        <ele>614</ele>
        <time>2021-03-27T13:34:38Z</time>
      </trkpt>
      <trkpt lat="44.89842" lon="4.67988">
        <ele>614.8</ele>
        <time>2021-03-27T13:34:42Z</time>
      </trkpt>
      <trkpt lat="44.89846" lon="4.67989">
        <ele>615.4</ele>
        <time>2021-03-27T13:34:46Z</time>
      </trkpt>
      <trkpt lat="44.8985" lon="4.67991">
        <ele>616.2</ele>
        <time>2021-03-27T13:34:50Z</time>
      </trkpt>
      <trkpt lat="44.89853" lon="4.67995">
        <ele>617.6</ele>
        <time>2021-03-27T13:34:54Z</time>
      </trkpt>
      <trkpt lat="44.89857" lon="4.67997">
        <ele>618</ele>
        <time>2021-03-27T13:34:58Z</time>
      </trkpt>
      <trkpt lat="44.89861" lon="4.68">
        <ele>618.8</ele>
        <time>2021-03-27T13:35:02Z</time>
      </trkpt>
      <trkpt lat="44.89865" lon="4.68003">
        <ele>619.8</ele>
        <time>2021-03-27T13:35:06Z</time>
      </trkpt>
      <trkpt lat="44.8987" lon="4.68006">
        <ele>621</ele>
        <time>2021-03-27T13:35:10Z</time>
      </trkpt>
      <trkpt lat="44.89873" lon="4.68009">
        <ele>621</ele>
        <time>2021-03-27T13:35:14Z</time>
      </trkpt>
      <trkpt lat="44.89878" lon="4.68012">
        <ele>621.8</ele>
        <time>2021-03-27T13:35:18Z</time>
      </trkpt>
      <trkpt lat="44.89882" lon="4.68016">
        <ele>622.8</ele>
        <time>2021-03-27T13:35:22Z</time>
      </trkpt>
      <trkpt lat="44.89886" lon="4.6802">
        <ele>623</ele>
        <time>2021-03-27T13:35:26Z</time>
      </trkpt>
      <trkpt lat="44.89891" lon="4.68023">
        <ele>623.8</ele>
        <time>2021-03-27T13:35:30Z</time>
      </trkpt>
      <trkpt lat="44.89894" lon="4.68028">
        <ele>624.4</ele>
        <time>2021-03-27T13:35:34Z</time>
      </trkpt>
      <trkpt lat="44.89897" lon="4.68033">
        <ele>624.8</ele>
        <time>2021-03-27T13:35:38Z</time>
      </trkpt>
      <trkpt lat="44.899" lon="4.68039">
        <ele>625.8</ele>
        <time>2021-03-27T13:35:42Z</time>
      </trkpt>
      <trkpt lat="44.89904" lon="4.68044">
        <ele>626.6</ele>
        <time>2021-03-27T13:35:46Z</time>
      </trkpt>
      <trkpt lat="44.89906" lon="4.6805">
        <ele>627</ele>
        <time>2021-03-27T13:35:50Z</time>
      </trkpt>
      <trkpt lat="44.8991" lon="4.68055">
        <ele>628</ele>
        <time>2021-03-27T13:35:54Z</time>
      </trkpt>
      <trkpt lat="44.89913" lon="4.68059">
        <ele>628.8</ele>
        <time>2021-03-27T13:35:58Z</time>
      </trkpt>
      <trkpt lat="44.89917" lon="4.68063">
        <ele>629.4</ele>
        <time>2021-03-27T13:36:02Z</time>
      </trkpt>
      <trkpt lat="44.89921" lon="4.68067">
        <ele>629.8</ele>
        <time>2021-03-27T13:36:06Z</time>
      </trkpt>
      <trkpt lat="44.89925" lon="4.68071">
        <ele>630.8</ele>
        <time>2021-03-27T13:36:10Z</time>
      </trkpt>
      <trkpt lat="44.89929" lon="4.68075">
        <ele>631.2</ele>
        <time>2021-03-27T13:36:14Z</time>
      </trkpt>
      <trkpt lat="44.89933" lon="4.68078">
        <ele>631.8</ele>
        <time>2021-03-27T13:36:18Z</time>
      </trkpt>
      <trkpt lat="44.89938" lon="4.68082">
        <ele>632.2</ele>
        <time>2021-03-27T13:36:22Z</time>
      </trkpt>
      <trkpt lat="44.89944" lon="4.68086">
        <ele>633.4</ele>
        <time>2021-03-27T13:36:26Z</time>
      </trkpt>
      <trkpt lat="44.89948" lon="4.68089">
        <ele>632.8</ele>
        <time>2021-03-27T13:36:30Z</time>
      </trkpt>
      <trkpt lat="44.89954" lon="4.68093">
        <ele>633.6</ele>
        <time>2021-03-27T13:36:34Z</time>
      </trkpt>
      <trkpt lat="44.8996" lon="4.68097">
        <ele>634</ele>
        <time>2021-03-27T13:36:38Z</time>
      </trkpt>
      <trkpt lat="44.89966" lon="4.68101">
        <ele>634.8</ele>
        <time>2021-03-27T13:36:42Z</time>
      </trkpt>
      <trkpt lat="44.89971" lon="4.68106">
        <ele>635.4</ele>
        <time>2021-03-27T13:36:46Z</time>
      </trkpt>
      <trkpt lat="44.89976" lon="4.68109">
        <ele>635.8</ele>
        <time>2021-03-27T13:36:50Z</time>
      </trkpt>
      <trkpt lat="44.89981" lon="4.68113">
        <ele>635.6</ele>
        <time>2021-03-27T13:36:54Z</time>
      </trkpt>
      <trkpt lat="44.89986" lon="4.68116">
        <ele>636.6</ele>
        <time>2021-03-27T13:36:58Z</time>
      </trkpt>
      <trkpt lat="44.89991" lon="4.68119">
        <ele>637.6</ele>
        <time>2021-03-27T13:37:02Z</time>
      </trkpt>
      <trkpt lat="44.89996" lon="4.68122">
        <ele>638.8</ele>
        <time>2021-03-27T13:37:06Z</time>
      </trkpt>
      <trkpt lat="44.9" lon="4.68126">
        <ele>638.8</ele>
        <time>2021-03-27T13:37:10Z</time>
      </trkpt>
      <trkpt lat="44.90006" lon="4.68129">
        <ele>639.2</ele>
        <time>2021-03-27T13:37:14Z</time>
      </trkpt>
      <trkpt lat="44.90011" lon="4.68133">
        <ele>640</ele>
        <time>2021-03-27T13:37:18Z</time>
      </trkpt>
      <trkpt lat="44.90015" lon="4.68136">
        <ele>640.2</ele>
        <time>2021-03-27T13:37:22Z</time>
      </trkpt>
      <trkpt lat="44.9002" lon="4.68141">
        <ele>641.6</ele>
        <time>2021-03-27T13:37:26Z</time>
      </trkpt>
      <trkpt lat="44.90024" lon="4.68145">
        <ele>642.4</ele>
        <time>2021-03-27T13:37:30Z</time>
      </trkpt>
      <trkpt lat="44.90028" lon="4.6815">
        <ele>644</ele>
        <time>2021-03-27T13:37:34Z</time>
      </trkpt>
      <trkpt lat="44.90032" lon="4.68155">
        <ele>644.4</ele>
        <time>2021-03-27T13:37:38Z</time>
      </trkpt>
      <trkpt lat="44.90036" lon="4.6816">
        <ele>644.4</ele>
        <time>2021-03-27T13:37:42Z</time>
      </trkpt>
      <trkpt lat="44.9004" lon="4.68164">
        <ele>644.8</ele>
        <time>2021-03-27T13:37:46Z</time>
      </trkpt>
      <trkpt lat="44.90045" lon="4.6817">
        <ele>646.2</ele>
        <time>2021-03-27T13:37:50Z</time>
      </trkpt>
      <trkpt lat="44.90049" lon="4.68175">
        <ele>646.4</ele>
        <time>2021-03-27T13:37:54Z</time>
      </trkpt>
      <trkpt lat="44.90054" lon="4.6818">
        <ele>647.4</ele>
        <time>2021-03-27T13:37:58Z</time>
      </trkpt>
      <trkpt lat="44.90059" lon="4.68185">
        <ele>648.2</ele>
        <time>2021-03-27T13:38:02Z</time>
      </trkpt>
      <trkpt lat="44.90064" lon="4.6819">
        <ele>648.6</ele>
        <time>2021-03-27T13:38:06Z</time>
      </trkpt>
      <trkpt lat="44.90068" lon="4.68195">
        <ele>648.8</ele>
        <time>2021-03-27T13:38:10Z</time>
      </trkpt>
      <trkpt lat="44.90072" lon="4.682">
        <ele>649</ele>
        <time>2021-03-27T13:38:14Z</time>
      </trkpt>
      <trkpt lat="44.90078" lon="4.68206">
        <ele>649.6</ele>
        <time>2021-03-27T13:38:18Z</time>
      </trkpt>
      <trkpt lat="44.90082" lon="4.68212">
        <ele>650</ele>
        <time>2021-03-27T13:38:22Z</time>
      </trkpt>
      <trkpt lat="44.90086" lon="4.68217">
        <ele>650</ele>
        <time>2021-03-27T13:38:26Z</time>
      </trkpt>
      <trkpt lat="44.90091" lon="4.68224">
        <ele>651.4</ele>
        <time>2021-03-27T13:38:30Z</time>
      </trkpt>
      <trkpt lat="44.90095" lon="4.68231">
        <ele>652</ele>
        <time>2021-03-27T13:38:34Z</time>
      </trkpt>
      <trkpt lat="44.901" lon="4.68238">
        <ele>652.6</ele>
        <time>2021-03-27T13:38:38Z</time>
      </trkpt>
      <trkpt lat="44.90103" lon="4.68244">
        <ele>653</ele>
        <time>2021-03-27T13:38:42Z</time>
      </trkpt>
      <trkpt lat="44.90107" lon="4.68252">
        <ele>653.4</ele>
        <time>2021-03-27T13:38:46Z</time>
      </trkpt>
      <trkpt lat="44.90108" lon="4.68259">
        <ele>653.8</ele>
        <time>2021-03-27T13:38:50Z</time>
      </trkpt>
      <trkpt lat="44.90112" lon="4.68267">
        <ele>654.6</ele>
        <time>2021-03-27T13:38:54Z</time>
      </trkpt>
      <trkpt lat="44.90126" lon="4.68295">
        <ele>656.8</ele>
        <time>2021-03-27T13:39:49Z</time>
      </trkpt>
      <trkpt lat="44.9013" lon="4.68303">
        <ele>658.4</ele>
        <time>2021-03-27T13:39:53Z</time>
      </trkpt>
      <trkpt lat="44.90134" lon="4.68311">
        <ele>659</ele>
        <time>2021-03-27T13:39:57Z</time>
      </trkpt>
      <trkpt lat="44.90136" lon="4.68318">
        <ele>659.6</ele>
        <time>2021-03-27T13:40:01Z</time>
      </trkpt>
      <trkpt lat="44.90139" lon="4.68326">
        <ele>660.4</ele>
        <time>2021-03-27T13:40:05Z</time>
      </trkpt>
      <trkpt lat="44.90142" lon="4.68332">
        <ele>660.8</ele>
        <time>2021-03-27T13:40:09Z</time>
      </trkpt>
      <trkpt lat="44.90145" lon="4.68338">
        <ele>661.4</ele>
        <time>2021-03-27T13:40:13Z</time>
      </trkpt>
      <trkpt lat="44.90148" lon="4.68343">
        <ele>663.4</ele>
        <time>2021-03-27T13:40:17Z</time>
      </trkpt>
      <trkpt lat="44.9015" lon="4.6835">
        <ele>662.8</ele>
        <time>2021-03-27T13:40:21Z</time>
      </trkpt>
      <trkpt lat="44.90149" lon="4.68357">
        <ele>663.4</ele>
        <time>2021-03-27T13:40:25Z</time>
      </trkpt>
      <trkpt lat="44.90151" lon="4.68363">
        <ele>664.4</ele>
        <time>2021-03-27T13:40:29Z</time>
      </trkpt>
      <trkpt lat="44.90153" lon="4.68369">
        <ele>665</ele>
        <time>2021-03-27T13:40:33Z</time>
      </trkpt>
      <trkpt lat="44.90155" lon="4.68373">
        <ele>666</ele>
        <time>2021-03-27T13:40:37Z</time>
      </trkpt>
      <trkpt lat="44.90157" lon="4.68378">
        <ele>666.2</ele>
        <time>2021-03-27T13:40:41Z</time>
      </trkpt>
      <trkpt lat="44.90322" lon="4.6846">
        <ele>691</ele>
        <time>2021-03-27T13:43:24Z</time>
      </trkpt>
      <trkpt lat="44.90326" lon="4.68457">
        <ele>690.4</ele>
        <time>2021-03-27T13:43:28Z</time>
      </trkpt>
      <trkpt lat="44.90331" lon="4.68453">
        <ele>690</ele>
        <time>2021-03-27T13:43:32Z</time>
      </trkpt>
      <trkpt lat="44.90338" lon="4.68447">
        <ele>689.4</ele>
        <time>2021-03-27T13:43:36Z</time>
      </trkpt>
      <trkpt lat="44.90351" lon="4.68447">
        <ele>688.4</ele>
        <time>2021-03-27T13:43:40Z</time>
      </trkpt>
      <trkpt lat="44.90371" lon="4.68453">
        <ele>686</ele>
        <time>2021-03-27T13:43:44Z</time>
      </trkpt>
      <trkpt lat="44.90395" lon="4.68462">
        <ele>681.8</ele>
        <time>2021-03-27T13:43:48Z</time>
      </trkpt>
      <trkpt lat="44.9042" lon="4.68475">
        <ele>678.8</ele>
        <time>2021-03-27T13:43:52Z</time>
      </trkpt>
      <trkpt lat="44.90444" lon="4.68493">
        <ele>677.6</ele>
        <time>2021-03-27T13:43:56Z</time>
      </trkpt>
      <trkpt lat="44.90471" lon="4.68504">
        <ele>673.2</ele>
        <time>2021-03-27T13:44:00Z</time>
      </trkpt>
      <trkpt lat="44.90505" lon="4.68501">
        <ele>671.2</ele>
        <time>2021-03-27T13:44:04Z</time>
      </trkpt>
      <trkpt lat="44.90535" lon="4.68493">
        <ele>671</ele>
        <time>2021-03-27T13:44:08Z</time>
      </trkpt>
      <trkpt lat="44.9056" lon="4.68477">
        <ele>671.6</ele>
        <time>2021-03-27T13:44:12Z</time>
      </trkpt>
      <trkpt lat="44.90581" lon="4.68466">
        <ele>673</ele>
        <time>2021-03-27T13:44:16Z</time>
      </trkpt>
      <trkpt lat="44.90599" lon="4.68453">
        <ele>673.2</ele>
        <time>2021-03-27T13:44:20Z</time>
      </trkpt>
      <trkpt lat="44.90611" lon="4.68433">
        <ele>673.4</ele>
        <time>2021-03-27T13:44:24Z</time>
      </trkpt>
      <trkpt lat="44.90619" lon="4.68409">
        <ele>674.2</ele>
        <time>2021-03-27T13:44:28Z</time>
      </trkpt>
      <trkpt lat="44.9062" lon="4.6838">
        <ele>673</ele>
        <time>2021-03-27T13:44:32Z</time>
      </trkpt>
      <trkpt lat="44.9062" lon="4.68351">
        <ele>672.4</ele>
        <time>2021-03-27T13:44:36Z</time>
      </trkpt>
      <trkpt lat="44.90617" lon="4.68319">
        <ele>672.2</ele>
        <time>2021-03-27T13:44:40Z</time>
      </trkpt>
      <trkpt lat="44.90614" lon="4.68285">
        <ele>670.4</ele>
        <time>2021-03-27T13:44:44Z</time>
      </trkpt>
      <trkpt lat="44.90611" lon="4.6825">
        <ele>669.8</ele>
        <time>2021-03-27T13:44:48Z</time>
      </trkpt>
      <trkpt lat="44.90607" lon="4.68216">
        <ele>668.2</ele>
        <time>2021-03-27T13:44:52Z</time>
      </trkpt>
      <trkpt lat="44.9061" lon="4.68184">
        <ele>669</ele>
        <time>2021-03-27T13:44:56Z</time>
      </trkpt>
      <trkpt lat="44.90615" lon="4.68155">
        <ele>668.8</ele>
        <time>2021-03-27T13:45:00Z</time>
      </trkpt>
      <trkpt lat="44.90626" lon="4.68133">
        <ele>669.6</ele>
        <time>2021-03-27T13:45:04Z</time>
      </trkpt>
      <trkpt lat="44.90641" lon="4.68117">
        <ele>669.6</ele>
        <time>2021-03-27T13:45:08Z</time>
      </trkpt>
      <trkpt lat="44.90658" lon="4.68104">
        <ele>670.2</ele>
        <time>2021-03-27T13:45:12Z</time>
      </trkpt>
      <trkpt lat="44.90674" lon="4.68093">
        <ele>670</ele>
        <time>2021-03-27T13:45:16Z</time>
      </trkpt>
      <trkpt lat="44.90688" lon="4.68082">
        <ele>670.2</ele>
        <time>2021-03-27T13:45:20Z</time>
      </trkpt>
      <trkpt lat="44.90703" lon="4.68071">
        <ele>670.4</ele>
        <time>2021-03-27T13:45:24Z</time>
      </trkpt>
      <trkpt lat="44.90723" lon="4.6806">
        <ele>669.2</ele>
        <time>2021-03-27T13:45:28Z</time>
      </trkpt>
      <trkpt lat="44.90744" lon="4.68051">
        <ele>669.6</ele>
        <time>2021-03-27T13:45:32Z</time>
      </trkpt>
      <trkpt lat="44.90766" lon="4.68037">
        <ele>669.8</ele>
        <time>2021-03-27T13:45:36Z</time>
      </trkpt>
      <trkpt lat="44.90789" lon="4.68021">
        <ele>670</ele>
        <time>2021-03-27T13:45:40Z</time>
      </trkpt>
      <trkpt lat="44.90803" lon="4.68012">
        <ele>672</ele>
        <time>2021-03-27T13:45:44Z</time>
      </trkpt>
      <trkpt lat="44.90797" lon="4.68012">
        <ele>673.2</ele>
        <time>2021-03-27T13:46:21Z</time>
      </trkpt>
      <trkpt lat="44.90788" lon="4.68018">
        <ele>673.2</ele>
        <time>2021-03-27T13:46:25Z</time>
      </trkpt>
      <trkpt lat="44.90781" lon="4.68026">
        <ele>673</ele>
        <time>2021-03-27T13:46:29Z</time>
      </trkpt>
      <trkpt lat="44.90789" lon="4.6802">
        <ele>671.8</ele>
        <time>2021-03-27T13:47:52Z</time>
      </trkpt>
      <trkpt lat="44.90796" lon="4.68015">
        <ele>671</ele>
        <time>2021-03-27T13:47:56Z</time>
      </trkpt>
      <trkpt lat="44.90807" lon="4.68007">
        <ele>671.8</ele>
        <time>2021-03-27T13:48:50Z</time>
      </trkpt>
      <trkpt lat="44.90815" lon="4.68006">
        <ele>671.4</ele>
        <time>2021-03-27T13:48:54Z</time>
      </trkpt>
      <trkpt lat="44.90825" lon="4.68006">
        <ele>672.8</ele>
        <time>2021-03-27T13:48:58Z</time>
      </trkpt>
      <trkpt lat="44.90833" lon="4.68003">
        <ele>672.2</ele>
        <time>2021-03-27T13:49:02Z</time>
      </trkpt>
      <trkpt lat="44.90839" lon="4.67998">
        <ele>673.2</ele>
        <time>2021-03-27T13:49:06Z</time>
      </trkpt>
      <trkpt lat="44.9085" lon="4.67991">
        <ele>673.2</ele>
        <time>2021-03-27T13:49:10Z</time>
      </trkpt>
      <trkpt lat="44.90853" lon="4.67977">
        <ele>673.4</ele>
        <time>2021-03-27T13:49:14Z</time>
      </trkpt>
      <trkpt lat="44.90846" lon="4.6797">
        <ele>673.4</ele>
        <time>2021-03-27T13:49:18Z</time>
      </trkpt>
      <trkpt lat="44.90837" lon="4.67966">
        <ele>673.8</ele>
        <time>2021-03-27T13:49:22Z</time>
      </trkpt>
      <trkpt lat="44.9083" lon="4.67959">
        <ele>674.2</ele>
        <time>2021-03-27T13:49:26Z</time>
      </trkpt>
      <trkpt lat="44.9083" lon="4.67951">
        <ele>674.8</ele>
        <time>2021-03-27T13:49:30Z</time>
      </trkpt>
      <trkpt lat="44.9083" lon="4.67944">
        <ele>675.6</ele>
        <time>2021-03-27T13:49:34Z</time>
      </trkpt>
      <trkpt lat="44.9083" lon="4.67938">
        <ele>676.2</ele>
        <time>2021-03-27T13:49:38Z</time>
      </trkpt>
      <trkpt lat="44.90831" lon="4.67932">
        <ele>676.6</ele>
        <time>2021-03-27T13:49:42Z</time>
      </trkpt>
      <trkpt lat="44.90833" lon="4.67927">
        <ele>677</ele>
        <time>2021-03-27T13:49:46Z</time>
      </trkpt>
      <trkpt lat="44.90833" lon="4.67921">
        <ele>677.6</ele>
        <time>2021-03-27T13:49:50Z</time>
      </trkpt>
      <trkpt lat="44.90835" lon="4.67916">
        <ele>678.2</ele>
        <time>2021-03-27T13:49:54Z</time>
      </trkpt>
      <trkpt lat="44.90837" lon="4.67913">
        <ele>679.6</ele>
        <time>2021-03-27T13:49:58Z</time>
      </trkpt>
      <trkpt lat="44.91027" lon="4.67571">
        <ele>723.2</ele>
        <time>2021-03-27T13:54:46Z</time>
      </trkpt>
      <trkpt lat="44.91028" lon="4.67564">
        <ele>723.4</ele>
        <time>2021-03-27T13:54:50Z</time>
      </trkpt>
      <trkpt lat="44.91032" lon="4.67559">
        <ele>724</ele>
        <time>2021-03-27T13:54:54Z</time>
      </trkpt>
      <trkpt lat="44.91037" lon="4.67551">
        <ele>724.8</ele>
        <time>2021-03-27T13:54:58Z</time>
      </trkpt>
      <trkpt lat="44.91039" lon="4.67544">
        <ele>725.2</ele>
        <time>2021-03-27T13:55:02Z</time>
      </trkpt>
      <trkpt lat="44.91043" lon="4.67537">
        <ele>725.6</ele>
        <time>2021-03-27T13:55:06Z</time>
      </trkpt>
      <trkpt lat="44.91046" lon="4.67531">
        <ele>725.8</ele>
        <time>2021-03-27T13:55:10Z</time>
      </trkpt>
      <trkpt lat="44.91051" lon="4.67525">
        <ele>726</ele>
        <time>2021-03-27T13:55:14Z</time>
      </trkpt>
      <trkpt lat="44.91057" lon="4.67519">
        <ele>727</ele>
        <time>2021-03-27T13:55:18Z</time>
      </trkpt>
      <trkpt lat="44.91063" lon="4.67513">
        <ele>727.6</ele>
        <time>2021-03-27T13:55:22Z</time>
      </trkpt>
      <trkpt lat="44.91068" lon="4.67506">
        <ele>727.8</ele>
        <time>2021-03-27T13:55:26Z</time>
      </trkpt>
      <trkpt lat="44.91072" lon="4.675">
        <ele>728.4</ele>
        <time>2021-03-27T13:55:30Z</time>
      </trkpt>
      <trkpt lat="44.91077" lon="4.67496">
        <ele>728.6</ele>
        <time>2021-03-27T13:55:34Z</time>
      </trkpt>
      <trkpt lat="44.91082" lon="4.6749">
        <ele>729.4</ele>
        <time>2021-03-27T13:55:38Z</time>
      </trkpt>
      <trkpt lat="44.91087" lon="4.67486">
        <ele>729.8</ele>
        <time>2021-03-27T13:55:42Z</time>
      </trkpt>
      <trkpt lat="44.91092" lon="4.67481">
        <ele>730.6</ele>
        <time>2021-03-27T13:55:46Z</time>
      </trkpt>
      <trkpt lat="44.91097" lon="4.67476">
        <ele>730.6</ele>
        <time>2021-03-27T13:55:50Z</time>
      </trkpt>
      <trkpt lat="44.91104" lon="4.67471">
        <ele>730.8</ele>
        <time>2021-03-27T13:55:54Z</time>
      </trkpt>
      <trkpt lat="44.91109" lon="4.67465">
        <ele>731.8</ele>
        <time>2021-03-27T13:55:58Z</time>
      </trkpt>
      <trkpt lat="44.91116" lon="4.6746">
        <ele>732.6</ele>
        <time>2021-03-27T13:56:02Z</time>
      </trkpt>
      <trkpt lat="44.91122" lon="4.67456">
        <ele>732.8</ele>
        <time>2021-03-27T13:56:06Z</time>
      </trkpt>
      <trkpt lat="44.91128" lon="4.67452">
        <ele>733</ele>
        <time>2021-03-27T13:56:10Z</time>
      </trkpt>
      <trkpt lat="44.91133" lon="4.67449">
        <ele>733.8</ele>
        <time>2021-03-27T13:56:14Z</time>
      </trkpt>
      <trkpt lat="44.91137" lon="4.67445">
        <ele>733.8</ele>
        <time>2021-03-27T13:56:18Z</time>
      </trkpt>
      <trkpt lat="44.91142" lon="4.67441">
        <ele>734.6</ele>
        <time>2021-03-27T13:56:22Z</time>
      </trkpt>
      <trkpt lat="44.91146" lon="4.67438">
        <ele>734.6</ele>
        <time>2021-03-27T13:56:26Z</time>
      </trkpt>
      <trkpt lat="44.91151" lon="4.67434">
        <ele>735</ele>
        <time>2021-03-27T13:56:30Z</time>
      </trkpt>
      <trkpt lat="44.91156" lon="4.67429">
        <ele>735</ele>
        <time>2021-03-27T13:56:34Z</time>
      </trkpt>
      <trkpt lat="44.91161" lon="4.67424">
        <ele>735.2</ele>
        <time>2021-03-27T13:56:38Z</time>
      </trkpt>
      <trkpt lat="44.91158" lon="4.67431">
        <ele>734.2</ele>
        <time>2021-03-27T13:59:03Z</time>
      </trkpt>
      <trkpt lat="44.91152" lon="4.67438">
        <ele>731.6</ele>
        <time>2021-03-27T13:59:07Z</time>
      </trkpt>
      <trkpt lat="44.9114" lon="4.67448">
        <ele>732</ele>
        <time>2021-03-27T13:59:11Z</time>
      </trkpt>
      <trkpt lat="44.91125" lon="4.67457">
        <ele>728.6</ele>
        <time>2021-03-27T13:59:15Z</time>
      </trkpt>
      <trkpt lat="44.91108" lon="4.67468">
        <ele>728.4</ele>
        <time>2021-03-27T13:59:19Z</time>
      </trkpt>
      <trkpt lat="44.9109" lon="4.6748">
        <ele>726</ele>
        <time>2021-03-27T13:59:23Z</time>
      </trkpt>
      <trkpt lat="44.91073" lon="4.67495">
        <ele>725.6</ele>
        <time>2021-03-27T13:59:27Z</time>
      </trkpt>
      <trkpt lat="44.91057" lon="4.67511">
        <ele>724.6</ele>
        <time>2021-03-27T13:59:31Z</time>
      </trkpt>
      <trkpt lat="44.91043" lon="4.67531">
        <ele>721.4</ele>
        <time>2021-03-27T13:59:35Z</time>
      </trkpt>
      <trkpt lat="44.9103" lon="4.67555">
        <ele>718.2</ele>
        <time>2021-03-27T13:59:39Z</time>
      </trkpt>
      <trkpt lat="44.91017" lon="4.67577">
        <ele>716.6</ele>
        <time>2021-03-27T13:59:43Z</time>
      </trkpt>
      <trkpt lat="44.91012" lon="4.67606">
        <ele>711.4</ele>
        <time>2021-03-27T13:59:47Z</time>
      </trkpt>
      <trkpt lat="44.90999" lon="4.6764">
        <ele>708.6</ele>
        <time>2021-03-27T13:59:51Z</time>
      </trkpt>
      <trkpt lat="44.90979" lon="4.67669">
        <ele>702.6</ele>
        <time>2021-03-27T13:59:55Z</time>
      </trkpt>
      <trkpt lat="44.90964" lon="4.67695">
        <ele>701.6</ele>
        <time>2021-03-27T13:59:59Z</time>
      </trkpt>
      <trkpt lat="44.90947" lon="4.6772">
        <ele>695.4</ele>
        <time>2021-03-27T14:00:03Z</time>
      </trkpt>
      <trkpt lat="44.9093" lon="4.67748">
        <ele>690.4</ele>
        <time>2021-03-27T14:00:07Z</time>
      </trkpt>
      <trkpt lat="44.90907" lon="4.67775">
        <ele>688.2</ele>
        <time>2021-03-27T14:00:11Z</time>
      </trkpt>
      <trkpt lat="44.90893" lon="4.67794">
        <ele>684.4</ele>
        <time>2021-03-27T14:00:15Z</time>
      </trkpt>
      <trkpt lat="44.90874" lon="4.6783">
        <ele>680.8</ele>
        <time>2021-03-27T14:00:19Z</time>
      </trkpt>
      <trkpt lat="44.90856" lon="4.67851">
        <ele>678.4</ele>
        <time>2021-03-27T14:00:23Z</time>
      </trkpt>
      <trkpt lat="44.90841" lon="4.67874">
        <ele>674</ele>
        <time>2021-03-27T14:00:27Z</time>
      </trkpt>
      <trkpt lat="44.90832" lon="4.67913">
        <ele>672.8</ele>
        <time>2021-03-27T14:00:31Z</time>
      </trkpt>
      <trkpt lat="44.90838" lon="4.67959">
        <ele>670.8</ele>
        <time>2021-03-27T14:00:42Z</time>
      </trkpt>
      <trkpt lat="44.90844" lon="4.6796">
        <ele>671.8</ele>
        <time>2021-03-27T14:00:46Z</time>
      </trkpt>
      <trkpt lat="44.90852" lon="4.6796">
        <ele>671.6</ele>
        <time>2021-03-27T14:00:50Z</time>
      </trkpt>
      <trkpt lat="44.90865" lon="4.6796">
        <ele>670.6</ele>
        <time>2021-03-27T14:00:54Z</time>
      </trkpt>
      <trkpt lat="44.90877" lon="4.6796">
        <ele>670.2</ele>
        <time>2021-03-27T14:00:58Z</time>
      </trkpt>
      <trkpt lat="44.90891" lon="4.67957">
        <ele>671</ele>
        <time>2021-03-27T14:01:02Z</time>
      </trkpt>
      <trkpt lat="44.90904" lon="4.67952">
        <ele>672.2</ele>
        <time>2021-03-27T14:01:06Z</time>
      </trkpt>
      <trkpt lat="44.90918" lon="4.67947">
        <ele>672</ele>
        <time>2021-03-27T14:01:10Z</time>
      </trkpt>
      <trkpt lat="44.90934" lon="4.67947">
        <ele>671.2</ele>
        <time>2021-03-27T14:01:14Z</time>
      </trkpt>
      <trkpt lat="44.90949" lon="4.67956">
        <ele>672.2</ele>
        <time>2021-03-27T14:01:18Z</time>
      </trkpt>
      <trkpt lat="44.90961" lon="4.67971">
        <ele>671.4</ele>
        <time>2021-03-27T14:01:22Z</time>
      </trkpt>
      <trkpt lat="44.90969" lon="4.67988">
        <ele>672</ele>
        <time>2021-03-27T14:01:26Z</time>
      </trkpt>
      <trkpt lat="44.90977" lon="4.68004">
        <ele>671.8</ele>
        <time>2021-03-27T14:01:30Z</time>
      </trkpt>
      <trkpt lat="44.90987" lon="4.68019">
        <ele>672</ele>
        <time>2021-03-27T14:01:34Z</time>
      </trkpt>
      <trkpt lat="44.90999" lon="4.6803">
        <ele>671</ele>
        <time>2021-03-27T14:01:38Z</time>
      </trkpt>
      <trkpt lat="44.91014" lon="4.68035">
        <ele>671.4</ele>
        <time>2021-03-27T14:01:42Z</time>
      </trkpt>
      <trkpt lat="44.91028" lon="4.68036">
        <ele>672.2</ele>
        <time>2021-03-27T14:01:46Z</time>
      </trkpt>
      <trkpt lat="44.91044" lon="4.68037">
        <ele>671.4</ele>
        <time>2021-03-27T14:01:50Z</time>
      </trkpt>
      <trkpt lat="44.9106" lon="4.68036">
        <ele>671.8</ele>
        <time>2021-03-27T14:01:54Z</time>
      </trkpt>
      <trkpt lat="44.91073" lon="4.68036">
        <ele>671.8</ele>
        <time>2021-03-27T14:01:58Z</time>
      </trkpt>
      <trkpt lat="44.91088" lon="4.68031">
        <ele>671.2</ele>
        <time>2021-03-27T14:02:02Z</time>
      </trkpt>
      <trkpt lat="44.91102" lon="4.68028">
        <ele>671.6</ele>
        <time>2021-03-27T14:02:06Z</time>
      </trkpt>
      <trkpt lat="44.91119" lon="4.68028">
        <ele>670.8</ele>
        <time>2021-03-27T14:02:10Z</time>
      </trkpt>
      <trkpt lat="44.91136" lon="4.68032">
        <ele>671.8</ele>
        <time>2021-03-27T14:02:14Z</time>
      </trkpt>
      <trkpt lat="44.91153" lon="4.6804">
        <ele>671.8</ele>
        <time>2021-03-27T14:02:18Z</time>
      </trkpt>
      <trkpt lat="44.91169" lon="4.6805">
        <ele>671.6</ele>
        <time>2021-03-27T14:02:22Z</time>
      </trkpt>
      <trkpt lat="44.91185" lon="4.68059">
        <ele>671.8</ele>
        <time>2021-03-27T14:02:26Z</time>
      </trkpt>
      <trkpt lat="44.91201" lon="4.68069">
        <ele>672.4</ele>
        <time>2021-03-27T14:02:30Z</time>
      </trkpt>
      <trkpt lat="44.91217" lon="4.68079">
        <ele>671</ele>
        <time>2021-03-27T14:02:34Z</time>
      </trkpt>
      <trkpt lat="44.91232" lon="4.68089">
        <ele>671.8</ele>
        <time>2021-03-27T14:02:38Z</time>
      </trkpt>
      <trkpt lat="44.91248" lon="4.68097">
        <ele>672.2</ele>
        <time>2021-03-27T14:02:42Z</time>
      </trkpt>
      <trkpt lat="44.91262" lon="4.68107">
        <ele>671.6</ele>
        <time>2021-03-27T14:02:46Z</time>
      </trkpt>
      <trkpt lat="44.91277" lon="4.68116">
        <ele>671.6</ele>
        <time>2021-03-27T14:02:50Z</time>
      </trkpt>
      <trkpt lat="44.91292" lon="4.68125">
        <ele>671.8</ele>
        <time>2021-03-27T14:02:54Z</time>
      </trkpt>
      <trkpt lat="44.91305" lon="4.68133">
        <ele>670.8</ele>
        <time>2021-03-27T14:02:58Z</time>
      </trkpt>
      <trkpt lat="44.91321" lon="4.68138">
        <ele>670.6</ele>
        <time>2021-03-27T14:03:02Z</time>
      </trkpt>
      <trkpt lat="44.91333" lon="4.68141">
        <ele>672.4</ele>
        <time>2021-03-27T14:03:06Z</time>
      </trkpt>
      <trkpt lat="44.91346" lon="4.68144">
        <ele>671</ele>
        <time>2021-03-27T14:03:10Z</time>
      </trkpt>
      <trkpt lat="44.9136" lon="4.68147">
        <ele>671</ele>
        <time>2021-03-27T14:03:14Z</time>
      </trkpt>
      <trkpt lat="44.91374" lon="4.6815">
        <ele>671</ele>
        <time>2021-03-27T14:03:18Z</time>
      </trkpt>
      <trkpt lat="44.91389" lon="4.68153">
        <ele>670.8</ele>
        <time>2021-03-27T14:03:22Z</time>
      </trkpt>
      <trkpt lat="44.91404" lon="4.68155">
        <ele>671.2</ele>
        <time>2021-03-27T14:03:26Z</time>
      </trkpt>
      <trkpt lat="44.91418" lon="4.68151">
        <ele>672.2</ele>
        <time>2021-03-27T14:03:30Z</time>
      </trkpt>
      <trkpt lat="44.91433" lon="4.68143">
        <ele>672.4</ele>
        <time>2021-03-27T14:03:34Z</time>
      </trkpt>
      <trkpt lat="44.91451" lon="4.68132">
        <ele>671.8</ele>
        <time>2021-03-27T14:03:38Z</time>
      </trkpt>
      <trkpt lat="44.91462" lon="4.68123">
        <ele>671.4</ele>
        <time>2021-03-27T14:03:42Z</time>
      </trkpt>
      <trkpt lat="44.91468" lon="4.68112">
        <ele>671.8</ele>
        <time>2021-03-27T14:03:46Z</time>
      </trkpt>
      <trkpt lat="44.91481" lon="4.68104">
        <ele>670</ele>
        <time>2021-03-27T14:03:50Z</time>
      </trkpt>
      <trkpt lat="44.91507" lon="4.68097">
        <ele>670.6</ele>
        <time>2021-03-27T14:03:54Z</time>
      </trkpt>
      <trkpt lat="44.91533" lon="4.68103">
        <ele>670.8</ele>
        <time>2021-03-27T14:03:58Z</time>
      </trkpt>
      <trkpt lat="44.91558" lon="4.68114">
        <ele>671.6</ele>
        <time>2021-03-27T14:04:02Z</time>
      </trkpt>
      <trkpt lat="44.91576" lon="4.68127">
        <ele>671.4</ele>
        <time>2021-03-27T14:04:06Z</time>
      </trkpt>
      <trkpt lat="44.9159" lon="4.68148">
        <ele>670.6</ele>
        <time>2021-03-27T14:04:10Z</time>
      </trkpt>
      <trkpt lat="44.91603" lon="4.68168">
        <ele>671.6</ele>
        <time>2021-03-27T14:04:14Z</time>
      </trkpt>
      <trkpt lat="44.91611" lon="4.68191">
        <ele>671.8</ele>
        <time>2021-03-27T14:04:18Z</time>
      </trkpt>
      <trkpt lat="44.91616" lon="4.68216">
        <ele>672</ele>
        <time>2021-03-27T14:04:22Z</time>
      </trkpt>
      <trkpt lat="44.91618" lon="4.68243">
        <ele>671</ele>
        <time>2021-03-27T14:04:26Z</time>
      </trkpt>
      <trkpt lat="44.91614" lon="4.6827">
        <ele>671.4</ele>
        <time>2021-03-27T14:04:30Z</time>
      </trkpt>
      <trkpt lat="44.91607" lon="4.68294">
        <ele>671.2</ele>
        <time>2021-03-27T14:04:34Z</time>
      </trkpt>
      <trkpt lat="44.91601" lon="4.68317">
        <ele>670.4</ele>
        <time>2021-03-27T14:04:38Z</time>
      </trkpt>
      <trkpt lat="44.91597" lon="4.68341">
        <ele>670.2</ele>
        <time>2021-03-27T14:04:42Z</time>
      </trkpt>
      <trkpt lat="44.91591" lon="4.68366">
        <ele>670.4</ele>
        <time>2021-03-27T14:04:46Z</time>
      </trkpt>
      <trkpt lat="44.91582" lon="4.68387">
        <ele>670.6</ele>
        <time>2021-03-27T14:04:50Z</time>
      </trkpt>
      <trkpt lat="44.9156" lon="4.68396">
        <ele>671.2</ele>
        <time>2021-03-27T14:04:54Z</time>
      </trkpt>
      <trkpt lat="44.91551" lon="4.68402">
        <ele>672</ele>
        <time>2021-03-27T14:04:58Z</time>
      </trkpt>
      <trkpt lat="44.91553" lon="4.68416">
        <ele>672.6</ele>
        <time>2021-03-27T14:05:02Z</time>
      </trkpt>
      <trkpt lat="44.91554" lon="4.68425">
        <ele>673.2</ele>
        <time>2021-03-27T14:05:06Z</time>
      </trkpt>
      <trkpt lat="44.91556" lon="4.68433">
        <ele>674.6</ele>
        <time>2021-03-27T14:05:10Z</time>
      </trkpt>
      <trkpt lat="44.91557" lon="4.68439">
        <ele>675.2</ele>
        <time>2021-03-27T14:05:14Z</time>
      </trkpt>
      <trkpt lat="44.9156" lon="4.68446">
        <ele>676</ele>
        <time>2021-03-27T14:05:18Z</time>
      </trkpt>
      <trkpt lat="44.91571" lon="4.68464">
        <ele>678</ele>
        <time>2021-03-27T14:05:40Z</time>
      </trkpt>
      <trkpt lat="44.91574" lon="4.6847">
        <ele>678.4</ele>
        <time>2021-03-27T14:05:44Z</time>
      </trkpt>
      <trkpt lat="44.91578" lon="4.68477">
        <ele>678.6</ele>
        <time>2021-03-27T14:05:48Z</time>
      </trkpt>
      <trkpt lat="44.91583" lon="4.68481">
        <ele>679.4</ele>
        <time>2021-03-27T14:05:52Z</time>
      </trkpt>
      <trkpt lat="44.91587" lon="4.68488">
        <ele>680.6</ele>
        <time>2021-03-27T14:05:56Z</time>
      </trkpt>
      <trkpt lat="44.91591" lon="4.68493">
        <ele>680.8</ele>
        <time>2021-03-27T14:06:00Z</time>
      </trkpt>
      <trkpt lat="44.91595" lon="4.68498">
        <ele>682</ele>
        <time>2021-03-27T14:06:04Z</time>
      </trkpt>
      <trkpt lat="44.91599" lon="4.68503">
        <ele>681.6</ele>
        <time>2021-03-27T14:06:08Z</time>
      </trkpt>
      <trkpt lat="44.91602" lon="4.68506">
        <ele>682.6</ele>
        <time>2021-03-27T14:06:12Z</time>
      </trkpt>
      <trkpt lat="44.91606" lon="4.6851">
        <ele>683.4</ele>
        <time>2021-03-27T14:06:16Z</time>
      </trkpt>
      <trkpt lat="44.91609" lon="4.68513">
        <ele>684.2</ele>
        <time>2021-03-27T14:06:20Z</time>
      </trkpt>
      <trkpt lat="44.91613" lon="4.68518">
        <ele>685.6</ele>
        <time>2021-03-27T14:06:24Z</time>
      </trkpt>
      <trkpt lat="44.91615" lon="4.68521">
        <ele>686.4</ele>
        <time>2021-03-27T14:06:28Z</time>
      </trkpt>
      <trkpt lat="44.91618" lon="4.68525">
        <ele>687.6</ele>
        <time>2021-03-27T14:06:32Z</time>
      </trkpt>
      <trkpt lat="44.91621" lon="4.68531">
        <ele>687.8</ele>
        <time>2021-03-27T14:06:36Z</time>
      </trkpt>
      <trkpt lat="44.91624" lon="4.68536">
        <ele>688.4</ele>
        <time>2021-03-27T14:06:40Z</time>
      </trkpt>
      <trkpt lat="44.91626" lon="4.68542">
        <ele>689.2</ele>
        <time>2021-03-27T14:06:44Z</time>
      </trkpt>
      <trkpt lat="44.91627" lon="4.68547">
        <ele>690.2</ele>
        <time>2021-03-27T14:06:48Z</time>
      </trkpt>
      <trkpt lat="44.91629" lon="4.68552">
        <ele>691</ele>
        <time>2021-03-27T14:06:52Z</time>
      </trkpt>
      <trkpt lat="44.9163" lon="4.68557">
        <ele>690.4</ele>
        <time>2021-03-27T14:06:56Z</time>
      </trkpt>
      <trkpt lat="44.91632" lon="4.68561">
        <ele>690.8</ele>
        <time>2021-03-27T14:07:00Z</time>
      </trkpt>
      <trkpt lat="44.91636" lon="4.68568">
        <ele>691.8</ele>
        <time>2021-03-27T14:07:04Z</time>
      </trkpt>
      <trkpt lat="44.91638" lon="4.68574">
        <ele>692.8</ele>
        <time>2021-03-27T14:07:08Z</time>
      </trkpt>
      <trkpt lat="44.91642" lon="4.68581">
        <ele>693.6</ele>
        <time>2021-03-27T14:07:12Z</time>
      </trkpt>
      <trkpt lat="44.91644" lon="4.68586">
        <ele>694.6</ele>
        <time>2021-03-27T14:07:16Z</time>
      </trkpt>
      <trkpt lat="44.91648" lon="4.68593">
        <ele>695.2</ele>
        <time>2021-03-27T14:07:20Z</time>
      </trkpt>
      <trkpt lat="44.91651" lon="4.68598">
        <ele>694.8</ele>
        <time>2021-03-27T14:07:24Z</time>
      </trkpt>
      <trkpt lat="44.91654" lon="4.68606">
        <ele>695.6</ele>
        <time>2021-03-27T14:07:28Z</time>
      </trkpt>
      <trkpt lat="44.91656" lon="4.68613">
        <ele>696.6</ele>
        <time>2021-03-27T14:07:32Z</time>
      </trkpt>
      <trkpt lat="44.91658" lon="4.68618">
        <ele>697.2</ele>
        <time>2021-03-27T14:07:36Z</time>
      </trkpt>
      <trkpt lat="44.91658" lon="4.68625">
        <ele>697.4</ele>
        <time>2021-03-27T14:07:40Z</time>
      </trkpt>
      <trkpt lat="44.91662" lon="4.6863">
        <ele>698.2</ele>
        <time>2021-03-27T14:07:44Z</time>
      </trkpt>
      <trkpt lat="44.91667" lon="4.68639">
        <ele>698.4</ele>
        <time>2021-03-27T14:07:48Z</time>
      </trkpt>
      <trkpt lat="44.91673" lon="4.68646">
        <ele>699.2</ele>
        <time>2021-03-27T14:07:52Z</time>
      </trkpt>
      <trkpt lat="44.91679" lon="4.68653">
        <ele>700</ele>
        <time>2021-03-27T14:07:56Z</time>
      </trkpt>
      <trkpt lat="44.91682" lon="4.68659">
        <ele>699.4</ele>
        <time>2021-03-27T14:08:00Z</time>
      </trkpt>
      <trkpt lat="44.91686" lon="4.68665">
        <ele>700.2</ele>
        <time>2021-03-27T14:08:04Z</time>
      </trkpt>
      <trkpt lat="44.9169" lon="4.68671">
        <ele>700.6</ele>
        <time>2021-03-27T14:08:08Z</time>
      </trkpt>
      <trkpt lat="44.91692" lon="4.68676">
        <ele>701.8</ele>
        <time>2021-03-27T14:08:12Z</time>
      </trkpt>
      <trkpt lat="44.91695" lon="4.68681">
        <ele>702.6</ele>
        <time>2021-03-27T14:08:16Z</time>
      </trkpt>
      <trkpt lat="44.91699" lon="4.68684">
        <ele>703.6</ele>
        <time>2021-03-27T14:08:20Z</time>
      </trkpt>
      <trkpt lat="44.91702" lon="4.68689">
        <ele>704.2</ele>
        <time>2021-03-27T14:08:24Z</time>
      </trkpt>
      <trkpt lat="44.91705" lon="4.68695">
        <ele>704.6</ele>
        <time>2021-03-27T14:08:28Z</time>
      </trkpt>
      <trkpt lat="44.91707" lon="4.68699">
        <ele>705.6</ele>
        <time>2021-03-27T14:08:32Z</time>
      </trkpt>
      <trkpt lat="44.91709" lon="4.68704">
        <ele>706</ele>
        <time>2021-03-27T14:08:36Z</time>
      </trkpt>
      <trkpt lat="44.91711" lon="4.68709">
        <ele>706.8</ele>
        <time>2021-03-27T14:08:40Z</time>
      </trkpt>
      <trkpt lat="44.91714" lon="4.68714">
        <ele>707.8</ele>
        <time>2021-03-27T14:08:44Z</time>
      </trkpt>
      <trkpt lat="44.91717" lon="4.68721">
        <ele>708</ele>
        <time>2021-03-27T14:08:48Z</time>
      </trkpt>
      <trkpt lat="44.91719" lon="4.68728">
        <ele>707.8</ele>
        <time>2021-03-27T14:08:52Z</time>
      </trkpt>
      <trkpt lat="44.91723" lon="4.68735">
        <ele>708.2</ele>
        <time>2021-03-27T14:08:56Z</time>
      </trkpt>
      <trkpt lat="44.91725" lon="4.68741">
        <ele>709.4</ele>
        <time>2021-03-27T14:09:00Z</time>
      </trkpt>
      <trkpt lat="44.91728" lon="4.68748">
        <ele>710.2</ele>
        <time>2021-03-27T14:09:04Z</time>
      </trkpt>
      <trkpt lat="44.91731" lon="4.68754">
        <ele>710.6</ele>
        <time>2021-03-27T14:09:08Z</time>
      </trkpt>
      <trkpt lat="44.91732" lon="4.6876">
        <ele>711.2</ele>
        <time>2021-03-27T14:09:12Z</time>
      </trkpt>
      <trkpt lat="44.91734" lon="4.68767">
        <ele>710.8</ele>
        <time>2021-03-27T14:09:16Z</time>
      </trkpt>
      <trkpt lat="44.91735" lon="4.68772">
        <ele>711.8</ele>
        <time>2021-03-27T14:09:20Z</time>
      </trkpt>
      <trkpt lat="44.91738" lon="4.68777">
        <ele>712.4</ele>
        <time>2021-03-27T14:09:24Z</time>
      </trkpt>
      <trkpt lat="44.9174" lon="4.68783">
        <ele>713.8</ele>
        <time>2021-03-27T14:09:28Z</time>
      </trkpt>
      <trkpt lat="44.91741" lon="4.68789">
        <ele>714</ele>
        <time>2021-03-27T14:09:32Z</time>
      </trkpt>
      <trkpt lat="44.91744" lon="4.68795">
        <ele>714.2</ele>
        <time>2021-03-27T14:09:36Z</time>
      </trkpt>
      <trkpt lat="44.91747" lon="4.688">
        <ele>715.4</ele>
        <time>2021-03-27T14:09:40Z</time>
      </trkpt>
      <trkpt lat="44.91748" lon="4.68806">
        <ele>714.6</ele>
        <time>2021-03-27T14:09:44Z</time>
      </trkpt>
      <trkpt lat="44.91751" lon="4.6881">
        <ele>716</ele>
        <time>2021-03-27T14:09:48Z</time>
      </trkpt>
      <trkpt lat="44.91752" lon="4.68816">
        <ele>717.2</ele>
        <time>2021-03-27T14:09:52Z</time>
      </trkpt>
      <trkpt lat="44.91754" lon="4.68822">
        <ele>717.4</ele>
        <time>2021-03-27T14:09:56Z</time>
      </trkpt>
      <trkpt lat="44.91755" lon="4.68827">
        <ele>717.6</ele>
        <time>2021-03-27T14:10:00Z</time>
      </trkpt>
      <trkpt lat="44.91757" lon="4.68833">
        <ele>718</ele>
        <time>2021-03-27T14:10:04Z</time>
      </trkpt>
      <trkpt lat="44.91759" lon="4.68838">
        <ele>719.4</ele>
        <time>2021-03-27T14:10:08Z</time>
      </trkpt>
      <trkpt lat="44.91761" lon="4.68843">
        <ele>719</ele>
        <time>2021-03-27T14:10:12Z</time>
      </trkpt>
      <trkpt lat="44.91762" lon="4.68849">
        <ele>718.6</ele>
        <time>2021-03-27T14:10:16Z</time>
      </trkpt>
      <trkpt lat="44.91761" lon="4.68861">
        <ele>719</ele>
        <time>2021-03-27T14:10:20Z</time>
      </trkpt>
      <trkpt lat="44.91758" lon="4.68878">
        <ele>717.6</ele>
        <time>2021-03-27T14:10:24Z</time>
      </trkpt>
      <trkpt lat="44.91762" lon="4.68903">
        <ele>714.2</ele>
        <time>2021-03-27T14:10:28Z</time>
      </trkpt>
      <trkpt lat="44.91774" lon="4.68928">
        <ele>712.2</ele>
        <time>2021-03-27T14:10:32Z</time>
      </trkpt>
      <trkpt lat="44.91781" lon="4.6895">
        <ele>712.2</ele>
        <time>2021-03-27T14:10:36Z</time>
      </trkpt>
      <trkpt lat="44.91766" lon="4.68967">
        <ele>711.4</ele>
        <time>2021-03-27T14:10:40Z</time>
      </trkpt>
      <trkpt lat="44.91751" lon="4.6898">
        <ele>710.6</ele>
        <time>2021-03-27T14:10:44Z</time>
      </trkpt>
      <trkpt lat="44.91737" lon="4.69001">
        <ele>708.6</ele>
        <time>2021-03-27T14:10:48Z</time>
      </trkpt>
      <trkpt lat="44.91733" lon="4.69032">
        <ele>705.4</ele>
        <time>2021-03-27T14:10:52Z</time>
      </trkpt>
      <trkpt lat="44.91744" lon="4.69063">
        <ele>705.2</ele>
        <time>2021-03-27T14:10:56Z</time>
      </trkpt>
      <trkpt lat="44.91762" lon="4.69085">
        <ele>704.6</ele>
        <time>2021-03-27T14:11:00Z</time>
      </trkpt>
      <trkpt lat="44.91781" lon="4.69106">
        <ele>705</ele>
        <time>2021-03-27T14:11:04Z</time>
      </trkpt>
      <trkpt lat="44.91797" lon="4.69135">
        <ele>700.8</ele>
        <time>2021-03-27T14:11:08Z</time>
      </trkpt>
      <trkpt lat="44.91813" lon="4.69171">
        <ele>698</ele>
        <time>2021-03-27T14:11:12Z</time>
      </trkpt>
      <trkpt lat="44.91829" lon="4.6921">
        <ele>695.4</ele>
        <time>2021-03-27T14:11:16Z</time>
      </trkpt>
      <trkpt lat="44.91839" lon="4.69252">
        <ele>695.8</ele>
        <time>2021-03-27T14:11:20Z</time>
      </trkpt>
      <trkpt lat="44.91857" lon="4.69289">
        <ele>693.4</ele>
        <time>2021-03-27T14:11:24Z</time>
      </trkpt>
      <trkpt lat="44.9188" lon="4.69321">
        <ele>690.6</ele>
        <time>2021-03-27T14:11:28Z</time>
      </trkpt>
      <trkpt lat="44.91897" lon="4.69361">
        <ele>689.2</ele>
        <time>2021-03-27T14:11:32Z</time>
      </trkpt>
      <trkpt lat="44.91906" lon="4.69405">
        <ele>684.8</ele>
        <time>2021-03-27T14:11:36Z</time>
      </trkpt>
      <trkpt lat="44.91914" lon="4.69449">
        <ele>684.2</ele>
        <time>2021-03-27T14:11:40Z</time>
      </trkpt>
      <trkpt lat="44.9191" lon="4.69492">
        <ele>685</ele>
        <time>2021-03-27T14:11:44Z</time>
      </trkpt>
      <trkpt lat="44.919" lon="4.69532">
        <ele>682.8</ele>
        <time>2021-03-27T14:11:48Z</time>
      </trkpt>
      <trkpt lat="44.91899" lon="4.6957">
        <ele>681.6</ele>
        <time>2021-03-27T14:11:52Z</time>
      </trkpt>
      <trkpt lat="44.91906" lon="4.69608">
        <ele>680</ele>
        <time>2021-03-27T14:11:56Z</time>
      </trkpt>
      <trkpt lat="44.91912" lon="4.69645">
        <ele>678.8</ele>
        <time>2021-03-27T14:12:00Z</time>
      </trkpt>
      <trkpt lat="44.91918" lon="4.69682">
        <ele>678</ele>
        <time>2021-03-27T14:12:04Z</time>
      </trkpt>
      <trkpt lat="44.91924" lon="4.69717">
        <ele>678.2</ele>
        <time>2021-03-27T14:12:08Z</time>
      </trkpt>
      <trkpt lat="44.9193" lon="4.69751">
        <ele>676</ele>
        <time>2021-03-27T14:12:12Z</time>
      </trkpt>
      <trkpt lat="44.91937" lon="4.69785">
        <ele>675.8</ele>
        <time>2021-03-27T14:12:16Z</time>
      </trkpt>
      <trkpt lat="44.9194" lon="4.69819">
        <ele>674.6</ele>
        <time>2021-03-27T14:12:20Z</time>
      </trkpt>
      <trkpt lat="44.91944" lon="4.69854">
        <ele>671.8</ele>
        <time>2021-03-27T14:12:24Z</time>
      </trkpt>
      <trkpt lat="44.91948" lon="4.69891">
        <ele>670.8</ele>
        <time>2021-03-27T14:12:28Z</time>
      </trkpt>
      <trkpt lat="44.91951" lon="4.6993">
        <ele>670.6</ele>
        <time>2021-03-27T14:12:32Z</time>
      </trkpt>
      <trkpt lat="44.91953" lon="4.6997">
        <ele>670.6</ele>
        <time>2021-03-27T14:12:36Z</time>
      </trkpt>
      <trkpt lat="44.91951" lon="4.7001">
        <ele>669.2</ele>
        <time>2021-03-27T14:12:40Z</time>
      </trkpt>
      <trkpt lat="44.91954" lon="4.70052">
        <ele>664.2</ele>
        <time>2021-03-27T14:12:44Z</time>
      </trkpt>
      <trkpt lat="44.9197" lon="4.70091">
        <ele>664</ele>
        <time>2021-03-27T14:12:48Z</time>
      </trkpt>
      <trkpt lat="44.91986" lon="4.70123">
        <ele>663.4</ele>
        <time>2021-03-27T14:12:52Z</time>
      </trkpt>
      <trkpt lat="44.91993" lon="4.70156">
        <ele>662.4</ele>
        <time>2021-03-27T14:12:56Z</time>
      </trkpt>
      <trkpt lat="44.92002" lon="4.70187">
        <ele>663.4</ele>
        <time>2021-03-27T14:13:00Z</time>
      </trkpt>
      <trkpt lat="44.9201" lon="4.70218">
        <ele>662.4</ele>
        <time>2021-03-27T14:13:04Z</time>
      </trkpt>
      <trkpt lat="44.92017" lon="4.70251">
        <ele>661.8</ele>
        <time>2021-03-27T14:13:08Z</time>
      </trkpt>
      <trkpt lat="44.9202" lon="4.70282">
        <ele>661.6</ele>
        <time>2021-03-27T14:13:12Z</time>
      </trkpt>
      <trkpt lat="44.92023" lon="4.70312">
        <ele>661</ele>
        <time>2021-03-27T14:13:16Z</time>
      </trkpt>
      <trkpt lat="44.92026" lon="4.70341">
        <ele>660.2</ele>
        <time>2021-03-27T14:13:20Z</time>
      </trkpt>
      <trkpt lat="44.92034" lon="4.70367">
        <ele>660.2</ele>
        <time>2021-03-27T14:13:24Z</time>
      </trkpt>
      <trkpt lat="44.92044" lon="4.7039">
        <ele>660</ele>
        <time>2021-03-27T14:13:28Z</time>
      </trkpt>
      <trkpt lat="44.92054" lon="4.7041">
        <ele>659.6</ele>
        <time>2021-03-27T14:13:32Z</time>
      </trkpt>
      <trkpt lat="44.92066" lon="4.70422">
        <ele>660.6</ele>
        <time>2021-03-27T14:13:36Z</time>
      </trkpt>
      <trkpt lat="44.92077" lon="4.70428">
        <ele>660.4</ele>
        <time>2021-03-27T14:13:40Z</time>
      </trkpt>
      <trkpt lat="44.92088" lon="4.70428">
        <ele>661</ele>
        <time>2021-03-27T14:13:44Z</time>
      </trkpt>
      <trkpt lat="44.92098" lon="4.70428">
        <ele>661.6</ele>
        <time>2021-03-27T14:13:48Z</time>
      </trkpt>
      <trkpt lat="44.9211" lon="4.70428">
        <ele>661.4</ele>
        <time>2021-03-27T14:13:52Z</time>
      </trkpt>
      <trkpt lat="44.92121" lon="4.70424">
        <ele>661.4</ele>
        <time>2021-03-27T14:13:56Z</time>
      </trkpt>
      <trkpt lat="44.92134" lon="4.70412">
        <ele>661.8</ele>
        <time>2021-03-27T14:14:00Z</time>
      </trkpt>
      <trkpt lat="44.92146" lon="4.70402">
        <ele>661.4</ele>
        <time>2021-03-27T14:14:04Z</time>
      </trkpt>
      <trkpt lat="44.92154" lon="4.70382">
        <ele>661.2</ele>
        <time>2021-03-27T14:14:08Z</time>
      </trkpt>
      <trkpt lat="44.92165" lon="4.70363">
        <ele>659.8</ele>
        <time>2021-03-27T14:14:12Z</time>
      </trkpt>
      <trkpt lat="44.9218" lon="4.70341">
        <ele>657.2</ele>
        <time>2021-03-27T14:14:16Z</time>
      </trkpt>
      <trkpt lat="44.92198" lon="4.70318">
        <ele>656.4</ele>
        <time>2021-03-27T14:14:20Z</time>
      </trkpt>
      <trkpt lat="44.92218" lon="4.70295">
        <ele>653.8</ele>
        <time>2021-03-27T14:14:24Z</time>
      </trkpt>
      <trkpt lat="44.92244" lon="4.70276">
        <ele>652.4</ele>
        <time>2021-03-27T14:14:28Z</time>
      </trkpt>
      <trkpt lat="44.92273" lon="4.70286">
        <ele>648.6</ele>
        <time>2021-03-27T14:14:32Z</time>
      </trkpt>
      <trkpt lat="44.9229" lon="4.70325">
        <ele>645.8</ele>
        <time>2021-03-27T14:14:36Z</time>
      </trkpt>
      <trkpt lat="44.92302" lon="4.70371">
        <ele>646.4</ele>
        <time>2021-03-27T14:14:40Z</time>
      </trkpt>
      <trkpt lat="44.92312" lon="4.70419">
        <ele>642.2</ele>
        <time>2021-03-27T14:14:44Z</time>
      </trkpt>
      <trkpt lat="44.92321" lon="4.70467">
        <ele>641</ele>
        <time>2021-03-27T14:14:48Z</time>
      </trkpt>
      <trkpt lat="44.92343" lon="4.70505">
        <ele>638.8</ele>
        <time>2021-03-27T14:14:52Z</time>
      </trkpt>
      <trkpt lat="44.92376" lon="4.70524">
        <ele>635.8</ele>
        <time>2021-03-27T14:14:56Z</time>
      </trkpt>
      <trkpt lat="44.92412" lon="4.7053">
        <ele>633.4</ele>
        <time>2021-03-27T14:15:00Z</time>
      </trkpt>
      <trkpt lat="44.92449" lon="4.70529">
        <ele>631.6</ele>
        <time>2021-03-27T14:15:04Z</time>
      </trkpt>
      <trkpt lat="44.92485" lon="4.70525">
        <ele>630.2</ele>
        <time>2021-03-27T14:15:08Z</time>
      </trkpt>
      <trkpt lat="44.92523" lon="4.7052">
        <ele>626.4</ele>
        <time>2021-03-27T14:15:12Z</time>
      </trkpt>
      <trkpt lat="44.92552" lon="4.70514">
        <ele>622.4</ele>
        <time>2021-03-27T14:15:16Z</time>
      </trkpt>
      <trkpt lat="44.92584" lon="4.70499">
        <ele>620.6</ele>
        <time>2021-03-27T14:15:20Z</time>
      </trkpt>
      <trkpt lat="44.92612" lon="4.70485">
        <ele>619.8</ele>
        <time>2021-03-27T14:15:24Z</time>
      </trkpt>
      <trkpt lat="44.92628" lon="4.70477">
        <ele>622.6</ele>
        <time>2021-03-27T14:15:28Z</time>
      </trkpt>
      <trkpt lat="44.92628" lon="4.70477">
        <ele>621.4</ele>
        <time>2021-03-27T14:15:32Z</time>
      </trkpt>
      <trkpt lat="44.92635" lon="4.70482">
        <ele>618</ele>
        <time>2021-03-27T14:15:47Z</time>
      </trkpt>
      <trkpt lat="44.92629" lon="4.70498">
        <ele>616.2</ele>
        <time>2021-03-27T14:15:51Z</time>
      </trkpt>
      <trkpt lat="44.92623" lon="4.70513">
        <ele>614.8</ele>
        <time>2021-03-27T14:15:55Z</time>
      </trkpt>
      <trkpt lat="44.92621" lon="4.7054">
        <ele>611.2</ele>
        <time>2021-03-27T14:15:59Z</time>
      </trkpt>
      <trkpt lat="44.92618" lon="4.70574">
        <ele>604.8</ele>
        <time>2021-03-27T14:16:03Z</time>
      </trkpt>
      <trkpt lat="44.9261" lon="4.7061">
        <ele>603.2</ele>
        <time>2021-03-27T14:16:07Z</time>
      </trkpt>
      <trkpt lat="44.92596" lon="4.70642">
        <ele>601.2</ele>
        <time>2021-03-27T14:16:11Z</time>
      </trkpt>
      <trkpt lat="44.92584" lon="4.7067">
        <ele>597.4</ele>
        <time>2021-03-27T14:16:15Z</time>
      </trkpt>
      <trkpt lat="44.92569" lon="4.70697">
        <ele>597.6</ele>
        <time>2021-03-27T14:16:19Z</time>
      </trkpt>
      <trkpt lat="44.92559" lon="4.70714">
        <ele>597.6</ele>
        <time>2021-03-27T14:16:23Z</time>
      </trkpt>
      <trkpt lat="44.92564" lon="4.70737">
        <ele>594.4</ele>
        <time>2021-03-27T14:16:27Z</time>
      </trkpt>
      <trkpt lat="44.92583" lon="4.70752">
        <ele>593.6</ele>
        <time>2021-03-27T14:16:31Z</time>
      </trkpt>
      <trkpt lat="44.926" lon="4.70772">
        <ele>592.4</ele>
        <time>2021-03-27T14:16:35Z</time>
      </trkpt>
      <trkpt lat="44.92619" lon="4.70789">
        <ele>590.6</ele>
        <time>2021-03-27T14:16:39Z</time>
      </trkpt>
      <trkpt lat="44.92641" lon="4.70803">
        <ele>590</ele>
        <time>2021-03-27T14:16:43Z</time>
      </trkpt>
      <trkpt lat="44.92664" lon="4.70809">
        <ele>589.2</ele>
        <time>2021-03-27T14:16:47Z</time>
      </trkpt>
      <trkpt lat="44.9269" lon="4.70818">
        <ele>588.4</ele>
        <time>2021-03-27T14:16:51Z</time>
      </trkpt>
      <trkpt lat="44.92719" lon="4.70826">
        <ele>586.4</ele>
        <time>2021-03-27T14:16:55Z</time>
      </trkpt>
      <trkpt lat="44.92747" lon="4.70837">
        <ele>585.8</ele>
        <time>2021-03-27T14:16:59Z</time>
      </trkpt>
      <trkpt lat="44.92764" lon="4.70848">
        <ele>585</ele>
        <time>2021-03-27T14:17:03Z</time>
      </trkpt>
      <trkpt lat="44.9278" lon="4.70861">
        <ele>581.6</ele>
        <time>2021-03-27T14:17:07Z</time>
      </trkpt>
      <trkpt lat="44.92795" lon="4.70882">
        <ele>580.8</ele>
        <time>2021-03-27T14:17:11Z</time>
      </trkpt>
      <trkpt lat="44.92811" lon="4.70908">
        <ele>581</ele>
        <time>2021-03-27T14:17:15Z</time>
      </trkpt>
      <trkpt lat="44.92824" lon="4.70938">
        <ele>580.4</ele>
        <time>2021-03-27T14:17:19Z</time>
      </trkpt>
      <trkpt lat="44.92832" lon="4.70973">
        <ele>578.4</ele>
        <time>2021-03-27T14:17:23Z</time>
      </trkpt>
      <trkpt lat="44.92834" lon="4.71005">
        <ele>578.2</ele>
        <time>2021-03-27T14:17:27Z</time>
      </trkpt>
      <trkpt lat="44.92835" lon="4.71039">
        <ele>577.4</ele>
        <time>2021-03-27T14:17:31Z</time>
      </trkpt>
      <trkpt lat="44.92839" lon="4.71072">
        <ele>576.2</ele>
        <time>2021-03-27T14:17:35Z</time>
      </trkpt>
      <trkpt lat="44.92849" lon="4.71106">
        <ele>574.2</ele>
        <time>2021-03-27T14:17:39Z</time>
      </trkpt>
      <trkpt lat="44.92866" lon="4.71136">
        <ele>572.2</ele>
        <time>2021-03-27T14:17:43Z</time>
      </trkpt>
      <trkpt lat="44.92889" lon="4.71158">
        <ele>570.8</ele>
        <time>2021-03-27T14:17:47Z</time>
      </trkpt>
      <trkpt lat="44.92916" lon="4.71168">
        <ele>570.6</ele>
        <time>2021-03-27T14:17:51Z</time>
      </trkpt>
      <trkpt lat="44.92945" lon="4.71171">
        <ele>567.8</ele>
        <time>2021-03-27T14:17:55Z</time>
      </trkpt>
      <trkpt lat="44.92975" lon="4.71172">
        <ele>565.4</ele>
        <time>2021-03-27T14:17:59Z</time>
      </trkpt>
      <trkpt lat="44.93006" lon="4.71173">
        <ele>564.8</ele>
        <time>2021-03-27T14:18:03Z</time>
      </trkpt>
      <trkpt lat="44.93035" lon="4.71176">
        <ele>562.6</ele>
        <time>2021-03-27T14:18:07Z</time>
      </trkpt>
      <trkpt lat="44.93065" lon="4.71193">
        <ele>561</ele>
        <time>2021-03-27T14:18:11Z</time>
      </trkpt>
      <trkpt lat="44.93087" lon="4.71226">
        <ele>559.8</ele>
        <time>2021-03-27T14:18:15Z</time>
      </trkpt>
      <trkpt lat="44.93109" lon="4.7126">
        <ele>556.6</ele>
        <time>2021-03-27T14:18:19Z</time>
      </trkpt>
      <trkpt lat="44.93131" lon="4.71291">
        <ele>555.8</ele>
        <time>2021-03-27T14:18:23Z</time>
      </trkpt>
      <trkpt lat="44.93157" lon="4.71311">
        <ele>554.6</ele>
        <time>2021-03-27T14:18:27Z</time>
      </trkpt>
      <trkpt lat="44.93186" lon="4.71328">
        <ele>552.6</ele>
        <time>2021-03-27T14:18:31Z</time>
      </trkpt>
      <trkpt lat="44.93215" lon="4.71345">
        <ele>550.2</ele>
        <time>2021-03-27T14:18:35Z</time>
      </trkpt>
      <trkpt lat="44.93243" lon="4.71361">
        <ele>550</ele>
        <time>2021-03-27T14:18:39Z</time>
      </trkpt>
      <trkpt lat="44.9327" lon="4.71377">
        <ele>547.8</ele>
        <time>2021-03-27T14:18:43Z</time>
      </trkpt>
      <trkpt lat="44.93299" lon="4.71392">
        <ele>546.4</ele>
        <time>2021-03-27T14:18:47Z</time>
      </trkpt>
      <trkpt lat="44.93327" lon="4.71394">
        <ele>543.6</ele>
        <time>2021-03-27T14:18:51Z</time>
      </trkpt>
      <trkpt lat="44.93354" lon="4.71379">
        <ele>541.4</ele>
        <time>2021-03-27T14:18:55Z</time>
      </trkpt>
      <trkpt lat="44.93386" lon="4.71367">
        <ele>541.6</ele>
        <time>2021-03-27T14:18:59Z</time>
      </trkpt>
      <trkpt lat="44.93416" lon="4.71383">
        <ele>542.4</ele>
        <time>2021-03-27T14:19:03Z</time>
      </trkpt>
      <trkpt lat="44.93434" lon="4.71417">
        <ele>542</ele>
        <time>2021-03-27T14:19:07Z</time>
      </trkpt>
      <trkpt lat="44.93447" lon="4.71455">
        <ele>541.2</ele>
        <time>2021-03-27T14:19:11Z</time>
      </trkpt>
      <trkpt lat="44.93448" lon="4.71494">
        <ele>541</ele>
        <time>2021-03-27T14:19:15Z</time>
      </trkpt>
      <trkpt lat="44.93442" lon="4.71527">
        <ele>540.6</ele>
        <time>2021-03-27T14:19:19Z</time>
      </trkpt>
      <trkpt lat="44.93431" lon="4.71557">
        <ele>538.4</ele>
        <time>2021-03-27T14:19:23Z</time>
      </trkpt>
      <trkpt lat="44.93416" lon="4.71584">
        <ele>538.6</ele>
        <time>2021-03-27T14:19:27Z</time>
      </trkpt>
      <trkpt lat="44.93406" lon="4.71609">
        <ele>537.2</ele>
        <time>2021-03-27T14:19:31Z</time>
      </trkpt>
      <trkpt lat="44.93404" lon="4.7164">
        <ele>536.6</ele>
        <time>2021-03-27T14:19:35Z</time>
      </trkpt>
      <trkpt lat="44.93407" lon="4.71674">
        <ele>536</ele>
        <time>2021-03-27T14:19:39Z</time>
      </trkpt>
      <trkpt lat="44.93408" lon="4.71706">
        <ele>535</ele>
        <time>2021-03-27T14:19:43Z</time>
      </trkpt>
      <trkpt lat="44.93406" lon="4.71743">
        <ele>535</ele>
        <time>2021-03-27T14:19:47Z</time>
      </trkpt>
      <trkpt lat="44.93404" lon="4.71782">
        <ele>534.8</ele>
        <time>2021-03-27T14:19:51Z</time>
      </trkpt>
      <trkpt lat="44.93411" lon="4.71824">
        <ele>533.2</ele>
        <time>2021-03-27T14:19:55Z</time>
      </trkpt>
      <trkpt lat="44.93426" lon="4.7186">
        <ele>531.6</ele>
        <time>2021-03-27T14:19:59Z</time>
      </trkpt>
      <trkpt lat="44.93444" lon="4.71884">
        <ele>531.8</ele>
        <time>2021-03-27T14:20:03Z</time>
      </trkpt>
      <trkpt lat="44.93463" lon="4.71904">
        <ele>531</ele>
        <time>2021-03-27T14:20:07Z</time>
      </trkpt>
      <trkpt lat="44.93483" lon="4.71926">
        <ele>530</ele>
        <time>2021-03-27T14:20:11Z</time>
      </trkpt>
      <trkpt lat="44.93503" lon="4.71948">
        <ele>530.6</ele>
        <time>2021-03-27T14:20:15Z</time>
      </trkpt>
      <trkpt lat="44.93518" lon="4.71975">
        <ele>531</ele>
        <time>2021-03-27T14:20:19Z</time>
      </trkpt>
      <trkpt lat="44.93525" lon="4.72005">
        <ele>532.2</ele>
        <time>2021-03-27T14:20:23Z</time>
      </trkpt>
      <trkpt lat="44.93529" lon="4.72029">
        <ele>532.2</ele>
        <time>2021-03-27T14:20:27Z</time>
      </trkpt>
      <trkpt lat="44.93537" lon="4.72051">
        <ele>532.2</ele>
        <time>2021-03-27T14:20:31Z</time>
      </trkpt>
      <trkpt lat="44.9355" lon="4.72069">
        <ele>533</ele>
        <time>2021-03-27T14:20:35Z</time>
      </trkpt>
      <trkpt lat="44.93563" lon="4.72079">
        <ele>533</ele>
        <time>2021-03-27T14:20:39Z</time>
      </trkpt>
      <trkpt lat="44.93576" lon="4.72084">
        <ele>533</ele>
        <time>2021-03-27T14:20:43Z</time>
      </trkpt>
      <trkpt lat="44.9359" lon="4.72088">
        <ele>534.2</ele>
        <time>2021-03-27T14:20:47Z</time>
      </trkpt>
      <trkpt lat="44.93606" lon="4.72093">
        <ele>534.4</ele>
        <time>2021-03-27T14:20:51Z</time>
      </trkpt>
      <trkpt lat="44.9362" lon="4.72098">
        <ele>535.4</ele>
        <time>2021-03-27T14:20:55Z</time>
      </trkpt>
      <trkpt lat="44.93634" lon="4.72106">
        <ele>535.2</ele>
        <time>2021-03-27T14:20:59Z</time>
      </trkpt>
      <trkpt lat="44.93647" lon="4.72112">
        <ele>535.4</ele>
        <time>2021-03-27T14:21:03Z</time>
      </trkpt>
      <trkpt lat="44.9366" lon="4.72119">
        <ele>536</ele>
        <time>2021-03-27T14:21:07Z</time>
      </trkpt>
      <trkpt lat="44.93673" lon="4.72127">
        <ele>536.6</ele>
        <time>2021-03-27T14:21:11Z</time>
      </trkpt>
      <trkpt lat="44.93686" lon="4.72138">
        <ele>536.8</ele>
        <time>2021-03-27T14:21:15Z</time>
      </trkpt>
      <trkpt lat="44.93697" lon="4.72154">
        <ele>537.4</ele>
        <time>2021-03-27T14:21:19Z</time>
      </trkpt>
      <trkpt lat="44.93706" lon="4.72171">
        <ele>537.6</ele>
        <time>2021-03-27T14:21:23Z</time>
      </trkpt>
      <trkpt lat="44.93716" lon="4.72185">
        <ele>538.2</ele>
        <time>2021-03-27T14:21:27Z</time>
      </trkpt>
      <trkpt lat="44.93727" lon="4.72195">
        <ele>538</ele>
        <time>2021-03-27T14:21:31Z</time>
      </trkpt>
      <trkpt lat="44.93738" lon="4.72201">
        <ele>539.2</ele>
        <time>2021-03-27T14:21:35Z</time>
      </trkpt>
      <trkpt lat="44.93749" lon="4.72206">
        <ele>538.6</ele>
        <time>2021-03-27T14:21:39Z</time>
      </trkpt>
      <trkpt lat="44.93762" lon="4.72208">
        <ele>539.6</ele>
        <time>2021-03-27T14:21:43Z</time>
      </trkpt>
      <trkpt lat="44.93776" lon="4.72211">
        <ele>538.8</ele>
        <time>2021-03-27T14:21:47Z</time>
      </trkpt>
      <trkpt lat="44.9379" lon="4.72215">
        <ele>539</ele>
        <time>2021-03-27T14:21:51Z</time>
      </trkpt>
      <trkpt lat="44.93805" lon="4.72218">
        <ele>539.4</ele>
        <time>2021-03-27T14:21:55Z</time>
      </trkpt>
      <trkpt lat="44.9382" lon="4.7222">
        <ele>540.2</ele>
        <time>2021-03-27T14:21:59Z</time>
      </trkpt>
      <trkpt lat="44.93835" lon="4.72223">
        <ele>540.4</ele>
        <time>2021-03-27T14:22:03Z</time>
      </trkpt>
      <trkpt lat="44.93848" lon="4.7223">
        <ele>540.6</ele>
        <time>2021-03-27T14:22:07Z</time>
      </trkpt>
      <trkpt lat="44.93861" lon="4.72241">
        <ele>541</ele>
        <time>2021-03-27T14:22:11Z</time>
      </trkpt>
      <trkpt lat="44.93872" lon="4.72255">
        <ele>541.2</ele>
        <time>2021-03-27T14:22:15Z</time>
      </trkpt>
      <trkpt lat="44.9388" lon="4.72273">
        <ele>541.8</ele>
        <time>2021-03-27T14:22:19Z</time>
      </trkpt>
      <trkpt lat="44.93886" lon="4.72293">
        <ele>542.6</ele>
        <time>2021-03-27T14:22:23Z</time>
      </trkpt>
      <trkpt lat="44.93889" lon="4.72313">
        <ele>543.4</ele>
        <time>2021-03-27T14:22:27Z</time>
      </trkpt>
      <trkpt lat="44.9389" lon="4.72333">
        <ele>543.2</ele>
        <time>2021-03-27T14:22:31Z</time>
      </trkpt>
      <trkpt lat="44.9389" lon="4.72352">
        <ele>543.6</ele>
        <time>2021-03-27T14:22:35Z</time>
      </trkpt>
      <trkpt lat="44.93891" lon="4.72372">
        <ele>543.2</ele>
        <time>2021-03-27T14:22:39Z</time>
      </trkpt>
      <trkpt lat="44.93892" lon="4.72392">
        <ele>543.8</ele>
        <time>2021-03-27T14:22:43Z</time>
      </trkpt>
      <trkpt lat="44.93893" lon="4.72412">
        <ele>543.8</ele>
        <time>2021-03-27T14:22:47Z</time>
      </trkpt>
      <trkpt lat="44.93894" lon="4.72432">
        <ele>543</ele>
        <time>2021-03-27T14:22:51Z</time>
      </trkpt>
      <trkpt lat="44.93895" lon="4.72451">
        <ele>543.8</ele>
        <time>2021-03-27T14:22:55Z</time>
      </trkpt>
      <trkpt lat="44.93897" lon="4.72468">
        <ele>544.2</ele>
        <time>2021-03-27T14:22:59Z</time>
      </trkpt>
      <trkpt lat="44.93905" lon="4.72481">
        <ele>543.8</ele>
        <time>2021-03-27T14:23:03Z</time>
      </trkpt>
      <trkpt lat="44.93914" lon="4.72486">
        <ele>547.2</ele>
        <time>2021-03-27T14:23:07Z</time>
      </trkpt>
      <trkpt lat="44.93921" lon="4.72488">
        <ele>546.4</ele>
        <time>2021-03-27T14:23:11Z</time>
      </trkpt>
      <trkpt lat="44.93928" lon="4.72493">
        <ele>548.2</ele>
        <time>2021-03-27T14:23:15Z</time>
      </trkpt>
      <trkpt lat="44.93936" lon="4.72496">
        <ele>548</ele>
        <time>2021-03-27T14:23:19Z</time>
      </trkpt>
      <trkpt lat="44.93944" lon="4.72498">
        <ele>548.4</ele>
        <time>2021-03-27T14:23:23Z</time>
      </trkpt>
      <trkpt lat="44.93953" lon="4.72499">
        <ele>548.8</ele>
        <time>2021-03-27T14:23:27Z</time>
      </trkpt>
      <trkpt lat="44.93962" lon="4.72499">
        <ele>548.6</ele>
        <time>2021-03-27T14:23:31Z</time>
      </trkpt>
      <trkpt lat="44.93972" lon="4.725">
        <ele>549.4</ele>
        <time>2021-03-27T14:23:35Z</time>
      </trkpt>
      <trkpt lat="44.93981" lon="4.72499">
        <ele>550.6</ele>
        <time>2021-03-27T14:23:39Z</time>
      </trkpt>
      <trkpt lat="44.93991" lon="4.72499">
        <ele>549.4</ele>
        <time>2021-03-27T14:23:43Z</time>
      </trkpt>
      <trkpt lat="44.94001" lon="4.72498">
        <ele>550.8</ele>
        <time>2021-03-27T14:23:47Z</time>
      </trkpt>
      <trkpt lat="44.94011" lon="4.72498">
        <ele>551.2</ele>
        <time>2021-03-27T14:23:51Z</time>
      </trkpt>
      <trkpt lat="44.94021" lon="4.725">
        <ele>551</ele>
        <time>2021-03-27T14:23:55Z</time>
      </trkpt>
      <trkpt lat="44.94032" lon="4.72501">
        <ele>551.2</ele>
        <time>2021-03-27T14:23:59Z</time>
      </trkpt>
      <trkpt lat="44.94042" lon="4.72503">
        <ele>549.2</ele>
        <time>2021-03-27T14:24:03Z</time>
      </trkpt>
      <trkpt lat="44.94052" lon="4.72505">
        <ele>551</ele>
        <time>2021-03-27T14:24:07Z</time>
      </trkpt>
      <trkpt lat="44.94063" lon="4.72507">
        <ele>552</ele>
        <time>2021-03-27T14:24:11Z</time>
      </trkpt>
      <trkpt lat="44.94074" lon="4.72509">
        <ele>551.6</ele>
        <time>2021-03-27T14:24:15Z</time>
      </trkpt>
      <trkpt lat="44.94085" lon="4.7251">
        <ele>550.8</ele>
        <time>2021-03-27T14:24:19Z</time>
      </trkpt>
      <trkpt lat="44.94097" lon="4.72513">
        <ele>551</ele>
        <time>2021-03-27T14:24:23Z</time>
      </trkpt>
      <trkpt lat="44.94111" lon="4.72514">
        <ele>550.6</ele>
        <time>2021-03-27T14:24:27Z</time>
      </trkpt>
      <trkpt lat="44.94127" lon="4.72512">
        <ele>550</ele>
        <time>2021-03-27T14:24:31Z</time>
      </trkpt>
      <trkpt lat="44.94144" lon="4.72509">
        <ele>549.2</ele>
        <time>2021-03-27T14:24:35Z</time>
      </trkpt>
      <trkpt lat="44.94162" lon="4.72507">
        <ele>548</ele>
        <time>2021-03-27T14:24:39Z</time>
      </trkpt>
      <trkpt lat="44.94181" lon="4.72503">
        <ele>546.8</ele>
        <time>2021-03-27T14:24:43Z</time>
      </trkpt>
      <trkpt lat="44.942" lon="4.72499">
        <ele>546.6</ele>
        <time>2021-03-27T14:24:47Z</time>
      </trkpt>
      <trkpt lat="44.94219" lon="4.72495">
        <ele>545</ele>
        <time>2021-03-27T14:24:51Z</time>
      </trkpt>
      <trkpt lat="44.94242" lon="4.72496">
        <ele>542.8</ele>
        <time>2021-03-27T14:24:55Z</time>
      </trkpt>
      <trkpt lat="44.94265" lon="4.72507">
        <ele>539.4</ele>
        <time>2021-03-27T14:24:59Z</time>
      </trkpt>
      <trkpt lat="44.9429" lon="4.72493">
        <ele>536.6</ele>
        <time>2021-03-27T14:25:03Z</time>
      </trkpt>
      <trkpt lat="44.94313" lon="4.72486">
        <ele>534.2</ele>
        <time>2021-03-27T14:25:07Z</time>
      </trkpt>
      <trkpt lat="44.94336" lon="4.72498">
        <ele>536</ele>
        <time>2021-03-27T14:25:11Z</time>
      </trkpt>
      <trkpt lat="44.94354" lon="4.72516">
        <ele>535.6</ele>
        <time>2021-03-27T14:25:15Z</time>
      </trkpt>
      <trkpt lat="44.94364" lon="4.72541">
        <ele>538</ele>
        <time>2021-03-27T14:25:19Z</time>
      </trkpt>
      <trkpt lat="44.94365" lon="4.72566">
        <ele>537.8</ele>
        <time>2021-03-27T14:25:23Z</time>
      </trkpt>
      <trkpt lat="44.94362" lon="4.72588">
        <ele>539.6</ele>
        <time>2021-03-27T14:25:27Z</time>
      </trkpt>
      <trkpt lat="44.94358" lon="4.72609">
        <ele>541</ele>
        <time>2021-03-27T14:25:31Z</time>
      </trkpt>
      <trkpt lat="44.94355" lon="4.7263">
        <ele>541.6</ele>
        <time>2021-03-27T14:25:35Z</time>
      </trkpt>
      <trkpt lat="44.94352" lon="4.7265">
        <ele>542</ele>
        <time>2021-03-27T14:25:39Z</time>
      </trkpt>
      <trkpt lat="44.94351" lon="4.7267">
        <ele>541.6</ele>
        <time>2021-03-27T14:25:43Z</time>
      </trkpt>
      <trkpt lat="44.94348" lon="4.72689">
        <ele>541.8</ele>
        <time>2021-03-27T14:25:47Z</time>
      </trkpt>
      <trkpt lat="44.94346" lon="4.72709">
        <ele>542.4</ele>
        <time>2021-03-27T14:25:51Z</time>
      </trkpt>
      <trkpt lat="44.94346" lon="4.72728">
        <ele>543.4</ele>
        <time>2021-03-27T14:25:55Z</time>
      </trkpt>
      <trkpt lat="44.94349" lon="4.72746">
        <ele>544</ele>
        <time>2021-03-27T14:25:59Z</time>
      </trkpt>
      <trkpt lat="44.94355" lon="4.72764">
        <ele>543.6</ele>
        <time>2021-03-27T14:26:03Z</time>
      </trkpt>
      <trkpt lat="44.94363" lon="4.72781">
        <ele>543.8</ele>
        <time>2021-03-27T14:26:07Z</time>
      </trkpt>
      <trkpt lat="44.94372" lon="4.72797">
        <ele>544</ele>
        <time>2021-03-27T14:26:11Z</time>
      </trkpt>
      <trkpt lat="44.94379" lon="4.72813">
        <ele>545.4</ele>
        <time>2021-03-27T14:26:15Z</time>
      </trkpt>
      <trkpt lat="44.94386" lon="4.72828">
        <ele>545</ele>
        <time>2021-03-27T14:26:19Z</time>
      </trkpt>
      <trkpt lat="44.94392" lon="4.72841">
        <ele>545.4</ele>
        <time>2021-03-27T14:26:23Z</time>
      </trkpt>
      <trkpt lat="44.94398" lon="4.72854">
        <ele>546.2</ele>
        <time>2021-03-27T14:26:27Z</time>
      </trkpt>
      <trkpt lat="44.94401" lon="4.72861">
        <ele>546.8</ele>
        <time>2021-03-27T14:26:31Z</time>
      </trkpt>
      <trkpt lat="44.94405" lon="4.72873">
        <ele>545.8</ele>
        <time>2021-03-27T14:26:35Z</time>
      </trkpt>
      <trkpt lat="44.94415" lon="4.72884">
        <ele>546</ele>
        <time>2021-03-27T14:26:39Z</time>
      </trkpt>
      <trkpt lat="44.94429" lon="4.72893">
        <ele>543.6</ele>
        <time>2021-03-27T14:26:43Z</time>
      </trkpt>
      <trkpt lat="44.94441" lon="4.72916">
        <ele>541.2</ele>
        <time>2021-03-27T14:26:47Z</time>
      </trkpt>
      <trkpt lat="44.94456" lon="4.7294">
        <ele>540.8</ele>
        <time>2021-03-27T14:26:51Z</time>
      </trkpt>
      <trkpt lat="44.9447" lon="4.72966">
        <ele>540.4</ele>
        <time>2021-03-27T14:26:55Z</time>
      </trkpt>
      <trkpt lat="44.94464" lon="4.72994">
        <ele>539.8</ele>
        <time>2021-03-27T14:26:59Z</time>
      </trkpt>
      <trkpt lat="44.94456" lon="4.73028">
        <ele>536.6</ele>
        <time>2021-03-27T14:27:03Z</time>
      </trkpt>
      <trkpt lat="44.9444" lon="4.73038">
        <ele>537.8</ele>
        <time>2021-03-27T14:27:07Z</time>
      </trkpt>
      <trkpt lat="44.94429" lon="4.73016">
        <ele>539</ele>
        <time>2021-03-27T14:27:11Z</time>
      </trkpt>
      <trkpt lat="44.94425" lon="4.73001">
        <ele>538.8</ele>
        <time>2021-03-27T14:27:15Z</time>
      </trkpt>
      <trkpt lat="44.94418" lon="4.72988">
        <ele>539.4</ele>
        <time>2021-03-27T14:27:19Z</time>
      </trkpt>
      <trkpt lat="44.94411" lon="4.72979">
        <ele>538.8</ele>
        <time>2021-03-27T14:27:23Z</time>
      </trkpt>
      <trkpt lat="44.94411" lon="4.72979">
        <ele>539.8</ele>
        <time>2021-03-27T14:27:33Z</time>
      </trkpt>
      <trkpt lat="44.94411" lon="4.72979">
        <ele>539</ele>
        <time>2021-03-27T14:27:37Z</time>
      </trkpt>
    </trkseg>
  </trk>
</gpx>